# Wetter Temperatur Luftdruck Luftfeuchtigkeit Sichtweite Windgeschwindigkeit Windrichtung Zeit
1 Haze 30 1011 35 4000 2.1 330 19:43 02.04.2020
2 Haze 29 1011 35 4000 1 20 19:21 02.04.2020
3 Haze 31 1011 31 4000 2.1 280 19:21 02.04.2020
4 Haze 31 1011 31 4000 2.1 280 18:58 02.04.2020
5 Haze 31 1011 33 4000 1 310 18:39 02.04.2020
6 Haze 29 1010 39 4000 2.1 140 18:20 02.04.2020
7 Haze 29 1010 39 4000 2.1 140 17:55 02.04.2020
8 Haze 30 1010 30 4000 1.76 310 17:37 02.04.2020
9 Haze 30 1010 30 4000 1.76 310 17:18 02.04.2020
10 Haze 31 1009 31 4000 1.76 310 16:55 02.04.2020
11 Haze 32 1009 27 4000 1.76 310 16:36 02.04.2020
12 Haze 32 1009 27 4000 1.76 310 16:36 02.04.2020
13 Haze 32 1009 27 4000 1.76 310 16:18 02.04.2020
14 Haze 32 1009 29 4000 1.76 310 15:43 02.04.2020
15 Haze 32 1009 29 4000 1.76 310 15:43 02.04.2020
16 Haze 33 1008 26 5000 2.9 263 15:20 02.04.2020
17 Haze 34 1008 28 5000 2.9 263 14:58 02.04.2020
18 Haze 34 1008 28 5000 2.9 263 14:58 02.04.2020
19 Haze 34 1008 28 5000 2.9 263 14:39 02.04.2020
20 Haze 37 1008 18 5000 1 110 14:19 02.04.2020
21 Haze 37 1008 18 5000 1 110 13:55 02.04.2020
22 Haze 37 1008 17 5000 3.87 274 13:37 02.04.2020
23 Haze 37 1008 17 5000 3.87 274 13:19 02.04.2020
24 Haze 37 1008 16 5000 1.5 150 12:46 02.04.2020
25 Haze 37 1008 16 5000 1.5 290 12:20 02.04.2020
26 Haze 37 1008 16 5000 1.5 290 12:20 02.04.2020
27 Haze 37 1008 17 5000 1 260 11:58 02.04.2020
28 Haze 37 1009 16 5000 2.1 340 11:39 02.04.2020
29 Haze 37 1008 17 5000 1 260 11:39 02.04.2020
30 Haze 37 1008 17 5000 1 260 11:39 02.04.2020
31 Haze 37 1009 16 5000 2.1 340 11:21 02.04.2020
32 Haze 37 1009 16 5000 3.85 256 10:57 02.04.2020
33 Haze 37 1010 16 4000 2.1 350 10:39 02.04.2020
34 Haze 37 1010 16 4000 2.1 350 10:21 02.04.2020
35 Haze 36 1011 18 4000 1 60 09:59 02.04.2020
36 Haze 36 1011 18 4000 1 60 09:41 02.04.2020
37 Haze 36 1011 18 4000 1 60 09:21 02.04.2020
38 Haze 34 1012 21 4000 1 110 08:48 02.04.2020
39 Haze 34 1012 21 4000 1 110 08:28 02.04.2020
40 Haze 33 1012 22 4000 1.5 50 07:59 02.04.2020
41 Haze 33 1012 22 4000 1.5 50 07:40 02.04.2020
42 Haze 33 1012 22 4000 1.5 50 07:19 02.04.2020
43 Haze 31 1013 29 4000 1 60 06:25 02.04.2020
44 Haze 28 1012 39 4000 4.31 39 05:46 02.04.2020
45 Haze 25 1011 41 4000 4.31 39 04:58 02.04.2020
46 Haze 24 1009 38 4000 1 300 02:21 02.04.2020
47 Haze 24 1008 44 4000 3.12 351 01:27 02.04.2020
48 Haze 23 1008 46 4000 3.12 351 00:41 02.04.2020
49 Haze 24 1009 38 4000 1 290 00:20 02.04.2020
50 Haze 24 1009 38 4000 1 290 23:39 01.04.2020
51 Haze 25 1009 38 4000 2.28 337 23:19 01.04.2020
52 Haze 25 1009 38 4000 1 310 22:57 01.04.2020
53 Haze 25 1009 38 4000 1 310 22:57 01.04.2020
54 Haze 25 1009 38 4000 1 310 22:38 01.04.2020
55 Haze 25 1010 38 4000 2.1 310 22:19 01.04.2020
56 Haze 25 1010 38 4000 2.1 310 22:19 01.04.2020
57 Haze 25 1010 50 4000 1.5 300 21:41 01.04.2020
58 Haze 25 1010 50 4000 1.5 300 21:19 01.04.2020
59 Haze 25 1010 50 4000 1.5 300 20:56 01.04.2020
60 Haze 25 1010 50 4000 1.5 300 20:38 01.04.2020
61 Haze 25 1010 53 4000 2.8 321 20:19 01.04.2020
62 Haze 25 1011 53 4000 1 250 19:58 01.04.2020
63 Haze 25 1011 57 4000 1 190 19:38 01.04.2020
64 Haze 25 1011 57 4000 1 190 19:19 01.04.2020
65 Haze 27 1011 44 4000 2.8 321 18:42 01.04.2020
66 Haze 29 1011 39 4000 1.5 300 18:23 01.04.2020
67 Haze 29 1011 42 4000 3.69 327 17:57 01.04.2020
68 Haze 29 1010 37 4000 3.69 327 17:37 01.04.2020
69 Haze 29 1010 37 4000 3.69 327 17:19 01.04.2020
70 Haze 29 1010 35 4000 3.69 327 16:57 01.04.2020
71 Haze 30 1010 33 4000 1 200 16:39 01.04.2020
72 Haze 30 1010 33 4000 1 200 16:20 01.04.2020
73 Haze 32 1009 27 4000 0.5 240 15:56 01.04.2020
74 Haze 34 1009 24 5000 2.1 280 15:37 01.04.2020
75 Haze 34 1009 24 5000 2.1 280 15:18 01.04.2020
76 Haze 36 1009 20 5000 2.6 270 14:40 01.04.2020
77 Haze 37 1009 19 5000 3.6 280 14:22 01.04.2020
78 Haze 37 1009 19 5000 3.1 270 13:59 01.04.2020
79 Clouds 37 1009 19 6000 2.1 270 13:39 01.04.2020
80 Clouds 37 1009 19 6000 2.1 270 13:20 01.04.2020
81 Clouds 37 1009 19 6000 1 240 12:58 01.04.2020
82 Clouds 36 1009 23 6000 1.5 170 12:40 01.04.2020
83 Clouds 36 1009 23 6000 1.5 170 12:21 01.04.2020
84 Clouds 37 1009 22 6000 1.5 120 11:56 01.04.2020
85 Clouds 37 1010 25 6000 3.1 170 11:37 01.04.2020
86 Clouds 37 1010 25 6000 3.1 170 11:18 01.04.2020
87 Clouds 37 1010 25 6000 3.1 170 10:39 01.04.2020
88 Clouds 36 1011 25 6000 3.1 170 10:21 01.04.2020
89 Clear 36 1011 25 6000 1.5 270 09:59 01.04.2020
90 Clear 36 1011 25 6000 1.5 270 09:59 01.04.2020
91 Clear 36 1011 25 6000 1.5 270 09:40 01.04.2020
92 Clear 35 1012 26 6000 1.5 220 09:20 01.04.2020
93 Clear 34 1013 30 6000 2.1 220 08:44 01.04.2020
94 Clear 34 1013 30 6000 2.1 220 08:19 01.04.2020
95 Clear 34 1013 28 6000 3.1 190 07:56 01.04.2020
96 Clear 33 1014 33 6000 2.1 240 07:38 01.04.2020
97 Clear 33 1014 33 6000 2.1 240 07:18 01.04.2020
98 Clear 31 1014 38 6000 2.1 180 06:41 01.04.2020
99 Clear 31 1014 38 6000 2.1 180 06:20 01.04.2020
100 Clear 29 1014 42 6000 1 240 05:24 01.04.2020
101 Haze 21 1012 77 4000 2.12 307 03:39 01.04.2020
102 Haze 22 1012 73 4000 0.82 224 02:59 01.04.2020
103 Haze 22 1012 73 4000 0.82 224 02:31 01.04.2020
104 Haze 21 1011 77 4000 2.1 200 01:49 01.04.2020
105 Haze 21 1011 77 4000 2.1 200 01:24 01.04.2020
106 Haze 23 1011 69 4000 1.15 275 00:47 01.04.2020
107 Haze 23 1011 69 4000 1.15 275 00:21 01.04.2020
108 Haze 25 1011 61 4000 1.11 227 23:54 31.03.2020
109 Haze 25 1011 61 4000 1.11 227 23:36 31.03.2020
110 Haze 25 1011 61 4000 1.11 227 23:18 31.03.2020
111 Haze 26 1011 57 4000 1 20 22:40 31.03.2020
112 Haze 26 1011 57 4000 1 20 22:40 31.03.2020
113 Haze 26 1011 57 4000 1 20 22:20 31.03.2020
114 Haze 26 1011 57 4000 1 20 21:58 31.03.2020
115 Haze 27 1012 51 4000 1.5 320 21:39 31.03.2020
116 Haze 27 1012 51 4000 1.5 320 21:21 31.03.2020
117 Haze 27 1013 47 4000 1.5 30 20:56 31.03.2020
118 Haze 27 1013 47 4000 1.5 30 20:37 31.03.2020
119 Haze 27 1013 47 4000 1.5 30 20:18 31.03.2020
120 Haze 27 1013 51 4000 1 200 19:55 31.03.2020
121 Haze 27 1013 51 4000 1 200 19:37 31.03.2020
122 Haze 27 1012 54 4000 1 80 19:18 31.03.2020
123 Haze 27 1012 54 4000 1 80 18:41 31.03.2020
124 Haze 29 1012 42 4000 1 20 18:20 31.03.2020
125 Haze 29 1012 42 4000 1 20 17:56 31.03.2020
126 Haze 29 1012 42 4000 1 20 17:56 31.03.2020
127 Haze 29 1012 42 4000 1 20 17:56 31.03.2020
128 Haze 29 1012 42 4000 1 20 17:38 31.03.2020
129 Haze 29 1012 42 4000 1 20 17:20 31.03.2020
130 Haze 30 1012 37 4000 2.01 314 16:42 31.03.2020
131 Haze 31 1011 33 4000 2.6 50 16:20 31.03.2020
132 Haze 31 1011 31 5000 1 50 15:59 31.03.2020
133 Haze 31 1011 31 5000 1 50 15:41 31.03.2020
134 Haze 33 1011 29 5000 1 290 15:23 31.03.2020
135 Haze 35 1010 23 5000 3.1 320 14:58 31.03.2020
136 Haze 35 1010 23 5000 3.1 320 14:40 31.03.2020
137 Haze 35 1010 30 5000 2.1 180 14:21 31.03.2020
138 Clouds 35 1009 30 6000 3.6 190 13:44 31.03.2020
139 Clouds 36 1009 28 6000 2.1 210 13:20 31.03.2020
140 Clouds 36 1009 28 6000 3.1 180 12:59 31.03.2020
141 Clouds 36 1010 28 6000 4.1 250 12:40 31.03.2020
142 Clouds 36 1010 28 6000 4.1 250 12:19 31.03.2020
143 Clouds 36 1010 28 6000 4.1 250 12:19 31.03.2020
144 Clouds 37 1010 29 6000 4.1 230 11:41 31.03.2020
145 Clouds 36 1011 30 6000 2.6 190 11:21 31.03.2020
146 Clouds 36 1011 30 6000 2.6 210 10:59 31.03.2020
147 Clouds 36 1012 32 6000 2.6 180 10:41 31.03.2020
148 Clouds 36 1012 32 6000 2.6 180 10:22 31.03.2020
149 Clouds 34 1013 36 6000 1 180 09:59 31.03.2020
150 Clouds 34 1013 36 6000 1 180 09:41 31.03.2020
151 Clouds 34 1013 36 6000 1 180 09:22 31.03.2020
152 Clouds 33 1014 36 6000 2.6 200 08:57 31.03.2020
153 Clouds 33 1014 36 6000 2.6 200 08:38 31.03.2020
154 Clouds 33 1014 36 6000 2.6 200 08:19 31.03.2020
155 Clouds 31 1015 38 6000 1 180 07:56 31.03.2020
156 Clouds 31 1015 38 6000 1 180 07:38 31.03.2020
157 Clouds 31 1015 38 6000 1 180 07:19 31.03.2020
158 Clouds 28 1015 48 6000 1 310 06:46 31.03.2020
159 Clouds 28 1015 48 6000 1 310 06:20 31.03.2020
160 Clouds 32 1013 27 0 2.22 285 05:39 31.03.2020
161 Haze 23 1013 69 4000 2.1 290 03:34 31.03.2020
162 Haze 24 1012 60 3000 3.1 210 02:18 31.03.2020
163 Haze 23 1012 69 3000 3.1 270 01:45 31.03.2020
164 Haze 24 1012 64 3000 4.1 220 00:47 31.03.2020
165 Haze 24 1012 64 3000 4.1 220 00:25 31.03.2020
166 Thunderstorm 24 1013 73 3000 7.7 220 23:42 30.03.2020
167 Thunderstorm 24 1013 73 3000 7.7 220 23:42 30.03.2020
168 Thunderstorm 24 1013 73 3000 7.7 220 23:21 30.03.2020
169 Haze 24 1012 78 3000 1 270 22:59 30.03.2020
170 Haze 24 1012 78 3000 1 270 22:41 30.03.2020
171 Haze 24 1012 78 3000 1 270 22:22 30.03.2020
172 Haze 26 1012 65 3000 4.14 255 21:58 30.03.2020
173 Haze 26 1012 65 3000 4.14 255 21:39 30.03.2020
174 Haze 26 1012 65 3000 4.14 255 21:21 30.03.2020
175 Haze 26 1012 61 3000 1.02 292 20:59 30.03.2020
176 Haze 26 1012 61 3000 1.02 292 20:39 30.03.2020
177 Haze 26 1012 61 3000 1.02 292 20:21 30.03.2020
178 Haze 27 1013 65 3000 1.5 300 19:58 30.03.2020
179 Haze 27 1013 65 3000 1.5 300 19:39 30.03.2020
180 Haze 27 1013 65 3000 1.5 300 19:21 30.03.2020
181 Haze 26 1013 65 4000 1.02 292 18:56 30.03.2020
182 Haze 26 1013 65 4000 1.02 292 18:36 30.03.2020
183 Haze 26 1013 65 4000 1.14 313 18:18 30.03.2020
184 Haze 28 1012 61 4000 1.14 313 17:55 30.03.2020
185 Haze 28 1012 61 4000 1.14 313 17:36 30.03.2020
186 Haze 28 1012 61 4000 1.14 313 17:18 30.03.2020
187 Haze 30 1011 48 4000 1 180 16:41 30.03.2020
188 Haze 30 1011 48 4000 1 180 16:21 30.03.2020
189 Haze 30 1011 48 4000 1 180 16:21 30.03.2020
190 Haze 31 1011 45 5000 1 190 15:56 30.03.2020
191 Haze 31 1011 45 5000 1 190 15:38 30.03.2020
192 Haze 31 1011 45 5000 1 190 15:20 30.03.2020
193 Clouds 34 1010 32 6000 2.1 180 14:58 30.03.2020
194 Clouds 34 1010 32 6000 2.1 180 14:38 30.03.2020
195 Clouds 34 1010 32 6000 2.1 180 14:19 30.03.2020
196 Clouds 34 1010 30 7000 3.1 180 13:57 30.03.2020
197 Clouds 34 1010 30 7000 3.1 180 13:38 30.03.2020
198 Clouds 34 1010 30 7000 3.1 180 13:19 30.03.2020
199 Clouds 35 1011 26 7000 3.1 180 12:45 30.03.2020
200 Clouds 35 1011 26 7000 3.1 180 12:21 30.03.2020
201 Clouds 35 1011 26 7000 3.1 180 12:21 30.03.2020
202 Clouds 34 1012 34 7000 1 190 11:58 30.03.2020
203 Clouds 34 1012 34 7000 1 190 11:58 30.03.2020
204 Clouds 34 1012 34 7000 1 190 11:40 30.03.2020
205 Clouds 34 1012 34 7000 1 190 11:21 30.03.2020
206 Haze 32 1013 33 5000 2.1 240 10:55 30.03.2020
207 Haze 32 1013 33 5000 2.1 240 10:37 30.03.2020
208 Haze 32 1013 33 5000 2.1 240 10:18 30.03.2020
209 Haze 31 1013 40 5000 2.1 220 09:40 30.03.2020
210 Haze 30 1014 48 5000 3.1 112 09:19 30.03.2020
211 Haze 28 1015 54 4000 3.1 112 08:54 30.03.2020
212 Haze 27 1015 54 3000 1 120 08:36 30.03.2020
213 Haze 27 1015 54 3000 1 120 08:18 30.03.2020
214 Haze 25 1015 73 3000 1 40 07:41 30.03.2020
215 Haze 25 1015 73 3000 1 40 07:20 30.03.2020
216 Haze 23 1015 78 3000 3.1 112 06:39 30.03.2020
217 Haze 23 1015 78 3000 3.15 80 06:19 30.03.2020
218 Haze 22 1016 83 3000 3.15 80 05:39 30.03.2020
219 Haze 21 1015 88 3000 3.15 80 04:28 30.03.2020
220 Rain 22 1015 83 3000 3.15 80 03:53 30.03.2020
221 Haze 23 1012 73 3000 3.1 360 02:44 30.03.2020
222 Mist 22 1013 78 3000 3.1 320 01:54 30.03.2020
223 Thunderstorm 23 1013 73 3000 4.1 250 00:57 30.03.2020
224 Thunderstorm 23 1013 73 3000 4.1 250 00:26 30.03.2020
225 Thunderstorm 23 1013 78 3000 1 300 23:55 29.03.2020
226 Haze 22 1012 88 3000 1 300 23:36 29.03.2020
227 Haze 22 1012 88 3000 1 300 23:18 29.03.2020
228 Haze 22 1012 78 3000 1 30 22:40 29.03.2020
229 Haze 23 1012 73 3000 1 40 22:20 29.03.2020
230 Haze 23 1012 78 3000 1.5 10 21:59 29.03.2020
231 Haze 23 1012 78 3000 1.5 10 21:37 29.03.2020
232 Haze 22 1012 83 3000 1 120 21:19 29.03.2020
233 Haze 22 1013 88 3000 2.1 150 20:55 29.03.2020
234 Haze 22 1013 88 3000 2.1 10 20:37 29.03.2020
235 Haze 22 1013 88 3000 2.1 10 20:18 29.03.2020
236 Haze 22 1013 88 3000 2.1 10 20:18 29.03.2020
237 Haze 22 1013 88 3000 2.1 10 20:18 29.03.2020
238 Haze 22 1013 94 3000 1 150 19:55 29.03.2020
239 Haze 22 1014 88 3000 1 360 19:37 29.03.2020
240 Haze 22 1013 88 3000 2.1 100 19:19 29.03.2020
241 Haze 22 1013 88 3000 2.1 100 18:55 29.03.2020
242 Haze 22 1013 88 3000 2.1 100 18:55 29.03.2020
243 Thunderstorm 21 1013 94 2000 2.1 90 18:37 29.03.2020
244 Thunderstorm 21 1014 94 1200 2.1 90 18:18 29.03.2020
245 Thunderstorm 21 1014 94 1200 2.1 90 17:54 29.03.2020
246 Thunderstorm 21 1015 94 1200 3.1 270 17:36 29.03.2020
247 Thunderstorm 21 1015 94 1200 3.1 270 17:18 29.03.2020
248 Thunderstorm 21 1015 94 1200 3.1 270 17:18 29.03.2020
249 Thunderstorm 24 1014 73 2000 2.1 320 16:55 29.03.2020
250 Thunderstorm 25 1011 61 3000 3.1 340 16:36 29.03.2020
251 Thunderstorm 25 1011 61 3000 3.1 340 16:36 29.03.2020
252 Thunderstorm 25 1011 61 3000 3.1 340 16:36 29.03.2020
253 Thunderstorm 25 1011 61 3000 3.1 340 16:36 29.03.2020
254 Thunderstorm 25 1011 61 3000 3.1 340 16:36 29.03.2020
255 Thunderstorm 25 1011 61 3000 3.1 340 16:18 29.03.2020
256 Haze 26 1010 57 3000 4.6 360 15:40 29.03.2020
257 Haze 26 1010 57 3000 4.6 360 15:22 29.03.2020
258 Haze 26 1010 57 3000 4.1 30 14:57 29.03.2020
259 Thunderstorm 25 1010 61 2500 7.7 10 14:38 29.03.2020
260 Thunderstorm 25 1010 61 2500 7.7 10 14:19 29.03.2020
261 Thunderstorm 26 1010 57 2500 7.7 320 13:56 29.03.2020
262 Haze 35 1009 32 5000 1.5 190 13:37 29.03.2020
263 Haze 36 1009 28 5000 1.5 190 13:19 29.03.2020
264 Haze 35 1009 30 5000 1.5 150 12:54 29.03.2020
265 Haze 35 1009 30 5000 1.5 150 12:36 29.03.2020
266 Haze 35 1010 32 5000 3.1 150 12:18 29.03.2020
267 Haze 35 1010 32 5000 1 220 11:39 29.03.2020
268 Haze 35 1010 32 5000 1 220 11:21 29.03.2020
269 Haze 35 1011 30 5000 1.5 50 10:55 29.03.2020
270 Clouds 35 1011 30 6000 1.5 120 10:37 29.03.2020
271 Clouds 35 1011 30 6000 1.5 120 10:18 29.03.2020
272 Clouds 34 1013 32 6000 1 60 09:39 29.03.2020
273 Clouds 34 1013 32 6000 1 60 09:19 29.03.2020
274 Clouds 33 1014 31 6000 1 60 08:52 29.03.2020
275 Clouds 33 1014 31 6000 1 60 08:28 29.03.2020
276 Clouds 32 1014 33 6000 1.5 50 07:56 29.03.2020
277 Clouds 32 1014 33 6000 1.5 50 07:38 29.03.2020
278 Clouds 31 1014 35 6000 1.5 20 07:19 29.03.2020
279 Haze 25 1013 65 3000 2.1 10 04:59 29.03.2020
280 Haze 24 1012 73 3000 1 30 03:42 29.03.2020
281 Haze 24 1012 73 3000 1 30 03:24 29.03.2020
282 Clear 25 1009 34 0 2.31 35 01:50 29.03.2020
283 Haze 25 1011 78 3000 1.5 300 01:23 29.03.2020
284 Haze 25 1011 78 3000 1.5 300 00:53 29.03.2020
285 Haze 25 1011 78 3000 1.5 300 00:29 29.03.2020
286 Haze 25 1010 78 3000 1.84 39 23:42 28.03.2020
287 Haze 25 1010 78 3000 1.84 39 23:23 28.03.2020
288 Haze 23 1011 88 3000 2.92 16 22:57 28.03.2020
289 Haze 23 1011 88 3000 2.92 16 22:37 28.03.2020
290 Haze 23 1011 88 3000 2.92 16 22:18 28.03.2020
291 Haze 24 1012 83 3000 2.92 16 21:41 28.03.2020
292 Haze 24 1012 83 3000 2.92 16 21:23 28.03.2020
293 Haze 24 1012 88 3000 2.92 16 20:58 28.03.2020
294 Haze 24 1012 88 3000 2.92 16 20:39 28.03.2020
295 Haze 24 1012 88 3000 2.61 14 20:21 28.03.2020
296 Haze 26 1012 74 3000 3.45 1 19:56 28.03.2020
297 Haze 26 1012 74 3000 3.45 1 19:37 28.03.2020
298 Haze 26 1012 74 3000 3.45 1 19:37 28.03.2020
299 Haze 26 1012 74 3000 3.45 1 19:18 28.03.2020
300 Haze 27 1013 69 3000 3.45 1 18:47 28.03.2020
301 Haze 27 1013 69 3000 3.45 1 18:22 28.03.2020
302 Rain 28 1011 33 0 3.45 1 17:58 28.03.2020
303 Rain 28 1011 33 0 3.45 1 17:38 28.03.2020
304 Haze 28 1012 65 3000 3.35 4 17:19 28.03.2020
305 Haze 28 1012 65 3000 3.35 4 16:42 28.03.2020
306 Haze 28 1012 65 3000 3.35 4 16:20 28.03.2020
307 Haze 28 1011 69 3000 3.35 4 15:56 28.03.2020
308 Haze 28 1011 69 3000 3.35 4 15:37 28.03.2020
309 Haze 28 1011 69 3000 3.35 4 15:18 28.03.2020
310 Haze 31 1011 48 3000 3.35 4 14:42 28.03.2020
311 Haze 31 1011 48 3000 3.35 4 14:22 28.03.2020
312 Thunderstorm 33 1010 43 4000 2.57 2 13:56 28.03.2020
313 Thunderstorm 33 1010 43 4000 2.57 2 13:37 28.03.2020
314 Thunderstorm 33 1010 43 4000 2.57 2 13:18 28.03.2020
315 Thunderstorm 33 1010 43 4000 2.57 2 13:18 28.03.2020
316 Haze 33 1010 41 5000 1.5 350 12:38 28.03.2020
317 Haze 33 1010 41 5000 1.5 350 12:19 28.03.2020
318 Haze 34 1010 38 5000 1.5 350 11:42 28.03.2020
319 Haze 34 1011 38 5000 2.1 360 11:21 28.03.2020
320 Haze 34 1011 38 5000 2.1 360 10:44 28.03.2020
321 Haze 34 1011 38 5000 2.1 360 10:25 28.03.2020
322 Haze 34 1012 38 5000 1.5 360 09:59 28.03.2020
323 Haze 34 1012 38 5000 1.5 360 09:40 28.03.2020
324 Haze 33 1012 38 5000 2.1 360 09:21 28.03.2020
325 Haze 33 1013 41 5000 1.5 80 08:43 28.03.2020
326 Haze 33 1014 41 5000 2.1 80 08:24 28.03.2020
327 Haze 32 1014 43 5000 2.1 80 07:58 28.03.2020
328 Haze 32 1015 43 5000 2.1 10 07:40 28.03.2020
329 Haze 31 1015 45 5000 2.6 30 06:53 28.03.2020
330 Haze 31 1015 45 5000 2.6 50 06:26 28.03.2020
331 Haze 29 1016 51 5000 2.6 40 05:30 28.03.2020
332 Haze 29 1016 51 5000 2.6 40 05:30 28.03.2020
333 Haze 28 1016 54 4000 3.1 20 04:58 28.03.2020
334 Haze 27 1015 57 4000 2.1 30 04:39 28.03.2020
335 Haze 24 1014 69 4000 2.6 350 02:51 28.03.2020
336 Haze 23 1014 73 4000 2.79 36 01:48 28.03.2020
337 Haze 24 1013 69 4000 2.25 33 01:23 28.03.2020
338 Haze 24 1013 69 4000 1 10 00:51 28.03.2020
339 Haze 24 1013 69 4000 2.25 33 00:25 28.03.2020
340 Haze 25 1013 65 4000 2.1 350 23:44 27.03.2020
341 Haze 25 1013 65 4000 2.1 350 23:26 27.03.2020
342 Haze 25 1013 61 4000 2.1 10 22:57 27.03.2020
343 Haze 25 1013 61 4000 1.5 10 22:39 27.03.2020
344 Haze 25 1013 61 4000 1.5 10 22:20 27.03.2020
345 Haze 26 1013 57 4000 1.5 40 21:58 27.03.2020
346 Haze 26 1013 57 4000 1.5 40 21:40 27.03.2020
347 Haze 26 1013 57 4000 1.5 40 21:22 27.03.2020
348 Haze 26 1013 57 4000 1.5 40 21:22 27.03.2020
349 Haze 26 1014 61 4000 2.6 50 20:56 27.03.2020
350 Haze 26 1014 61 4000 2.6 50 20:37 27.03.2020
351 Haze 26 1014 61 4000 2.6 50 20:19 27.03.2020
352 Haze 26 1014 61 4000 2.6 50 19:43 27.03.2020
353 Haze 27 1014 61 4000 1 30 19:23 27.03.2020
354 Haze 28 1015 58 4000 1 20 18:57 27.03.2020
355 Haze 28 1014 58 4000 2.6 20 18:39 27.03.2020
356 Haze 28 1014 58 4000 2.6 20 18:20 27.03.2020
357 Haze 29 1014 54 4000 3.1 10 17:40 27.03.2020
358 Haze 29 1014 54 4000 3.1 10 17:20 27.03.2020
359 Haze 29 1014 54 4000 3.1 330 16:57 27.03.2020
360 Haze 30 1013 51 4000 2.6 330 16:38 27.03.2020
361 Haze 30 1013 51 4000 2.6 330 16:20 27.03.2020
362 Haze 31 1011 40 4000 3.01 340 15:42 27.03.2020
363 Haze 31 1011 40 4000 3.01 340 15:24 27.03.2020
364 Haze 30 1011 42 4000 3.01 340 14:48 27.03.2020
365 Haze 31 1011 52 4000 3.01 340 14:25 27.03.2020
366 Haze 35 1011 32 4000 1 250 13:58 27.03.2020
367 Haze 35 1011 32 4000 1 250 13:40 27.03.2020
368 Haze 35 1011 32 4000 1 250 13:21 27.03.2020
369 Haze 35 1011 30 4000 2.6 290 12:57 27.03.2020
370 Haze 35 1011 30 4000 2.6 290 12:39 27.03.2020
371 Haze 35 1011 32 4000 1 250 12:18 27.03.2020
372 Haze 34 1011 36 5000 2.6 310 11:41 27.03.2020
373 Haze 35 1012 36 5000 2.1 180 11:23 27.03.2020
374 Haze 35 1012 36 5000 2.1 180 10:55 27.03.2020
375 Haze 35 1012 36 5000 2.1 180 10:37 27.03.2020
376 Haze 35 1012 36 5000 2.1 180 10:18 27.03.2020
377 Haze 35 1012 36 5000 3.1 180 09:56 27.03.2020
378 Haze 35 1013 36 5000 3.1 210 09:37 27.03.2020
379 Haze 35 1013 36 5000 3.1 210 09:18 27.03.2020
380 Haze 35 1014 36 5000 4.6 190 08:56 27.03.2020
381 Haze 34 1014 38 5000 4.1 180 08:37 27.03.2020
382 Haze 34 1014 38 5000 4.1 180 08:19 27.03.2020
383 Haze 33 1014 41 5000 2.1 170 07:50 27.03.2020
384 Haze 33 1015 43 4000 2.6 160 07:23 27.03.2020
385 Haze 32 1015 43 4000 2.6 200 06:51 27.03.2020
386 Haze 32 1015 43 4000 2.6 200 06:33 27.03.2020
387 Haze 26 1015 69 3000 2.26 113 04:23 27.03.2020
388 Mist 21 1013 94 2000 0.5 120 02:25 27.03.2020
389 Haze 22 1012 88 3000 1.63 75 01:23 27.03.2020
390 Haze 22 1012 88 3000 1.37 52 00:48 27.03.2020
391 Haze 22 1012 88 3000 1.37 52 00:23 27.03.2020
392 Haze 23 1012 83 3000 1.37 52 23:43 26.03.2020
393 Haze 23 1012 83 3000 1.37 52 23:21 26.03.2020
394 Haze 23 1012 83 3000 1.79 15 22:58 26.03.2020
395 Haze 23 1012 83 3000 1.79 15 22:37 26.03.2020
396 Haze 23 1012 83 3000 1.79 15 22:19 26.03.2020
397 Haze 24 1012 78 3000 1.79 15 21:55 26.03.2020
398 Haze 24 1012 78 3000 1.79 15 21:37 26.03.2020
399 Haze 24 1012 78 3000 1.79 15 21:18 26.03.2020
400 Haze 24 1013 78 3000 1.79 15 20:41 26.03.2020
401 Haze 24 1013 78 3000 1.79 15 20:23 26.03.2020
402 Haze 24 1013 78 3000 1.79 15 20:23 26.03.2020
403 Haze 24 1013 78 3000 1.79 15 20:23 26.03.2020
404 Haze 24 1013 78 3000 1.93 347 19:58 26.03.2020
405 Haze 25 1013 73 3000 1.93 347 19:40 26.03.2020
406 Haze 25 1013 73 3000 1.93 347 19:40 26.03.2020
407 Haze 25 1013 73 3000 1.93 347 19:22 26.03.2020
408 Haze 25 1013 73 3000 1 40 18:59 26.03.2020
409 Haze 25 1013 69 3000 1 70 18:41 26.03.2020
410 Haze 25 1013 69 3000 1 70 18:23 26.03.2020
411 Haze 25 1013 73 3000 1 70 17:45 26.03.2020
412 Haze 25 1013 73 3000 0.5 80 17:20 26.03.2020
413 Haze 25 1013 73 3000 0.5 80 16:59 26.03.2020
414 Haze 26 1012 69 3000 0.5 80 16:39 26.03.2020
415 Haze 26 1012 69 3000 0.5 80 16:21 26.03.2020
416 Haze 26 1012 69 3000 1 70 15:56 26.03.2020
417 Haze 26 1012 69 3000 1 80 15:38 26.03.2020
418 Haze 26 1012 69 3000 1 80 15:19 26.03.2020
419 Haze 27 1011 65 3000 0.5 20 14:43 26.03.2020
420 Haze 28 1011 61 3500 1 80 14:25 26.03.2020
421 Haze 29 1011 58 3500 1 70 13:56 26.03.2020
422 Haze 29 1011 58 3500 1 70 13:56 26.03.2020
423 Haze 31 1011 52 3500 1.5 70 13:38 26.03.2020
424 Haze 31 1011 52 3500 1.5 70 13:20 26.03.2020
425 Haze 31 1011 48 3500 1.5 60 12:39 26.03.2020
426 Haze 30 1011 51 4000 1 90 12:20 26.03.2020
427 Haze 30 1011 51 4000 1 90 11:55 26.03.2020
428 Clouds 34 1008 26 0 1.73 276 11:37 26.03.2020
429 Haze 29 1012 54 4000 1 330 11:18 26.03.2020
430 Haze 28 1012 58 4000 1.5 60 10:42 26.03.2020
431 Haze 28 1012 58 4000 1.5 60 10:20 26.03.2020
432 Haze 28 1012 58 4000 1.5 60 10:20 26.03.2020
433 Haze 28 1012 58 4000 1.5 60 09:45 26.03.2020
434 Haze 27 1013 61 4000 3.03 245 09:24 26.03.2020
435 Haze 25 1013 73 3000 2.1 10 08:58 26.03.2020
436 Clouds 34 1008 25 0 3.03 245 08:39 26.03.2020
437 Haze 24 1014 78 3000 1 230 08:20 26.03.2020
438 Haze 24 1014 78 3000 1 230 07:46 26.03.2020
439 Haze 24 1014 78 3000 1 230 07:24 26.03.2020
440 Haze 22 1014 88 3000 1 190 06:59 26.03.2020
441 Haze 22 1014 88 3000 1 190 06:32 26.03.2020
442 Haze 22 1015 88 3000 1.5 240 05:29 26.03.2020
443 Drizzle 21 1014 100 2000 1 270 03:45 26.03.2020
444 Drizzle 21 1014 94 2000 3.56 23 02:57 26.03.2020
445 Drizzle 20 1013 100 2000 2.57 345 01:51 26.03.2020
446 Drizzle 20 1013 100 2000 2.78 21 01:18 26.03.2020
447 Haze 20 1013 94 2000 2.78 21 00:23 26.03.2020
448 Drizzle 20 1013 94 2000 2.78 21 23:42 25.03.2020
449 Thunderstorm 20 1014 94 2000 4.1 350 23:22 25.03.2020
450 Thunderstorm 20 1014 94 2000 4.1 350 22:42 25.03.2020
451 Thunderstorm 20 1014 94 2000 4.1 350 22:22 25.03.2020
452 Thunderstorm 20 1014 94 2000 3.6 350 21:57 25.03.2020
453 Thunderstorm 20 1015 94 2000 3.6 20 21:38 25.03.2020
454 Thunderstorm 20 1015 94 2000 3.6 20 21:20 25.03.2020
455 Thunderstorm 20 1015 94 2000 5.1 10 20:56 25.03.2020
456 Thunderstorm 20 1016 94 2000 5.1 320 20:37 25.03.2020
457 Thunderstorm 20 1016 94 2000 5.1 320 20:18 25.03.2020
458 Thunderstorm 20 1016 94 2000 5.1 320 20:18 25.03.2020
459 Thunderstorm 20 1016 94 2000 5.1 320 19:43 25.03.2020
460 Thunderstorm 20 1017 94 2000 3.6 320 19:23 25.03.2020
461 Thunderstorm 21 1016 88 2000 4.6 330 18:59 25.03.2020
462 Thunderstorm 21 1016 88 2000 4.6 330 18:40 25.03.2020
463 Haze 26 1012 54 2500 2.1 50 18:22 25.03.2020
464 Haze 26 1012 54 2500 2.1 50 17:56 25.03.2020
465 Haze 26 1012 54 2500 2.1 50 17:38 25.03.2020
466 Haze 26 1012 54 2500 2.1 50 17:38 25.03.2020
467 Haze 26 1011 54 2500 2.6 50 17:20 25.03.2020
468 Haze 26 1011 54 2500 2.6 50 16:44 25.03.2020
469 Haze 26 1011 54 2500 2.6 50 16:24 25.03.2020
470 Haze 26 1011 54 2500 3.1 10 15:59 25.03.2020
471 Thunderstorm 25 1011 61 2500 3.6 10 15:41 25.03.2020
472 Thunderstorm 25 1011 61 2500 3.6 10 15:20 25.03.2020
473 Thunderstorm 27 1011 51 2500 5.1 290 14:42 25.03.2020
474 Thunderstorm 27 1011 51 2500 6.2 10 14:22 25.03.2020
475 Haze 30 1009 40 2500 5.1 30 13:59 25.03.2020
476 Haze 30 1009 40 2500 5.1 30 13:41 25.03.2020
477 Haze 35 1008 26 5000 1.5 90 13:22 25.03.2020
478 Haze 35 1008 24 5000 3.1 150 12:38 25.03.2020
479 Haze 35 1008 24 5000 3.1 150 12:19 25.03.2020
480 Clouds 35 1008 26 6000 2.1 120 11:55 25.03.2020
481 Clouds 35 1008 26 6000 2.1 120 11:36 25.03.2020
482 Clouds 36 1010 26 6000 1 80 11:18 25.03.2020
483 Clouds 36 1010 26 6000 1 80 10:56 25.03.2020
484 Clouds 36 1010 26 6000 1 80 10:37 25.03.2020
485 Clouds 36 1010 26 6000 1 80 10:18 25.03.2020
486 Clouds 34 1011 30 6000 1.69 49 09:42 25.03.2020
487 Clouds 34 1011 30 6000 1.69 49 09:23 25.03.2020
488 Clouds 34 1011 30 6000 0.5 160 08:56 25.03.2020
489 Clouds 33 1012 31 6000 1.5 340 08:38 25.03.2020
490 Clouds 33 1012 31 6000 1.5 340 08:38 25.03.2020
491 Clear 33 1012 31 6000 1.5 340 08:19 25.03.2020
492 Clear 34 1012 32 6000 2.1 60 07:40 25.03.2020
493 Clear 33 1013 33 6000 1 30 07:20 25.03.2020
494 Clear 32 1013 35 6000 1.5 80 06:47 25.03.2020
495 Clear 32 1013 35 6000 2.1 60 06:26 25.03.2020
496 Haze 29 1013 45 5000 1.5 90 05:53 25.03.2020
497 Haze 28 1013 48 5000 1.5 70 04:59 25.03.2020
498 Haze 28 1013 48 5000 1.5 70 04:39 25.03.2020
499 Haze 25 1012 61 4000 2.46 58 03:36 25.03.2020
500 Haze 23 1010 69 4000 1.5 20 01:58 25.03.2020
501 Haze 22 1010 73 4000 1.5 10 01:21 25.03.2020
502 Haze 22 1010 73 4000 1.15 31 00:48 25.03.2020
503 Haze 22 1010 73 4000 1.15 31 00:19 25.03.2020
504 Haze 24 1010 60 4000 1 20 23:45 24.03.2020
505 Haze 24 1010 60 4000 1 20 23:25 24.03.2020
506 Haze 23 1010 69 4000 1.41 37 22:56 24.03.2020
507 Haze 23 1010 69 4000 1.41 37 22:37 24.03.2020
508 Haze 23 1010 69 4000 1.41 37 22:19 24.03.2020
509 Haze 24 1010 60 4000 1.41 37 21:55 24.03.2020
510 Haze 24 1010 60 4000 1.41 37 21:37 24.03.2020
511 Haze 24 1010 60 4000 1.41 37 21:18 24.03.2020
512 Haze 24 1010 60 4000 1.41 37 21:18 24.03.2020
513 Haze 24 1011 60 4000 1 280 20:43 24.03.2020
514 Haze 24 1011 60 4000 1 280 20:24 24.03.2020
515 Haze 25 1011 57 4000 0.79 81 19:57 24.03.2020
516 Haze 25 1011 57 4000 0.79 81 19:39 24.03.2020
517 Haze 25 1011 57 4000 0.79 81 19:18 24.03.2020
518 Haze 25 1011 57 4000 0.79 81 18:55 24.03.2020
519 Haze 25 1011 57 4000 0.79 81 18:36 24.03.2020
520 Haze 26 1011 54 4000 1 100 18:18 24.03.2020
521 Haze 27 1011 51 4000 2.1 90 17:42 24.03.2020
522 Haze 27 1011 51 4000 2.1 90 17:22 24.03.2020
523 Haze 29 1011 45 4000 2.1 80 16:58 24.03.2020
524 Haze 29 1010 42 4000 1.5 100 16:39 24.03.2020
525 Haze 29 1010 42 4000 1.5 100 16:20 24.03.2020
526 Haze 29 1010 42 4000 1.5 100 16:20 24.03.2020
527 Haze 29 1010 39 4000 1.5 90 15:57 24.03.2020
528 Haze 29 1009 39 4000 2.1 140 15:37 24.03.2020
529 Haze 29 1009 39 4000 2.1 140 15:19 24.03.2020
530 Haze 29 1009 42 4000 1.55 291 14:42 24.03.2020
531 Thunderstorm 31 1009 29 4000 1.1 197 14:18 24.03.2020
532 Haze 31 1009 35 4000 3.1 290 13:42 24.03.2020
533 Thunderstorm 31 1009 35 4000 2.1 230 13:24 24.03.2020
534 Thunderstorm 30 1008 37 4000 3.1 230 12:54 24.03.2020
535 Thunderstorm 34 1008 28 4000 1.89 236 12:36 24.03.2020
536 Thunderstorm 34 1008 28 4000 1.89 236 12:18 24.03.2020
537 Haze 35 1009 28 4000 2.6 160 11:39 24.03.2020
538 Haze 35 1009 28 4000 2.6 160 11:19 24.03.2020
539 Haze 36 1009 25 5000 3.6 180 10:43 24.03.2020
540 Haze 35 1009 30 5000 1.5 280 10:43 24.03.2020
541 Haze 35 1009 30 5000 1.5 280 10:20 24.03.2020
542 Haze 35 1010 30 5000 2.6 150 09:58 24.03.2020
543 Haze 35 1010 30 5000 2.6 150 09:39 24.03.2020
544 Haze 35 1010 30 5000 2.6 260 09:21 24.03.2020
545 Haze 34 1012 32 5000 2.1 170 08:38 24.03.2020
546 Haze 34 1012 32 5000 2.1 170 08:20 24.03.2020
547 Haze 33 1012 33 5000 1.5 180 07:48 24.03.2020
548 Haze 32 1013 40 5000 2.1 160 07:24 24.03.2020
549 Haze 31 1014 45 5000 1.5 240 06:53 24.03.2020
550 Haze 30 1014 48 5000 1 200 06:27 24.03.2020
551 Haze 28 1014 51 4000 1 30 04:57 24.03.2020
552 Haze 25 1013 57 4000 1.5 60 03:48 24.03.2020
553 Haze 20 1012 77 4000 2.45 127 03:18 24.03.2020
554 Haze 20 1011 72 4000 1.61 25 01:45 24.03.2020
555 Haze 20 1011 72 4000 1.5 20 00:46 24.03.2020
556 Haze 22 1010 60 4000 1.21 41 00:24 24.03.2020
557 Haze 23 1011 60 4000 1.21 41 23:44 23.03.2020
558 Haze 23 1011 60 4000 1.21 41 23:26 23.03.2020
559 Haze 22 1011 60 4000 1.36 231 22:55 23.03.2020
560 Haze 22 1011 60 4000 1.36 231 22:55 23.03.2020
561 Haze 24 1011 50 4000 1.36 231 22:37 23.03.2020
562 Haze 24 1011 50 4000 1.36 231 22:19 23.03.2020
563 Haze 22 1011 60 4000 1.36 231 21:43 23.03.2020
564 Haze 23 1012 56 4000 1.36 231 21:20 23.03.2020
565 Haze 23 1012 53 4000 1.36 231 20:57 23.03.2020
566 Haze 24 1012 50 4000 1 220 20:39 23.03.2020
567 Haze 24 1012 50 4000 1 220 20:19 23.03.2020
568 Haze 24 1012 50 4000 2.21 107 19:45 23.03.2020
569 Haze 24 1012 50 4000 2.21 107 19:45 23.03.2020
570 Haze 26 1012 44 4000 1 100 19:27 23.03.2020
571 Haze 27 1012 42 4000 1 110 18:59 23.03.2020
572 Haze 26 1012 41 4000 1 100 18:40 23.03.2020
573 Haze 27 1012 39 4000 1.5 110 18:21 23.03.2020
574 Haze 27 1012 39 4000 1.5 110 17:43 23.03.2020
575 Haze 28 1012 37 4000 1 60 17:21 23.03.2020
576 Haze 28 1012 37 4000 1 60 16:59 23.03.2020
577 Haze 28 1012 37 4000 1 80 16:39 23.03.2020
578 Haze 28 1012 37 4000 1 80 16:20 23.03.2020
579 Haze 29 1011 35 4000 1 90 15:42 23.03.2020
580 Haze 29 1011 35 4000 1 90 15:42 23.03.2020
581 Haze 29 1011 35 4000 1 110 15:20 23.03.2020
582 Haze 30 1010 30 4000 1 90 14:55 23.03.2020
583 Haze 31 1010 29 5000 1 90 14:36 23.03.2020
584 Haze 31 1010 29 5000 1 90 14:18 23.03.2020
585 Haze 33 1010 26 5000 1 60 13:40 23.03.2020
586 Haze 33 1010 26 5000 1 60 13:21 23.03.2020
587 Clouds 34 1010 21 6000 1 100 12:45 23.03.2020
588 Clouds 34 1010 21 6000 1 100 12:45 23.03.2020
589 Clouds 34 1010 21 6000 1 130 12:25 23.03.2020
590 Clouds 34 1010 21 6000 2.1 60 11:59 23.03.2020
591 Clouds 34 1010 21 6000 2.1 60 11:59 23.03.2020
592 Clouds 35 1010 20 6000 1 60 11:40 23.03.2020
593 Clouds 34 1011 21 6000 1 360 11:20 23.03.2020
594 Clouds 34 1011 21 6000 1 360 11:20 23.03.2020
595 Clouds 34 1011 21 6000 1 360 10:58 23.03.2020
596 Haze 34 1011 21 5000 1.5 150 10:38 23.03.2020
597 Haze 34 1011 21 5000 1.5 150 10:38 23.03.2020
598 Haze 34 1011 21 5000 1.5 150 10:20 23.03.2020
599 Haze 35 1012 19 5000 1.5 110 09:44 23.03.2020
600 Haze 34 1012 20 5000 1.5 100 09:21 23.03.2020
601 Haze 34 1013 21 5000 1.5 120 08:57 23.03.2020
602 Haze 34 1013 21 5000 2.1 140 08:36 23.03.2020
603 Haze 34 1013 21 5000 2.1 140 08:18 23.03.2020
604 Haze 32 1014 29 5000 2.6 150 07:42 23.03.2020
605 Haze 32 1014 29 5000 2.6 150 07:23 23.03.2020
606 Haze 31 1014 35 5000 1.5 190 06:49 23.03.2020
607 Haze 29 1014 37 5000 1.5 100 05:54 23.03.2020
608 Haze 29 1014 37 5000 1.5 100 05:29 23.03.2020
609 Haze 23 1013 56 5000 1 320 03:28 23.03.2020
610 Haze 20 1012 60 4000 1.06 164 01:51 23.03.2020
611 Haze 18 1012 68 4000 1.33 69 01:32 23.03.2020
612 Haze 20 1011 64 4000 1.33 69 00:36 23.03.2020
613 Haze 19 1011 63 4000 1.33 69 23:47 22.03.2020
614 Haze 19 1011 63 4000 1.33 69 23:26 22.03.2020
615 Haze 21 1012 56 4000 1.44 8 22:45 22.03.2020
616 Haze 21 1012 56 4000 1.44 8 22:24 22.03.2020
617 Haze 21 1012 56 4000 1.44 8 21:56 22.03.2020
618 Haze 21 1012 56 4000 1.44 8 21:37 22.03.2020
619 Haze 21 1012 56 4000 1.44 8 21:19 22.03.2020
620 Haze 21 1012 60 4000 1.44 8 20:46 22.03.2020
621 Haze 24 1013 50 4000 2.23 26 20:25 22.03.2020
622 Haze 25 1013 47 4000 0.5 350 19:58 22.03.2020
623 Haze 25 1013 47 4000 0.5 350 19:40 22.03.2020
624 Haze 25 1013 44 4000 1 280 19:20 22.03.2020
625 Haze 25 1013 44 4000 1 280 19:20 22.03.2020
626 Haze 25 1013 44 4000 2.05 29 18:59 22.03.2020
627 Haze 24 1013 47 4000 2.05 29 18:41 22.03.2020
628 Haze 24 1013 47 4000 2.05 29 18:41 22.03.2020
629 Haze 24 1013 47 4000 2.05 29 18:22 22.03.2020
630 Haze 24 1013 47 4000 2.05 29 18:22 22.03.2020
631 Haze 26 1013 39 4000 1 60 17:59 22.03.2020
632 Haze 26 1013 39 4000 1 90 17:39 22.03.2020
633 Haze 26 1013 39 4000 1 90 17:20 22.03.2020
634 Haze 27 1013 36 4000 0.5 80 16:58 22.03.2020
635 Haze 27 1013 36 4000 0.5 80 16:58 22.03.2020
636 Haze 27 1012 36 4000 1 70 16:40 22.03.2020
637 Haze 27 1012 36 4000 1 70 16:21 22.03.2020
638 Haze 28 1012 32 4000 1.5 80 15:56 22.03.2020
639 Haze 28 1012 34 4000 1.5 80 15:38 22.03.2020
640 Haze 29 1011 30 5000 1 80 14:46 22.03.2020
641 Haze 29 1011 30 5000 1.5 70 14:19 22.03.2020
642 Haze 32 1011 18 5000 1 30 13:55 22.03.2020
643 Clouds 33 1011 18 6000 1 30 13:37 22.03.2020
644 Clouds 33 1011 18 6000 1 30 13:18 22.03.2020
645 Clouds 34 1011 15 6000 1.5 40 12:43 22.03.2020
646 Clouds 34 1011 16 6000 1.5 20 12:20 22.03.2020
647 Clouds 34 1011 16 6000 2.1 110 11:55 22.03.2020
648 Clouds 34 1011 15 6000 1.5 240 11:36 22.03.2020
649 Clouds 34 1011 15 6000 1.5 240 11:18 22.03.2020
650 Clouds 34 1012 18 6000 1 50 10:42 22.03.2020
651 Clouds 34 1012 18 6000 1 50 10:23 22.03.2020
652 Clouds 33 1012 21 6000 1.5 10 09:47 22.03.2020
653 Clouds 33 1013 19 6000 1.5 60 09:28 22.03.2020
654 Clouds 33 1013 19 6000 1 100 08:53 22.03.2020
655 Clouds 33 1013 19 6000 1 100 08:53 22.03.2020
656 Clear 32 1014 25 6000 1 230 08:33 22.03.2020
657 Clear 32 1014 29 6000 1.5 10 07:59 22.03.2020
658 Clear 32 1014 29 6000 1.5 10 07:41 22.03.2020
659 Clear 30 1015 35 6000 2.1 60 06:48 22.03.2020
660 Clear 29 1015 45 6000 1 70 05:54 22.03.2020
661 Haze 26 1014 50 5000 1 350 04:39 22.03.2020
662 Haze 20 1013 56 4000 1 350 02:34 22.03.2020
663 Haze 18 1012 68 4000 2.38 342 01:19 22.03.2020
664 Haze 19 1012 63 4000 2.02 353 00:34 22.03.2020
665 Haze 19 1012 63 4000 2.02 353 23:47 21.03.2020
666 Haze 19 1012 63 4000 2.02 353 23:23 21.03.2020
667 Haze 18 1012 68 4000 1 130 22:59 21.03.2020
668 Haze 23 1012 46 4000 1 360 22:38 21.03.2020
669 Haze 23 1012 46 4000 1 360 22:20 21.03.2020
670 Haze 23 1012 49 4000 1 360 21:59 21.03.2020
671 Haze 23 1012 49 4000 1 360 21:39 21.03.2020
672 Haze 24 1012 44 4000 1 360 21:20 21.03.2020
673 Haze 24 1012 44 4000 1 360 21:20 21.03.2020
674 Haze 24 1012 41 4000 1 10 20:44 21.03.2020
675 Haze 25 1013 41 4000 1 360 20:22 21.03.2020
676 Haze 23 1013 53 4000 1 260 19:56 21.03.2020
677 Haze 26 1013 39 4000 1 350 19:38 21.03.2020
678 Haze 26 1013 39 4000 1 350 19:19 21.03.2020
679 Haze 25 1013 53 4000 1 300 18:54 21.03.2020
680 Haze 25 1013 57 4000 1 270 18:36 21.03.2020
681 Haze 25 1013 57 4000 1 270 18:18 21.03.2020
682 Haze 27 1012 51 4000 1 360 17:42 21.03.2020
683 Haze 27 1012 51 4000 1 360 17:22 21.03.2020
684 Haze 26 1011 41 4000 1.68 313 16:43 21.03.2020
685 Haze 26 1011 41 4000 1.68 313 16:24 21.03.2020
686 Haze 26 1011 44 4000 1 130 15:59 21.03.2020
687 Haze 26 1011 44 4000 1 130 15:41 21.03.2020
688 Haze 28 1011 39 4000 1 70 15:23 21.03.2020
689 Haze 29 1010 37 4000 1.68 313 14:57 21.03.2020
690 Haze 30 1010 37 4000 1.68 313 14:39 21.03.2020
691 Haze 30 1010 37 4000 4.86 292 14:20 21.03.2020
692 Haze 31 1010 35 5000 1.5 140 13:58 21.03.2020
693 Haze 32 1009 31 5000 1 160 13:39 21.03.2020
694 Haze 32 1009 31 5000 1 160 13:21 21.03.2020
695 Haze 33 1009 29 5000 1.5 210 12:57 21.03.2020
696 Haze 33 1009 29 5000 2.6 190 12:37 21.03.2020
697 Haze 33 1009 29 5000 2.6 200 12:19 21.03.2020
698 Haze 33 1009 29 5000 2.6 200 11:55 21.03.2020
699 Haze 33 1009 29 5000 1.5 180 11:37 21.03.2020
700 Haze 32 1010 33 5000 1.5 230 11:18 21.03.2020
701 Haze 32 1010 33 5000 1.5 230 10:56 21.03.2020
702 Haze 32 1010 33 5000 2.6 280 10:38 21.03.2020
703 Haze 32 1010 33 5000 2.6 280 10:18 21.03.2020
704 Clouds 31 1011 38 6000 1 240 09:40 21.03.2020
705 Clouds 31 1012 40 6000 1.5 240 09:21 21.03.2020
706 Clouds 31 1012 40 6000 2.1 230 08:58 21.03.2020
707 Clouds 31 1012 40 6000 2.1 230 08:39 21.03.2020
708 Clouds 30 1013 45 6000 0.5 280 08:21 21.03.2020
709 Clouds 29 1013 48 6000 1 120 07:42 21.03.2020
710 Clouds 28 1014 54 6000 2.1 150 07:23 21.03.2020
711 Clouds 27 1015 57 6000 1 110 06:45 21.03.2020
712 Clouds 27 1015 57 6000 1 110 06:45 21.03.2020
713 Clouds 27 1015 57 6000 1 110 06:26 21.03.2020
714 Clear 26 1014 57 6000 1 130 05:41 21.03.2020
715 Clear 25 1014 61 6000 1 50 04:34 21.03.2020
716 Haze 21 1013 68 4000 1 350 02:39 21.03.2020
717 Haze 20 1012 77 4000 2.06 17 01:54 21.03.2020
718 Haze 21 1012 73 4000 1 300 01:28 21.03.2020
719 Haze 20 1011 77 4000 1.5 290 00:43 21.03.2020
720 Haze 20 1011 77 4000 1.5 290 00:43 21.03.2020
721 Haze 22 1011 68 4000 2.06 42 00:24 21.03.2020
722 Haze 22 1011 68 4000 1 70 23:45 20.03.2020
723 Haze 22 1011 68 4000 1 70 23:22 20.03.2020
724 Haze 22 1011 64 4000 1 80 22:44 20.03.2020
725 Haze 21 1011 68 4000 1 40 22:25 20.03.2020
726 Haze 21 1011 68 4000 1 20 21:59 20.03.2020
727 Haze 21 1011 68 4000 1 20 21:41 20.03.2020
728 Haze 22 1012 64 4000 1 50 21:20 20.03.2020
729 Haze 22 1012 64 4000 1 70 20:59 20.03.2020
730 Haze 22 1012 64 4000 1 70 20:41 20.03.2020
731 Haze 23 1012 60 4000 2.1 80 20:20 20.03.2020
732 Haze 23 1012 60 4000 1.5 60 19:49 20.03.2020
733 Haze 23 1012 60 4000 1.5 80 19:22 20.03.2020
734 Haze 23 1012 60 4000 1.5 70 18:59 20.03.2020
735 Haze 23 1012 60 4000 1.5 80 18:39 20.03.2020
736 Haze 23 1012 60 4000 1.5 80 18:20 20.03.2020
737 Haze 24 1012 57 4000 2.1 80 17:56 20.03.2020
738 Haze 25 1012 53 4000 2.6 60 17:38 20.03.2020
739 Haze 26 1011 50 4000 2.1 50 17:19 20.03.2020
740 Haze 28 1011 54 4000 1.5 20 16:42 20.03.2020
741 Haze 28 1011 54 4000 1.5 20 16:21 20.03.2020
742 Thunderstorm 28 1011 54 4000 2.6 10 15:56 20.03.2020
743 Thunderstorm 29 1010 51 4000 1.5 80 15:37 20.03.2020
744 Thunderstorm 29 1010 51 4000 1.5 80 15:19 20.03.2020
745 Haze 30 1009 48 4000 2.1 80 14:42 20.03.2020
746 Haze 30 1009 45 4000 1.5 80 14:21 20.03.2020
747 Haze 31 1008 43 5000 2.1 90 13:50 20.03.2020
748 Haze 31 1008 43 5000 2.1 90 13:50 20.03.2020
749 Haze 32 1009 40 5000 2.1 70 13:25 20.03.2020
750 Clouds 33 1009 33 6000 2.1 80 12:58 20.03.2020
751 Clouds 33 1009 33 6000 2.1 90 12:38 20.03.2020
752 Clouds 33 1009 33 6000 2.1 90 12:20 20.03.2020
753 Clouds 33 1009 33 6000 1.5 140 11:40 20.03.2020
754 Clouds 33 1010 36 6000 2.6 60 11:21 20.03.2020
755 Clouds 33 1010 36 6000 2.6 60 10:57 20.03.2020
756 Clouds 33 1010 36 6000 1.5 80 10:38 20.03.2020
757 Clouds 33 1010 36 6000 1.5 80 10:18 20.03.2020
758 Clouds 33 1011 36 6000 1.5 140 09:46 20.03.2020
759 Clouds 33 1012 36 6000 3.1 150 09:21 20.03.2020
760 Clouds 32 1013 38 6000 3.6 120 08:58 20.03.2020
761 Clouds 32 1013 38 6000 3.1 100 08:39 20.03.2020
762 Clouds 32 1013 38 6000 3.1 100 08:19 20.03.2020
763 Haze 29 1014 48 5000 3.1 90 07:41 20.03.2020
764 Haze 29 1014 48 5000 3.1 90 07:23 20.03.2020
765 Haze 27 1015 54 5000 2.1 110 06:42 20.03.2020
766 Haze 27 1015 54 5000 2.1 110 06:42 20.03.2020
767 Haze 27 1015 54 5000 2.1 110 06:22 20.03.2020
768 Haze 24 1015 60 4000 1.5 50 04:39 20.03.2020
769 Haze 21 1014 73 4000 1 30 02:51 20.03.2020
770 Haze 20 1013 77 3000 1 30 01:50 20.03.2020
771 Haze 21 1012 77 3000 1.5 20 00:45 20.03.2020
772 Haze 21 1012 77 3000 1.5 20 00:24 20.03.2020
773 Haze 21 1012 73 3000 1 60 23:42 19.03.2020
774 Haze 21 1013 73 3000 1.5 60 23:23 19.03.2020
775 Haze 21 1013 73 3000 1 60 22:41 19.03.2020
776 Haze 21 1013 73 3000 1 60 22:23 19.03.2020
777 Haze 21 1013 73 3000 2.1 60 21:58 19.03.2020
778 Haze 21 1013 73 3000 1 50 21:38 19.03.2020
779 Haze 21 1013 73 3000 1 50 21:19 19.03.2020
780 Haze 21 1013 73 3000 1 60 20:44 19.03.2020
781 Haze 22 1013 73 3000 3.48 91 20:25 19.03.2020
782 Haze 22 1013 68 3000 4.43 33 19:59 19.03.2020
783 Haze 21 1013 73 3000 4.43 33 19:39 19.03.2020
784 Haze 21 1013 73 3000 4.43 33 19:20 19.03.2020
785 Haze 23 1013 64 3000 4.43 33 18:58 19.03.2020
786 Haze 24 1013 60 3000 1 40 18:40 19.03.2020
787 Haze 24 1013 60 3000 1.5 40 18:21 19.03.2020
788 Haze 24 1013 60 3000 1.5 40 18:21 19.03.2020
789 Haze 24 1013 60 3000 1.5 40 17:44 19.03.2020
790 Thunderstorm 25 1013 53 3000 2.6 50 17:20 19.03.2020
791 Thunderstorm 25 1013 53 3000 2.6 50 16:58 19.03.2020
792 Thunderstorm 26 1012 54 3000 2.6 40 16:39 19.03.2020
793 Thunderstorm 26 1012 54 3000 2.6 40 16:21 19.03.2020
794 Thunderstorm 27 1011 51 4000 3.6 30 15:42 19.03.2020
795 Thunderstorm 27 1011 51 4000 3.6 30 15:23 19.03.2020
796 Haze 29 1010 42 4000 1.5 50 14:43 19.03.2020
797 Haze 30 1009 28 5000 6.11 275 14:22 19.03.2020
798 Clouds 33 1009 21 6000 1.5 270 13:56 19.03.2020
799 Clouds 35 1008 19 6000 3.1 270 13:37 19.03.2020
800 Clouds 35 1008 19 6000 3.1 270 13:18 19.03.2020
801 Clouds 35 1008 21 6000 4.1 240 12:40 19.03.2020
802 Clouds 35 1008 24 6000 4.1 260 12:22 19.03.2020
803 Clouds 35 1008 24 6000 4.1 260 11:57 19.03.2020
804 Clouds 35 1008 24 6000 4.1 260 11:38 19.03.2020
805 Clouds 35 1009 34 6000 4.1 180 11:19 19.03.2020
806 Clouds 34 1009 36 6000 4.1 180 10:41 19.03.2020
807 Clouds 34 1009 36 6000 4.1 180 10:20 19.03.2020
808 Clouds 34 1010 36 6000 4.1 180 09:57 19.03.2020
809 Clouds 34 1011 34 6000 4.6 180 09:37 19.03.2020
810 Clouds 34 1011 34 6000 4.6 180 09:18 19.03.2020
811 Clouds 34 1012 32 6000 3.6 220 08:42 19.03.2020
812 Clouds 34 1012 32 6000 3.6 220 08:21 19.03.2020
813 Clouds 33 1013 33 6000 4.6 200 07:46 19.03.2020
814 Clouds 33 1013 33 6000 3.6 200 07:28 19.03.2020
815 Haze 29 1014 51 5000 2.6 200 06:43 19.03.2020
816 Haze 27 1015 57 5000 2.1 190 05:48 19.03.2020
817 Haze 26 1015 61 4000 2.1 170 04:57 19.03.2020
818 Haze 24 1015 73 3000 2.6 150 04:39 19.03.2020
819 Mist 22 1014 83 3000 2.88 85 02:49 19.03.2020
820 Mist 21 1013 88 4000 1.44 101 01:21 19.03.2020
821 Mist 22 1013 83 4000 1.44 101 00:28 19.03.2020
822 Mist 21 1013 88 4000 1.44 101 23:48 18.03.2020
823 Mist 21 1013 88 4000 1.44 101 23:29 18.03.2020
824 Mist 21 1013 88 4000 2.37 64 22:56 18.03.2020
825 Mist 21 1012 83 4000 2.37 64 22:38 18.03.2020
826 Mist 21 1012 83 4000 2.37 64 22:20 18.03.2020
827 Mist 21 1012 88 4000 1 110 21:42 18.03.2020
828 Haze 22 1013 83 4000 1 150 21:21 18.03.2020
829 Haze 23 1013 73 4000 1 350 20:57 18.03.2020
830 Haze 23 1013 73 4000 1 350 20:39 18.03.2020
831 Haze 22 1013 83 4000 5.16 7 20:20 18.03.2020
832 Haze 24 1014 69 4000 5.16 7 19:56 18.03.2020
833 Haze 25 1014 65 4000 1 360 19:37 18.03.2020
834 Haze 25 1014 65 4000 1 360 19:19 18.03.2020
835 Haze 24 1013 64 4000 1.5 100 18:41 18.03.2020
836 Haze 25 1014 61 4000 1 70 18:20 18.03.2020
837 Haze 25 1014 61 4000 1 70 17:58 18.03.2020
838 Haze 25 1014 65 4000 1 70 17:39 18.03.2020
839 Haze 25 1014 65 4000 1.5 40 17:21 18.03.2020
840 Haze 25 1014 65 4000 1.5 40 16:54 18.03.2020
841 Haze 26 1014 65 4000 1 30 16:36 18.03.2020
842 Haze 26 1014 65 4000 1 30 16:18 18.03.2020
843 Haze 26 1014 65 4000 1.5 50 15:44 18.03.2020
844 Haze 26 1013 65 4000 1 50 15:20 18.03.2020
845 Haze 27 1013 61 4000 1 70 14:45 18.03.2020
846 Haze 27 1013 61 4000 1 70 14:22 18.03.2020
847 Haze 28 1012 58 4000 1.5 70 13:56 18.03.2020
848 Haze 29 1012 54 4000 2.1 90 13:36 18.03.2020
849 Haze 29 1012 54 4000 2.1 90 13:18 18.03.2020
850 Haze 30 1013 45 4000 1.5 50 12:41 18.03.2020
851 Haze 30 1013 48 4000 2.6 60 12:19 18.03.2020
852 Haze 30 1013 51 3000 2.1 60 11:40 18.03.2020
853 Haze 29 1014 54 3000 1.5 60 11:21 18.03.2020
854 Haze 29 1014 54 3000 1.5 60 10:58 18.03.2020
855 Haze 29 1014 54 3000 4.88 230 10:39 18.03.2020
856 Haze 29 1014 54 3000 4.88 230 10:20 18.03.2020
857 Haze 29 1015 54 3000 1 10 09:43 18.03.2020
858 Haze 28 1016 54 3000 1.5 350 09:25 18.03.2020
859 Haze 28 1016 54 3000 1 120 08:57 18.03.2020
860 Haze 27 1017 57 3000 1 80 08:39 18.03.2020
861 Haze 27 1017 57 3000 1 80 08:39 18.03.2020
862 Haze 27 1017 57 3000 1 80 08:20 18.03.2020
863 Thunderstorm 26 1018 65 2500 1 70 07:46 18.03.2020
864 Haze 25 1018 69 3000 1 30 07:28 18.03.2020
865 Haze 24 1018 78 3000 3.07 138 06:44 18.03.2020
866 Thunderstorm 23 1019 78 3000 1 210 06:22 18.03.2020
867 Thunderstorm 23 1019 78 3000 1 210 05:35 18.03.2020
868 Haze 22 1018 88 3000 1.5 190 04:27 18.03.2020
869 Mist 20 1016 94 2000 1 240 02:48 18.03.2020
870 Mist 20 1015 94 3000 2.73 45 01:48 18.03.2020
871 Mist 21 1015 88 3000 1 90 01:27 18.03.2020
872 Thunderstorm 22 1016 78 4000 2.1 320 00:25 18.03.2020
873 Mist 21 1014 88 4000 1.5 110 23:50 17.03.2020
874 Mist 22 1014 83 4000 1 30 23:28 17.03.2020
875 Mist 22 1014 83 4000 1 30 22:59 17.03.2020
876 Haze 21 1014 88 4000 1 30 22:40 17.03.2020
877 Haze 21 1014 88 4000 1 30 22:22 17.03.2020
878 Haze 21 1015 88 4000 1 40 21:40 17.03.2020
879 Thunderstorm 21 1016 88 3000 2.1 340 21:21 17.03.2020
880 Thunderstorm 21 1016 88 3000 2.1 340 20:41 17.03.2020
881 Thunderstorm 21 1015 88 3000 7.7 120 20:22 17.03.2020
882 Thunderstorm 22 1016 88 3000 1 100 19:59 17.03.2020
883 Thunderstorm 25 1016 69 4000 4.1 350 19:40 17.03.2020
884 Thunderstorm 28 1016 54 4000 2.1 350 19:18 17.03.2020
885 Thunderstorm 28 1016 54 4000 2.1 350 18:56 17.03.2020
886 Haze 28 1015 54 4000 1.5 60 18:37 17.03.2020
887 Haze 28 1015 54 4000 1.5 60 18:37 17.03.2020
888 Haze 27 1016 57 4000 1 50 18:19 17.03.2020
889 Haze 28 1015 54 4000 1.5 80 17:40 17.03.2020
890 Haze 28 1015 54 4000 1.5 80 17:22 17.03.2020
891 Haze 29 1015 51 4000 1.5 90 16:55 17.03.2020
892 Haze 29 1015 48 4000 1.5 70 16:37 17.03.2020
893 Haze 29 1015 48 4000 1.5 70 16:18 17.03.2020
894 Haze 29 1015 48 5000 1.5 70 15:43 17.03.2020
895 Haze 29 1014 45 5000 1.5 90 15:21 17.03.2020
896 Haze 30 1014 42 5000 1 70 14:43 17.03.2020
897 Haze 30 1014 42 5000 1 70 14:42 17.03.2020
898 Haze 30 1014 40 5000 1 50 14:21 17.03.2020
899 Haze 31 1014 43 5000 1 60 13:45 17.03.2020
900 Haze 33 1013 36 5000 0.91 250 13:27 17.03.2020
901 Haze 33 1013 36 5000 1 340 12:58 17.03.2020
902 Haze 34 1013 34 5000 1 320 12:40 17.03.2020
903 Clouds 34 1013 32 5000 1 20 12:22 17.03.2020
904 Clouds 33 1013 33 6000 1 320 11:46 17.03.2020
905 Clouds 33 1013 33 6000 1 320 11:28 17.03.2020
906 Clouds 34 1014 34 6000 1.5 360 10:58 17.03.2020
907 Clouds 34 1014 34 6000 1.5 90 10:38 17.03.2020
908 Clouds 34 1014 34 6000 1.5 90 10:20 17.03.2020
909 Clouds 33 1014 36 6000 1.5 360 09:57 17.03.2020
910 Clear 33 1015 36 6000 1 20 09:39 17.03.2020
911 Clear 33 1015 36 6000 1 20 09:18 17.03.2020
912 Clear 32 1016 35 6000 1.23 296 08:43 17.03.2020
913 Clouds 32 1016 35 6000 1.44 159 08:21 17.03.2020
914 Clear 30 1017 37 6000 3.15 137 07:50 17.03.2020
915 Clear 30 1017 37 6000 3.15 137 07:26 17.03.2020
916 Clear 29 1018 35 6000 1.5 80 06:58 17.03.2020
917 Clouds 29 1018 30 6000 2.6 70 06:33 17.03.2020
918 Clear 27 1018 34 6000 2.1 360 05:46 17.03.2020
919 Haze 24 1017 44 5000 1 360 03:40 17.03.2020
920 Haze 20 1016 60 4000 1 20 02:45 17.03.2020
921 Haze 20 1015 64 4000 3.08 46 01:42 17.03.2020
922 Haze 20 1014 60 4000 3.08 46 01:24 17.03.2020
923 Haze 21 1014 60 4000 2.71 63 00:25 17.03.2020
924 Haze 22 1014 60 4000 2.71 63 23:45 16.03.2020
925 Haze 22 1014 60 4000 2.71 63 23:23 16.03.2020
926 Haze 24 1014 47 4000 1 50 22:40 16.03.2020
927 Haze 24 1014 47 4000 1 50 22:22 16.03.2020
928 Haze 24 1014 53 4000 1 30 21:55 16.03.2020
929 Haze 24 1015 57 4000 1 20 21:36 16.03.2020
930 Haze 24 1015 57 4000 1 20 21:18 16.03.2020
931 Haze 25 1015 57 4000 1 20 20:43 16.03.2020
932 Haze 25 1015 61 4000 1.5 30 20:24 16.03.2020
933 Haze 25 1015 65 4000 1.5 20 19:56 16.03.2020
934 Haze 26 1015 61 4000 1.5 60 19:37 16.03.2020
935 Haze 26 1015 61 4000 1.5 60 19:18 16.03.2020
936 Haze 26 1015 61 4000 3.61 15 18:41 16.03.2020
937 Haze 26 1015 61 4000 1 70 18:20 16.03.2020
938 Haze 27 1015 57 4000 1 80 17:46 16.03.2020
939 Haze 27 1015 57 4000 1 80 17:26 16.03.2020
940 Haze 27 1015 57 4000 1 70 16:58 16.03.2020
941 Haze 27 1015 57 4000 1 90 16:40 16.03.2020
942 Haze 27 1015 57 4000 1 90 16:22 16.03.2020
943 Haze 27 1014 57 4000 1.5 80 15:43 16.03.2020
944 Haze 28 1014 51 4000 1 70 15:25 16.03.2020
945 Haze 28 1014 51 4000 1 70 14:48 16.03.2020
946 Haze 29 1014 48 4000 1 100 14:24 16.03.2020
947 Haze 31 1013 43 4000 1.55 337 13:53 16.03.2020
948 Haze 32 1013 35 4000 1.55 337 13:30 16.03.2020
949 Haze 32 1013 35 5000 1.33 333 12:58 16.03.2020
950 Haze 32 1013 35 5000 1.33 333 12:40 16.03.2020
951 Haze 33 1013 31 5000 1 200 12:20 16.03.2020
952 Haze 32 1013 35 5000 1.33 333 12:20 16.03.2020
953 Haze 33 1013 31 5000 3.1 270 11:44 16.03.2020
954 Haze 33 1013 31 5000 3.1 270 11:26 16.03.2020
955 Haze 32 1013 35 5000 2.1 290 10:45 16.03.2020
956 Clouds 33 1014 33 6000 2.1 260 10:25 16.03.2020
957 Clouds 32 1014 35 6000 1.31 276 09:59 16.03.2020
958 Clouds 31 1014 38 6000 1 350 09:38 16.03.2020
959 Clouds 31 1014 38 6000 1 350 09:19 16.03.2020
960 Clear 30 1016 40 6000 2.6 130 08:43 16.03.2020
961 Clouds 30 1016 40 6000 2.6 130 08:23 16.03.2020
962 Clouds 29 1017 37 6000 2.1 10 07:43 16.03.2020
963 Clouds 29 1017 37 6000 2.1 10 07:21 16.03.2020
964 Haze 27 1018 36 5000 2.6 50 06:41 16.03.2020
965 Haze 27 1018 36 5000 2.6 50 06:22 16.03.2020
966 Haze 23 1016 46 5000 2.6 20 04:26 16.03.2020
967 Haze 20 1015 49 3000 1 40 01:46 16.03.2020
968 Haze 21 1014 46 3000 1.5 50 00:45 16.03.2020
969 Haze 21 1014 46 3000 1 40 00:26 16.03.2020
970 Haze 21 1014 46 3000 1 40 23:40 15.03.2020
971 Haze 21 1014 46 3000 1 40 23:19 15.03.2020
972 Haze 22 1014 43 3000 1 40 22:42 15.03.2020
973 Haze 23 1014 43 3000 2.6 10 22:21 15.03.2020
974 Haze 23 1014 43 3000 2.1 10 21:39 15.03.2020
975 Haze 23 1014 40 3000 3.1 20 21:21 15.03.2020
976 Haze 24 1014 38 3000 2.6 20 20:58 15.03.2020
977 Haze 24 1014 38 3000 2.6 20 20:39 15.03.2020
978 Haze 24 1014 44 3000 2.1 30 20:19 15.03.2020
979 Haze 24 1015 53 3000 2.6 20 19:55 15.03.2020
980 Haze 25 1015 53 3000 2.6 360 19:37 15.03.2020
981 Haze 25 1015 53 3000 2.6 360 19:18 15.03.2020
982 Haze 26 1015 50 4000 1.5 10 18:41 15.03.2020
983 Haze 26 1015 50 4000 1.5 10 18:23 15.03.2020
984 Haze 26 1015 50 4000 1 40 17:58 15.03.2020
985 Haze 26 1015 50 4000 1.5 60 17:38 15.03.2020
986 Haze 26 1015 50 4000 1.5 60 17:19 15.03.2020
987 Haze 26 1014 50 4000 1.03 323 16:44 15.03.2020
988 Haze 26 1014 50 4000 1.03 323 16:44 15.03.2020
989 Haze 26 1014 50 4000 1 80 16:26 15.03.2020
990 Haze 27 1014 47 4000 1.5 90 15:59 15.03.2020
991 Haze 27 1014 47 4000 1.5 90 15:41 15.03.2020
992 Haze 27 1013 44 5000 1.03 323 15:20 15.03.2020
993 Haze 27 1013 42 5000 1 90 14:46 15.03.2020
994 Haze 29 1013 32 5000 1 30 14:25 15.03.2020
995 Haze 29 1012 32 5000 1 50 13:59 15.03.2020
996 Haze 30 1012 30 5000 1 20 13:38 15.03.2020
997 Haze 30 1012 30 5000 1 20 13:20 15.03.2020
998 Haze 32 1012 25 5000 1 20 12:44 15.03.2020
999 Haze 32 1012 25 5000 1 20 12:44 15.03.2020
1000 Clouds 32 1012 25 6000 1 20 12:26 15.03.2020
1001 -273 0 0 0 0 0 11:57 15.03.2020
1002 Clouds 32 1012 25 6000 1.5 50 11:39 15.03.2020
1003 Clouds 31 1012 29 6000 1 70 11:20 15.03.2020
1004 Clouds 31 1012 29 6000 1 70 10:56 15.03.2020
1005 Clouds 31 1013 31 6000 1 20 10:36 15.03.2020
1006 Clouds 31 1013 31 6000 1 20 10:18 15.03.2020
1007 Clouds 31 1014 29 6000 1 50 09:40 15.03.2020
1008 Clouds 31 1014 29 6000 1 50 09:21 15.03.2020
1009 Clouds 31 1014 31 6000 3.1 30 08:42 15.03.2020
1010 Clouds 30 1015 33 6000 1 60 08:20 15.03.2020
1011 Clouds 30 1015 30 6000 4.31 52 07:51 15.03.2020
1012 Clouds 29 1016 32 6000 1 60 07:29 15.03.2020
1013 Clouds 28 1016 37 6000 3.1 20 06:49 15.03.2020
1014 Clouds 26 1016 39 6000 2.6 20 05:50 15.03.2020
1015 Clouds 24 1016 41 6000 1.5 20 05:18 15.03.2020
1016 Clouds 24 1016 41 6000 1.5 20 04:41 15.03.2020
1017 Clouds 24 1016 41 6000 1.5 20 04:41 15.03.2020
1018 Haze 23 1016 38 5000 2.6 20 04:23 15.03.2020
1019 Haze 21 1015 40 5000 2.1 20 03:38 15.03.2020
1020 Haze 20 1014 40 4000 1 360 02:37 15.03.2020
1021 Haze 19 1014 48 4000 1 360 01:34 15.03.2020
1022 Haze 21 1013 46 4000 1 360 00:45 15.03.2020
1023 Haze 19 1013 52 4000 1 360 00:22 15.03.2020
1024 Haze 21 1013 46 4000 1.5 360 23:42 14.03.2020
1025 Haze 21 1013 46 4000 1.5 360 23:22 14.03.2020
1026 Haze 22 1013 46 4000 1.5 330 22:58 14.03.2020
1027 Haze 21 1013 64 4000 1 190 22:40 14.03.2020
1028 Haze 21 1013 64 4000 1 190 22:22 14.03.2020
1029 Haze 23 1013 60 4000 2.6 360 21:56 14.03.2020
1030 Haze 23 1013 60 4000 2.6 360 21:56 14.03.2020
1031 Mist 23 1013 60 4000 2.6 340 21:36 14.03.2020
1032 Mist 23 1013 60 4000 2.6 340 21:18 14.03.2020
1033 Mist 23 1013 78 4000 2.1 330 20:58 14.03.2020
1034 Mist 23 1013 78 4000 1 320 20:39 14.03.2020
1035 Mist 23 1013 78 4000 1 320 20:19 14.03.2020
1036 Mist 23 1013 78 4000 1 320 19:42 14.03.2020
1037 Mist 23 1014 78 4000 5.94 1 19:24 14.03.2020
1038 Mist 24 1013 73 5000 5.94 1 18:41 14.03.2020
1039 Haze 25 1013 73 5000 5.94 1 18:22 14.03.2020
1040 Haze 25 1013 73 5000 1 220 17:55 14.03.2020
1041 Haze 25 1013 73 5000 1 220 17:37 14.03.2020
1042 Haze 26 1013 69 5000 2.84 268 17:19 14.03.2020
1043 Haze 26 1013 69 5000 1 120 16:40 14.03.2020
1044 Haze 26 1013 69 5000 1 120 16:22 14.03.2020
1045 Haze 27 1013 65 5000 1.5 140 15:52 14.03.2020
1046 Haze 27 1012 65 5000 1.5 120 15:25 14.03.2020
1047 Haze 28 1012 61 5000 2.6 110 14:46 14.03.2020
1048 Haze 28 1012 61 5000 2.6 110 14:23 14.03.2020
1049 Clouds 29 1011 54 6000 1.5 130 13:57 14.03.2020
1050 Clouds 30 1011 45 6000 2.1 160 13:39 14.03.2020
1051 Clouds 30 1011 45 6000 2.1 160 13:20 14.03.2020
1052 Clouds 30 1011 45 6000 1 80 12:46 14.03.2020
1053 Clouds 30 1011 45 6000 1 80 12:27 14.03.2020
1054 Clouds 31 1011 43 6000 1.5 150 11:56 14.03.2020
1055 Clouds 31 1011 43 6000 1.5 150 11:56 14.03.2020
1056 Clouds 31 1011 43 6000 1.5 150 11:38 14.03.2020
1057 Clouds 31 1011 45 6000 1 20 11:19 14.03.2020
1058 Clouds 30 1012 48 6000 2.1 80 10:42 14.03.2020
1059 Clouds 30 1012 48 6000 2.1 80 10:42 14.03.2020
1060 Clouds 30 1012 48 6000 2.1 80 10:23 14.03.2020
1061 Clouds 30 1012 48 6000 3.1 70 09:47 14.03.2020
1062 Clouds 29 1013 51 6000 2.1 110 09:24 14.03.2020
1063 Clouds 29 1014 48 6000 2.6 90 08:54 14.03.2020
1064 Clouds 29 1014 48 6000 2.6 110 08:35 14.03.2020
1065 Clouds 29 1015 48 6000 2.1 60 07:56 14.03.2020
1066 Clouds 28 1015 48 6000 2.1 30 07:38 14.03.2020
1067 Clouds 28 1015 48 6000 2.1 30 07:19 14.03.2020
1068 Haze 26 1016 54 5000 1 70 06:40 14.03.2020
1069 Haze 26 1016 54 5000 1 70 06:40 14.03.2020
1070 Haze 24 1016 60 5000 1 30 05:43 14.03.2020
1071 Haze 22 1015 64 4000 2.1 10 03:49 14.03.2020
1072 Haze 22 1015 64 4000 1.5 40 03:24 14.03.2020
1073 Haze 22 1014 64 4000 3.1 360 02:23 14.03.2020
1074 Haze 22 1013 68 4000 4.1 10 00:49 14.03.2020
1075 Haze 23 1013 64 4000 3.1 30 23:50 13.03.2020
1076 Haze 23 1013 64 4000 1 30 23:30 13.03.2020
1077 Haze 23 1013 64 4000 2.6 30 22:52 13.03.2020
1078 Haze 24 1013 57 4000 3.1 180 22:26 13.03.2020
1079 Haze 24 1013 57 4000 2.1 10 21:44 13.03.2020
1080 Haze 23 1013 69 4000 2.6 10 21:22 13.03.2020
1081 Haze 22 1014 73 4000 1.5 50 20:59 13.03.2020
1082 Haze 23 1015 69 4000 1.5 50 20:40 13.03.2020
1083 Haze 23 1015 69 4000 1.5 50 20:20 13.03.2020
1084 Haze 23 1015 73 4000 1.5 120 19:48 13.03.2020
1085 Haze 25 1015 65 4000 1.5 40 19:30 13.03.2020
1086 Haze 26 1014 65 4000 3.6 10 18:49 13.03.2020
1087 Haze 26 1014 65 4000 3.6 10 18:31 13.03.2020
1088 Haze 28 1014 54 4000 2.6 320 17:57 13.03.2020
1089 Haze 27 1014 61 4000 5.6 10 17:38 13.03.2020
1090 Haze 28 1013 58 4000 0.86 203 17:20 13.03.2020
1091 Haze 28 1013 58 4000 0.86 203 16:42 13.03.2020
1092 Haze 28 1013 58 4000 0.86 203 16:24 13.03.2020
1093 Haze 27 1013 61 4000 0.86 203 15:56 13.03.2020
1094 Haze 28 1012 58 4000 0.86 203 15:37 13.03.2020
1095 Haze 28 1012 58 4000 0.86 203 15:19 13.03.2020
1096 Haze 28 1012 54 4000 1 190 14:41 13.03.2020
1097 Haze 29 1012 51 4000 2.1 180 14:22 13.03.2020
1098 Haze 30 1011 48 4000 1.5 200 13:57 13.03.2020
1099 Haze 31 1011 45 4000 3.1 200 13:38 13.03.2020
1100 Haze 31 1011 45 4000 3.1 200 13:19 13.03.2020
1101 Haze 31 1011 45 5000 3.1 170 12:40 13.03.2020
1102 Haze 31 1011 48 5000 4.1 190 12:22 13.03.2020
1103 Haze 31 1011 48 5000 4.1 190 11:59 13.03.2020
1104 Haze 31 1011 48 5000 4.1 190 11:41 13.03.2020
1105 Haze 31 1011 48 5000 4.1 190 11:41 13.03.2020
1106 Haze 31 1012 48 5000 4.1 200 11:22 13.03.2020
1107 Haze 31 1012 48 5000 4.1 200 10:48 13.03.2020
1108 Haze 31 1012 48 5000 3.1 200 10:28 13.03.2020
1109 Haze 31 1012 48 5000 3.1 200 10:28 13.03.2020
1110 Haze 31 1013 48 5000 3.1 170 09:58 13.03.2020
1111 Haze 31 1013 48 4000 2.1 200 09:39 13.03.2020
1112 Haze 31 1013 48 4000 2.1 200 09:20 13.03.2020
1113 Haze 30 1014 48 4000 1 300 08:45 13.03.2020
1114 Haze 30 1014 55 4000 1 330 08:23 13.03.2020
1115 Haze 29 1015 58 5000 1.5 280 07:50 13.03.2020
1116 Haze 29 1015 58 5000 1.5 280 07:28 13.03.2020
1117 Haze 29 1016 54 5000 1.5 360 06:53 13.03.2020
1118 Haze 27 1016 61 5000 1.5 340 06:32 13.03.2020
1119 Haze 27 1016 61 5000 1 340 05:54 13.03.2020
1120 Haze 26 1015 65 4000 5.92 176 05:22 13.03.2020
1121 Haze 25 1015 73 4000 1 0 04:37 13.03.2020
1122 Haze 23 1015 88 3000 3.2 99 03:37 13.03.2020
1123 Haze 22 1013 88 4000 0.8 34 01:46 13.03.2020
1124 Haze 23 1013 83 4000 2.1 340 01:19 13.03.2020
1125 Haze 23 1012 88 4000 1.5 340 00:53 13.03.2020
1126 Haze 23 1012 88 4000 1.5 340 00:24 13.03.2020
1127 Haze 23 1012 88 4000 0.69 161 23:48 12.03.2020
1128 Haze 23 1012 88 4000 0.69 161 23:26 12.03.2020
1129 Haze 23 1012 88 4000 1.13 131 22:56 12.03.2020
1130 Haze 23 1013 83 4000 1.13 131 22:38 12.03.2020
1131 Haze 23 1013 83 4000 1.13 131 22:19 12.03.2020
1132 Haze 23 1013 88 4000 1.13 131 21:43 12.03.2020
1133 Haze 24 1013 78 4000 1.13 131 21:25 12.03.2020
1134 Haze 24 1013 78 4000 1.13 131 21:25 12.03.2020
1135 Haze 23 1014 78 4000 1 180 20:57 12.03.2020
1136 Haze 24 1014 78 4000 1.13 131 20:37 12.03.2020
1137 Haze 24 1014 78 4000 1.13 131 20:37 12.03.2020
1138 Haze 24 1014 78 4000 1.11 3 20:18 12.03.2020
1139 Haze 26 1014 69 4000 1.11 3 19:39 12.03.2020
1140 Haze 26 1014 69 4000 1.11 3 19:20 12.03.2020
1141 Haze 26 1014 69 4000 1.5 270 18:43 12.03.2020
1142 Haze 26 1014 69 4000 1.5 270 18:43 12.03.2020
1143 Haze 26 1014 69 4000 1.5 270 18:24 12.03.2020
1144 Haze 27 1014 61 4000 2.1 140 17:57 12.03.2020
1145 Haze 27 1014 61 4000 2.1 140 17:37 12.03.2020
1146 Haze 27 1013 57 4000 1.5 120 17:18 12.03.2020
1147 Haze 27 1013 57 4000 1.5 120 16:54 12.03.2020
1148 Haze 26 1013 61 4000 1 110 16:36 12.03.2020
1149 Haze 26 1013 61 4000 1 110 16:18 12.03.2020
1150 Haze 28 1012 51 5000 1 120 15:41 12.03.2020
1151 Haze 28 1012 51 5000 1 120 15:22 12.03.2020
1152 Haze 30 1012 45 5000 0.63 335 14:39 12.03.2020
1153 Haze 30 1012 45 5000 2.3 231 14:19 12.03.2020
1154 Haze 31 1011 40 5000 1 90 13:41 12.03.2020
1155 Haze 31 1011 40 5000 1 90 13:22 12.03.2020
1156 Haze 32 1011 40 5000 5.51 259 12:55 12.03.2020
1157 Haze 32 1011 40 5000 5.51 259 12:55 12.03.2020
1158 Haze 32 1011 40 5000 1 90 12:37 12.03.2020
1159 Haze 32 1011 35 5000 1 120 12:18 12.03.2020
1160 Haze 32 1011 35 5000 1 120 11:56 12.03.2020
1161 Haze 32 1011 35 5000 1 120 11:56 12.03.2020
1162 Haze 32 1012 35 5000 2.6 180 11:37 12.03.2020
1163 Haze 32 1012 35 5000 1.5 190 11:19 12.03.2020
1164 Haze 32 1012 35 5000 1.5 190 10:56 12.03.2020
1165 Haze 32 1012 35 5000 1.5 80 10:38 12.03.2020
1166 Haze 32 1012 35 5000 1.5 80 10:19 12.03.2020
1167 Haze 31 1013 40 5000 3.27 219 09:43 12.03.2020
1168 Haze 31 1013 40 5000 2.6 130 09:25 12.03.2020
1169 Haze 32 1014 38 5000 1 50 08:41 12.03.2020
1170 Haze 30 1015 45 5000 1 40 08:19 12.03.2020
1171 Haze 30 1015 45 5000 1 40 07:53 12.03.2020
1172 Haze 29 1015 48 5000 1.5 60 07:23 12.03.2020
1173 Haze 28 1016 54 5000 1.5 60 06:44 12.03.2020
1174 Haze 27 1016 57 4000 2.1 20 05:40 12.03.2020
1175 Haze 25 1015 53 3000 2.1 30 04:27 12.03.2020
1176 Haze 21 1013 64 3000 1.5 300 02:34 12.03.2020
1177 Haze 22 1012 64 3000 1.29 331 01:30 12.03.2020
1178 Haze 23 1012 60 3000 1 350 00:42 12.03.2020
1179 Haze 23 1012 56 3000 2.1 320 23:59 11.03.2020
1180 Haze 23 1012 56 3000 2.1 320 23:59 11.03.2020
1181 Haze 23 1012 56 3000 2.1 320 23:59 11.03.2020
1182 Haze 23 1012 56 3000 2.1 320 23:40 11.03.2020
1183 Haze 25 1012 50 3000 2.1 320 23:22 11.03.2020
1184 Haze 25 1012 53 3000 1.5 310 22:45 11.03.2020
1185 Haze 25 1012 53 3000 1.5 310 22:25 11.03.2020
1186 Haze 25 1012 53 3000 1.5 310 21:58 11.03.2020
1187 Haze 25 1012 57 3000 1.5 320 21:40 11.03.2020
1188 Haze 25 1012 57 3000 1.5 320 21:22 11.03.2020
1189 Haze 24 1012 64 3000 1.28 201 20:58 11.03.2020
1190 Haze 24 1012 60 3000 1.28 201 20:38 11.03.2020
1191 Haze 24 1012 60 3000 1.51 177 20:19 11.03.2020
1192 Haze 23 1012 69 3000 1.35 188 19:43 11.03.2020
1193 Haze 24 1012 60 3000 1.35 188 19:25 11.03.2020
1194 Haze 26 1012 50 4000 1.35 188 18:57 11.03.2020
1195 Haze 26 1012 50 4000 1.35 188 18:38 11.03.2020
1196 Haze 25 1012 53 4000 1.35 188 18:20 11.03.2020
1197 Haze 25 1012 53 4000 1.35 188 17:56 11.03.2020
1198 Haze 27 1012 47 4000 1.35 188 17:37 11.03.2020
1199 Haze 28 1012 45 4000 1 350 17:19 11.03.2020
1200 Haze 28 1012 45 4000 1 350 16:45 11.03.2020
1201 Haze 27 1011 54 4000 1.23 254 16:20 11.03.2020
1202 Haze 27 1011 54 4000 1.23 254 15:44 11.03.2020
1203 Haze 27 1010 54 5000 1.23 254 15:23 11.03.2020
1204 Haze 28 1010 51 5000 1.23 254 14:56 11.03.2020
1205 Haze 29 1010 45 5000 1.5 170 14:38 11.03.2020
1206 Haze 29 1010 45 5000 1.5 170 14:19 11.03.2020
1207 Haze 30 1010 42 5000 2.1 180 13:44 11.03.2020
1208 Haze 31 1009 38 5000 3.1 200 13:25 11.03.2020
1209 Haze 32 1009 35 5000 3.6 200 12:57 11.03.2020
1210 Haze 32 1009 35 5000 4.1 230 12:39 11.03.2020
1211 Haze 32 1009 35 5000 4.1 230 12:19 11.03.2020
1212 Haze 33 1009 36 5000 3.1 200 11:41 11.03.2020
1213 Haze 33 1009 36 5000 3.1 200 11:22 11.03.2020
1214 Haze 32 1010 38 5000 2.6 230 10:49 11.03.2020
1215 Haze 32 1010 35 5000 2.6 210 10:21 11.03.2020
1216 Haze 32 1010 35 5000 2.6 210 10:21 11.03.2020
1217 Haze 32 1010 35 5000 2.6 210 10:21 11.03.2020
1218 Haze 31 1011 43 5000 2.6 150 09:59 11.03.2020
1219 Haze 31 1011 45 5000 2.6 210 09:40 11.03.2020
1220 Haze 31 1011 45 5000 2.6 210 09:21 11.03.2020
1221 Haze 30 1012 48 5000 2.6 240 08:43 11.03.2020
1222 Haze 29 1012 54 5000 2.6 220 08:25 11.03.2020
1223 Haze 28 1013 58 5000 1 250 07:47 11.03.2020
1224 Haze 27 1013 61 5000 2.1 250 07:21 11.03.2020
1225 Haze 27 1014 57 4000 1.5 260 06:50 11.03.2020
1226 Haze 25 1014 65 4000 1 100 06:31 11.03.2020
1227 Haze 23 1014 64 3000 1 100 05:33 11.03.2020
1228 Haze 21 1013 73 3000 1 50 03:26 11.03.2020
1229 Haze 21 1013 73 3000 1 50 03:26 11.03.2020
1230 Haze 21 1013 73 3000 1 50 03:26 11.03.2020
1231 Haze 20 1011 77 3000 1.5 30 01:53 11.03.2020
1232 Haze 20 1011 77 3000 1 60 01:24 11.03.2020
1233 Haze 21 1011 73 3000 1 40 00:40 11.03.2020
1234 Haze 21 1011 73 3000 1 40 23:50 10.03.2020
1235 Haze 21 1011 73 3000 2.1 30 23:28 10.03.2020
1236 Haze 21 1011 77 3000 1.5 50 22:58 10.03.2020
1237 Haze 21 1011 77 3000 1.5 60 22:37 10.03.2020
1238 Haze 21 1011 77 3000 1.5 60 22:19 10.03.2020
1239 Haze 21 1011 77 3000 2.6 60 21:56 10.03.2020
1240 Haze 21 1011 77 3000 2.1 70 21:38 10.03.2020
1241 Haze 21 1011 77 3000 2.1 70 21:18 10.03.2020
1242 Haze 21 1011 77 3000 2.1 70 21:18 10.03.2020
1243 Haze 22 1012 68 3000 3.1 70 20:42 10.03.2020
1244 Haze 21 1011 73 3000 3.6 80 20:20 10.03.2020
1245 Haze 21 1012 77 3000 4.1 70 19:58 10.03.2020
1246 Haze 22 1012 83 3000 4.1 70 19:40 10.03.2020
1247 Haze 22 1012 83 3000 4.1 70 19:22 10.03.2020
1248 Haze 23 1012 83 3000 4.1 80 18:56 10.03.2020
1249 Haze 23 1012 83 3000 4.1 70 18:37 10.03.2020
1250 Haze 23 1012 83 3000 4.1 70 18:19 10.03.2020
1251 Haze 24 1012 78 3000 2.6 80 17:41 10.03.2020
1252 Haze 24 1012 78 3000 2.6 80 17:22 10.03.2020
1253 Haze 24 1011 78 3000 3.6 60 16:57 10.03.2020
1254 Haze 25 1011 73 3000 3.6 60 16:37 10.03.2020
1255 Haze 25 1011 73 3000 3.6 60 16:18 10.03.2020
1256 Haze 26 1010 74 3000 3.1 60 15:41 10.03.2020
1257 Haze 26 1010 74 3000 3.1 60 15:20 10.03.2020
1258 Haze 26 1009 69 3000 1 120 14:58 10.03.2020
1259 Haze 27 1009 65 3000 1.5 140 14:40 10.03.2020
1260 Haze 27 1009 65 3000 1.5 140 14:19 10.03.2020
1261 Haze 28 1009 61 3000 3.1 160 13:43 10.03.2020
1262 Haze 30 1009 55 3000 1 90 13:25 10.03.2020
1263 Haze 30 1008 55 3000 2.1 130 12:55 10.03.2020
1264 Haze 30 1008 58 3000 2.6 80 12:36 10.03.2020
1265 Haze 32 1008 49 4000 1.5 60 12:18 10.03.2020
1266 Haze 32 1008 49 4000 1.5 60 12:18 10.03.2020
1267 Haze 32 1009 46 4000 2.1 100 11:42 10.03.2020
1268 Haze 32 1009 46 4000 2.1 100 11:24 10.03.2020
1269 Haze 31 1009 52 4000 2.1 120 10:54 10.03.2020
1270 Haze 31 1010 52 4000 1 90 10:36 10.03.2020
1271 Haze 31 1010 52 4000 1 90 10:18 10.03.2020
1272 Haze 29 1011 58 4000 1 60 09:44 10.03.2020
1273 Haze 29 1012 62 4000 1.5 90 09:20 10.03.2020
1274 Haze 28 1012 61 4000 1 180 08:54 10.03.2020
1275 Haze 28 1013 65 4000 1 50 08:35 10.03.2020
1276 Haze 27 1013 65 4000 1 60 07:58 10.03.2020
1277 Haze 26 1014 69 3000 1 90 07:40 10.03.2020
1278 Haze 26 1014 69 3000 1 90 07:19 10.03.2020
1279 Haze 25 1014 69 3000 1.5 70 06:37 10.03.2020
1280 Mist 24 1014 69 2500 1.5 80 05:42 10.03.2020
1281 Mist 23 1014 78 2500 1.5 40 05:19 10.03.2020
1282 Mist 22 1014 78 2000 1 360 04:29 10.03.2020
1283 Mist 21 1012 88 1500 1 30 02:58 10.03.2020
1284 Mist 21 1011 88 2000 2.2 45 01:32 10.03.2020
1285 Mist 21 1011 94 2000 2.22 64 00:50 10.03.2020
1286 Mist 21 1011 94 1500 1 90 00:28 10.03.2020
1287 Rain 21 1012 88 1500 1 310 23:42 09.03.2020
1288 Rain 22 1012 83 2000 4.1 260 23:22 09.03.2020
1289 Rain 21 1012 88 1500 1 310 23:22 09.03.2020
1290 Rain 22 1012 83 2000 4.1 260 22:57 09.03.2020
1291 Drizzle 24 1011 64 3000 1 360 22:38 09.03.2020
1292 Drizzle 24 1011 64 3000 1 360 22:19 09.03.2020
1293 Drizzle 25 1011 57 4000 1 50 21:43 09.03.2020
1294 Haze 24 1011 60 4000 1.5 40 21:22 09.03.2020
1295 Haze 25 1012 57 4000 1 70 20:58 09.03.2020
1296 Haze 24 1012 64 4000 1 70 20:40 09.03.2020
1297 Haze 24 1012 64 4000 1 70 20:20 09.03.2020
1298 Haze 24 1012 60 4000 1.5 100 19:45 09.03.2020
1299 Haze 25 1013 57 4000 1.5 70 19:26 09.03.2020
1300 Haze 25 1013 57 4000 1.5 70 18:59 09.03.2020
1301 Haze 25 1013 57 4000 2.1 90 18:40 09.03.2020
1302 Haze 25 1013 57 4000 2.1 90 18:20 09.03.2020
1303 Haze 26 1013 54 4000 2.1 100 17:58 09.03.2020
1304 Haze 26 1013 50 4000 2.1 90 17:38 09.03.2020
1305 Haze 26 1012 50 4000 2.6 90 17:20 09.03.2020
1306 Haze 26 1012 50 4000 2.6 90 16:59 09.03.2020
1307 Haze 26 1012 54 3500 1.5 100 16:41 09.03.2020
1308 Haze 26 1012 54 3500 1.5 100 16:22 09.03.2020
1309 Haze 26 1012 54 3500 1.5 100 15:58 09.03.2020
1310 Haze 27 1012 54 3000 1 100 15:39 09.03.2020
1311 Haze 27 1012 54 3000 1 100 15:21 09.03.2020
1312 Haze 27 1011 51 3000 2.1 100 14:57 09.03.2020
1313 Haze 28 1010 45 3000 2.6 90 14:37 09.03.2020
1314 Haze 28 1010 45 3000 2.6 90 14:19 09.03.2020
1315 Haze 28 1010 45 3000 2.6 90 13:57 09.03.2020
1316 -273 0 0 0 0 0 13:38 09.03.2020
1317 Haze 29 1010 45 3000 2.1 60 13:18 09.03.2020
1318 Haze 29 1010 45 3000 2.1 80 12:43 09.03.2020
1319 Haze 30 1010 40 4000 2.1 80 12:22 09.03.2020
1320 Haze 29 1010 42 4000 2.1 120 11:54 09.03.2020
1321 Haze 30 1011 42 4000 2.1 70 11:36 09.03.2020
1322 Haze 30 1011 42 4000 2.1 70 11:18 09.03.2020
1323 Haze 30 1011 40 4000 3.1 80 10:54 09.03.2020
1324 Haze 30 1012 40 4000 4.1 60 10:36 09.03.2020
1325 Haze 30 1012 40 4000 4.1 60 10:18 09.03.2020
1326 Haze 29 1013 42 4000 3.1 80 09:38 09.03.2020
1327 Haze 29 1013 42 4000 3.1 80 09:19 09.03.2020
1328 Haze 28 1014 45 5000 3.1 80 08:44 09.03.2020
1329 Clouds 28 1014 42 6000 3.6 70 08:25 09.03.2020
1330 Clouds 28 1015 39 6000 3.1 70 07:42 09.03.2020
1331 Clouds 28 1015 37 6000 4.1 60 07:22 09.03.2020
1332 Clouds 27 1016 36 6000 3.6 60 06:46 09.03.2020
1333 Clouds 26 1016 39 6000 3.6 40 06:26 09.03.2020
1334 Clouds 25 1016 41 6000 3.1 30 05:57 09.03.2020
1335 Haze 24 1016 44 5000 3.1 20 05:39 09.03.2020
1336 Haze 23 1016 46 5000 2.6 50 04:43 09.03.2020
1337 Haze 22 1015 49 4000 2.1 20 04:22 09.03.2020
1338 Haze 22 1014 49 4000 1.5 40 03:21 09.03.2020
1339 Haze 21 1013 52 4000 3.1 20 01:49 09.03.2020
1340 Haze 22 1012 49 4000 3.1 20 00:39 09.03.2020
1341 Haze 22 1012 49 4000 3.1 20 00:20 09.03.2020
1342 Haze 23 1012 46 4000 2.6 20 23:51 08.03.2020
1343 Haze 23 1012 46 4000 3.6 30 23:23 08.03.2020
1344 Haze 23 1013 46 4000 2.1 40 22:57 08.03.2020
1345 Haze 23 1013 46 4000 2.1 40 22:57 08.03.2020
1346 Haze 23 1013 53 4000 1 30 22:38 08.03.2020
1347 Haze 23 1013 53 4000 1 30 22:20 08.03.2020
1348 Haze 23 1013 53 4000 1.5 30 21:54 08.03.2020
1349 Haze 24 1013 53 4000 2.1 40 21:36 08.03.2020
1350 Haze 24 1013 53 4000 2.1 40 21:18 08.03.2020
1351 Haze 24 1013 53 4000 2.1 40 21:18 08.03.2020
1352 Haze 23 1014 78 4000 2.1 60 20:39 08.03.2020
1353 Haze 23 1014 78 4000 2.1 60 20:21 08.03.2020
1354 Haze 24 1014 73 4000 1 40 19:54 08.03.2020
1355 Haze 24 1014 73 4000 1 40 19:36 08.03.2020
1356 Haze 24 1014 73 4000 1.5 60 19:18 08.03.2020
1357 Haze 24 1015 73 4000 1 60 18:40 08.03.2020
1358 Haze 24 1015 73 4000 1 60 18:22 08.03.2020
1359 Haze 25 1014 65 4000 1 90 17:56 08.03.2020
1360 Haze 25 1014 65 4000 1 90 17:56 08.03.2020
1361 Haze 25 1014 65 4000 1 90 17:37 08.03.2020
1362 Haze 25 1014 65 4000 1 90 17:18 08.03.2020
1363 Haze 25 1014 65 4000 1 90 16:43 08.03.2020
1364 Haze 26 1014 54 4000 1 120 16:25 08.03.2020
1365 Haze 27 1013 44 4000 1 100 15:56 08.03.2020
1366 Haze 27 1013 44 4000 1 100 15:37 08.03.2020
1367 Haze 27 1013 44 4000 1 100 15:18 08.03.2020
1368 Haze 29 1012 37 4000 1 30 14:40 08.03.2020
1369 Haze 29 1012 37 4000 1 30 14:21 08.03.2020
1370 Haze 29 1012 37 4000 0.5 30 13:56 08.03.2020
1371 Haze 29 1012 37 4000 0.5 30 13:56 08.03.2020
1372 Haze 29 1012 37 4000 0.5 30 13:37 08.03.2020
1373 Haze 31 1012 33 5000 1 360 13:18 08.03.2020
1374 Haze 31 1011 33 5000 1 360 12:38 08.03.2020
1375 Haze 31 1011 33 5000 1 330 12:19 08.03.2020
1376 Haze 31 1014 35 5000 2.6 90 11:44 08.03.2020
1377 Haze 31 1014 35 5000 2.6 90 11:25 08.03.2020
1378 Haze 31 1014 35 5000 2.6 90 10:59 08.03.2020
1379 Haze 31 1014 35 5000 2.6 90 10:59 08.03.2020
1380 Haze 31 1014 35 5000 2.6 90 10:41 08.03.2020
1381 Haze 31 1013 33 5000 1.5 120 10:22 08.03.2020
1382 Haze 30 1014 35 5000 2.6 80 09:40 08.03.2020
1383 Haze 30 1014 35 5000 2.6 80 09:22 08.03.2020
1384 Haze 29 1015 37 5000 3.1 110 08:49 08.03.2020
1385 Haze 29 1015 37 5000 3.1 110 08:25 08.03.2020
1386 Haze 29 1016 37 5000 1.5 90 07:50 08.03.2020
1387 Haze 29 1016 37 5000 2.6 90 07:28 08.03.2020
1388 Haze 27 1017 42 5000 2.6 50 06:54 08.03.2020
1389 Haze 27 1017 42 5000 2.6 60 06:35 08.03.2020
1390 Haze 26 1017 44 4000 2.6 60 05:58 08.03.2020
1391 Haze 24 1016 50 3000 3.1 60 04:50 08.03.2020
1392 Haze 21 1016 56 3000 2.1 30 03:27 08.03.2020
1393 Haze 20 1014 56 3000 1 30 02:27 08.03.2020
1394 Haze 21 1014 52 3000 1 30 01:21 08.03.2020
1395 Haze 21 1013 52 3000 1.5 30 00:42 08.03.2020
1396 Haze 21 1013 56 3000 1.5 40 00:22 08.03.2020
1397 Haze 21 1013 56 3000 1.5 40 23:43 07.03.2020
1398 Haze 21 1013 56 3000 1.5 20 23:21 07.03.2020
1399 Haze 23 1013 53 3000 1.5 20 22:38 07.03.2020
1400 Haze 23 1013 53 3000 1.5 20 22:20 07.03.2020
1401 Haze 23 1013 53 3000 1.5 20 21:47 07.03.2020
1402 Haze 23 1014 49 3000 3.43 13 21:24 07.03.2020
1403 Haze 23 1014 49 3000 3.43 13 20:42 07.03.2020
1404 Haze 24 1014 44 3000 2.6 360 20:22 07.03.2020
1405 Haze 24 1014 44 3000 2.6 360 20:22 07.03.2020
1406 Haze 24 1014 41 3000 2.6 310 19:55 07.03.2020
1407 Haze 24 1014 44 3000 1.5 310 19:37 07.03.2020
1408 Haze 24 1014 44 3000 1.5 310 19:18 07.03.2020
1409 Haze 25 1014 44 4000 3.68 351 18:40 07.03.2020
1410 Haze 25 1014 44 4000 3.68 351 18:21 07.03.2020
1411 Haze 24 1014 44 4000 1 240 17:43 07.03.2020
1412 Haze 24 1014 44 4000 1 240 17:21 07.03.2020
1413 Haze 24 1014 44 4000 3.16 279 16:59 07.03.2020
1414 Haze 26 1014 36 4000 1.5 250 16:41 07.03.2020
1415 Haze 26 1014 36 4000 1.5 250 16:22 07.03.2020
1416 Haze 27 1013 34 4000 1.5 260 15:57 07.03.2020
1417 Haze 28 1013 32 4000 1.5 290 15:37 07.03.2020
1418 Haze 28 1013 32 4000 1.5 290 15:37 07.03.2020
1419 Haze 28 1013 32 4000 1.5 290 15:19 07.03.2020
1420 Haze 27 1013 36 4000 2.1 240 14:46 07.03.2020
1421 Haze 28 1012 37 4000 1 200 14:25 07.03.2020
1422 Haze 29 1012 39 4000 1 150 13:58 07.03.2020
1423 Haze 29 1012 39 4000 1 140 13:38 07.03.2020
1424 Haze 29 1012 39 4000 1 140 13:19 07.03.2020
1425 Haze 30 1011 33 4000 2.1 280 12:41 07.03.2020
1426 Haze 30 1011 33 4000 2.1 280 12:20 07.03.2020
1427 Haze 31 1011 29 4000 1 270 11:57 07.03.2020
1428 Haze 31 1012 29 5000 1 250 11:38 07.03.2020
1429 Haze 31 1012 29 5000 1 250 11:19 07.03.2020
1430 Haze 31 1012 31 5000 1 200 10:40 07.03.2020
1431 Haze 31 1012 31 5000 1 200 10:20 07.03.2020
1432 Haze 30 1013 33 5000 1.5 180 09:56 07.03.2020
1433 Haze 30 1013 33 5000 3.1 260 09:37 07.03.2020
1434 Haze 30 1013 33 5000 3.1 260 09:18 07.03.2020
1435 Haze 29 1014 37 5000 1.5 110 08:43 07.03.2020
1436 Haze 29 1015 35 5000 1 200 08:21 07.03.2020
1437 Haze 28 1015 39 5000 1.5 30 07:49 07.03.2020
1438 Clear 30 1013 30 0 3.05 42 07:23 07.03.2020
1439 Clear 30 1013 30 0 3.05 42 06:55 07.03.2020
1440 Clear 30 1013 30 0 3.05 42 06:29 07.03.2020
1441 Haze 24 1016 50 4000 4.1 360 05:50 07.03.2020
1442 Haze 24 1015 50 4000 3.1 350 04:40 07.03.2020
1443 Haze 17 1012 72 4000 4.71 7 02:46 07.03.2020
1444 Haze 17 1012 72 4000 4.71 7 02:24 07.03.2020
1445 Haze 17 1012 77 4000 2.87 1 01:26 07.03.2020
1446 Haze 18 1011 72 4000 2.05 23 00:38 07.03.2020
1447 Haze 18 1011 72 4000 2.05 23 00:19 07.03.2020
1448 Haze 19 1011 68 4000 2.05 23 23:43 06.03.2020
1449 Haze 19 1011 63 4000 2.05 23 23:25 06.03.2020
1450 Haze 18 1011 77 4000 3.21 326 22:47 06.03.2020
1451 Haze 19 1011 82 4000 3.21 326 22:21 06.03.2020
1452 Haze 21 1011 77 4000 3.21 326 21:54 06.03.2020
1453 Haze 20 1011 88 4000 3.21 326 21:36 06.03.2020
1454 Haze 20 1011 88 4000 3.21 326 21:18 06.03.2020
1455 Haze 21 1011 83 4000 3.21 326 20:37 06.03.2020
1456 Haze 21 1011 83 4000 1.61 316 20:19 06.03.2020
1457 Haze 21 1011 77 4000 1.61 316 19:44 06.03.2020
1458 Haze 21 1011 77 4000 1.61 316 19:26 06.03.2020
1459 Haze 23 1011 73 4000 1 100 18:44 06.03.2020
1460 Haze 23 1011 53 4000 2.1 90 18:21 06.03.2020
1461 Haze 23 1011 49 4000 1 320 17:58 06.03.2020
1462 Haze 23 1011 49 4000 1 320 17:40 06.03.2020
1463 Haze 26 1010 34 4000 1 320 17:21 06.03.2020
1464 Haze 26 1010 34 4000 1 320 16:58 06.03.2020
1465 Haze 26 1010 34 4000 1 320 16:40 06.03.2020
1466 Haze 26 1010 34 4000 1 320 16:19 06.03.2020
1467 Haze 27 1009 32 4000 2.1 280 15:44 06.03.2020
1468 Haze 27 1009 32 4000 2.1 280 15:24 06.03.2020
1469 Haze 29 1008 28 4000 3.6 260 14:45 06.03.2020
1470 Haze 29 1008 28 4000 3.6 260 14:24 06.03.2020
1471 Haze 30 1008 28 4000 4.1 250 13:59 06.03.2020
1472 Haze 31 1008 25 4000 6.2 250 13:40 06.03.2020
1473 Haze 31 1008 25 4000 6.2 250 13:20 06.03.2020
1474 Haze 32 1007 29 4000 5.1 230 12:55 06.03.2020
1475 Haze 32 1007 29 4000 6.2 260 12:36 06.03.2020
1476 Haze 32 1007 29 4000 6.2 260 12:18 06.03.2020
1477 Haze 32 1007 31 4000 3.6 210 11:43 06.03.2020
1478 Haze 32 1008 31 4000 4.1 220 11:21 06.03.2020
1479 Haze 32 1008 31 4000 4.1 220 11:21 06.03.2020
1480 Haze 32 1008 31 4000 4.1 220 10:57 06.03.2020
1481 Haze 33 1008 36 4000 5.7 220 10:36 06.03.2020
1482 Haze 33 1008 36 4000 5.7 220 10:18 06.03.2020
1483 Haze 32 1010 46 4000 4.6 230 09:42 06.03.2020
1484 Haze 32 1010 46 4000 3.6 210 09:24 06.03.2020
1485 Haze 31 1010 48 4000 4.1 210 08:56 06.03.2020
1486 Haze 31 1010 52 4000 4.6 220 08:38 06.03.2020
1487 Haze 31 1010 52 4000 4.6 220 08:38 06.03.2020
1488 Haze 31 1010 52 4000 4.6 220 08:19 06.03.2020
1489 Haze 30 1010 58 4000 4.6 200 07:45 06.03.2020
1490 Haze 28 1011 58 3000 5.1 210 07:24 06.03.2020
1491 Haze 27 1011 61 3000 4.6 200 06:43 06.03.2020
1492 Haze 27 1012 61 3000 4.6 220 06:22 06.03.2020
1493 Haze 21 1012 56 3000 3.6 200 05:38 06.03.2020
1494 Haze 21 1012 56 3000 3.6 200 05:19 06.03.2020
1495 Haze 20 1011 56 3000 2.55 179 04:39 06.03.2020
1496 Haze 18 1009 63 4000 1 30 01:44 06.03.2020
1497 Haze 18 1008 68 4000 1 30 01:25 06.03.2020
1498 Haze 17 1008 72 4000 1 360 00:50 06.03.2020
1499 Haze 17 1007 72 4000 1 360 00:30 06.03.2020
1500 Haze 18 1008 68 4000 1.74 134 23:44 05.03.2020
1501 Haze 19 1008 63 4000 1.74 134 23:25 05.03.2020
1502 Haze 19 1008 59 4000 2.5 3 22:55 05.03.2020
1503 Haze 19 1009 59 4000 2.5 3 22:37 05.03.2020
1504 Haze 19 1009 59 4000 2.5 3 22:18 05.03.2020
1505 Haze 19 1009 59 4000 2.5 3 21:55 05.03.2020
1506 Haze 20 1009 56 4000 2.5 3 21:37 05.03.2020
1507 Haze 20 1009 56 4000 2.5 3 21:18 05.03.2020
1508 Haze 20 1010 56 4000 1 180 20:42 05.03.2020
1509 Haze 21 1010 52 4000 3.1 150 20:21 05.03.2020
1510 Haze 22 1010 49 4000 1.5 100 19:59 05.03.2020
1511 Haze 22 1010 46 4000 1 320 19:40 05.03.2020
1512 Haze 22 1010 46 4000 1 320 19:21 05.03.2020
1513 Haze 23 1010 43 4000 1 320 18:58 05.03.2020
1514 Haze 23 1010 43 4000 1 320 18:58 05.03.2020
1515 Haze 23 1010 43 4000 1 290 18:37 05.03.2020
1516 Haze 23 1010 43 4000 1 290 18:19 05.03.2020
1517 Haze 23 1011 43 4000 1 270 17:57 05.03.2020
1518 Haze 23 1011 43 4000 1 270 17:57 05.03.2020
1519 Haze 24 1011 41 4000 1 220 17:39 05.03.2020
1520 Haze 24 1011 41 4000 1 220 17:20 05.03.2020
1521 Haze 24 1010 38 4000 1 220 16:41 05.03.2020
1522 Haze 25 1010 36 4000 1 230 16:23 05.03.2020
1523 Haze 24 1009 38 4000 1 210 15:57 05.03.2020
1524 Haze 25 1009 36 4000 1.5 210 15:37 05.03.2020
1525 Haze 25 1009 36 4000 1.5 210 15:19 05.03.2020
1526 Haze 27 1008 32 4000 1 160 14:41 05.03.2020
1527 Haze 27 1008 32 4000 1 160 14:22 05.03.2020
1528 Haze 29 1008 26 4000 2.1 170 13:58 05.03.2020
1529 Haze 31 1008 22 4000 3.1 190 13:39 05.03.2020
1530 Haze 31 1008 22 4000 3.1 190 13:20 05.03.2020
1531 Haze 32 1008 21 5000 2.6 180 12:55 05.03.2020
1532 Haze 32 1008 21 5000 3.6 180 12:36 05.03.2020
1533 Haze 32 1008 21 5000 3.6 180 12:18 05.03.2020
1534 Haze 31 1008 22 5000 3.1 160 11:55 05.03.2020
1535 Haze 32 1008 22 5000 3.6 170 11:36 05.03.2020
1536 Haze 32 1008 22 5000 3.6 170 11:18 05.03.2020
1537 Haze 31 1008 22 5000 2.1 260 10:55 05.03.2020
1538 Haze 32 1009 21 5000 1 200 10:37 05.03.2020
1539 Haze 32 1009 21 5000 1 200 10:19 05.03.2020
1540 Clouds 31 1010 22 6000 1 360 09:40 05.03.2020
1541 Clouds 31 1010 22 6000 1 360 09:22 05.03.2020
1542 Clouds 31 1011 23 6000 2.1 100 08:43 05.03.2020
1543 Clear 30 1012 25 6000 1.5 110 08:24 05.03.2020
1544 Clear 30 1012 25 6000 1.5 110 07:45 05.03.2020
1545 Clear 29 1013 26 6000 2.1 320 07:22 05.03.2020
1546 Clear 29 1013 28 6000 1.5 320 06:45 05.03.2020
1547 Clear 29 1013 28 6000 1.5 320 06:45 05.03.2020
1548 Haze 27 1013 32 5000 2.1 10 06:21 05.03.2020
1549 Haze 25 1013 36 5000 1 40 05:37 05.03.2020
1550 Haze 23 1013 43 5000 2.1 20 04:25 05.03.2020
1551 Clear 22 1012 46 6000 1.55 360 03:58 05.03.2020
1552 Haze 20 1012 56 5000 1.5 70 03:18 05.03.2020
1553 Haze 19 1009 55 4000 1.5 330 01:28 05.03.2020
1554 Haze 18 1009 59 5000 1 290 00:56 05.03.2020
1555 Haze 21 1009 46 5000 2.1 360 23:58 04.03.2020
1556 Haze 21 1009 46 5000 2.1 360 23:58 04.03.2020
1557 Haze 20 1009 52 5000 2.1 320 23:40 04.03.2020
1558 Haze 20 1009 52 5000 2.1 320 23:21 04.03.2020
1559 Haze 21 1009 49 5000 1.5 320 22:56 04.03.2020
1560 Haze 23 1009 43 5000 2.1 330 22:37 04.03.2020
1561 Haze 23 1009 43 5000 2.1 330 22:19 04.03.2020
1562 Haze 23 1009 43 5000 2.1 330 21:55 04.03.2020
1563 Haze 23 1010 43 5000 2.1 340 21:37 04.03.2020
1564 Haze 23 1010 43 5000 2.1 340 21:18 04.03.2020
1565 Haze 25 1010 36 5000 2.1 340 20:40 04.03.2020
1566 Haze 25 1010 36 5000 2.1 340 20:40 04.03.2020
1567 Haze 25 1010 36 5000 2.1 340 20:22 04.03.2020
1568 Haze 23 1011 38 5000 2.6 320 19:57 04.03.2020
1569 Haze 24 1011 31 5000 2.6 310 19:38 04.03.2020
1570 Haze 24 1011 31 5000 2.6 310 19:20 04.03.2020
1571 Haze 24 1011 33 5000 2.6 290 18:42 04.03.2020
1572 Haze 24 1011 33 5000 2.6 290 18:23 04.03.2020
1573 Haze 24 1011 33 5000 1.5 320 17:59 04.03.2020
1574 Haze 25 1010 29 5000 2.6 310 17:39 04.03.2020
1575 Haze 25 1010 29 5000 2.6 310 17:20 04.03.2020
1576 Haze 26 1010 27 5000 1.5 300 16:56 04.03.2020
1577 Haze 26 1010 27 5000 2.1 290 16:37 04.03.2020
1578 Haze 26 1010 27 5000 2.1 290 16:19 04.03.2020
1579 Haze 27 1009 26 5000 2.1 290 15:44 04.03.2020
1580 Haze 27 1009 26 5000 2.1 290 15:26 04.03.2020
1581 Haze 29 1009 21 5000 1.5 250 14:58 04.03.2020
1582 Clear 29 1008 21 6000 1.5 230 14:39 04.03.2020
1583 Clear 29 1008 21 6000 1.5 230 14:19 04.03.2020
1584 Clear 31 1008 20 6000 2.1 230 13:58 04.03.2020
1585 Clear 32 1008 18 6000 3.1 210 13:39 04.03.2020
1586 Clear 32 1008 18 6000 3.1 210 13:39 04.03.2020
1587 Clear 32 1008 18 6000 3.1 210 13:20 04.03.2020
1588 Clouds 33 1008 17 6000 4.1 210 12:55 04.03.2020
1589 Clouds 33 1008 17 6000 4.1 210 12:55 04.03.2020
1590 Clouds 33 1008 17 6000 3.6 200 12:37 04.03.2020
1591 Clouds 33 1008 17 6000 3.6 200 12:19 04.03.2020
1592 Clouds 33 1008 16 6000 3.6 180 11:42 04.03.2020
1593 Clouds 34 1008 13 6000 6.2 210 11:23 04.03.2020
1594 Clouds 33 1008 16 6000 3.6 200 10:58 04.03.2020
1595 Haze 33 1009 19 5000 5.42 233 10:40 04.03.2020
1596 Haze 33 1009 19 5000 5.42 233 10:19 04.03.2020
1597 Haze 32 1009 22 5000 1 310 09:43 04.03.2020
1598 Haze 32 1010 24 5000 1.5 300 09:21 04.03.2020
1599 Haze 32 1011 24 5000 1.5 40 08:48 04.03.2020
1600 Haze 31 1011 25 4000 1 180 08:28 04.03.2020
1601 Haze 31 1012 29 4000 1 360 07:57 04.03.2020
1602 Haze 29 1013 32 4000 1 360 07:38 04.03.2020
1603 Haze 29 1013 32 4000 1 360 07:20 04.03.2020
1604 Haze 29 1013 30 4000 1 360 06:43 04.03.2020
1605 Haze 27 1014 34 4000 1 30 06:23 04.03.2020
1606 Haze 26 1014 34 4000 1 30 05:50 04.03.2020
1607 Haze 23 1013 43 3000 1 20 04:30 04.03.2020
1608 Haze 22 1013 49 3000 2.13 244 03:42 04.03.2020
1609 Haze 18 1012 72 3000 2.13 244 03:24 04.03.2020
1610 Haze 17 1012 77 3000 2.13 244 02:55 04.03.2020
1611 Haze 16 1011 77 3000 1.62 276 02:20 04.03.2020
1612 Haze 17 1011 67 3000 1.62 276 01:53 04.03.2020
1613 Haze 17 1010 67 3000 1.52 288 00:50 04.03.2020
1614 Haze 19 1010 59 3000 1.52 288 00:25 04.03.2020
1615 Haze 19 1010 55 3000 1.52 288 23:46 03.03.2020
1616 Haze 21 1010 49 3000 1 310 23:28 03.03.2020
1617 Clear 22 1009 25 0 1.16 346 22:58 03.03.2020
1618 Clear 22 1009 25 0 1.16 346 22:58 03.03.2020
1619 Haze 21 1010 52 3000 1.5 300 22:40 03.03.2020
1620 Haze 21 1010 52 3000 1.5 300 22:19 03.03.2020
1621 Haze 20 1010 52 3000 1 290 21:57 03.03.2020
1622 Haze 20 1010 52 3000 1.16 346 21:38 03.03.2020
1623 Haze 20 1010 52 3000 1.16 346 21:19 03.03.2020
1624 Haze 19 1011 59 3000 1.16 346 20:55 03.03.2020
1625 Haze 21 1011 49 3000 1.16 346 20:36 03.03.2020
1626 Haze 21 1011 49 3000 1.33 356 20:18 03.03.2020
1627 Haze 22 1011 46 3000 2.51 344 19:54 03.03.2020
1628 Haze 23 1011 40 3000 2.1 60 19:36 03.03.2020
1629 Haze 23 1011 40 3000 2.1 60 19:18 03.03.2020
1630 Haze 23 1011 40 3000 2.1 60 19:18 03.03.2020
1631 Haze 24 1011 31 4000 2.1 320 18:42 03.03.2020
1632 Haze 25 1011 27 4000 2.1 320 18:22 03.03.2020
1633 Haze 26 1011 26 4000 2.1 310 17:59 03.03.2020
1634 Haze 26 1011 26 4000 2.1 310 17:59 03.03.2020
1635 Haze 25 1011 31 4000 3.1 310 17:40 03.03.2020
1636 Haze 25 1011 31 4000 3.1 310 17:21 03.03.2020
1637 Haze 26 1011 26 4000 2.6 290 16:57 03.03.2020
1638 Haze 27 1010 28 4000 1.5 280 16:38 03.03.2020
1639 Haze 27 1010 28 4000 1.5 280 16:19 03.03.2020
1640 Haze 27 1010 30 4000 1 240 15:45 03.03.2020
1641 Haze 28 1010 28 4000 1.5 240 15:23 03.03.2020
1642 Haze 29 1009 26 4000 2.6 270 14:58 03.03.2020
1643 Haze 29 1009 26 4000 2.6 270 14:58 03.03.2020
1644 Haze 30 1009 23 4000 2.6 270 14:40 03.03.2020
1645 Haze 31 1009 23 4000 3.6 250 14:19 03.03.2020
1646 Haze 31 1009 23 4000 3.6 250 13:56 03.03.2020
1647 Haze 33 1008 21 4000 4.1 260 13:38 03.03.2020
1648 Haze 33 1008 21 4000 4.1 260 13:19 03.03.2020
1649 Haze 32 1008 33 4000 1 110 12:43 03.03.2020
1650 Haze 32 1008 33 4000 1 110 12:24 03.03.2020
1651 Haze 31 1008 38 3500 1 160 11:56 03.03.2020
1652 Haze 31 1008 38 3000 1.5 180 11:37 03.03.2020
1653 Haze 32 1009 35 2000 1.5 180 11:18 03.03.2020
1654 Haze 32 1009 35 2000 1.5 180 10:55 03.03.2020
1655 Thunderstorm 30 1010 35 2000 8.2 200 10:37 03.03.2020
1656 Thunderstorm 30 1010 35 2000 8.2 200 10:18 03.03.2020
1657 Thunderstorm 30 1010 35 2000 8.2 200 10:18 03.03.2020
1658 Haze 31 1011 38 5000 1 200 09:42 03.03.2020
1659 Haze 31 1011 38 5000 1 200 09:21 03.03.2020
1660 Haze 31 1011 43 5000 1 190 08:42 03.03.2020
1661 Haze 31 1012 43 5000 1.5 170 08:24 03.03.2020
1662 Haze 30 1012 45 5000 1 280 07:57 03.03.2020
1663 Haze 29 1013 48 5000 1 260 07:38 03.03.2020
1664 Haze 29 1013 48 5000 1 260 07:19 03.03.2020
1665 Haze 29 1013 48 5000 1 260 07:19 03.03.2020
1666 Haze 28 1014 54 5000 4.23 228 06:40 03.03.2020
1667 Haze 28 1014 54 5000 4.23 228 06:21 03.03.2020
1668 Haze 28 1014 54 4000 4.23 228 05:43 03.03.2020
1669 Haze 25 1014 61 3000 1.92 194 04:56 03.03.2020
1670 Haze 21 1013 77 3000 1.92 194 03:21 03.03.2020
1671 Haze 21 1011 73 3000 1 260 01:32 03.03.2020
1672 Haze 21 1011 73 4000 1.5 320 00:42 03.03.2020
1673 Haze 20 1010 77 4000 1 299 00:23 03.03.2020
1674 Haze 20 1011 82 4000 1 100 23:51 02.03.2020
1675 Haze 22 1011 68 4000 1 230 23:23 02.03.2020
1676 Haze 22 1011 68 4000 1 230 22:58 02.03.2020
1677 Haze 23 1011 64 4000 1 290 22:39 02.03.2020
1678 Haze 23 1011 64 4000 1 290 22:20 02.03.2020
1679 Haze 23 1011 64 4000 1 310 21:56 02.03.2020
1680 Haze 22 1012 68 4000 1 290 21:38 02.03.2020
1681 Haze 22 1012 68 4000 1 290 21:20 02.03.2020
1682 Haze 23 1012 64 4000 1 250 20:56 02.03.2020
1683 Haze 23 1012 64 4000 1.5 240 20:38 02.03.2020
1684 Haze 23 1012 64 4000 1.5 240 20:19 02.03.2020
1685 Haze 23 1012 60 4000 0.54 173 19:54 02.03.2020
1686 Haze 23 1012 60 4000 0.54 173 19:54 02.03.2020
1687 Haze 23 1013 60 4000 0.54 173 19:36 02.03.2020
1688 Haze 23 1013 60 4000 0.54 173 19:18 02.03.2020
1689 Haze 24 1013 57 4000 0.54 173 18:43 02.03.2020
1690 Haze 24 1013 57 4000 0.54 173 18:19 02.03.2020
1691 Haze 23 1013 60 4000 1 110 17:57 02.03.2020
1692 Haze 25 1012 53 4000 1 130 17:39 02.03.2020
1693 Haze 25 1012 53 4000 1 130 17:20 02.03.2020
1694 Haze 25 1012 53 4000 1 110 16:45 02.03.2020
1695 Haze 25 1012 53 4000 1 110 16:45 02.03.2020
1696 Haze 25 1012 53 4000 1 110 16:45 02.03.2020
1697 Haze 25 1012 53 4000 1.5 110 16:27 02.03.2020
1698 Haze 27 1012 47 4000 1.58 191 15:59 02.03.2020
1699 Haze 27 1011 44 4000 1 170 15:41 02.03.2020
1700 Haze 27 1011 44 4000 1 170 15:19 02.03.2020
1701 Haze 28 1011 45 4000 1.58 191 14:40 02.03.2020
1702 Haze 28 1011 45 4000 4.17 246 14:20 02.03.2020
1703 Haze 30 1010 37 4000 1 180 13:57 02.03.2020
1704 Haze 31 1010 33 5000 3.6 200 13:38 02.03.2020
1705 Haze 31 1010 33 5000 3.6 200 13:18 02.03.2020
1706 Haze 32 1010 31 5000 2.1 170 12:43 02.03.2020
1707 Haze 32 1010 31 5000 2.1 170 12:43 02.03.2020
1708 Haze 32 1010 31 5000 2.1 170 12:19 02.03.2020
1709 Haze 32 1010 31 5000 2.1 170 12:19 02.03.2020
1710 Haze 32 1011 31 5000 1.5 240 11:40 02.03.2020
1711 Haze 32 1011 31 5000 1.5 240 11:22 02.03.2020
1712 Haze 32 1011 31 5000 1.5 220 10:59 02.03.2020
1713 Haze 31 1012 31 5000 2.1 180 10:41 02.03.2020
1714 Haze 31 1012 31 5000 2.1 180 10:20 02.03.2020
1715 Haze 31 1012 33 5000 3.1 200 09:55 02.03.2020
1716 Haze 31 1013 31 5000 3.1 140 09:37 02.03.2020
1717 Haze 31 1013 31 5000 3.1 140 09:18 02.03.2020
1718 Haze 30 1014 35 5000 2.6 140 08:40 02.03.2020
1719 Haze 30 1014 35 5000 2.6 140 08:19 02.03.2020
1720 Clear 32 1013 26 0 3.79 208 07:40 02.03.2020
1721 Haze 27 1016 47 4000 2.1 80 06:57 02.03.2020
1722 Haze 27 1016 47 4000 2.1 80 06:35 02.03.2020
1723 Haze 25 1016 50 3000 2.1 50 05:29 02.03.2020
1724 Haze 22 1015 64 3000 1.5 80 03:59 02.03.2020
1725 Haze 19 1015 82 3000 1 80 03:19 02.03.2020
1726 Haze 21 1014 73 3500 1.5 50 02:36 02.03.2020
1727 Haze 20 1013 77 4000 1 360 01:41 02.03.2020
1728 Haze 20 1013 77 4000 1 360 01:22 02.03.2020
1729 Haze 21 1012 73 4000 1 90 00:23 02.03.2020
1730 Haze 21 1012 73 4000 1 90 23:56 01.03.2020
1731 Haze 21 1012 73 4000 1 90 23:56 01.03.2020
1732 Haze 21 1013 68 4000 1.5 90 23:37 01.03.2020
1733 Haze 21 1013 68 4000 1.5 90 23:18 01.03.2020
1734 Haze 20 1013 72 4000 2.1 310 22:38 01.03.2020
1735 Haze 20 1013 72 4000 2.1 310 22:19 01.03.2020
1736 Haze 20 1013 72 4000 1.39 57 21:43 01.03.2020
1737 Haze 19 1012 77 4000 1.39 57 21:25 01.03.2020
1738 Haze 20 1013 72 4000 1.39 57 20:59 01.03.2020
1739 Haze 22 1013 64 4000 1 10 20:41 01.03.2020
1740 Haze 22 1013 64 4000 1 10 20:22 01.03.2020
1741 Haze 22 1013 64 4000 1.5 360 19:42 01.03.2020
1742 Haze 21 1013 68 4000 4.6 16 19:23 01.03.2020
1743 Haze 22 1013 64 4000 4.6 16 18:58 01.03.2020
1744 Haze 22 1013 64 4000 1 180 18:39 01.03.2020
1745 Haze 22 1013 64 4000 2.6 200 18:19 01.03.2020
1746 Haze 22 1013 64 4000 2.6 200 17:57 01.03.2020
1747 Haze 23 1014 56 4000 4.6 16 17:38 01.03.2020
1748 Haze 23 1014 56 4000 0.6 308 17:20 01.03.2020
1749 Haze 23 1014 56 3000 1 360 16:55 01.03.2020
1750 Haze 23 1014 60 3000 2.1 30 16:37 01.03.2020
1751 Haze 23 1014 60 3000 2.1 30 16:18 01.03.2020
1752 Haze 23 1013 60 3000 5.1 360 15:56 01.03.2020
1753 Haze 24 1013 53 3000 7.7 360 15:37 01.03.2020
1754 Haze 24 1013 53 3000 7.7 360 15:37 01.03.2020
1755 Haze 24 1013 53 3000 7.7 360 15:18 01.03.2020
1756 Haze 26 1013 47 3000 6.2 340 14:55 01.03.2020
1757 Haze 28 1011 45 4000 1 60 14:36 01.03.2020
1758 Haze 29 1011 39 4000 1 100 14:18 01.03.2020
1759 Haze 29 1011 39 4000 1 100 13:43 01.03.2020
1760 Haze 30 1010 37 4000 2.6 90 13:21 01.03.2020
1761 Haze 31 1010 33 4000 4.1 80 12:59 01.03.2020
1762 Haze 31 1010 35 5000 2.1 130 12:40 01.03.2020
1763 Haze 31 1010 35 5000 2.1 130 12:20 01.03.2020
1764 Haze 32 1011 31 5000 1.5 140 11:41 01.03.2020
1765 Haze 32 1011 31 5000 1.5 140 11:22 01.03.2020
1766 Haze 31 1011 33 5000 3.6 170 10:57 01.03.2020
1767 Haze 32 1012 31 5000 2.6 220 10:38 01.03.2020
1768 Haze 32 1012 31 5000 2.6 220 10:19 01.03.2020
1769 Clouds 31 1012 33 6000 1.5 160 09:46 01.03.2020
1770 Clouds 31 1013 35 6000 1.5 130 09:46 01.03.2020
1771 Clouds 31 1013 35 6000 1.5 130 09:27 01.03.2020
1772 Clouds 30 1013 40 6000 2.1 140 08:57 01.03.2020
1773 Clouds 29 1014 39 6000 3.1 180 08:38 01.03.2020
1774 Clouds 29 1014 39 6000 3.1 180 08:19 01.03.2020
1775 Clouds 29 1014 39 6000 3.6 180 07:42 01.03.2020
1776 Clouds 28 1015 42 6000 4.1 180 07:23 01.03.2020
1777 Clear 28 1015 42 6000 3.1 170 06:51 01.03.2020
1778 Haze 27 1016 47 5000 1.5 110 06:29 01.03.2020
1779 Haze 20 1015 64 3000 1.5 270 04:19 01.03.2020
1780 Haze 18 1013 72 5000 1.5 40 02:29 01.03.2020
1781 Haze 17 1013 77 5000 1.18 59 01:53 01.03.2020
1782 Haze 18 1013 77 5000 1.5 30 01:22 01.03.2020
1783 Haze 18 1012 72 5000 1.71 81 00:43 01.03.2020
1784 Haze 18 1012 72 5000 1.71 81 00:21 01.03.2020
1785 Haze 18 1012 72 5000 1.71 81 23:49 29.02.2020
1786 Haze 18 1012 72 5000 1.71 81 23:49 29.02.2020
1787 Haze 19 1012 68 5000 1.71 81 23:30 29.02.2020
1788 Haze 18 1012 68 5000 1.98 105 22:44 29.02.2020
1789 Haze 19 1012 68 5000 1.98 105 22:24 29.02.2020
1790 Haze 19 1012 63 5000 1.98 105 21:42 29.02.2020
1791 Haze 20 1012 64 5000 1.98 105 21:24 29.02.2020
1792 Haze 20 1013 64 5000 1.98 105 20:44 29.02.2020
1793 Haze 22 1013 53 5000 1 90 20:22 29.02.2020
1794 Haze 22 1013 53 5000 1.84 104 19:57 29.02.2020
1795 Haze 21 1013 60 5000 1.84 104 19:38 29.02.2020
1796 Haze 21 1013 60 5000 1.84 104 19:19 29.02.2020
1797 Haze 21 1013 60 5000 1.84 104 19:19 29.02.2020
1798 Haze 22 1013 56 5000 1 90 18:43 29.02.2020
1799 Haze 22 1013 56 5000 1 90 18:25 29.02.2020
1800 Haze 22 1013 56 5000 1.84 104 17:58 29.02.2020
1801 Haze 23 1013 53 5000 1.5 110 17:40 29.02.2020
1802 Haze 23 1013 53 5000 1.5 110 17:21 29.02.2020
1803 Haze 24 1013 47 5000 2.1 90 16:45 29.02.2020
1804 Haze 25 1013 44 5000 1.5 110 16:22 29.02.2020
1805 Haze 25 1013 44 5000 1.5 110 16:22 29.02.2020
1806 Haze 26 1013 41 5000 2.1 90 15:59 29.02.2020
1807 Haze 26 1012 41 5000 1.5 90 15:41 29.02.2020
1808 Haze 26 1012 41 5000 1.5 90 15:23 29.02.2020
1809 Haze 27 1012 39 5000 1.5 90 14:42 29.02.2020
1810 Clear 27 1012 39 6000 1.5 100 14:24 29.02.2020
1811 Clear 29 1011 35 6000 1.5 100 13:57 29.02.2020
1812 Clear 30 1011 33 6000 2.1 100 13:38 29.02.2020
1813 Clear 30 1011 33 6000 2.1 100 13:20 29.02.2020
1814 Clouds 31 1011 29 6000 1.5 100 12:42 29.02.2020
1815 Clouds 31 1011 29 6000 1 80 12:22 29.02.2020
1816 Clouds 31 1011 27 6000 1.5 100 11:56 29.02.2020
1817 Clouds 32 1011 25 6000 1 100 11:38 29.02.2020
1818 Clouds 32 1011 25 6000 1 100 11:20 29.02.2020
1819 Clouds 31 1011 25 6000 2.6 120 10:46 29.02.2020
1820 Clouds 31 1012 25 6000 2.1 110 10:28 29.02.2020
1821 Clouds 32 1012 24 6000 2.1 100 09:48 29.02.2020
1822 Clouds 31 1013 25 6000 1.5 110 09:25 29.02.2020
1823 Clear 31 1013 25 6000 2.6 120 08:42 29.02.2020
1824 Clouds 30 1014 27 6000 3.1 130 08:23 29.02.2020
1825 Haze 30 1014 27 5000 2.1 180 07:58 29.02.2020
1826 Haze 29 1015 30 4000 3.6 90 07:40 29.02.2020
1827 Haze 29 1015 30 4000 3.6 90 07:18 29.02.2020
1828 Haze 28 1015 34 4000 3.6 110 06:44 29.02.2020
1829 Haze 27 1015 36 4000 3.6 110 06:23 29.02.2020
1830 Haze 25 1015 44 3500 2.1 90 05:46 29.02.2020
1831 Haze 23 1015 53 2500 1 80 04:46 29.02.2020
1832 Haze 18 1014 72 3000 2.67 132 03:40 29.02.2020
1833 Haze 18 1014 72 3000 2.67 132 03:21 29.02.2020
1834 Haze 15 1013 82 3000 2.67 132 02:37 29.02.2020
1835 Haze 17 1012 72 3000 1 280 00:59 29.02.2020
1836 Haze 18 1012 72 3000 1.5 320 00:37 29.02.2020
1837 Haze 20 1011 64 3000 1 20 23:46 28.02.2020
1838 Haze 20 1012 64 3000 1 40 23:25 28.02.2020
1839 Haze 19 1012 63 3000 1 30 22:55 28.02.2020
1840 Haze 19 1012 63 3000 1.26 114 22:36 28.02.2020
1841 Haze 19 1012 63 3000 1.26 114 22:18 28.02.2020
1842 Haze 20 1012 60 3000 1.26 114 21:41 28.02.2020
1843 Haze 20 1012 60 3000 1.26 114 21:21 28.02.2020
1844 Haze 19 1013 59 3000 1.26 114 20:41 28.02.2020
1845 Haze 19 1013 59 3000 1.26 114 20:23 28.02.2020
1846 Haze 21 1013 52 3000 2.59 113 19:59 28.02.2020
1847 Haze 21 1014 52 3000 2.59 113 19:39 28.02.2020
1848 Haze 21 1014 52 3000 2.59 113 19:21 28.02.2020
1849 Haze 20 1014 56 4000 2.59 113 18:58 28.02.2020
1850 Haze 21 1014 52 4000 2.59 113 18:39 28.02.2020
1851 Haze 21 1014 52 4000 2.59 113 18:21 28.02.2020
1852 Haze 23 1014 46 4000 2.1 100 17:41 28.02.2020
1853 Haze 23 1014 46 4000 2.1 100 17:22 28.02.2020
1854 Haze 23 1014 46 4000 1.5 90 16:47 28.02.2020
1855 Haze 23 1013 46 4000 1.5 90 16:21 28.02.2020
1856 Haze 24 1013 44 4000 1 100 15:59 28.02.2020
1857 Haze 25 1013 41 4000 1.5 90 15:41 28.02.2020
1858 Haze 25 1013 41 4000 1.5 90 15:20 28.02.2020
1859 Haze 25 1013 41 4000 1.5 90 14:57 28.02.2020
1860 Clear 26 1013 36 5000 1.5 100 14:39 28.02.2020
1861 Clear 26 1013 36 5000 1.5 100 14:19 28.02.2020
1862 Clear 27 1012 34 6000 1.5 100 13:54 28.02.2020
1863 Clear 29 1012 28 6000 1.5 90 13:36 28.02.2020
1864 Clear 29 1012 32 6000 2.1 90 13:18 28.02.2020
1865 Clear 30 1012 27 6000 2.1 90 12:41 28.02.2020
1866 Clear 30 1012 27 6000 2.1 90 12:22 28.02.2020
1867 Clear 30 1012 27 6000 1 40 11:42 28.02.2020
1868 Clear 30 1012 27 6000 1 40 11:24 28.02.2020
1869 Clear 30 1013 25 6000 1.5 160 10:58 28.02.2020
1870 Clear 30 1013 27 6000 1 60 10:39 28.02.2020
1871 Clear 30 1013 27 6000 1 60 10:39 28.02.2020
1872 Clear 30 1013 27 6000 1 60 10:20 28.02.2020
1873 Clear 30 1013 27 6000 1 60 09:44 28.02.2020
1874 Haze 29 1014 30 5000 1.5 60 09:21 28.02.2020
1875 Haze 29 1014 30 5000 2.6 60 08:56 28.02.2020
1876 Haze 29 1015 28 5000 2.6 100 08:37 28.02.2020
1877 Haze 29 1015 28 5000 2.6 100 08:18 28.02.2020
1878 Haze 27 1016 36 5000 2.1 110 07:40 28.02.2020
1879 Haze 27 1016 36 5000 2.1 110 07:19 28.02.2020
1880 Haze 26 1016 41 4000 1.5 100 06:44 28.02.2020
1881 Haze 25 1016 44 4000 2.6 100 05:51 28.02.2020
1882 Haze 22 1016 56 3000 2.68 113 04:34 28.02.2020
1883 Haze 19 1016 68 3000 2.68 113 03:48 28.02.2020
1884 Haze 14 1015 82 3000 2.68 113 02:45 28.02.2020
1885 Haze 14 1014 82 3000 1.9 51 02:20 28.02.2020
1886 Haze 17 1013 67 3000 1.31 113 00:39 28.02.2020
1887 Haze 17 1013 67 3000 1.31 113 00:21 28.02.2020
1888 Haze 17 1013 67 3000 1.31 113 23:41 27.02.2020
1889 Haze 17 1013 67 3000 1.31 113 23:41 27.02.2020
1890 Haze 17 1013 67 3000 1.33 57 23:19 27.02.2020
1891 Haze 19 1013 63 3000 1.33 57 22:41 27.02.2020
1892 Haze 19 1013 63 3000 1.33 57 22:23 27.02.2020
1893 Haze 20 1013 60 3000 2.1 10 21:56 27.02.2020
1894 Haze 18 1014 59 3000 1 30 21:37 27.02.2020
1895 Haze 18 1014 59 3000 1 30 21:18 27.02.2020
1896 Haze 19 1014 59 3000 1.33 57 20:54 27.02.2020
1897 Haze 19 1014 59 3000 1.33 57 20:36 27.02.2020
1898 Haze 19 1014 59 3000 1.46 29 20:18 27.02.2020
1899 Haze 20 1015 52 3000 1.46 29 19:42 27.02.2020
1900 Haze 20 1015 52 3000 1.46 29 19:23 27.02.2020
1901 Haze 21 1015 46 4000 1.46 29 18:58 27.02.2020
1902 Haze 21 1015 49 4000 1 60 18:39 27.02.2020
1903 Haze 21 1015 49 4000 1 60 18:20 27.02.2020
1904 Haze 21 1015 49 4000 1.46 29 17:56 27.02.2020
1905 Haze 21 1015 49 4000 1 80 17:38 27.02.2020
1906 Haze 21 1015 49 4000 1 80 17:19 27.02.2020
1907 Haze 22 1015 46 4000 1 120 16:54 27.02.2020
1908 Haze 22 1015 46 4000 1.5 110 16:36 27.02.2020
1909 Haze 22 1015 46 4000 1.5 110 16:18 27.02.2020
1910 Haze 24 1014 41 4000 1.5 110 15:39 27.02.2020
1911 Haze 24 1014 41 4000 1.5 110 15:20 27.02.2020
1912 Haze 25 1014 38 4000 1.5 110 14:59 27.02.2020
1913 Haze 25 1013 41 5000 2.1 100 14:39 27.02.2020
1914 Haze 25 1013 41 5000 2.1 100 14:20 27.02.2020
1915 Haze 28 1013 32 5000 1.5 110 13:43 27.02.2020
1916 Haze 28 1013 32 5000 1.5 110 13:22 27.02.2020
1917 Haze 28 1013 30 5000 2.1 130 12:57 27.02.2020
1918 Haze 29 1013 28 5000 2.1 120 12:39 27.02.2020
1919 Haze 29 1013 28 5000 2.1 120 12:19 27.02.2020
1920 Haze 30 1013 23 5000 1 60 11:45 27.02.2020
1921 Haze 29 1013 26 5000 1.5 80 11:22 27.02.2020
1922 Haze 30 1014 25 5000 2.6 10 10:45 27.02.2020
1923 Haze 29 1014 28 5000 1.5 70 10:25 27.02.2020
1924 Haze 29 1015 25 5000 1.5 20 09:59 27.02.2020
1925 Haze 29 1015 25 5000 1 10 09:40 27.02.2020
1926 Haze 29 1015 25 5000 1 10 09:21 27.02.2020
1927 Haze 29 1016 28 4000 1 30 08:42 27.02.2020
1928 Haze 29 1016 28 4000 1 30 08:22 27.02.2020
1929 Haze 27 1017 34 4000 2.1 50 07:46 27.02.2020
1930 Haze 27 1017 34 4000 2.1 50 07:26 27.02.2020
1931 Haze 26 1018 34 4000 1 120 06:48 27.02.2020
1932 Haze 25 1018 38 4000 1.02 128 05:58 27.02.2020
1933 Haze 20 1018 56 3000 2.32 78 04:21 27.02.2020
1934 Haze 15 1016 77 3000 2.32 78 02:35 27.02.2020
1935 Haze 16 1015 67 4000 2.18 52 00:47 27.02.2020
1936 Haze 16 1015 67 4000 2.18 52 00:28 27.02.2020
1937 Haze 15 1015 72 4000 2.1 210 23:40 26.02.2020
1938 Haze 15 1015 72 4000 2.1 210 23:19 26.02.2020
1939 Haze 19 1015 55 4000 1.5 20 22:58 26.02.2020
1940 Haze 17 1015 63 4000 1.99 23 22:39 26.02.2020
1941 Haze 17 1015 63 4000 1.99 23 22:20 26.02.2020
1942 Haze 17 1015 63 4000 1.99 23 21:56 26.02.2020
1943 Haze 18 1016 59 4000 1.99 23 21:37 26.02.2020
1944 Haze 18 1016 59 4000 1.99 23 21:18 26.02.2020
1945 Haze 18 1016 59 4000 1.99 23 20:55 26.02.2020
1946 Haze 20 1016 52 4000 1 10 20:36 26.02.2020
1947 Haze 20 1016 52 4000 1 10 20:36 26.02.2020
1948 Haze 20 1016 52 4000 1 10 20:18 26.02.2020
1949 Haze 20 1016 52 4000 1 10 20:18 26.02.2020
1950 Clear 22 1015 24 0 1.88 54 19:45 26.02.2020
1951 -273 0 0 0 0 0 19:21 26.02.2020
1952 Haze 21 1016 43 4000 1 70 18:58 26.02.2020
1953 Haze 21 1016 43 4000 1 70 18:40 26.02.2020
1954 Haze 21 1016 43 4000 1 70 18:22 26.02.2020
1955 Haze 21 1016 43 4000 1 60 17:42 26.02.2020
1956 Haze 21 1016 43 4000 1 60 17:42 26.02.2020
1957 Haze 21 1016 43 4000 1 60 17:24 26.02.2020
1958 Haze 21 1015 46 4000 1 80 16:59 26.02.2020
1959 Haze 22 1015 37 4000 1 130 16:41 26.02.2020
1960 Haze 22 1015 37 4000 1 130 16:22 26.02.2020
1961 Haze 23 1015 33 4000 1 100 15:48 26.02.2020
1962 Haze 23 1014 35 4000 2.1 100 15:29 26.02.2020
1963 Haze 24 1014 33 4000 1 100 14:59 26.02.2020
1964 Haze 25 1014 33 5000 1 120 14:41 26.02.2020
1965 Haze 25 1014 33 5000 1 120 14:22 26.02.2020
1966 Clouds 27 1013 26 6000 1.5 120 13:43 26.02.2020
1967 Clouds 27 1013 26 6000 1.5 120 13:22 26.02.2020
1968 Clouds 29 1013 18 8000 1 330 12:42 26.02.2020
1969 Clouds 29 1013 18 8000 1 330 12:22 26.02.2020
1970 Clouds 30 1013 17 8000 1.5 10 11:59 26.02.2020
1971 Clouds 29 1013 18 8000 1 20 11:40 26.02.2020
1972 Clouds 29 1013 18 8000 1 20 11:21 26.02.2020
1973 Clouds 29 1014 18 8000 2.6 100 10:43 26.02.2020
1974 Clouds 29 1014 18 8000 2.6 330 10:24 26.02.2020
1975 Clouds 29 1014 18 6000 3.6 10 09:58 26.02.2020
1976 Haze 29 1015 17 5000 2.6 20 09:39 26.02.2020
1977 Haze 29 1015 17 5000 2.6 20 09:21 26.02.2020
1978 Haze 28 1016 21 5000 1.5 60 08:40 26.02.2020
1979 Haze 28 1016 21 5000 1.5 60 08:22 26.02.2020
1980 Haze 28 1016 20 5000 3.6 60 07:51 26.02.2020
1981 Haze 27 1017 28 5000 3.57 42 07:30 26.02.2020
1982 Haze 26 1017 31 5000 1 290 06:59 26.02.2020
1983 Haze 25 1017 36 5000 1.5 50 06:40 26.02.2020
1984 Haze 25 1017 36 5000 1.5 50 06:21 26.02.2020
1985 Haze 25 1018 36 5000 1.5 60 05:48 26.02.2020
1986 Haze 23 1017 43 5000 4.43 18 04:58 26.02.2020
1987 Haze 15 1016 62 3000 4.43 18 02:56 26.02.2020
1988 Haze 17 1016 51 3000 2.1 20 01:56 26.02.2020
1989 Haze 16 1015 59 3000 2.62 4 01:24 26.02.2020
1990 Haze 15 1015 58 3000 3.05 2 00:38 26.02.2020
1991 Haze 15 1015 58 3000 3.05 2 00:19 26.02.2020
1992 Haze 15 1015 58 3000 3.05 2 23:41 25.02.2020
1993 Haze 15 1015 58 3000 3.05 2 23:21 25.02.2020
1994 Haze 17 1015 51 3000 2.03 358 22:43 25.02.2020
1995 Haze 17 1015 51 3000 2.03 358 22:20 25.02.2020
1996 Haze 18 1015 48 3000 1.5 10 21:59 25.02.2020
1997 Haze 17 1015 51 3000 2.03 358 21:38 25.02.2020
1998 Haze 17 1015 51 3000 2.03 358 21:20 25.02.2020
1999 Haze 20 1016 42 3000 1 20 20:56 25.02.2020
2000 Haze 20 1016 42 3000 1 20 20:56 25.02.2020
2001 Haze 20 1016 42 3000 1 20 20:37 25.02.2020
2002 Haze 20 1016 42 3000 1 20 20:19 25.02.2020
2003 Haze 20 1016 42 3000 1 10 19:44 25.02.2020
2004 Haze 21 1016 40 3000 1.5 10 19:23 25.02.2020
2005 Haze 21 1015 40 3000 2.1 10 18:59 25.02.2020
2006 Haze 22 1015 40 3000 2.6 360 18:39 25.02.2020
2007 Haze 22 1015 40 3000 2.6 360 18:20 25.02.2020
2008 Haze 22 1015 43 3000 2.1 10 17:55 25.02.2020
2009 Haze 21 1015 49 3000 2.1 20 17:36 25.02.2020
2010 Haze 21 1015 49 3000 2.1 20 17:18 25.02.2020
2011 Haze 21 1014 49 3000 1 340 16:55 25.02.2020
2012 Haze 22 1014 46 3000 4.16 332 16:36 25.02.2020
2013 Haze 22 1014 46 3000 4.16 332 16:18 25.02.2020
2014 Haze 24 1014 38 3000 4.16 332 15:44 25.02.2020
2015 Haze 23 1013 40 3000 1 60 15:20 25.02.2020
2016 Haze 24 1013 38 3000 1 60 14:59 25.02.2020
2017 Haze 25 1012 33 3000 1 20 14:39 25.02.2020
2018 Haze 25 1012 33 3000 1 20 14:18 25.02.2020
2019 Haze 26 1012 31 4000 1 20 13:58 25.02.2020
2020 Haze 27 1011 26 4000 1.5 340 13:39 25.02.2020
2021 Haze 27 1011 26 4000 1.5 340 13:20 25.02.2020
2022 Haze 28 1011 24 4000 3.1 360 12:56 25.02.2020
2023 Haze 28 1012 26 4000 1 80 12:37 25.02.2020
2024 Haze 28 1012 26 4000 1 80 12:19 25.02.2020
2025 Haze 28 1012 26 4000 1 80 11:55 25.02.2020
2026 Haze 28 1012 26 4000 2.1 320 11:37 25.02.2020
2027 Haze 28 1012 26 4000 2.1 320 11:18 25.02.2020
2028 Haze 28 1013 32 4000 3.1 360 10:41 25.02.2020
2029 Haze 28 1013 32 4000 3.1 360 10:41 25.02.2020
2030 Haze 28 1013 32 4000 3.1 360 10:23 25.02.2020
2031 Haze 27 1013 36 4000 2.6 350 09:42 25.02.2020
2032 Haze 27 1013 36 4000 2.6 350 09:23 25.02.2020
2033 Haze 27 1014 34 3000 2.1 330 08:56 25.02.2020
2034 Haze 27 1014 36 3000 2.1 300 08:38 25.02.2020
2035 Haze 27 1014 36 3000 2.1 300 08:20 25.02.2020
2036 Haze 25 1015 41 3000 2.1 20 07:48 25.02.2020
2037 Haze 25 1015 41 3000 2.1 20 07:20 25.02.2020
2038 Haze 24 1016 53 3000 2.1 40 06:41 25.02.2020
2039 Haze 23 1016 60 3000 1.5 40 05:39 25.02.2020
2040 Haze 21 1015 64 2500 1 330 03:44 25.02.2020
2041 Haze 19 1013 68 3000 2.1 20 02:00 25.02.2020
2042 Haze 20 1012 68 3000 3.1 10 00:48 25.02.2020
2043 Haze 20 1012 68 3000 3.1 10 00:48 25.02.2020
2044 Haze 20 1012 68 3000 1.5 20 00:29 25.02.2020
2045 Haze 20 1012 72 3000 1.5 10 23:44 24.02.2020
2046 Haze 21 1012 68 3000 1.5 20 23:21 24.02.2020
2047 Haze 21 1012 73 3000 1.5 20 22:43 24.02.2020
2048 Haze 21 1012 77 3000 1 10 22:21 24.02.2020
2049 Haze 21 1012 77 3000 2.82 5 21:57 24.02.2020
2050 Haze 21 1012 77 3000 2.82 5 21:57 24.02.2020
2051 Haze 22 1012 73 3000 1.5 20 21:39 24.02.2020
2052 Haze 22 1012 73 3000 1.5 20 21:20 24.02.2020
2053 Haze 23 1013 69 3000 1.5 340 20:58 24.02.2020
2054 Haze 23 1013 69 3000 1 30 20:40 24.02.2020
2055 Haze 23 1013 69 3000 1 30 20:19 24.02.2020
2056 Haze 23 1013 69 3000 2.6 60 19:57 24.02.2020
2057 Haze 23 1013 69 3000 1.5 40 19:39 24.02.2020
2058 Haze 23 1013 69 3000 1.5 40 19:20 24.02.2020
2059 Haze 23 1013 69 3000 1 30 18:55 24.02.2020
2060 Haze 24 1013 64 3000 1.5 20 18:36 24.02.2020
2061 Haze 24 1013 64 3000 1.5 20 18:18 24.02.2020
2062 Haze 25 1012 61 3000 1.5 10 17:40 24.02.2020
2063 Haze 25 1012 61 3000 1.5 10 17:20 24.02.2020
2064 Haze 25 1012 65 3000 1 90 16:58 24.02.2020
2065 Haze 25 1012 69 3000 4.51 306 16:39 24.02.2020
2066 Haze 25 1012 69 3000 4.51 306 16:20 24.02.2020
2067 Haze 26 1011 61 3000 1.5 290 15:58 24.02.2020
2068 Haze 27 1011 54 3000 2.1 60 15:39 24.02.2020
2069 Haze 27 1011 54 3000 2.1 60 15:21 24.02.2020
2070 Haze 27 1010 51 3000 4.51 306 14:57 24.02.2020
2071 Haze 27 1010 54 3000 1.5 150 14:38 24.02.2020
2072 Haze 27 1010 54 3000 1.5 150 14:18 24.02.2020
2073 Haze 27 1010 65 3000 1 200 13:55 24.02.2020
2074 Haze 30 1010 40 4000 1.5 200 13:36 24.02.2020
2075 Haze 30 1010 40 4000 1.5 200 13:18 24.02.2020
2076 Haze 31 1010 35 4000 3.1 220 12:42 24.02.2020
2077 Haze 31 1010 35 4000 3.1 220 12:23 24.02.2020
2078 Haze 31 1010 35 4000 3.1 220 12:23 24.02.2020
2079 Haze 31 1010 40 4000 2.6 190 11:50 24.02.2020
2080 Haze 31 1010 38 4000 3.1 200 11:32 24.02.2020
2081 Haze 31 1011 38 4000 5.1 200 10:58 24.02.2020
2082 Haze 31 1011 38 3500 4.1 200 10:40 24.02.2020
2083 Haze 31 1011 38 3500 4.1 200 10:22 24.02.2020
2084 Haze 30 1013 40 3000 3.6 210 09:40 24.02.2020
2085 Haze 30 1013 40 3000 3.6 210 09:19 24.02.2020
2086 Haze 30 1013 40 3000 3.6 210 09:19 24.02.2020
2087 Haze 29 1013 45 3000 2.1 240 08:52 24.02.2020
2088 Haze 28 1014 48 3000 1 170 08:29 24.02.2020
2089 Haze 27 1014 54 3000 2.6 240 07:55 24.02.2020
2090 Haze 26 1015 65 3000 1.5 120 07:33 24.02.2020
2091 Mist 26 1016 57 2500 2.1 80 06:52 24.02.2020
2092 Mist 25 1016 65 2500 1.5 70 06:24 24.02.2020
2093 Mist 25 1016 65 2500 2.1 50 05:44 24.02.2020
2094 Mist 24 1016 69 2500 2.1 50 05:24 24.02.2020
2095 Mist 21 1014 77 2500 1 10 02:57 24.02.2020
2096 Haze 20 1013 82 5000 1 40 01:55 24.02.2020
2097 Haze 21 1013 77 5000 0.66 278 01:30 24.02.2020
2098 Haze 21 1013 77 5000 0.66 278 01:30 24.02.2020
2099 Haze 20 1013 77 5000 1 130 00:44 24.02.2020
2100 Haze 20 1013 77 5000 1.19 44 00:20 24.02.2020
2101 Haze 19 1013 82 5000 1.19 44 23:42 23.02.2020
2102 Haze 20 1013 77 5000 1.19 44 23:23 23.02.2020
2103 Haze 21 1013 73 5000 1.27 347 22:58 23.02.2020
2104 Haze 23 1013 69 5000 1 340 22:40 23.02.2020
2105 Haze 23 1013 69 5000 1 340 22:21 23.02.2020
2106 Haze 24 1013 60 5000 1.5 330 21:46 23.02.2020
2107 Haze 23 1014 64 5000 2.1 330 21:21 23.02.2020
2108 Haze 23 1014 64 5000 2.1 330 21:21 23.02.2020
2109 Haze 23 1014 64 5000 1 230 20:58 23.02.2020
2110 Haze 23 1014 64 5000 2.1 230 20:40 23.02.2020
2111 Haze 23 1014 64 5000 2.1 230 20:22 23.02.2020
2112 Haze 24 1014 60 5000 1.5 210 19:59 23.02.2020
2113 Haze 25 1014 57 5000 3.1 180 19:41 23.02.2020
2114 Haze 25 1014 57 5000 3.1 180 19:19 23.02.2020
2115 Haze 25 1014 53 5000 2.6 180 18:59 23.02.2020
2116 Haze 24 1014 57 5000 1.5 190 18:37 23.02.2020
2117 Haze 24 1014 57 5000 1.5 190 18:19 23.02.2020
2118 Haze 25 1014 53 5000 1.5 170 17:57 23.02.2020
2119 Haze 25 1014 53 5000 2.1 180 17:39 23.02.2020
2120 Haze 25 1014 53 5000 2.1 180 17:20 23.02.2020
2121 Haze 26 1014 50 4000 1.5 180 16:46 23.02.2020
2122 Haze 26 1014 50 4000 1.5 180 16:28 23.02.2020
2123 Haze 25 1014 53 4000 2.1 140 15:59 23.02.2020
2124 Haze 26 1014 50 4000 2.1 170 15:39 23.02.2020
2125 Haze 26 1014 50 4000 2.1 170 15:21 23.02.2020
2126 Haze 27 1014 47 4000 1 180 14:59 23.02.2020
2127 Haze 28 1014 45 4000 2.6 180 14:40 23.02.2020
2128 Haze 28 1014 45 4000 2.6 180 14:21 23.02.2020
2129 Haze 28 1014 45 4000 2.6 180 14:21 23.02.2020
2130 Haze 29 1014 42 4000 3.1 180 13:57 23.02.2020
2131 Haze 30 1014 40 5000 2.6 180 13:38 23.02.2020
2132 Haze 30 1014 40 5000 2.6 180 13:20 23.02.2020
2133 Haze 31 1013 38 5000 2.1 180 12:42 23.02.2020
2134 Haze 31 1013 38 5000 3.1 190 12:22 23.02.2020
2135 Haze 31 1014 38 5000 3.1 190 11:56 23.02.2020
2136 Haze 31 1014 38 5000 3.6 200 11:37 23.02.2020
2137 Haze 31 1014 38 5000 3.6 200 11:18 23.02.2020
2138 Haze 31 1014 35 5000 2.6 170 10:42 23.02.2020
2139 Haze 31 1015 35 5000 3.1 170 10:24 23.02.2020
2140 Haze 31 1015 38 5000 3.6 150 09:59 23.02.2020
2141 Haze 30 1016 37 5000 1.5 230 09:39 23.02.2020
2142 Haze 30 1016 37 5000 1.5 230 09:21 23.02.2020
2143 Haze 30 1016 37 5000 2.6 170 08:51 23.02.2020
2144 Haze 30 1017 40 5000 3.1 200 08:30 23.02.2020
2145 Haze 29 1018 42 5000 3.1 180 07:58 23.02.2020
2146 Haze 28 1018 48 5000 3.1 190 07:39 23.02.2020
2147 Haze 27 1019 54 4000 1 120 06:39 23.02.2020
2148 Haze 26 1019 57 4000 2.1 150 05:47 23.02.2020
2149 Mist 23 1018 78 2000 2.1 90 04:35 23.02.2020
2150 Mist 23 1018 78 2000 2.1 90 04:35 23.02.2020
2151 Mist 18 1017 93 2000 2.96 106 02:59 23.02.2020
2152 Mist 18 1017 93 2500 2.96 106 02:26 23.02.2020
2153 Haze 21 1016 83 4000 1 20 01:24 23.02.2020
2154 Haze 21 1016 77 4000 1 20 00:46 23.02.2020
2155 Haze 21 1016 83 4000 1 10 00:24 23.02.2020
2156 Haze 22 1016 73 4000 1 10 23:45 22.02.2020
2157 Haze 22 1016 73 4000 1 10 23:26 22.02.2020
2158 Haze 21 1016 77 4000 1.73 314 22:56 22.02.2020
2159 Haze 22 1016 68 4000 1 320 22:36 22.02.2020
2160 Haze 22 1016 68 4000 1 320 22:18 22.02.2020
2161 Haze 22 1016 68 4000 1.73 314 21:40 22.02.2020
2162 Haze 22 1016 68 4000 1.73 314 21:21 22.02.2020
2163 Haze 22 1016 73 4000 1.73 314 20:44 22.02.2020
2164 Haze 22 1016 68 4000 1.73 314 20:24 22.02.2020
2165 Haze 23 1017 64 4000 1.5 220 19:55 22.02.2020
2166 Haze 22 1017 68 4000 1.5 170 19:37 22.02.2020
2167 Haze 22 1017 68 4000 1.5 170 19:18 22.02.2020
2168 Haze 24 1017 60 4000 2.1 120 18:39 22.02.2020
2169 Haze 24 1017 60 4000 2.1 120 18:21 22.02.2020
2170 Haze 24 1017 60 4000 2.1 120 18:21 22.02.2020
2171 Haze 23 1017 69 4000 1 100 17:57 22.02.2020
2172 Haze 24 1017 60 4000 1.5 90 17:38 22.02.2020
2173 Haze 24 1017 60 4000 1.5 90 17:19 22.02.2020
2174 Haze 24 1017 64 4000 1.5 90 16:56 22.02.2020
2175 Haze 25 1017 57 4000 1.5 160 16:38 22.02.2020
2176 Haze 25 1017 57 4000 1.5 160 16:19 22.02.2020
2177 Haze 26 1016 57 3500 2.56 154 15:43 22.02.2020
2178 Haze 26 1016 57 3500 2.56 154 15:24 22.02.2020
2179 Haze 26 1016 54 3500 1.5 200 14:43 22.02.2020
2180 Haze 27 1016 51 4000 2.1 180 14:23 22.02.2020
2181 Haze 29 1016 42 4000 1.5 160 13:57 22.02.2020
2182 Haze 30 1015 40 4000 1.5 180 13:39 22.02.2020
2183 Haze 30 1015 40 4000 1.5 180 13:18 22.02.2020
2184 Haze 31 1015 38 5000 2.1 170 12:42 22.02.2020
2185 Haze 31 1015 38 5000 2.1 140 12:23 22.02.2020
2186 Haze 31 1015 38 5000 2.1 210 11:46 22.02.2020
2187 Haze 31 1016 38 5000 1 90 11:28 22.02.2020
2188 Haze 31 1016 40 5000 2.6 200 10:57 22.02.2020
2189 Haze 31 1017 38 5000 1 170 10:39 22.02.2020
2190 Haze 31 1017 38 5000 1 170 10:19 22.02.2020
2191 Clouds 31 1017 40 6000 3.1 280 09:57 22.02.2020
2192 Clouds 30 1017 40 6000 2.1 140 09:38 22.02.2020
2193 Clouds 30 1017 40 6000 2.1 140 09:19 22.02.2020
2194 Clouds 29 1018 42 6000 1.5 160 08:44 22.02.2020
2195 Clouds 29 1019 42 6000 2.1 230 08:26 22.02.2020
2196 Clear 29 1019 42 6000 3.1 200 07:43 22.02.2020
2197 Haze 28 1020 48 5000 3.1 210 07:19 22.02.2020
2198 Haze 26 1021 54 3000 2.6 220 06:46 22.02.2020
2199 Haze 26 1021 54 2000 2.1 230 05:54 22.02.2020
2200 Mist 23 1020 73 1800 2.43 187 04:29 22.02.2020
2201 Mist 19 1018 93 2500 2.43 187 02:44 22.02.2020
2202 Haze 19 1017 93 3000 1 90 01:57 22.02.2020
2203 Haze 19 1017 93 3000 1.5 100 01:39 22.02.2020
2204 Haze 19 1017 93 3000 1.5 100 01:21 22.02.2020
2205 Haze 19 1016 88 3000 1 110 00:39 22.02.2020
2206 Haze 19 1016 88 3000 1 110 00:19 22.02.2020
2207 Haze 20 1016 82 3000 0.73 219 23:41 21.02.2020
2208 Haze 20 1016 82 3000 1.9 208 23:20 21.02.2020
2209 Haze 19 1017 88 3000 1.9 208 22:42 21.02.2020
2210 Haze 21 1017 77 3000 1.9 208 22:24 21.02.2020
2211 Haze 21 1017 77 3000 1.9 208 21:56 21.02.2020
2212 Haze 21 1017 77 3000 1.9 208 21:37 21.02.2020
2213 Haze 21 1017 77 3000 1.9 208 21:19 21.02.2020
2214 Haze 21 1018 77 3000 1.9 208 20:47 21.02.2020
2215 Haze 22 1018 73 3000 1.93 219 20:27 21.02.2020
2216 Haze 22 1018 73 3000 1 130 19:41 21.02.2020
2217 Haze 22 1018 73 3000 1 130 19:23 21.02.2020
2218 Haze 23 1018 69 3000 1 130 18:45 21.02.2020
2219 Haze 23 1018 69 3000 1 130 18:45 21.02.2020
2220 Haze 23 1019 69 3000 2.25 147 18:25 21.02.2020
2221 Haze 23 1018 69 3000 1 120 17:59 21.02.2020
2222 Haze 24 1018 64 3000 1 110 17:39 21.02.2020
2223 Haze 24 1018 64 3000 1 110 17:20 21.02.2020
2224 Haze 24 1018 64 3000 1 110 16:57 21.02.2020
2225 Haze 24 1018 64 3000 1.5 120 16:39 21.02.2020
2226 Haze 24 1018 64 3000 1.5 120 16:20 21.02.2020
2227 Haze 25 1017 57 3000 1.5 140 15:44 21.02.2020
2228 Haze 26 1017 54 3000 1.5 170 15:19 21.02.2020
2229 Haze 26 1017 54 3000 1.5 180 14:55 21.02.2020
2230 Haze 26 1016 57 3000 2.78 149 14:37 21.02.2020
2231 Haze 26 1016 57 3000 1.95 209 14:18 21.02.2020
2232 Haze 29 1016 45 3000 2.6 190 13:42 21.02.2020
2233 Haze 29 1016 45 3000 2.6 190 13:21 21.02.2020
2234 Haze 30 1015 42 3000 3.1 190 12:47 21.02.2020
2235 Haze 30 1015 42 3000 3.6 180 12:27 21.02.2020
2236 Haze 30 1015 42 3000 3.1 160 11:59 21.02.2020
2237 Haze 30 1016 42 3000 3.6 180 11:38 21.02.2020
2238 Haze 30 1016 42 3000 3.6 180 11:20 21.02.2020
2239 Haze 30 1016 42 3000 4.6 200 10:55 21.02.2020
2240 Haze 29 1016 51 3000 3.6 180 10:36 21.02.2020
2241 Haze 29 1016 51 3000 3.6 180 10:18 21.02.2020
2242 Haze 29 1017 48 3000 4.1 190 09:42 21.02.2020
2243 Haze 29 1017 48 3000 4.1 190 09:23 21.02.2020
2244 Haze 29 1018 51 3000 2.6 180 08:56 21.02.2020
2245 Haze 28 1018 54 3000 3.6 180 08:37 21.02.2020
2246 Haze 28 1018 54 3000 3.6 180 08:19 21.02.2020
2247 Haze 28 1019 58 2500 3.1 170 07:55 21.02.2020
2248 Haze 27 1019 57 2500 4.1 200 07:36 21.02.2020
2249 Haze 27 1019 57 2500 4.1 200 07:18 21.02.2020
2250 Haze 25 1020 65 2000 4.1 200 06:39 21.02.2020
2251 Haze 25 1020 65 2000 4.1 200 06:21 21.02.2020
2252 Haze 24 1019 73 2000 3.1 180 05:35 21.02.2020
2253 Mist 22 1019 78 1500 1 200 04:26 21.02.2020
2254 Mist 20 1018 88 1500 2.58 177 03:56 21.02.2020
2255 Fog 19 1018 88 1500 2.58 177 03:19 21.02.2020
2256 Haze 19 1016 88 3500 2.46 154 01:45 21.02.2020
2257 Haze 20 1014 88 4000 2.46 154 01:23 21.02.2020
2258 Haze 19 1014 88 4000 1.5 60 00:39 21.02.2020
2259 Haze 19 1014 88 4000 1.5 60 00:20 21.02.2020
2260 Haze 19 1014 88 4000 1 80 23:42 20.02.2020
2261 Haze 19 1014 88 4000 2.1 100 23:22 20.02.2020
2262 Haze 20 1014 82 4000 1.5 90 22:42 20.02.2020
2263 Haze 20 1014 82 4000 1.5 90 22:24 20.02.2020
2264 Haze 20 1014 82 4000 1.5 90 22:24 20.02.2020
2265 Haze 19 1015 88 4000 1 100 21:58 20.02.2020
2266 Haze 20 1015 88 4000 1.97 148 21:40 20.02.2020
2267 Haze 20 1015 88 4000 1.97 148 21:20 20.02.2020
2268 Haze 20 1015 88 4000 1.97 148 21:20 20.02.2020
2269 Haze 20 1015 82 3500 1.97 148 20:57 20.02.2020
2270 Haze 20 1016 88 3500 1.97 148 20:39 20.02.2020
2271 Haze 20 1016 88 3500 3.79 163 20:20 20.02.2020
2272 Haze 21 1016 83 3500 3.79 163 19:59 20.02.2020
2273 Haze 22 1016 78 3500 3.79 163 19:41 20.02.2020
2274 Haze 22 1016 78 3500 3.79 163 19:23 20.02.2020
2275 Haze 22 1016 78 3500 3.79 163 18:55 20.02.2020
2276 Haze 22 1016 78 3500 1 90 18:37 20.02.2020
2277 Haze 22 1016 78 3500 1 90 18:18 20.02.2020
2278 Haze 23 1016 78 3500 1 100 17:39 20.02.2020
2279 Haze 24 1016 73 3500 2.1 90 17:20 20.02.2020
2280 Haze 24 1016 73 3500 2.1 90 16:58 20.02.2020
2281 Haze 25 1015 69 3500 2.1 100 16:39 20.02.2020
2282 Haze 25 1015 69 3500 2.1 100 16:39 20.02.2020
2283 Haze 25 1015 69 3500 2.1 100 16:19 20.02.2020
2284 Haze 25 1015 69 3500 2.1 90 15:56 20.02.2020
2285 Haze 25 1014 69 3500 2.6 100 15:37 20.02.2020
2286 Haze 25 1014 69 3500 2.6 100 15:19 20.02.2020
2287 Haze 26 1014 65 3500 1.5 100 14:43 20.02.2020
2288 Haze 27 1014 57 3500 1.5 100 14:25 20.02.2020
2289 Haze 27 1013 57 3500 1.5 100 13:58 20.02.2020
2290 Haze 29 1013 51 4500 2.1 120 13:40 20.02.2020
2291 Haze 29 1013 51 4500 2.1 120 13:19 20.02.2020
2292 Clouds 31 1013 40 6000 1 100 12:43 20.02.2020
2293 Clouds 31 1013 40 6000 1 100 12:21 20.02.2020
2294 Clouds 30 1013 42 6000 1.5 100 11:59 20.02.2020
2295 Clouds 30 1013 42 6000 3.1 190 11:41 20.02.2020
2296 Clouds 30 1013 42 6000 3.1 190 11:41 20.02.2020
2297 Clouds 30 1013 42 6000 3.1 190 11:22 20.02.2020
2298 Clouds 30 1013 42 6000 1 140 10:56 20.02.2020
2299 Clouds 29 1014 45 6000 1.5 150 10:38 20.02.2020
2300 Clouds 29 1014 45 6000 1.5 150 10:19 20.02.2020
2301 Clouds 29 1015 45 6000 2.6 180 09:39 20.02.2020
2302 Clouds 29 1015 45 6000 2.6 180 09:21 20.02.2020
2303 Haze 28 1016 51 5000 4.1 190 08:44 20.02.2020
2304 Haze 28 1016 51 5000 4.1 190 08:24 20.02.2020
2305 Haze 28 1017 51 5000 2.6 170 07:55 20.02.2020
2306 Haze 27 1017 54 5000 2.1 150 07:37 20.02.2020
2307 Haze 27 1017 54 5000 2.1 150 07:19 20.02.2020
2308 Haze 26 1018 50 5000 2.1 160 06:43 20.02.2020
2309 Haze 24 1018 53 5000 1.5 160 05:58 20.02.2020
2310 Haze 23 1018 56 5000 1 110 05:34 20.02.2020
2311 Haze 20 1017 60 4000 1 90 04:49 20.02.2020
2312 Clear 19 1016 63 4000 2.28 144 03:47 20.02.2020
2313 Clear 14 1015 82 4000 2.28 144 02:47 20.02.2020
2314 Clear 17 1014 67 4000 2.27 128 01:33 20.02.2020
2315 Clear 17 1013 67 4000 1.52 113 00:47 20.02.2020
2316 Clear 17 1013 67 4000 1.52 113 00:25 20.02.2020
2317 Clear 16 1013 77 4000 1.52 113 23:46 19.02.2020
2318 Clear 17 1014 67 5000 1.66 107 23:19 19.02.2020
2319 Clear 17 1013 67 5000 1.66 107 22:43 19.02.2020
2320 Clear 17 1014 67 6000 1 40 22:25 19.02.2020
2321 Clear 18 1014 63 6000 1.66 107 21:59 19.02.2020
2322 Clear 17 1014 63 6000 1.66 107 21:40 19.02.2020
2323 Clear 17 1014 63 6000 1.66 107 21:19 19.02.2020
2324 Clear 17 1014 63 6000 1.66 107 20:57 19.02.2020
2325 Clear 17 1014 63 6000 1.66 107 20:57 19.02.2020
2326 Clear 18 1015 59 6000 1.66 107 20:38 19.02.2020
2327 Clear 18 1015 59 6000 2 116 20:19 19.02.2020
2328 Clear 18 1015 63 6000 2 116 19:57 19.02.2020
2329 Clear 19 1015 55 6000 2 116 19:38 19.02.2020
2330 Clear 19 1015 55 6000 2 116 19:19 19.02.2020
2331 Clear 19 1015 59 6000 2 116 18:57 19.02.2020
2332 Clear 20 1015 52 6000 2 116 18:39 19.02.2020
2333 Clear 20 1015 52 6000 2 116 18:21 19.02.2020
2334 Clear 22 1015 46 6000 1.5 60 17:44 19.02.2020
2335 Clouds 22 1015 46 6000 2.1 90 17:20 19.02.2020
2336 Clouds 22 1015 46 6000 1.5 90 16:57 19.02.2020
2337 Clouds 23 1015 46 6000 1 90 16:38 19.02.2020
2338 Clouds 23 1015 46 6000 1 90 16:18 19.02.2020
2339 Clouds 24 1014 41 6000 1.5 90 15:43 19.02.2020
2340 Clouds 24 1014 41 6000 1.5 90 15:24 19.02.2020
2341 Clouds 24 1014 41 6000 1.5 90 15:24 19.02.2020
2342 Clouds 25 1014 38 6000 2.1 90 14:57 19.02.2020
2343 Clouds 26 1013 34 7000 1.5 100 14:39 19.02.2020
2344 Clouds 26 1013 34 7000 1.5 100 14:21 19.02.2020
2345 Clouds 29 1013 25 7000 1.5 80 13:41 19.02.2020
2346 Clouds 29 1013 25 7000 1.5 80 13:22 19.02.2020
2347 Clouds 30 1013 25 8000 2.1 80 12:55 19.02.2020
2348 Clouds 31 1013 20 8000 2.1 100 12:36 19.02.2020
2349 Clouds 31 1013 20 8000 2.1 100 12:18 19.02.2020
2350 Clouds 32 1013 15 8000 2.1 220 11:38 19.02.2020
2351 Clouds 32 1013 15 8000 2.1 220 11:20 19.02.2020
2352 Clouds 31 1013 18 8000 1.5 240 10:58 19.02.2020
2353 Clouds 31 1014 19 8000 2.1 240 10:38 19.02.2020
2354 Clouds 31 1014 19 8000 2.1 240 10:20 19.02.2020
2355 Clouds 31 1014 20 8000 2.1 10 09:58 19.02.2020
2356 Clouds 30 1015 25 8000 1.5 30 09:37 19.02.2020
2357 Clouds 30 1015 25 8000 1.5 30 09:19 19.02.2020
2358 Clouds 30 1015 25 8000 1.5 30 09:19 19.02.2020
2359 Clouds 30 1016 27 6000 1 100 08:45 19.02.2020
2360 Clouds 30 1016 27 6000 1 100 08:24 19.02.2020
2361 Clear 28 1017 30 6000 2.6 80 07:43 19.02.2020
2362 Clear 27 1018 30 6000 1.5 110 07:25 19.02.2020
2363 Haze 26 1018 29 5000 1.5 90 06:57 19.02.2020
2364 Haze 25 1018 31 5000 1.5 90 06:31 19.02.2020
2365 Haze 20 1018 45 5000 2.12 59 04:25 19.02.2020
2366 Haze 13 1016 71 3000 2.12 59 02:58 19.02.2020
2367 Haze 13 1016 66 3500 2.12 59 02:31 19.02.2020
2368 Haze 13 1015 66 4000 1.93 35 01:24 19.02.2020
2369 Haze 13 1015 66 4000 1.93 35 00:51 19.02.2020
2370 Haze 13 1015 66 4000 1.93 35 00:51 19.02.2020
2371 Haze 13 1015 66 4000 1.93 35 00:51 19.02.2020
2372 Haze 13 1015 66 4000 1.93 35 00:32 19.02.2020
2373 Haze 13 1015 66 4000 1 20 23:44 18.02.2020
2374 Haze 16 1015 55 4000 1.5 10 23:21 18.02.2020
2375 Haze 16 1015 55 4000 1.5 10 22:59 18.02.2020
2376 Haze 15 1015 58 4000 1 10 22:41 18.02.2020
2377 Haze 15 1015 58 4000 1 10 22:19 18.02.2020
2378 Haze 16 1015 55 4000 1.88 0 21:56 18.02.2020
2379 Haze 14 1015 62 4000 1.88 0 21:38 18.02.2020
2380 Haze 14 1015 62 4000 1.88 0 21:19 18.02.2020
2381 Haze 16 1015 63 4000 1 10 20:58 18.02.2020
2382 Haze 17 1016 59 4000 1.88 0 20:38 18.02.2020
2383 Haze 17 1016 59 4000 1.61 353 20:20 18.02.2020
2384 Haze 17 1016 59 4000 1 10 19:55 18.02.2020
2385 Haze 18 1016 52 4000 1.61 353 19:36 18.02.2020
2386 Haze 18 1016 52 4000 1.61 353 19:18 18.02.2020
2387 Haze 20 1017 40 4000 1.61 353 18:41 18.02.2020
2388 Haze 20 1017 40 4000 1.61 353 18:20 18.02.2020
2389 Haze 19 1017 39 4000 1.61 353 17:56 18.02.2020
2390 Haze 20 1017 37 4000 1 110 17:37 18.02.2020
2391 Haze 20 1017 37 4000 1 110 17:18 18.02.2020
2392 Haze 21 1016 35 5000 1 110 16:39 18.02.2020
2393 Haze 21 1016 35 5000 1 110 16:20 18.02.2020
2394 Clear 23 1015 31 6000 1.5 140 15:41 18.02.2020
2395 Clear 23 1015 31 6000 1.5 140 15:20 18.02.2020
2396 Clear 23 1015 31 6000 1.5 140 14:57 18.02.2020
2397 Clear 24 1015 29 6000 1.5 150 14:39 18.02.2020
2398 Clear 24 1015 29 6000 1.5 150 14:20 18.02.2020
2399 Clear 26 1014 26 6000 1.46 113 13:42 18.02.2020
2400 Clear 28 1015 23 8000 1.5 110 13:24 18.02.2020
2401 Clear 29 1014 17 8000 2.1 120 12:59 18.02.2020
2402 Clear 29 1014 10 8000 1.5 140 12:41 18.02.2020
2403 Clear 29 1014 10 8000 1.5 140 12:22 18.02.2020
2404 Clear 30 1014 15 8000 1 80 11:55 18.02.2020
2405 Clear 30 1015 13 8000 1 110 11:37 18.02.2020
2406 Clear 30 1015 13 8000 1 110 11:18 18.02.2020
2407 Clear 30 1015 15 8000 2.1 70 10:41 18.02.2020
2408 Clear 30 1015 15 8000 2.1 70 10:18 18.02.2020
2409 Clear 29 1016 7 8000 1 80 09:56 18.02.2020
2410 Clear 29 1016 7 8000 2.1 100 09:38 18.02.2020
2411 Clear 29 1016 7 8000 2.1 100 09:19 18.02.2020
2412 Clear 28 1017 17 8000 3.1 80 08:44 18.02.2020
2413 Clear 28 1017 17 8000 3.1 80 08:21 18.02.2020
2414 Clear 27 1018 19 8000 2.1 90 07:59 18.02.2020
2415 Clear 27 1018 21 8000 3.1 50 07:41 18.02.2020
2416 Clear 27 1018 21 8000 3.1 50 07:22 18.02.2020
2417 Clear 26 1019 24 8000 1 70 06:43 18.02.2020
2418 Clear 26 1019 22 8000 2.1 60 06:25 18.02.2020
2419 Clear 24 1019 29 8000 1.5 30 05:47 18.02.2020
2420 Clear 21 1018 35 8000 1.5 20 04:43 18.02.2020
2421 Haze 17 1017 45 4000 2.1 10 03:36 18.02.2020
2422 Haze 15 1017 54 4000 2.6 10 02:49 18.02.2020
2423 Haze 16 1016 51 4000 1.5 20 01:21 18.02.2020
2424 Haze 17 1016 48 5000 2.1 20 00:22 18.02.2020
2425 Haze 18 1016 45 5000 3.1 360 23:57 17.02.2020
2426 Haze 17 1016 48 5000 2.1 350 23:38 17.02.2020
2427 Haze 17 1016 48 5000 2.1 350 23:19 17.02.2020
2428 Haze 18 1016 45 5000 1.5 360 22:42 17.02.2020
2429 Haze 18 1016 45 5000 1.5 360 22:21 17.02.2020
2430 Haze 18 1017 48 5000 3.03 18 21:59 17.02.2020
2431 Haze 19 1017 48 5000 3.03 18 21:38 17.02.2020
2432 Haze 19 1017 48 5000 3.03 18 21:18 17.02.2020
2433 Haze 19 1017 52 5000 3.03 18 20:42 17.02.2020
2434 Haze 18 1018 55 5000 2.24 1 20:21 17.02.2020
2435 Haze 20 1018 45 5000 1.5 10 19:59 17.02.2020
2436 Haze 21 1018 46 5000 2.6 10 19:40 17.02.2020
2437 Haze 21 1018 46 5000 2.6 10 19:20 17.02.2020
2438 Clear 20 1018 45 6000 1 30 18:38 17.02.2020
2439 -273 0 0 0 0 0 18:38 17.02.2020
2440 Clear 20 1018 45 6000 1 30 18:20 17.02.2020
2441 Clear 20 1018 49 6000 2.28 9 17:59 17.02.2020
2442 Clear 21 1018 37 6000 2.28 9 17:38 17.02.2020
2443 Clear 21 1018 37 6000 2.63 47 17:19 17.02.2020
2444 Clear 22 1018 35 6000 2.63 47 16:57 17.02.2020
2445 Clear 22 1018 37 6000 1 90 16:39 17.02.2020
2446 Clear 22 1018 37 6000 1 90 16:20 17.02.2020
2447 Clear 22 1017 37 6000 1.5 100 15:45 17.02.2020
2448 Clear 23 1017 35 6000 2.63 47 15:26 17.02.2020
2449 Clear 24 1017 31 6000 1 110 14:56 17.02.2020
2450 Clear 25 1016 29 6000 1.5 100 14:38 17.02.2020
2451 Clear 25 1016 29 6000 1.5 100 14:19 17.02.2020
2452 Clear 28 1016 24 8000 1.5 90 13:41 17.02.2020
2453 Clear 28 1016 24 8000 1.5 90 13:21 17.02.2020
2454 Clear 29 1016 20 8000 2.1 90 12:59 17.02.2020
2455 Clear 30 1016 16 8000 1 60 12:40 17.02.2020
2456 Clear 30 1016 16 8000 1 60 12:22 17.02.2020
2457 Clear 30 1016 15 8000 2.1 70 11:47 17.02.2020
2458 Clear 30 1016 17 8000 1 80 11:27 17.02.2020
2459 Clear 30 1016 15 8000 1 40 10:58 17.02.2020
2460 Clear 30 1017 15 8000 2.6 50 10:39 17.02.2020
2461 Clear 30 1017 15 8000 2.6 50 10:20 17.02.2020
2462 Clear 30 1017 15 8000 2.1 90 09:58 17.02.2020
2463 Clear 29 1018 16 6000 2.6 50 09:39 17.02.2020
2464 Clear 29 1018 20 6000 2.1 50 09:19 17.02.2020
2465 Clear 29 1018 20 6000 2.1 50 08:45 17.02.2020
2466 Clear 29 1019 20 6000 2.1 60 08:23 17.02.2020
2467 Clear 28 1019 23 6000 2.6 50 07:59 17.02.2020
2468 Clear 27 1019 26 6000 2.6 60 07:39 17.02.2020
2469 Clear 27 1019 26 6000 2.6 60 07:21 17.02.2020
2470 Clear 26 1020 24 6000 2.1 70 06:46 17.02.2020
2471 Haze 25 1020 25 5000 1.5 70 06:27 17.02.2020
2472 Haze 23 1020 31 5000 2.1 50 05:40 17.02.2020
2473 Haze 20 1019 42 5000 2.1 20 04:39 17.02.2020
2474 Haze 16 1018 55 4000 1.5 10 02:59 17.02.2020
2475 Haze 17 1017 51 4000 2.1 10 01:23 17.02.2020
2476 Haze 17 1016 51 4000 2.1 10 00:39 17.02.2020
2477 Haze 17 1016 51 4000 2.1 10 00:19 17.02.2020
2478 Haze 17 1016 51 4000 1.5 10 23:52 16.02.2020
2479 Haze 15 1017 58 4000 1 10 23:27 16.02.2020
2480 Haze 14 1017 71 3500 2.6 24 22:56 16.02.2020
2481 Haze 15 1017 67 3500 2.6 24 22:38 16.02.2020
2482 Haze 15 1017 67 3500 2.6 24 22:38 16.02.2020
2483 Haze 15 1017 67 3500 2.6 24 22:19 16.02.2020
2484 Haze 14 1017 76 3500 2.6 24 21:55 16.02.2020
2485 Haze 15 1017 72 3500 2.6 24 21:36 16.02.2020
2486 Haze 15 1017 72 3500 2.6 24 21:18 16.02.2020
2487 Haze 17 1017 63 3500 2.6 24 20:54 16.02.2020
2488 Haze 18 1018 63 3500 3.38 28 20:36 16.02.2020
2489 Haze 18 1018 63 3500 3.17 17 20:18 16.02.2020
2490 Haze 19 1018 55 3500 3.17 17 19:54 16.02.2020
2491 Haze 19 1018 55 3500 1 10 19:36 16.02.2020
2492 Haze 19 1018 55 3500 1 10 19:18 16.02.2020
2493 Haze 19 1018 55 3500 3.17 17 18:41 16.02.2020
2494 Haze 19 1018 55 3500 3.17 17 18:23 16.02.2020
2495 Haze 19 1018 55 3500 3.17 17 18:23 16.02.2020
2496 Haze 19 1018 52 3500 3.17 17 17:45 16.02.2020
2497 Haze 19 1018 52 4000 1.21 81 17:21 16.02.2020
2498 Haze 20 1017 56 4000 1 90 16:57 16.02.2020
2499 Haze 22 1017 46 4000 1.5 90 16:39 16.02.2020
2500 Haze 22 1017 46 4000 1.5 90 16:21 16.02.2020
2501 Haze 22 1017 46 4000 1.5 90 15:56 16.02.2020
2502 Haze 23 1016 43 4000 1.5 90 15:37 16.02.2020
2503 Haze 23 1016 43 4000 1.5 90 15:18 16.02.2020
2504 Haze 24 1016 41 4000 2.1 90 14:39 16.02.2020
2505 Haze 26 1015 36 5000 2.1 90 14:21 16.02.2020
2506 Haze 26 1015 36 5000 2.1 90 13:47 16.02.2020
2507 Haze 27 1015 34 5000 1 90 13:24 16.02.2020
2508 Haze 27 1015 34 5000 1 90 13:24 16.02.2020
2509 Haze 29 1015 28 5000 1 80 12:56 16.02.2020
2510 Clear 29 1015 26 6000 2.1 60 12:38 16.02.2020
2511 Clear 29 1015 26 6000 2.1 60 12:19 16.02.2020
2512 Clear 29 1015 26 8000 2.1 90 11:39 16.02.2020
2513 Clear 29 1015 26 8000 2.1 90 11:18 16.02.2020
2514 Clear 29 1015 26 8000 3.1 120 10:56 16.02.2020
2515 Clear 29 1016 25 8000 1 30 10:38 16.02.2020
2516 Clear 29 1016 25 8000 1 30 10:20 16.02.2020
2517 Clear 29 1016 28 8000 1 30 09:55 16.02.2020
2518 Clear 29 1017 28 8000 1 60 09:36 16.02.2020
2519 Clear 29 1017 28 8000 1 60 09:18 16.02.2020
2520 Clear 28 1017 26 8000 2.1 50 08:45 16.02.2020
2521 Clear 27 1018 30 8000 1 90 08:21 16.02.2020
2522 Clear 27 1018 28 8000 3.1 60 07:54 16.02.2020
2523 Clear 27 1019 32 8000 1.5 70 07:34 16.02.2020
2524 Clear 24 1019 36 7000 3.6 50 06:33 16.02.2020
2525 Clear 20 1018 49 6000 2.1 20 04:44 16.02.2020
2526 Haze 17 1017 59 5000 1 20 03:31 16.02.2020
2527 Haze 15 1016 67 4000 1 30 02:32 16.02.2020
2528 Haze 15 1016 67 4000 1 20 01:43 16.02.2020
2529 Haze 17 1015 59 4000 2.1 10 01:23 16.02.2020
2530 Haze 16 1015 63 4000 1 10 00:53 16.02.2020
2531 Haze 16 1015 63 4000 1 340 00:33 16.02.2020
2532 Haze 16 1015 72 4000 3.46 24 23:58 15.02.2020
2533 Haze 18 1015 63 4000 1 350 23:40 15.02.2020
2534 Haze 18 1015 63 4000 1 350 23:40 15.02.2020
2535 Haze 18 1015 63 4000 1 350 23:21 15.02.2020
2536 Mist 17 1015 82 4000 2.85 26 22:41 15.02.2020
2537 Mist 17 1015 82 4000 2.85 26 22:22 15.02.2020
2538 Haze 17 1015 82 4000 2.85 26 21:59 15.02.2020
2539 Haze 18 1015 72 4000 2.85 26 21:41 15.02.2020
2540 Haze 18 1015 72 4000 2.85 26 21:21 15.02.2020
2541 Haze 21 1016 64 4000 1 20 20:41 15.02.2020
2542 Haze 21 1016 64 4000 1 20 20:21 15.02.2020
2543 Haze 21 1016 64 4000 1 20 19:44 15.02.2020
2544 Haze 21 1016 64 4000 2.1 20 19:24 15.02.2020
2545 Haze 22 1016 60 4000 1 30 18:55 15.02.2020
2546 Haze 22 1016 56 4000 1.5 20 18:37 15.02.2020
2547 Haze 22 1016 56 4000 1.5 20 18:18 15.02.2020
2548 Haze 23 1016 49 4000 1 80 17:43 15.02.2020
2549 Haze 23 1016 49 4000 1 80 17:22 15.02.2020
2550 Haze 23 1016 49 4000 1 80 16:59 15.02.2020
2551 Haze 23 1016 53 4000 1 80 16:39 15.02.2020
2552 Haze 23 1016 53 4000 1 80 16:19 15.02.2020
2553 Haze 23 1014 53 5000 1.2 331 15:43 15.02.2020
2554 Haze 23 1014 53 5000 1.2 331 15:24 15.02.2020
2555 Haze 23 1014 53 5000 1.2 331 14:45 15.02.2020
2556 Clear 25 1014 47 5000 1 90 14:24 15.02.2020
2557 Haze 26 1013 44 5000 1 100 13:58 15.02.2020
2558 Clear 28 1013 39 5000 2.1 100 13:39 15.02.2020
2559 Clear 28 1013 39 5000 2.1 100 13:20 15.02.2020
2560 Clear 29 1013 35 6000 2.6 90 12:44 15.02.2020
2561 Clear 29 1012 35 8000 1.5 120 12:25 15.02.2020
2562 Clear 30 1012 25 8000 2.1 40 11:55 15.02.2020
2563 Clear 30 1013 27 8000 1 50 11:36 15.02.2020
2564 Clear 30 1013 27 8000 1 50 11:18 15.02.2020
2565 Clear 30 1013 25 8000 1 340 10:39 15.02.2020
2566 Clear 30 1013 25 8000 1 340 10:20 15.02.2020
2567 Clear 29 1014 25 8000 1.67 347 09:44 15.02.2020
2568 Clear 28 1015 34 6000 1 50 09:25 15.02.2020
2569 Clear 28 1015 34 6000 1 50 08:58 15.02.2020
2570 Haze 28 1015 34 5000 1.5 60 08:39 15.02.2020
2571 Haze 28 1015 34 5000 1.5 60 08:19 15.02.2020
2572 Haze 27 1017 36 5000 1.5 50 07:40 15.02.2020
2573 Haze 27 1017 36 5000 1.5 50 07:22 15.02.2020
2574 Haze 25 1017 44 5000 2.1 30 06:38 15.02.2020
2575 Haze 25 1017 44 5000 2.1 30 06:18 15.02.2020
2576 Haze 21 1017 52 4000 2.1 10 04:50 15.02.2020
2577 Haze 20 1017 56 4000 1.5 10 04:24 15.02.2020
2578 Haze 20 1017 56 4000 1.5 10 04:24 15.02.2020
2579 Haze 17 1015 67 2500 1 10 02:58 15.02.2020
2580 Mist 17 1015 63 3000 2.1 10 02:26 15.02.2020
2581 Mist 17 1014 63 3000 2.43 12 01:50 15.02.2020
2582 Haze 16 1014 72 3000 2.43 12 01:31 15.02.2020
2583 Haze 15 1014 77 3000 2.73 8 00:28 15.02.2020
2584 Haze 15 1014 77 3000 2.73 8 23:47 14.02.2020
2585 Haze 16 1014 67 3000 2.73 8 23:21 14.02.2020
2586 Haze 16 1014 67 3000 2.15 13 22:56 14.02.2020
2587 Haze 16 1014 67 3000 2.15 13 22:56 14.02.2020
2588 Haze 16 1014 67 3000 2.15 13 22:37 14.02.2020
2589 Haze 16 1014 67 3000 2.15 13 22:19 14.02.2020
2590 Haze 18 1014 63 3000 2.15 13 21:49 14.02.2020
2591 Haze 17 1014 63 3000 2.15 13 21:30 14.02.2020
2592 Haze 18 1014 59 3000 2.15 13 20:46 14.02.2020
2593 Haze 19 1014 55 3500 1.98 4 20:20 14.02.2020
2594 Haze 19 1015 55 3500 1.98 4 19:59 14.02.2020
2595 Haze 20 1015 52 3500 1 340 19:40 14.02.2020
2596 Haze 20 1015 52 3500 1 340 19:22 14.02.2020
2597 Haze 22 1015 43 3500 1 340 18:56 14.02.2020
2598 Haze 23 1015 38 3500 3.1 350 18:38 14.02.2020
2599 Haze 23 1015 38 3500 3.1 350 18:19 14.02.2020
2600 Haze 24 1015 38 3500 4.1 350 17:43 14.02.2020
2601 Haze 25 1015 36 3500 3.1 350 17:21 14.02.2020
2602 Haze 25 1014 33 3500 3.6 340 16:58 14.02.2020
2603 Haze 24 1014 38 3500 2.6 320 16:39 14.02.2020
2604 Haze 24 1014 38 3500 2.6 320 16:21 14.02.2020
2605 Haze 24 1014 38 3500 3.1 330 15:56 14.02.2020
2606 Haze 26 1013 31 4000 3.1 330 15:37 14.02.2020
2607 Haze 26 1013 31 4000 3.1 330 15:37 14.02.2020
2608 Haze 26 1013 31 4000 3.1 330 15:37 14.02.2020
2609 Haze 26 1013 31 4000 3.1 330 15:37 14.02.2020
2610 Haze 26 1013 31 4000 3.1 330 15:37 14.02.2020
2611 Haze 26 1013 31 4000 3.1 330 15:19 14.02.2020
2612 Haze 25 1013 38 4000 1 310 14:57 14.02.2020
2613 Haze 27 1012 32 5000 1 340 14:38 14.02.2020
2614 Haze 27 1012 32 5000 1 340 14:20 14.02.2020
2615 Haze 30 1012 25 5000 2.1 320 13:40 14.02.2020
2616 Haze 30 1012 25 5000 2.1 320 13:21 14.02.2020
2617 Clear 31 1012 25 6000 2.1 340 12:58 14.02.2020
2618 Clear 31 1012 25 8000 2.6 320 12:40 14.02.2020
2619 Clear 31 1012 25 8000 2.6 320 12:21 14.02.2020
2620 Clear 31 1012 25 10000 4.1 280 11:58 14.02.2020
2621 Clear 31 1012 25 10000 2.1 290 11:40 14.02.2020
2622 Clear 31 1012 25 10000 2.1 290 11:20 14.02.2020
2623 Clear 31 1012 25 8000 4.1 270 10:55 14.02.2020
2624 Clear 31 1013 25 8000 5.1 280 10:36 14.02.2020
2625 Clear 31 1013 25 8000 5.1 280 10:18 14.02.2020
2626 Clear 30 1014 30 7000 1.5 300 09:39 14.02.2020
2627 Clear 30 1014 30 7000 1.5 300 09:19 14.02.2020
2628 Clear 29 1014 32 6000 1 280 08:43 14.02.2020
2629 Clear 28 1015 37 6000 1 50 08:24 14.02.2020
2630 Clouds 28 1016 37 6000 1 70 07:51 14.02.2020
2631 Clouds 27 1017 42 6000 2.6 20 07:33 14.02.2020
2632 Clouds 26 1017 41 6000 1.5 10 06:56 14.02.2020
2633 Haze 26 1017 44 5000 2.1 10 06:23 14.02.2020
2634 Haze 23 1017 49 5000 1 20 05:44 14.02.2020
2635 Haze 21 1017 52 4000 1 20 04:22 14.02.2020
2636 Haze 15 1016 77 3000 1.56 341 03:28 14.02.2020
2637 Haze 14 1015 76 4000 1.5 10 02:20 14.02.2020
2638 Haze 15 1014 72 4000 1.02 311 01:22 14.02.2020
2639 Haze 16 1014 67 4000 1.02 311 00:42 14.02.2020
2640 Haze 16 1014 67 4000 1.02 311 00:42 14.02.2020
2641 Haze 16 1014 67 4000 1.02 311 00:42 14.02.2020
2642 Haze 16 1014 72 4000 1.02 311 00:21 14.02.2020
2643 Haze 15 1014 77 4000 1.02 311 23:42 13.02.2020
2644 Haze 16 1014 72 4000 1.56 326 23:19 13.02.2020
2645 Haze 17 1015 67 4000 1.56 326 22:42 13.02.2020
2646 Haze 17 1015 67 4000 1.56 326 22:20 13.02.2020
2647 Haze 17 1015 67 4000 1.56 326 21:59 13.02.2020
2648 Haze 19 1015 55 4000 1.5 340 21:40 13.02.2020
2649 Haze 19 1015 55 4000 1.5 340 21:21 13.02.2020
2650 Haze 16 1016 77 4000 1 320 20:56 13.02.2020
2651 Haze 20 1016 64 4000 1.5 360 20:37 13.02.2020
2652 Haze 20 1016 64 4000 1.5 360 20:19 13.02.2020
2653 Haze 20 1016 64 4000 2.01 1 19:55 13.02.2020
2654 Haze 21 1016 56 4000 1 10 19:36 13.02.2020
2655 Haze 21 1016 56 4000 1 10 19:18 13.02.2020
2656 Haze 21 1016 52 4000 2.1 240 18:41 13.02.2020
2657 Haze 21 1016 52 4000 2.1 240 18:22 13.02.2020
2658 Haze 21 1016 52 4000 2.01 1 17:58 13.02.2020
2659 Haze 21 1016 56 4000 1.5 270 17:38 13.02.2020
2660 Haze 21 1016 56 4000 1.5 270 17:20 13.02.2020
2661 Haze 23 1016 49 4000 2.1 360 16:56 13.02.2020
2662 Haze 22 1016 49 4000 1 200 16:36 13.02.2020
2663 Haze 22 1015 49 4000 1.5 170 16:18 13.02.2020
2664 Haze 22 1015 49 4000 1.5 170 15:55 13.02.2020
2665 Haze 22 1015 53 4000 1 170 15:37 13.02.2020
2666 Haze 22 1015 53 4000 1 170 15:18 13.02.2020
2667 Haze 23 1014 49 5000 1.01 290 14:55 13.02.2020
2668 Haze 26 1014 34 5000 1.01 290 14:37 13.02.2020
2669 Haze 26 1014 34 5000 1.19 354 14:18 13.02.2020
2670 Haze 29 1014 37 5000 1.19 354 13:41 13.02.2020
2671 Haze 29 1014 37 5000 1.55 3 13:18 13.02.2020
2672 Haze 31 1014 27 5000 1.55 3 12:49 13.02.2020
2673 Haze 31 1014 23 5000 1 60 12:30 13.02.2020
2674 Haze 31 1015 22 5000 1 330 11:59 13.02.2020
2675 Haze 31 1015 22 5000 1 330 11:41 13.02.2020
2676 Haze 31 1015 22 5000 1 330 11:19 13.02.2020
2677 Haze 31 1015 25 5000 1.5 350 10:44 13.02.2020
2678 Haze 31 1015 25 5000 1.5 350 10:44 13.02.2020
2679 Haze 30 1016 27 5000 1 60 10:26 13.02.2020
2680 Haze 29 1016 28 5000 1.5 20 09:50 13.02.2020
2681 Haze 29 1017 28 5000 1 60 09:26 13.02.2020
2682 Haze 29 1018 32 5000 1 10 08:48 13.02.2020
2683 Haze 28 1018 34 5000 2.1 10 08:21 13.02.2020
2684 Haze 27 1019 32 5000 1 10 07:57 13.02.2020
2685 Haze 27 1020 32 5000 1.5 50 07:38 13.02.2020
2686 Haze 27 1020 32 5000 1.5 50 07:19 13.02.2020
2687 Haze 26 1021 36 4000 1 360 06:44 13.02.2020
2688 Haze 24 1021 47 3000 1 20 05:59 13.02.2020
2689 Haze 22 1021 53 3000 1 10 05:25 13.02.2020
2690 Haze 19 1021 59 3000 1.5 360 04:25 13.02.2020
2691 Haze 18 1020 68 3000 1 10 03:47 13.02.2020
2692 Haze 16 1020 72 3000 1 360 03:18 13.02.2020
2693 Haze 15 1019 77 3000 1 360 02:45 13.02.2020
2694 Haze 14 1019 82 3000 1.11 3 02:19 13.02.2020
2695 Haze 15 1018 77 3000 1.11 3 01:27 13.02.2020
2696 Haze 15 1018 87 3000 1.3 7 00:32 13.02.2020
2697 Haze 15 1018 87 3000 1.3 7 23:58 12.02.2020
2698 Haze 15 1018 87 3000 1.3 7 23:37 12.02.2020
2699 Haze 15 1018 87 3000 1.76 26 23:18 12.02.2020
2700 Haze 15 1018 87 3000 1.76 26 22:44 12.02.2020
2701 Haze 17 1018 82 3000 1.76 26 22:24 12.02.2020
2702 Haze 17 1018 82 3000 1.76 26 21:57 12.02.2020
2703 Haze 18 1019 77 3000 1 360 21:39 12.02.2020
2704 Haze 18 1019 77 3000 1 360 21:19 12.02.2020
2705 Haze 17 1019 82 3000 1.76 26 20:55 12.02.2020
2706 Haze 17 1019 82 3000 1.76 26 20:37 12.02.2020
2707 Haze 17 1019 82 3000 2.01 31 20:18 12.02.2020
2708 Haze 17 1019 82 3000 2.53 49 19:43 12.02.2020
2709 Haze 19 1019 72 3000 2.53 49 19:23 12.02.2020
2710 Haze 18 1019 77 3000 2.28 39 18:54 12.02.2020
2711 Haze 19 1019 72 3000 2.53 49 18:36 12.02.2020
2712 Haze 19 1019 72 3000 2.53 49 18:18 12.02.2020
2713 Haze 20 1019 68 3000 2.28 39 17:41 12.02.2020
2714 Haze 20 1019 68 3000 2.23 333 17:19 12.02.2020
2715 Haze 21 1019 64 3000 1.42 332 16:57 12.02.2020
2716 Haze 22 1019 53 3000 1.42 332 16:37 12.02.2020
2717 Haze 22 1019 53 3000 2.23 333 16:18 12.02.2020
2718 Haze 21 1018 64 3000 1.42 332 15:40 12.02.2020
2719 Haze 21 1018 64 3000 2.23 333 15:20 12.02.2020
2720 Haze 23 1018 53 3000 1.42 332 14:54 12.02.2020
2721 Haze 25 1017 47 3000 1.42 332 14:36 12.02.2020
2722 Haze 25 1017 47 3000 2.74 355 14:18 12.02.2020
2723 Haze 25 1017 47 3000 1 60 13:55 12.02.2020
2724 Haze 27 1017 44 3500 2.74 355 13:36 12.02.2020
2725 Haze 29 1017 30 4000 1 0 13:18 12.02.2020
2726 Haze 29 1017 30 4000 1 0 12:55 12.02.2020
2727 Haze 28 1017 34 4000 1 60 12:36 12.02.2020
2728 Haze 28 1017 34 4000 1 60 12:18 12.02.2020
2729 Haze 29 1018 30 4000 1 60 11:42 12.02.2020
2730 Haze 29 1018 30 4000 1 60 11:21 12.02.2020
2731 Haze 28 1018 34 4000 1 60 10:59 12.02.2020
2732 Haze 27 1018 36 4000 2.1 60 10:40 12.02.2020
2733 Haze 27 1018 36 4000 2.1 60 10:21 12.02.2020
2734 Haze 27 1019 36 4000 1 60 09:56 12.02.2020
2735 Haze 27 1019 36 4000 1 60 09:56 12.02.2020
2736 Haze 27 1019 36 4000 1 60 09:38 12.02.2020
2737 Haze 27 1019 36 4000 1 60 09:18 12.02.2020
2738 Haze 27 1020 34 4000 1.5 70 08:55 12.02.2020
2739 Haze 26 1021 36 4000 2.92 356 08:36 12.02.2020
2740 Haze 26 1021 36 4000 2.01 79 08:18 12.02.2020
2741 Haze 26 1021 39 4000 1 20 07:41 12.02.2020
2742 Haze 26 1021 39 4000 1 20 07:41 12.02.2020
2743 Haze 25 1022 41 4000 1.5 60 07:21 12.02.2020
2744 Haze 25 1022 38 4000 1 50 06:52 12.02.2020
2745 Haze 24 1022 38 4000 1 50 06:20 12.02.2020
2746 Haze 22 1022 49 3000 1 20 05:33 12.02.2020
2747 Haze 20 1022 60 2500 1 20 04:43 12.02.2020
2748 Haze 17 1021 72 2500 1 20 03:59 12.02.2020
2749 Haze 15 1021 82 2500 2.83 41 03:30 12.02.2020
2750 Haze 15 1020 82 3000 1 10 02:46 12.02.2020
2751 Haze 14 1019 82 3000 2.83 41 02:27 12.02.2020
2752 Haze 17 1019 72 3000 2.79 36 01:34 12.02.2020
2753 Haze 15 1018 82 3000 2.84 39 00:41 12.02.2020
2754 Haze 15 1018 82 3000 2.84 39 00:23 12.02.2020
2755 Haze 17 1018 72 3000 2.84 39 23:51 11.02.2020
2756 Haze 17 1018 72 3000 2.84 39 23:33 11.02.2020
2757 Haze 18 1018 68 3000 1.5 40 22:58 11.02.2020
2758 Haze 18 1019 72 3000 1 30 22:40 11.02.2020
2759 Haze 18 1019 72 3000 1 30 22:20 11.02.2020
2760 Haze 18 1019 72 3000 1.5 10 21:57 11.02.2020
2761 Haze 18 1019 72 3000 1.5 20 21:39 11.02.2020
2762 Haze 18 1019 72 3000 1.5 20 21:18 11.02.2020
2763 Haze 18 1019 72 3000 1 20 20:58 11.02.2020
2764 Haze 18 1019 72 3000 1.5 30 20:39 11.02.2020
2765 Haze 18 1019 72 3000 1.5 30 20:39 11.02.2020
2766 Haze 18 1019 72 3000 1.5 30 20:19 11.02.2020
2767 Haze 19 1019 68 3000 2.1 10 19:57 11.02.2020
2768 Haze 20 1019 68 3000 2.1 10 19:39 11.02.2020
2769 Haze 20 1019 68 3000 2.1 10 19:20 11.02.2020
2770 Haze 19 1019 68 3000 1.09 123 18:45 11.02.2020
2771 Haze 18 1019 72 3000 1.09 123 18:26 11.02.2020
2772 Haze 19 1019 63 3000 1.09 123 17:57 11.02.2020
2773 -273 0 0 0 0 0 17:38 11.02.2020
2774 Haze 21 1019 60 3000 2.36 44 17:19 11.02.2020
2775 Haze 21 1019 60 3000 1.5 80 16:58 11.02.2020
2776 Haze 21 1019 60 3000 1.5 90 16:38 11.02.2020
2777 Haze 21 1019 60 3000 1.5 90 16:20 11.02.2020
2778 Haze 21 1019 56 3000 1 80 15:57 11.02.2020
2779 Haze 22 1018 56 3000 1 90 15:39 11.02.2020
2780 Haze 22 1018 56 3000 1 90 15:20 11.02.2020
2781 Haze 23 1018 53 3500 1 90 14:41 11.02.2020
2782 Haze 23 1018 53 3500 1 90 14:19 11.02.2020
2783 Haze 24 1017 50 4000 1 70 13:55 11.02.2020
2784 Haze 25 1017 47 4000 2.1 70 13:37 11.02.2020
2785 Haze 26 1017 41 4000 1.5 80 13:18 11.02.2020
2786 Haze 27 1017 36 4000 1.5 80 12:41 11.02.2020
2787 Haze 27 1017 36 4000 1.5 80 12:22 11.02.2020
2788 Haze 27 1017 36 4000 1.5 120 11:58 11.02.2020
2789 Haze 27 1017 39 4000 1 70 11:40 11.02.2020
2790 Haze 27 1017 39 4000 1 70 11:19 11.02.2020
2791 Haze 27 1018 39 4000 1 90 10:40 11.02.2020
2792 Haze 27 1018 39 4000 1 90 10:21 11.02.2020
2793 Haze 26 1019 39 4000 2.1 90 09:58 11.02.2020
2794 Haze 26 1019 39 4000 2.1 90 09:58 11.02.2020
2795 Haze 26 1019 39 4000 1 90 09:40 11.02.2020
2796 Haze 26 1019 39 4000 1 90 09:22 11.02.2020
2797 Haze 26 1020 39 4000 2.6 90 08:49 11.02.2020
2798 Haze 25 1020 41 4000 2.6 80 08:25 11.02.2020
2799 Haze 24 1021 47 4000 2.1 60 07:55 11.02.2020
2800 Haze 24 1021 44 4000 1.5 60 07:34 11.02.2020
2801 Haze 23 1021 43 4000 2.6 90 06:58 11.02.2020
2802 Haze 23 1021 43 4000 2.6 90 06:58 11.02.2020
2803 Haze 23 1021 46 4000 1.5 80 06:38 11.02.2020
2804 Haze 23 1021 46 4000 1.5 80 06:20 11.02.2020
2805 Haze 21 1021 52 3000 2.6 90 05:41 11.02.2020
2806 Haze 21 1021 52 3000 2.6 90 05:20 11.02.2020
2807 Haze 15 1019 67 2000 3.23 65 03:32 11.02.2020
2808 Haze 15 1018 67 2500 1.5 30 02:38 11.02.2020
2809 Haze 15 1018 72 2500 1 30 01:53 11.02.2020
2810 Haze 15 1017 72 2500 1 20 01:30 11.02.2020
2811 Haze 14 1017 82 2500 1.91 56 00:26 11.02.2020
2812 Haze 15 1017 77 2500 1.91 56 23:48 10.02.2020
2813 Haze 16 1017 72 3000 1 30 23:29 10.02.2020
2814 Haze 16 1017 72 3000 1 30 22:57 10.02.2020
2815 Haze 16 1017 72 3000 1 50 22:37 10.02.2020
2816 Haze 16 1017 72 3000 1 50 22:19 10.02.2020
2817 Haze 17 1017 63 3000 1.5 40 21:40 10.02.2020
2818 Haze 17 1017 63 3000 1.5 40 21:22 10.02.2020
2819 Haze 17 1018 63 3000 1 40 20:56 10.02.2020
2820 Haze 17 1018 63 3000 1 50 20:38 10.02.2020
2821 Haze 17 1018 63 3000 1 50 20:19 10.02.2020
2822 Haze 17 1018 67 3000 1 30 19:57 10.02.2020
2823 Haze 17 1018 67 3000 1 30 19:57 10.02.2020
2824 Haze 16 1018 72 3000 2.75 59 19:37 10.02.2020
2825 Haze 16 1018 72 3000 2.75 59 19:18 10.02.2020
2826 Haze 16 1018 72 3000 2.75 59 19:18 10.02.2020
2827 Haze 18 1018 63 3000 2.75 59 18:56 10.02.2020
2828 Haze 18 1018 59 3000 2.75 59 18:38 10.02.2020
2829 Haze 18 1018 59 3000 2.75 59 18:20 10.02.2020
2830 Haze 18 1018 59 3000 2.75 59 17:54 10.02.2020
2831 Haze 19 1018 55 3000 2.75 59 17:36 10.02.2020
2832 Haze 19 1018 55 3000 1.83 45 17:18 10.02.2020
2833 Haze 19 1018 55 3000 1 90 16:41 10.02.2020
2834 Haze 19 1018 55 3000 1 90 16:41 10.02.2020
2835 Haze 19 1018 55 3000 1 90 16:20 10.02.2020
2836 Haze 19 1018 55 3000 1.83 45 15:59 10.02.2020
2837 Haze 19 1018 55 3000 1.83 45 15:59 10.02.2020
2838 Haze 20 1018 56 3000 1.83 45 15:41 10.02.2020
2839 Haze 20 1018 56 3000 1.83 45 15:22 10.02.2020
2840 Haze 20 1018 56 3500 1.83 45 14:58 10.02.2020
2841 Haze 21 1018 52 4000 1.83 45 14:39 10.02.2020
2842 Haze 21 1018 52 4000 2.17 37 14:19 10.02.2020
2843 Haze 23 1017 43 4000 1 70 13:45 10.02.2020
2844 Haze 23 1017 43 4000 1 70 13:26 10.02.2020
2845 Haze 23 1017 43 4000 1 70 13:26 10.02.2020
2846 Haze 24 1017 38 4000 1.5 80 12:59 10.02.2020
2847 Haze 24 1017 41 4000 2.1 70 12:41 10.02.2020
2848 Haze 24 1017 41 4000 2.1 70 12:22 10.02.2020
2849 Haze 25 1017 41 4000 2.6 50 11:46 10.02.2020
2850 Haze 25 1017 41 4000 2.6 50 11:46 10.02.2020
2851 Haze 25 1017 38 4000 1 90 11:22 10.02.2020
2852 Haze 25 1017 38 4000 1 30 10:58 10.02.2020
2853 Haze 25 1018 38 4000 1.5 50 10:39 10.02.2020
2854 Haze 25 1018 38 4000 1.5 50 10:21 10.02.2020
2855 Haze 24 1019 47 4000 2.1 50 09:42 10.02.2020
2856 Haze 24 1019 47 4000 2.1 50 09:23 10.02.2020
2857 Haze 23 1020 46 4000 2.1 90 08:41 10.02.2020
2858 Haze 23 1020 46 4000 2.1 90 08:22 10.02.2020
2859 Haze 23 1020 46 4000 2.1 70 07:55 10.02.2020
2860 Haze 22 1021 43 4000 2.1 100 07:35 10.02.2020
2861 Haze 21 1021 49 4000 2.6 80 06:53 10.02.2020
2862 Haze 18 1021 55 3500 1.5 80 05:40 10.02.2020
2863 Haze 15 1021 62 2500 1 30 03:59 10.02.2020
2864 Haze 13 1020 71 2500 1.5 30 03:23 10.02.2020
2865 Haze 11 1019 87 3000 1 40 02:51 10.02.2020
2866 Haze 13 1018 71 3000 2.9 52 01:34 10.02.2020
2867 Haze 14 1018 67 3000 1 30 00:46 10.02.2020
2868 Haze 14 1017 67 3000 1 30 00:27 10.02.2020
2869 Haze 14 1017 67 3000 1.5 20 23:43 09.02.2020
2870 Haze 15 1017 62 3000 2.1 10 23:24 09.02.2020
2871 Haze 15 1017 67 3000 1.5 30 22:54 09.02.2020
2872 Haze 15 1017 67 3000 1.5 30 22:54 09.02.2020
2873 Haze 15 1017 67 3000 1.5 30 22:54 09.02.2020
2874 Haze 15 1018 67 3000 1 30 22:36 09.02.2020
2875 Haze 15 1018 67 3000 1 30 22:18 09.02.2020
2876 Haze 16 1018 77 2500 1.5 20 21:41 09.02.2020
2877 Haze 16 1018 77 2500 1.5 20 21:22 09.02.2020
2878 Haze 16 1018 77 2500 1.5 20 21:22 09.02.2020
2879 Haze 16 1019 77 2500 1 30 20:46 09.02.2020
2880 Haze 16 1019 82 2500 1 20 20:22 09.02.2020
2881 Haze 17 1019 77 2500 1 10 19:57 09.02.2020
2882 Haze 17 1019 77 2500 1 40 19:38 09.02.2020
2883 Haze 17 1019 77 2500 1 40 19:38 09.02.2020
2884 Haze 17 1019 77 2500 1 40 19:38 09.02.2020
2885 Haze 17 1019 77 2500 1 40 19:18 09.02.2020
2886 Haze 16 1020 82 3000 2.91 47 18:42 09.02.2020
2887 Haze 17 1019 77 3000 2.91 47 18:23 09.02.2020
2888 Haze 17 1019 77 3000 1 50 17:59 09.02.2020
2889 Haze 18 1019 72 3000 1 50 17:39 09.02.2020
2890 Haze 18 1019 72 3000 1 50 17:39 09.02.2020
2891 Haze 18 1019 72 3000 1 50 17:21 09.02.2020
2892 Haze 18 1019 72 3000 1 90 16:41 09.02.2020
2893 Haze 18 1019 72 3000 1 90 16:22 09.02.2020
2894 Haze 18 1019 72 3000 3.15 66 15:58 09.02.2020
2895 Haze 19 1019 68 3000 3.15 66 15:40 09.02.2020
2896 Haze 19 1019 68 3000 3.15 66 15:21 09.02.2020
2897 Haze 19 1019 68 2500 3.15 66 14:56 09.02.2020
2898 Haze 19 1018 77 2000 1 90 14:37 09.02.2020
2899 Haze 19 1018 77 2000 1 90 14:19 09.02.2020
2900 Haze 21 1018 60 2000 1.5 90 13:43 09.02.2020
2901 Haze 21 1018 60 2000 1.5 90 13:25 09.02.2020
2902 Haze 22 1018 56 2000 1 90 12:55 09.02.2020
2903 Haze 23 1018 53 2000 1.5 70 12:37 09.02.2020
2904 Haze 23 1018 53 2000 1.5 70 12:18 09.02.2020
2905 Haze 23 1018 53 2000 1.5 70 12:18 09.02.2020
2906 Haze 23 1018 56 2000 4.1 60 11:40 09.02.2020
2907 Haze 23 1018 56 2000 4.1 60 11:19 09.02.2020
2908 Haze 23 1018 53 2500 2.6 50 10:54 09.02.2020
2909 Haze 23 1019 53 2500 2.6 50 10:36 09.02.2020
2910 Haze 23 1019 53 2500 2.6 50 10:18 09.02.2020
2911 Haze 22 1019 56 3000 4.1 60 09:39 09.02.2020
2912 Haze 22 1019 56 3000 4.1 60 09:20 09.02.2020
2913 Haze 21 1020 60 3000 2.6 90 08:42 09.02.2020
2914 Haze 21 1021 60 3000 4.6 60 08:23 09.02.2020
2915 Haze 21 1021 60 3000 3.6 110 07:54 09.02.2020
2916 Haze 20 1022 64 3000 2.6 80 07:34 09.02.2020
2917 Haze 19 1023 63 3000 4.1 50 06:42 09.02.2020
2918 Haze 18 1023 68 3000 3.1 80 05:56 09.02.2020
2919 Haze 18 1023 68 3000 3.1 80 05:56 09.02.2020
2920 Haze 17 1023 67 3000 3.1 70 05:34 09.02.2020
2921 Haze 17 1023 59 3000 2.1 70 04:51 09.02.2020
2922 Haze 14 1021 67 3000 2.1 30 02:58 09.02.2020
2923 Haze 14 1021 67 3000 1.5 20 02:38 09.02.2020
2924 Haze 15 1020 62 3000 1.5 30 01:44 09.02.2020
2925 Haze 15 1020 62 3000 1 20 01:19 09.02.2020
2926 Haze 14 1019 62 3000 1.5 30 00:32 09.02.2020
2927 Haze 14 1019 62 3000 1.5 30 23:55 08.02.2020
2928 Haze 14 1019 62 3000 2.1 30 23:37 08.02.2020
2929 Haze 14 1019 62 3000 2.1 30 23:18 08.02.2020
2930 Haze 15 1019 62 3000 2.6 20 22:40 08.02.2020
2931 Haze 15 1019 62 3000 2.6 20 22:21 08.02.2020
2932 Haze 15 1019 62 3000 1 40 21:49 08.02.2020
2933 Haze 15 1019 62 3000 4.2 31 21:30 08.02.2020
2934 Haze 15 1019 62 3000 1 30 20:59 08.02.2020
2935 Haze 16 1020 63 3000 1.5 40 20:40 08.02.2020
2936 Haze 16 1020 63 3000 1.5 40 20:20 08.02.2020
2937 Haze 16 1020 63 3000 1.5 40 20:20 08.02.2020
2938 Haze 17 1020 59 3000 1.5 60 19:59 08.02.2020
2939 Haze 17 1021 59 3000 2.1 60 19:39 08.02.2020
2940 Haze 17 1021 59 3000 2.1 60 19:20 08.02.2020
2941 Haze 17 1020 59 3000 2.6 40 18:57 08.02.2020
2942 Haze 17 1020 63 3000 2.6 50 18:38 08.02.2020
2943 Haze 17 1020 63 3000 2.6 50 18:19 08.02.2020
2944 Haze 18 1020 63 3000 2.1 50 17:41 08.02.2020
2945 Haze 18 1020 63 3000 2.1 50 17:19 08.02.2020
2946 Haze 19 1019 63 3000 1 40 16:42 08.02.2020
2947 Haze 19 1019 63 3000 1 40 16:23 08.02.2020
2948 Haze 19 1019 68 3000 1.5 60 15:59 08.02.2020
2949 Haze 20 1019 64 3000 2.9 86 15:39 08.02.2020
2950 Haze 20 1019 64 3000 2.9 86 15:18 08.02.2020
2951 Haze 21 1018 60 2500 2.1 50 14:45 08.02.2020
2952 Haze 21 1018 60 2500 2.1 50 14:24 08.02.2020
2953 Haze 21 1017 60 3000 2.6 50 13:59 08.02.2020
2954 Haze 22 1017 56 3000 2.6 60 13:40 08.02.2020
2955 Haze 22 1017 56 3000 2.6 60 13:22 08.02.2020
2956 Haze 23 1017 56 3000 3.1 70 12:41 08.02.2020
2957 Haze 23 1017 56 3000 3.1 70 12:23 08.02.2020
2958 Haze 23 1016 60 3000 3.6 70 11:56 08.02.2020
2959 Haze 23 1017 53 3000 3.1 60 11:38 08.02.2020
2960 Haze 23 1017 53 3000 3.1 60 11:20 08.02.2020
2961 Haze 23 1017 60 3000 3.6 60 10:42 08.02.2020
2962 Haze 23 1017 60 3000 3.6 60 10:22 08.02.2020
2963 Haze 23 1017 60 3000 3.6 60 10:22 08.02.2020
2964 Haze 23 1017 60 3000 3.6 60 10:22 08.02.2020
2965 Haze 23 1018 60 2500 2.6 80 09:53 08.02.2020
2966 Haze 22 1018 60 2500 2.1 80 09:28 08.02.2020
2967 Haze 23 1019 60 2500 3.1 50 08:55 08.02.2020
2968 Haze 22 1019 68 2500 1.5 50 08:37 08.02.2020
2969 Haze 22 1019 68 2500 1.5 50 08:19 08.02.2020
2970 Haze 21 1020 73 2500 2.6 100 07:45 08.02.2020
2971 Haze 21 1020 73 2500 2.6 100 07:45 08.02.2020
2972 Haze 20 1020 72 2500 2.6 60 07:20 08.02.2020
2973 Mist 20 1021 77 2000 2.1 50 06:29 08.02.2020
2974 Mist 18 1020 88 1800 1.5 50 05:48 08.02.2020
2975 Mist 18 1020 88 1800 1.5 50 05:30 08.02.2020
2976 Mist 18 1020 88 1800 1.5 50 05:30 08.02.2020
2977 Mist 17 1020 88 1800 2.1 40 04:49 08.02.2020
2978 Mist 17 1019 88 2000 1.5 30 03:52 08.02.2020
2979 Mist 17 1018 93 2000 2.1 40 02:51 08.02.2020
2980 Mist 17 1017 100 2000 2.6 30 01:53 08.02.2020
2981 Mist 17 1017 100 1800 1.5 30 01:24 08.02.2020
2982 Mist 17 1016 100 1800 1 30 00:39 08.02.2020
2983 Mist 17 1016 100 1800 1 30 00:21 08.02.2020
2984 Mist 17 1016 100 1800 1.5 30 23:45 07.02.2020
2985 Mist 17 1016 100 1800 1.5 40 23:21 07.02.2020
2986 Mist 17 1016 100 1800 2.6 60 22:58 07.02.2020
2987 Mist 17 1016 100 1800 2.6 50 22:39 07.02.2020
2988 Mist 17 1016 100 1800 2.6 50 22:19 07.02.2020
2989 Mist 17 1016 100 1800 2.1 50 21:43 07.02.2020
2990 Mist 17 1016 100 1800 1.5 50 21:22 07.02.2020
2991 Mist 17 1016 100 1800 1.5 60 20:55 07.02.2020
2992 Mist 17 1017 100 1800 1.5 50 20:37 07.02.2020
2993 Mist 17 1017 100 1800 1.5 50 20:18 07.02.2020
2994 Mist 17 1017 100 1800 2.1 60 19:40 07.02.2020
2995 Mist 17 1017 100 1800 2.1 60 19:21 07.02.2020
2996 Mist 17 1017 100 1800 2.1 60 18:56 07.02.2020
2997 Mist 18 1017 93 2000 2.1 60 18:38 07.02.2020
2998 Mist 18 1017 93 2000 2.1 60 18:19 07.02.2020
2999 Mist 18 1017 100 1500 1.5 50 17:43 07.02.2020
3000 Mist 18 1017 93 1500 1.5 70 17:22 07.02.2020
3001 Mist 18 1017 93 1500 1.5 70 16:55 07.02.2020
3002 Mist 18 1016 100 1500 2.1 50 16:37 07.02.2020
3003 Mist 18 1016 100 1500 2.1 50 16:19 07.02.2020
3004 Rain 18 1016 100 1500 1.5 70 15:44 07.02.2020
3005 Rain 19 1016 93 1500 1 160 15:21 07.02.2020
3006 Rain 19 1015 88 1500 1 30 14:43 07.02.2020
3007 Mist 19 1014 88 1500 2.6 50 14:24 07.02.2020
3008 Mist 19 1014 93 1500 1.5 50 13:58 07.02.2020
3009 Mist 20 1014 82 1500 2.6 50 13:39 07.02.2020
3010 Mist 20 1014 82 1500 2.6 50 13:39 07.02.2020
3011 Mist 20 1014 82 1500 2.6 50 13:21 07.02.2020
3012 Rain 20 1015 82 1500 1.5 10 12:55 07.02.2020
3013 Rain 20 1015 82 1500 1.5 10 12:55 07.02.2020
3014 Mist 20 1014 82 1500 1.5 30 12:36 07.02.2020
3015 Mist 20 1014 82 1500 1.5 30 12:18 07.02.2020
3016 Mist 21 1014 77 1500 2.1 60 11:41 07.02.2020
3017 Mist 21 1014 77 1500 2.1 60 11:20 07.02.2020
3018 Mist 20 1015 82 1500 1.5 40 10:41 07.02.2020
3019 Mist 20 1015 82 1500 1.5 40 10:22 07.02.2020
3020 Mist 20 1015 82 1500 2.6 40 09:56 07.02.2020
3021 Mist 20 1016 82 1500 1 20 09:37 07.02.2020
3022 Mist 20 1016 82 1500 1 20 09:19 07.02.2020
3023 Mist 20 1016 82 1500 1.5 80 08:42 07.02.2020
3024 Mist 20 1016 82 1500 1.5 80 08:20 07.02.2020
3025 Mist 20 1017 82 1500 2.1 80 07:44 07.02.2020
3026 Mist 20 1017 82 1500 2.1 80 07:26 07.02.2020
3027 Mist 19 1018 88 1500 3.1 50 06:45 07.02.2020
3028 Mist 19 1018 88 1500 3.1 60 06:25 07.02.2020
3029 Fog 18 1018 93 1000 2.1 60 05:44 07.02.2020
3030 Fog 17 1017 93 1000 1.5 50 04:33 07.02.2020
3031 Mist 16 1015 100 1500 3.1 70 02:32 07.02.2020
3032 Mist 16 1014 93 1500 2.1 70 01:37 07.02.2020
3033 Mist 16 1014 93 1500 2.6 50 00:45 07.02.2020
3034 Rain 16 1014 93 1500 2.1 40 00:18 07.02.2020
3035 Rain 16 1014 100 1500 1.5 30 23:37 06.02.2020
3036 Rain 16 1014 100 1500 1.5 30 23:18 06.02.2020
3037 Mist 16 1014 93 2000 2.1 60 22:43 06.02.2020
3038 Haze 16 1014 100 2000 2.1 60 22:24 06.02.2020
3039 Haze 17 1015 93 2000 3.1 60 21:37 06.02.2020
3040 Haze 17 1015 93 2000 3.1 60 21:19 06.02.2020
3041 Rain 17 1015 93 2000 3.1 60 20:57 06.02.2020
3042 Rain 17 1015 93 2000 3.1 60 20:57 06.02.2020
3043 Rain 17 1015 93 2000 1.5 30 20:38 06.02.2020
3044 Rain 17 1015 93 2000 1.5 30 20:19 06.02.2020
3045 Haze 18 1015 82 3000 2.1 70 19:58 06.02.2020
3046 Haze 18 1015 82 3000 3.6 60 19:40 06.02.2020
3047 Haze 18 1015 82 3000 3.6 60 19:21 06.02.2020
3048 Haze 18 1015 82 3000 3.6 50 18:58 06.02.2020
3049 Haze 18 1015 88 3000 3.6 50 18:39 06.02.2020
3050 Haze 18 1015 88 3000 3.6 50 18:20 06.02.2020
3051 Haze 18 1015 88 3000 2.6 60 17:42 06.02.2020
3052 Haze 18 1015 88 3000 2.6 60 17:21 06.02.2020
3053 Haze 19 1015 82 3000 2.6 60 16:57 06.02.2020
3054 Haze 19 1015 82 3000 3.6 70 16:39 06.02.2020
3055 Haze 19 1015 82 3000 3.6 70 16:20 06.02.2020
3056 Haze 19 1014 82 2500 2.6 60 15:42 06.02.2020
3057 Haze 19 1014 82 2500 2.6 60 15:21 06.02.2020
3058 Haze 19 1013 82 2500 4.1 60 14:47 06.02.2020
3059 Haze 20 1013 77 2000 3.6 60 14:26 06.02.2020
3060 Haze 20 1013 82 2500 3.6 60 13:54 06.02.2020
3061 Haze 21 1013 77 2500 3.1 50 13:36 06.02.2020
3062 Haze 21 1013 77 2500 3.1 50 13:18 06.02.2020
3063 Haze 22 1013 78 2500 3.1 80 12:43 06.02.2020
3064 Haze 22 1013 78 2500 3.1 80 12:18 06.02.2020
3065 Haze 22 1013 73 2500 3.1 80 11:56 06.02.2020
3066 Haze 22 1013 73 2500 3.1 80 11:56 06.02.2020
3067 Haze 23 1013 69 2500 2.1 110 11:37 06.02.2020
3068 Haze 23 1013 69 2500 2.1 110 11:18 06.02.2020
3069 Haze 23 1014 69 2500 3.1 90 10:41 06.02.2020
3070 Haze 23 1014 69 2500 3.1 90 10:22 06.02.2020
3071 Haze 23 1014 69 2500 2.6 70 09:59 06.02.2020
3072 Haze 22 1014 73 2500 2.6 50 09:41 06.02.2020
3073 Haze 22 1014 73 2500 2.6 50 09:20 06.02.2020
3074 Haze 22 1016 73 2000 3.6 50 08:45 06.02.2020
3075 Haze 22 1016 73 2000 3.6 50 08:24 06.02.2020
3076 Haze 21 1016 77 2000 2.6 60 07:56 06.02.2020
3077 Mist 21 1017 77 2000 2.1 50 07:32 06.02.2020
3078 Mist 19 1017 88 1500 1 40 06:53 06.02.2020
3079 Mist 18 1017 93 1500 1.5 40 06:19 06.02.2020
3080 Mist 16 1017 100 1200 1.5 40 05:33 06.02.2020
3081 Rain 17 1017 88 1800 1 210 03:49 06.02.2020
3082 Mist 17 1016 77 2000 1 90 03:18 06.02.2020
3083 Haze 18 1014 68 2500 1 50 01:56 06.02.2020
3084 Haze 18 1014 68 2500 1 40 01:24 06.02.2020
3085 Haze 18 1014 72 2500 1 30 00:29 06.02.2020
3086 Haze 18 1014 72 2500 1.98 59 23:57 05.02.2020
3087 Haze 18 1014 72 2500 1.5 10 23:39 05.02.2020
3088 Haze 18 1014 72 2500 1.5 10 23:39 05.02.2020
3089 Haze 18 1014 72 2500 1.5 10 23:20 05.02.2020
3090 Haze 19 1014 68 2500 1.4 145 22:41 05.02.2020
3091 Haze 19 1014 68 2500 1.4 145 22:23 05.02.2020
3092 Haze 19 1015 68 2500 1.4 145 21:57 05.02.2020
3093 Haze 19 1015 63 2500 1.4 145 21:39 05.02.2020
3094 Haze 19 1015 63 2500 1.4 145 21:39 05.02.2020
3095 Haze 19 1015 63 2500 1.4 145 21:20 05.02.2020
3096 Haze 18 1015 77 2500 1.4 145 20:39 05.02.2020
3097 Haze 18 1015 77 2500 1.4 145 20:39 05.02.2020
3098 Haze 18 1015 77 2500 1.76 101 20:21 05.02.2020
3099 Haze 19 1016 72 2500 1.76 101 19:59 05.02.2020
3100 Haze 19 1016 72 2500 1.5 90 19:40 05.02.2020
3101 Haze 19 1016 72 2500 1.5 90 19:19 05.02.2020
3102 Haze 19 1016 72 2500 1 80 18:57 05.02.2020
3103 Haze 19 1016 72 2500 1 80 18:57 05.02.2020
3104 Haze 19 1016 72 2500 1.5 90 18:39 05.02.2020
3105 Haze 19 1016 72 2500 1.5 90 18:19 05.02.2020
3106 Haze 19 1016 72 2500 1 100 17:39 05.02.2020
3107 Haze 19 1016 72 2500 1 100 17:20 05.02.2020
3108 Haze 20 1016 72 2500 1.5 90 16:57 05.02.2020
3109 Haze 20 1016 68 2500 1 90 16:39 05.02.2020
3110 Haze 20 1016 68 2500 1 90 16:20 05.02.2020
3111 Haze 20 1015 72 2500 1.5 100 15:46 05.02.2020
3112 Haze 20 1015 68 2500 1 90 15:20 05.02.2020
3113 Haze 21 1015 64 2500 1 100 14:59 05.02.2020
3114 Haze 22 1015 60 2500 0.8 194 14:40 05.02.2020
3115 Haze 22 1015 60 2500 0.94 97 14:21 05.02.2020
3116 Haze 23 1014 56 2500 1.5 90 13:43 05.02.2020
3117 Haze 24 1014 50 2500 1 90 13:23 05.02.2020
3118 Haze 24 1014 47 2500 2.1 110 12:58 05.02.2020
3119 Haze 25 1014 47 3000 2.1 110 12:36 05.02.2020
3120 Haze 25 1014 47 3000 2.1 110 12:18 05.02.2020
3121 Haze 25 1014 47 3000 3.1 110 11:41 05.02.2020
3122 Haze 25 1014 47 3000 3.1 110 11:22 05.02.2020
3123 Haze 25 1014 44 3000 2.6 90 10:57 05.02.2020
3124 Haze 25 1014 44 3000 2.1 110 10:39 05.02.2020
3125 Haze 25 1014 44 3000 2.1 110 10:18 05.02.2020
3126 Haze 24 1016 50 2500 1.5 80 09:39 05.02.2020
3127 Haze 24 1016 50 2500 1.5 80 09:21 05.02.2020
3128 Haze 24 1016 50 2500 1.5 80 08:48 05.02.2020
3129 Haze 23 1017 60 2000 2.6 100 08:25 05.02.2020
3130 Haze 22 1017 73 2000 2.6 70 07:58 05.02.2020
3131 Mist 22 1018 73 1500 1.5 90 07:39 05.02.2020
3132 Mist 22 1018 73 1500 1.5 90 07:18 05.02.2020
3133 Fog 21 1019 77 1200 2.1 50 06:39 05.02.2020
3134 Fog 21 1019 77 1200 2.1 50 06:20 05.02.2020
3135 Fog 19 1018 88 1000 1.5 40 05:20 05.02.2020
3136 Fog 19 1018 88 1000 1.5 40 04:54 05.02.2020
3137 Fog 18 1017 93 800 2.1 50 03:58 05.02.2020
3138 Fog 18 1016 93 1500 2.6 60 02:39 05.02.2020
3139 Fog 18 1016 93 1500 2.6 60 02:19 05.02.2020
3140 Mist 18 1015 93 1500 1.5 40 00:54 05.02.2020
3141 Mist 18 1014 93 1700 2.1 50 23:59 04.02.2020
3142 Mist 18 1015 93 1700 3.1 60 23:39 04.02.2020
3143 Mist 18 1015 93 1700 3.1 60 23:19 04.02.2020
3144 Mist 18 1015 93 1700 1.5 50 22:56 04.02.2020
3145 Mist 18 1015 93 1700 1.5 50 22:38 04.02.2020
3146 Mist 18 1015 93 1700 1.5 50 22:20 04.02.2020
3147 Mist 19 1015 88 1800 3.6 60 21:54 04.02.2020
3148 Mist 19 1015 88 1800 3.6 60 21:54 04.02.2020
3149 Mist 19 1015 88 1800 1.5 60 21:36 04.02.2020
3150 Mist 19 1015 88 1800 1.5 60 21:18 04.02.2020
3151 Mist 19 1015 88 1800 2.1 60 20:42 04.02.2020
3152 Mist 19 1015 88 1800 2.1 60 20:21 04.02.2020
3153 Mist 19 1015 88 1800 2.1 60 19:58 04.02.2020
3154 Mist 20 1016 82 1800 1.5 50 19:40 04.02.2020
3155 Mist 20 1016 82 1800 1.5 50 19:22 04.02.2020
3156 Mist 19 1016 88 1800 2.6 50 18:56 04.02.2020
3157 Mist 19 1016 88 1800 2.1 60 18:37 04.02.2020
3158 Mist 19 1016 88 1800 2.1 60 18:18 04.02.2020
3159 Mist 19 1016 88 1800 2.1 60 18:18 04.02.2020
3160 Mist 20 1015 82 1800 2.6 60 17:42 04.02.2020
3161 Mist 20 1015 82 1800 2.6 60 17:21 04.02.2020
3162 Mist 20 1015 82 1800 2.6 60 17:21 04.02.2020
3163 Mist 20 1015 82 1800 1 70 16:55 04.02.2020
3164 Mist 21 1015 77 1800 2.1 50 16:36 04.02.2020
3165 Mist 21 1014 83 1800 3.1 60 16:18 04.02.2020
3166 Mist 21 1014 83 1800 3.1 60 15:55 04.02.2020
3167 Mist 22 1014 78 1800 3.1 60 15:37 04.02.2020
3168 Mist 22 1014 78 1800 3.1 60 15:18 04.02.2020
3169 Mist 22 1013 78 1500 1.5 60 14:42 04.02.2020
3170 Mist 22 1013 78 1500 1.5 60 14:23 04.02.2020
3171 Mist 23 1013 78 1500 3.6 60 13:57 04.02.2020
3172 Mist 23 1012 78 1500 2.6 50 13:39 04.02.2020
3173 Mist 23 1012 78 1500 2.6 50 13:19 04.02.2020
3174 Mist 24 1012 73 1200 2.6 70 12:43 04.02.2020
3175 Mist 24 1012 73 1200 2.6 70 12:43 04.02.2020
3176 Mist 24 1012 73 1200 2.6 70 12:25 04.02.2020
3177 Mist 24 1012 73 1500 2.6 30 11:58 04.02.2020
3178 Haze 25 1012 69 2500 3.1 60 11:39 04.02.2020
3179 Haze 25 1012 69 2500 3.1 60 11:19 04.02.2020
3180 Haze 27 1012 61 2500 1 40 10:50 04.02.2020
3181 Haze 27 1013 57 2500 1.5 180 10:28 04.02.2020
3182 Haze 27 1013 57 2500 2.1 150 09:58 04.02.2020
3183 Haze 26 1014 61 2500 4.1 220 09:40 04.02.2020
3184 Haze 26 1014 61 2500 4.1 220 09:21 04.02.2020
3185 Haze 26 1014 61 2500 4.1 220 08:49 04.02.2020
3186 Haze 25 1015 65 2500 1 240 08:28 04.02.2020
3187 Haze 25 1016 65 2500 2.6 190 07:57 04.02.2020
3188 Haze 24 1016 69 2500 2.1 170 07:37 04.02.2020
3189 Haze 24 1016 69 2500 2.1 170 07:18 04.02.2020
3190 Haze 22 1017 73 2000 1 150 06:42 04.02.2020
3191 Mist 20 1017 72 1800 1 90 05:37 04.02.2020
3192 Mist 19 1016 72 1800 3.5 84 04:41 04.02.2020
3193 Mist 17 1016 82 2000 3.5 84 03:49 04.02.2020
3194 Mist 17 1016 82 2000 3.5 84 03:30 04.02.2020
3195 Mist 17 1015 82 2000 3.5 84 02:48 04.02.2020
3196 Mist 17 1015 77 2500 1 50 02:27 04.02.2020
3197 Mist 17 1014 82 2500 1.5 60 01:46 04.02.2020
3198 Mist 17 1014 82 2500 2.1 60 01:19 04.02.2020
3199 Mist 17 1014 82 2500 1.5 90 00:23 04.02.2020
3200 Mist 17 1014 82 2500 1 80 23:55 03.02.2020
3201 Mist 18 1014 77 2500 1 70 23:37 03.02.2020
3202 Mist 18 1014 77 2500 1 70 23:18 03.02.2020
3203 Mist 18 1014 77 2500 2.06 70 22:38 03.02.2020
3204 Mist 18 1014 77 2500 2.06 70 22:19 03.02.2020
3205 Mist 17 1015 82 2500 1 80 21:42 03.02.2020
3206 Mist 17 1015 82 2500 1 80 21:20 03.02.2020
3207 Mist 17 1015 82 2500 1.5 50 20:56 03.02.2020
3208 Mist 18 1016 77 2500 1 60 20:38 03.02.2020
3209 Mist 18 1016 77 2500 1 60 20:38 03.02.2020
3210 Mist 18 1016 77 2500 1 60 20:18 03.02.2020
3211 Mist 18 1016 77 2500 1.5 60 19:42 03.02.2020
3212 Mist 18 1016 82 2500 2.6 50 19:23 03.02.2020
3213 Mist 18 1016 77 2500 1 50 18:58 03.02.2020
3214 Haze 19 1016 72 2500 2.1 70 18:39 03.02.2020
3215 Haze 19 1016 72 2500 2.1 70 18:21 03.02.2020
3216 Haze 19 1017 72 2500 2.6 60 17:57 03.02.2020
3217 Haze 19 1017 72 2500 2.6 60 17:57 03.02.2020
3218 Haze 19 1017 77 2500 2.1 60 17:38 03.02.2020
3219 Haze 19 1017 77 2500 2.1 60 17:19 03.02.2020
3220 Haze 19 1017 82 2500 3.1 50 16:40 03.02.2020
3221 Haze 19 1017 82 2500 3.1 50 16:21 03.02.2020
3222 Haze 19 1016 77 2500 2.6 60 15:56 03.02.2020
3223 Haze 18 1016 82 2500 1.5 60 15:38 03.02.2020
3224 Haze 18 1016 82 2500 1.5 60 15:19 03.02.2020
3225 Haze 18 1016 82 2500 1 70 14:56 03.02.2020
3226 Haze 19 1016 77 2500 1.5 70 14:37 03.02.2020
3227 Haze 19 1016 77 2500 1.5 70 14:19 03.02.2020
3228 Haze 20 1016 72 2500 2.1 80 13:42 03.02.2020
3229 Haze 20 1016 72 2500 2.1 80 13:21 03.02.2020
3230 Haze 21 1015 68 2500 1.5 90 12:57 03.02.2020
3231 Haze 21 1016 64 2500 2.1 40 12:38 03.02.2020
3232 Haze 21 1016 64 2500 2.1 40 12:20 03.02.2020
3233 Haze 21 1016 60 2700 1 60 11:40 03.02.2020
3234 Haze 21 1016 60 2700 1 60 11:20 03.02.2020
3235 Haze 21 1016 60 2700 1 60 11:20 03.02.2020
3236 Haze 22 1016 56 3000 2.1 70 10:58 03.02.2020
3237 Haze 21 1017 60 3000 2.1 90 10:39 03.02.2020
3238 Haze 21 1017 60 3000 2.1 90 10:20 03.02.2020
3239 Haze 22 1018 53 3000 4.1 100 09:41 03.02.2020
3240 Haze 22 1018 53 3000 4.1 100 09:20 03.02.2020
3241 Haze 20 1019 56 3000 2.1 70 08:41 03.02.2020
3242 Haze 20 1019 56 3000 2.1 70 08:23 03.02.2020
3243 Haze 20 1019 56 3000 4.1 60 07:58 03.02.2020
3244 Haze 18 1020 63 3000 3.1 70 07:39 03.02.2020
3245 Haze 18 1020 63 3000 3.1 70 07:20 03.02.2020
3246 Haze 18 1020 63 3000 3.1 70 07:20 03.02.2020
3247 Haze 18 1020 63 3000 3.1 70 07:20 03.02.2020
3248 Haze 18 1020 63 3000 3.1 70 07:20 03.02.2020
3249 Haze 17 1021 72 2500 1.5 40 06:43 03.02.2020
3250 Rain 16 1021 77 2000 2.1 60 06:24 03.02.2020
3251 Haze 18 1020 55 3000 2.1 60 05:36 03.02.2020
3252 Haze 18 1020 59 2500 1.5 50 04:50 03.02.2020
3253 Haze 17 1019 51 3000 1 360 02:58 03.02.2020
3254 Haze 16 1018 59 3000 1 30 02:33 03.02.2020
3255 Haze 17 1017 55 3000 1 20 01:25 03.02.2020
3256 Haze 17 1017 55 3500 1 10 00:45 03.02.2020
3257 Haze 17 1017 55 4000 1 10 00:21 03.02.2020
3258 Haze 17 1017 51 4000 1.5 40 23:37 02.02.2020
3259 Haze 17 1017 51 4000 1.5 40 23:19 02.02.2020
3260 Haze 17 1017 55 4000 1.5 40 22:55 02.02.2020
3261 Haze 17 1018 63 4000 1 40 22:36 02.02.2020
3262 Haze 17 1018 63 4000 1 40 22:36 02.02.2020
3263 Haze 17 1018 63 4000 1 40 22:36 02.02.2020
3264 Haze 17 1018 63 4000 1 40 22:18 02.02.2020
3265 Haze 18 1018 55 4000 1.5 50 21:41 02.02.2020
3266 Haze 18 1018 55 4000 1.5 50 21:22 02.02.2020
3267 Haze 18 1018 55 4000 1 80 20:58 02.02.2020
3268 Haze 18 1018 55 4000 2.1 60 20:39 02.02.2020
3269 Haze 18 1018 55 4000 2.1 60 20:20 02.02.2020
3270 Haze 17 1018 59 4000 1 60 19:59 02.02.2020
3271 Haze 18 1019 55 4000 1 80 19:41 02.02.2020
3272 Haze 18 1019 55 4000 1 80 19:22 02.02.2020
3273 Haze 18 1019 59 4000 1 80 18:57 02.02.2020
3274 Haze 18 1019 63 4000 1 80 18:37 02.02.2020
3275 Haze 18 1019 63 4000 1 80 18:19 02.02.2020
3276 Haze 19 1019 55 4000 1 80 17:57 02.02.2020
3277 Haze 20 1019 49 4000 1 60 17:37 02.02.2020
3278 Haze 20 1019 49 4000 1 60 17:18 02.02.2020
3279 Haze 21 1019 49 4000 2.1 60 16:57 02.02.2020
3280 Haze 21 1019 49 4000 1 70 16:38 02.02.2020
3281 Haze 21 1019 49 4000 1 70 16:18 02.02.2020
3282 Haze 21 1019 49 4000 1.5 70 15:56 02.02.2020
3283 Haze 21 1018 49 4000 1.5 70 15:37 02.02.2020
3284 Haze 21 1018 49 4000 1.5 70 15:19 02.02.2020
3285 Haze 21 1018 49 4000 1 70 14:44 02.02.2020
3286 Haze 22 1018 46 4000 2.6 70 14:19 02.02.2020
3287 Haze 22 1017 46 4000 2.6 70 13:59 02.02.2020
3288 Haze 23 1017 43 4000 1.5 90 13:41 02.02.2020
3289 Haze 23 1017 43 4000 1.5 90 13:21 02.02.2020
3290 Haze 23 1017 43 4000 1.5 90 13:21 02.02.2020
3291 Haze 23 1017 43 4000 2.1 80 12:56 02.02.2020
3292 Haze 24 1017 41 5000 2.6 90 12:38 02.02.2020
3293 Haze 24 1017 41 5000 2.6 90 12:19 02.02.2020
3294 Haze 25 1017 38 5000 3.1 90 11:42 02.02.2020
3295 Haze 25 1017 38 5000 3.1 90 11:19 02.02.2020
3296 Haze 24 1017 44 5000 1.5 70 10:57 02.02.2020
3297 Haze 25 1017 41 5000 2.1 60 10:39 02.02.2020
3298 Haze 25 1017 41 5000 2.1 60 10:21 02.02.2020
3299 Haze 24 1018 44 5000 2.6 50 09:57 02.02.2020
3300 Haze 24 1018 44 5000 2.6 50 09:39 02.02.2020
3301 Haze 24 1018 44 5000 2.6 50 09:20 02.02.2020
3302 Haze 24 1019 41 5000 3.1 70 08:44 02.02.2020
3303 Haze 23 1019 40 5000 3.1 60 08:25 02.02.2020
3304 Haze 22 1020 43 5000 1.5 80 07:47 02.02.2020
3305 Haze 21 1020 46 5000 2.6 90 07:28 02.02.2020
3306 Haze 20 1021 42 4000 3.1 60 06:45 02.02.2020
3307 Haze 20 1021 42 4000 3.1 60 06:27 02.02.2020
3308 Haze 18 1021 48 4000 1.5 50 05:48 02.02.2020
3309 Haze 17 1021 51 4000 1.5 40 04:52 02.02.2020
3310 Haze 15 1019 54 3000 2.6 40 03:30 02.02.2020
3311 Haze 15 1018 58 4000 1.5 20 02:35 02.02.2020
3312 Haze 15 1018 58 4000 2.6 20 01:55 02.02.2020
3313 Haze 15 1017 58 4000 2.1 20 01:23 02.02.2020
3314 Haze 15 1017 58 4000 2.1 20 00:44 02.02.2020
3315 Haze 15 1017 62 4000 2.1 20 00:22 02.02.2020
3316 Haze 16 1017 59 4000 2.1 20 23:47 01.02.2020
3317 Haze 16 1017 59 4000 2.1 20 23:23 01.02.2020
3318 Haze 16 1017 59 4000 2.1 20 22:54 01.02.2020
3319 Haze 16 1017 55 4000 2.1 20 22:36 01.02.2020
3320 Haze 16 1017 55 4000 2.1 20 22:18 01.02.2020
3321 Haze 17 1018 51 4000 1.5 30 21:39 01.02.2020
3322 Haze 17 1018 51 4000 1.5 30 21:18 01.02.2020
3323 Haze 17 1018 55 4000 1 40 20:41 01.02.2020
3324 Haze 17 1018 55 4000 1 40 20:20 01.02.2020
3325 Haze 17 1018 55 4000 2.1 50 19:57 01.02.2020
3326 Haze 18 1018 52 4000 1 30 19:39 01.02.2020
3327 Haze 18 1018 52 4000 1 30 19:20 01.02.2020
3328 Haze 18 1018 55 4000 1 30 18:58 01.02.2020
3329 Haze 18 1018 55 4000 1.5 30 18:40 01.02.2020
3330 Haze 18 1018 55 4000 1.5 30 18:21 01.02.2020
3331 Haze 19 1018 52 4000 2.1 60 17:57 01.02.2020
3332 Haze 19 1018 55 4000 2.6 60 17:39 01.02.2020
3333 Haze 19 1018 55 4000 2.6 60 17:19 01.02.2020
3334 Haze 19 1018 59 4000 1.5 50 16:43 01.02.2020
3335 Haze 19 1018 59 4000 2.1 50 16:24 01.02.2020
3336 Haze 20 1018 52 4000 2.1 60 15:58 01.02.2020
3337 Haze 20 1018 52 4000 1.5 70 15:38 01.02.2020
3338 Haze 20 1018 52 4000 1.5 70 15:19 01.02.2020
3339 Haze 21 1017 52 4000 1.5 80 14:41 01.02.2020
3340 Haze 21 1017 52 4000 1.5 80 14:21 01.02.2020
3341 Haze 22 1016 43 4000 1 90 13:45 01.02.2020
3342 Haze 22 1016 43 4000 1 90 13:24 01.02.2020
3343 Haze 22 1016 43 4000 2.1 80 12:59 01.02.2020
3344 Haze 22 1015 40 4000 4.1 80 12:41 01.02.2020
3345 Haze 22 1015 40 4000 4.1 80 12:22 01.02.2020
3346 Haze 23 1015 40 4000 2.6 60 11:44 01.02.2020
3347 Haze 23 1015 40 4000 2.6 60 11:24 01.02.2020
3348 Haze 23 1015 40 4000 3.1 60 10:59 01.02.2020
3349 Haze 22 1016 43 4000 3.6 50 10:40 01.02.2020
3350 Haze 22 1016 43 4000 3.6 50 10:22 01.02.2020
3351 Haze 22 1016 43 4000 3.1 60 09:59 01.02.2020
3352 Haze 21 1017 46 3500 1.5 40 09:40 01.02.2020
3353 Haze 21 1017 46 3500 1.5 40 09:21 01.02.2020
3354 Haze 22 1017 43 3500 3.6 70 08:49 01.02.2020
3355 Haze 22 1018 40 4000 1.5 50 07:51 01.02.2020
3356 Haze 21 1018 43 4000 3.6 90 07:28 01.02.2020
3357 Haze 21 1018 43 4000 3.6 90 07:28 01.02.2020
3358 Haze 21 1018 43 4000 3.6 90 07:28 01.02.2020
3359 Haze 21 1018 43 3500 2.6 60 06:59 01.02.2020
3360 Haze 21 1019 43 3000 2.6 60 06:40 01.02.2020
3361 Haze 20 1019 45 3000 2.6 60 05:53 01.02.2020
3362 Haze 17 1017 59 2500 5.04 59 04:21 01.02.2020
3363 Haze 15 1016 67 3000 1 10 03:23 01.02.2020
3364 Haze 15 1016 67 3000 1 10 02:48 01.02.2020
3365 Haze 15 1015 67 3000 2.1 10 02:30 01.02.2020
3366 Haze 15 1014 67 3000 1.5 20 01:55 01.02.2020
3367 Haze 15 1014 67 3000 1.5 20 01:37 01.02.2020
3368 Haze 15 1014 62 3000 1 20 00:31 01.02.2020
3369 Haze 15 1014 67 3000 1 30 23:59 31.01.2020
3370 Haze 15 1014 72 3000 1 20 23:38 31.01.2020
3371 Haze 15 1014 72 3000 1 20 23:18 31.01.2020
3372 Haze 15 1014 72 3000 1.5 10 22:41 31.01.2020
3373 Haze 15 1014 72 3000 1.5 10 22:23 31.01.2020
3374 Haze 16 1014 67 3000 3.65 35 21:59 31.01.2020
3375 Haze 17 1014 59 3000 3.65 35 21:39 31.01.2020
3376 Haze 17 1014 59 3000 3.65 35 21:20 31.01.2020
3377 Haze 17 1014 59 3000 3.65 35 21:20 31.01.2020
3378 Haze 17 1014 59 3000 3.65 35 21:20 31.01.2020
3379 Haze 17 1014 59 3000 3.65 35 21:20 31.01.2020
3380 Haze 16 1014 67 3000 1.5 40 20:57 31.01.2020
3381 Haze 16 1014 67 3000 1.5 40 20:57 31.01.2020
3382 Haze 17 1014 63 3000 1.5 10 20:39 31.01.2020
3383 Haze 15 1014 77 4000 2.65 68 20:20 31.01.2020
3384 Haze 15 1014 77 4000 2.65 68 19:56 31.01.2020
3385 Haze 14 1014 76 4000 2.65 68 19:38 31.01.2020
3386 Haze 14 1014 76 4000 2.65 68 19:19 31.01.2020
3387 Haze 16 1015 67 4000 1 20 18:45 31.01.2020
3388 Haze 17 1015 63 4000 1 60 18:27 31.01.2020
3389 Haze 17 1015 63 4000 1 60 17:56 31.01.2020
3390 Haze 17 1015 63 4000 2.65 68 17:38 31.01.2020
3391 Haze 17 1015 63 4000 1.41 80 17:19 31.01.2020
3392 Haze 17 1015 63 4000 1 90 16:56 31.01.2020
3393 Haze 18 1015 59 4000 2.1 90 16:37 31.01.2020
3394 Haze 18 1015 59 4000 2.1 90 16:18 31.01.2020
3395 Haze 19 1014 55 4000 1 120 15:41 31.01.2020
3396 Haze 19 1014 55 4000 1 120 15:22 31.01.2020
3397 Haze 19 1014 55 5000 1.5 110 14:59 31.01.2020
3398 Haze 20 1014 52 5000 1 100 14:40 31.01.2020
3399 Haze 20 1014 52 5000 1 100 14:20 31.01.2020
3400 Haze 21 1013 49 5000 1.5 90 13:45 31.01.2020
3401 Haze 22 1013 46 5000 2.1 110 13:27 31.01.2020
3402 Haze 23 1013 40 5000 2.1 90 12:54 31.01.2020
3403 Haze 24 1013 38 5000 1.5 80 12:36 31.01.2020
3404 Haze 24 1013 38 5000 1.5 80 12:18 31.01.2020
3405 Haze 24 1013 38 5000 1.5 160 11:41 31.01.2020
3406 Haze 24 1013 38 5000 1.5 160 11:23 31.01.2020
3407 Haze 24 1014 36 5000 1.5 70 10:58 31.01.2020
3408 Haze 24 1014 36 5000 1.5 70 10:37 31.01.2020
3409 Haze 24 1014 36 5000 1.5 70 10:19 31.01.2020
3410 Haze 23 1015 35 5000 1.5 70 09:43 31.01.2020
3411 Haze 23 1015 35 5000 1.5 70 09:22 31.01.2020
3412 Haze 22 1016 37 5000 1.5 30 08:59 31.01.2020
3413 Haze 22 1016 40 5000 1.5 80 08:41 31.01.2020
3414 Haze 22 1016 40 5000 1.5 80 08:41 31.01.2020
3415 Haze 22 1016 40 5000 1.5 80 08:22 31.01.2020
3416 Haze 21 1017 43 5000 2.1 50 07:51 31.01.2020
3417 Haze 21 1018 40 5000 1.5 80 07:19 31.01.2020
3418 Haze 19 1019 45 4000 1.5 40 06:38 31.01.2020
3419 Haze 18 1019 42 4000 3.6 70 05:57 31.01.2020
3420 Haze 18 1018 42 4000 3.1 60 05:30 31.01.2020
3421 Haze 16 1018 51 4000 2.1 50 04:41 31.01.2020
3422 Haze 14 1016 58 4000 2.6 20 02:50 31.01.2020
3423 Haze 14 1015 58 4000 2.1 30 01:32 31.01.2020
3424 Haze 15 1015 54 4000 1.5 30 00:41 31.01.2020
3425 Haze 15 1015 54 4000 1.5 30 00:23 31.01.2020
3426 Haze 15 1015 58 4000 1.5 30 23:42 30.01.2020
3427 Haze 15 1015 58 4000 1.5 30 23:23 30.01.2020
3428 Haze 16 1015 55 4000 1.5 30 22:39 30.01.2020
3429 Haze 16 1015 55 4000 1.5 30 22:21 30.01.2020
3430 Haze 16 1015 55 4000 1.5 30 22:21 30.01.2020
3431 Haze 16 1015 55 4000 2.1 30 21:59 30.01.2020
3432 Haze 16 1015 55 4000 2.1 30 21:40 30.01.2020
3433 Haze 16 1015 55 4000 2.1 30 21:19 30.01.2020
3434 Haze 16 1016 59 4000 1.5 20 20:57 30.01.2020
3435 Haze 17 1016 55 4000 3.88 27 20:38 30.01.2020
3436 Haze 17 1016 55 4000 4.48 21 20:20 30.01.2020
3437 Haze 18 1017 52 4000 1.5 50 19:44 30.01.2020
3438 Haze 18 1017 52 4000 1.5 50 19:19 30.01.2020
3439 Haze 18 1017 48 4000 2.1 40 18:59 30.01.2020
3440 Haze 19 1017 45 4000 1.5 40 18:37 30.01.2020
3441 Haze 19 1017 45 4000 1.5 40 18:18 30.01.2020
3442 Haze 19 1017 48 4000 3.1 30 17:42 30.01.2020
3443 Haze 20 1016 45 4000 3.6 40 17:20 30.01.2020
3444 Haze 20 1016 49 4000 2.6 50 16:59 30.01.2020
3445 Haze 21 1016 46 4000 3.1 60 16:40 30.01.2020
3446 Haze 21 1016 46 4000 3.1 60 16:21 30.01.2020
3447 Haze 20 1016 52 4000 3.09 330 15:45 30.01.2020
3448 Haze 21 1015 46 4000 1.5 40 15:21 30.01.2020
3449 Haze 21 1015 49 4000 3.09 330 14:58 30.01.2020
3450 Haze 23 1014 40 4000 2.1 330 14:40 30.01.2020
3451 Haze 23 1014 40 4000 2.1 330 14:21 30.01.2020
3452 Haze 25 1014 31 5000 1.5 330 13:42 30.01.2020
3453 Haze 25 1014 31 5000 1.5 330 13:24 30.01.2020
3454 Haze 26 1014 31 5000 1 310 12:56 30.01.2020
3455 Haze 26 1014 31 5000 4.6 270 12:38 30.01.2020
3456 Haze 26 1014 31 5000 4.6 270 12:19 30.01.2020
3457 Haze 26 1014 34 5000 2.6 280 11:41 30.01.2020
3458 Haze 26 1014 34 5000 2.6 280 11:22 30.01.2020
3459 Haze 25 1014 38 5000 3.27 315 10:59 30.01.2020
3460 Haze 26 1015 36 5000 1 60 10:40 30.01.2020
3461 Haze 26 1015 36 5000 1 60 10:20 30.01.2020
3462 Haze 25 1016 36 5000 1 20 09:45 30.01.2020
3463 Haze 25 1016 36 5000 2.6 20 09:25 30.01.2020
3464 Haze 24 1017 41 5000 1 40 08:43 30.01.2020
3465 Haze 24 1018 38 5000 1.5 10 08:22 30.01.2020
3466 Haze 23 1018 40 5000 4.1 10 07:58 30.01.2020
3467 Haze 23 1019 43 5000 2.1 360 07:39 30.01.2020
3468 Haze 23 1019 43 5000 2.1 360 07:18 30.01.2020
3469 Haze 22 1019 46 5000 2.6 20 06:44 30.01.2020
3470 Haze 21 1019 49 4000 3.1 60 06:25 30.01.2020
3471 Haze 20 1019 49 3500 2.1 30 05:30 30.01.2020
3472 Haze 18 1019 55 3000 2.6 10 04:57 30.01.2020
3473 Haze 17 1018 63 3000 2.1 20 03:48 30.01.2020
3474 Haze 15 1017 67 3000 1 20 02:59 30.01.2020
3475 Haze 15 1016 72 3000 3.65 6 01:30 30.01.2020
3476 Haze 16 1015 72 3000 1.5 20 00:30 30.01.2020
3477 Haze 15 1015 77 3000 3.03 11 23:58 29.01.2020
3478 Haze 15 1015 77 3000 3.03 11 23:39 29.01.2020
3479 Haze 15 1015 77 3000 2.68 18 23:20 29.01.2020
3480 Haze 17 1016 67 3000 2.68 18 22:55 29.01.2020
3481 Haze 17 1015 63 3000 1.5 20 22:37 29.01.2020
3482 Haze 17 1015 63 3000 1.5 20 22:18 29.01.2020
3483 Haze 18 1016 63 3000 1.5 10 21:54 29.01.2020
3484 Haze 18 1016 63 3000 2.1 10 21:36 29.01.2020
3485 Haze 18 1016 63 3000 2.1 10 21:18 29.01.2020
3486 Haze 19 1017 59 3000 2.1 350 20:41 29.01.2020
3487 Haze 19 1017 59 3000 2.1 350 20:22 29.01.2020
3488 Haze 19 1017 63 3000 1.5 350 19:58 29.01.2020
3489 Haze 19 1017 68 3000 1 10 19:38 29.01.2020
3490 Haze 19 1017 68 3000 1 10 19:20 29.01.2020
3491 Haze 20 1017 60 3000 2.1 20 18:58 29.01.2020
3492 Haze 21 1017 56 3000 1 20 18:38 29.01.2020
3493 Haze 21 1017 56 3000 1 20 18:18 29.01.2020
3494 Haze 22 1017 53 3000 2.6 30 17:41 29.01.2020
3495 Haze 22 1017 53 3000 2.6 30 17:22 29.01.2020
3496 Haze 22 1016 60 3000 2.6 20 16:54 29.01.2020
3497 Haze 23 1016 56 3000 3.1 10 16:36 29.01.2020
3498 Haze 23 1016 56 3000 3.1 10 16:18 29.01.2020
3499 Haze 23 1015 60 3000 1.5 360 15:39 29.01.2020
3500 Haze 23 1015 60 3000 1.5 360 15:21 29.01.2020
3501 Haze 23 1015 60 3000 1.5 360 15:21 29.01.2020
3502 Haze 24 1015 53 3000 2.1 360 14:46 29.01.2020
3503 Haze 24 1014 53 4000 1 360 14:23 29.01.2020
3504 Haze 25 1014 50 4000 1 350 13:57 29.01.2020
3505 Haze 25 1014 50 4000 1 350 13:57 29.01.2020
3506 Haze 26 1014 47 5000 2.1 340 13:39 29.01.2020
3507 Haze 26 1014 47 5000 2.1 340 13:21 29.01.2020
3508 Haze 26 1014 44 5000 1 10 12:56 29.01.2020
3509 Haze 26 1014 44 5000 3.1 20 12:37 29.01.2020
3510 Haze 26 1014 44 5000 3.1 20 12:19 29.01.2020
3511 Haze 27 1013 42 5000 1 20 11:47 29.01.2020
3512 Haze 27 1013 42 5000 2.1 20 11:24 29.01.2020
3513 Haze 27 1014 42 5000 2.1 20 10:54 29.01.2020
3514 Clear 28 1012 33 0 2.44 284 10:36 29.01.2020
3515 Haze 26 1015 44 5000 1 340 10:18 29.01.2020
3516 Haze 26 1015 44 5000 1 340 09:40 29.01.2020
3517 Haze 26 1015 44 5000 1 340 09:21 29.01.2020
3518 Haze 26 1016 44 5000 1.5 80 08:56 29.01.2020
3519 Haze 26 1016 44 5000 1.5 20 08:38 29.01.2020
3520 Haze 26 1016 44 5000 1.5 20 08:20 29.01.2020
3521 Haze 26 1017 41 4000 3.1 10 07:44 29.01.2020
3522 Haze 25 1017 44 4000 2.1 340 07:24 29.01.2020
3523 Haze 24 1018 47 3000 1.5 20 06:39 29.01.2020
3524 Haze 24 1018 47 3000 1.5 20 06:21 29.01.2020
3525 Haze 23 1018 49 3000 1 10 05:59 29.01.2020
3526 Haze 22 1018 56 3000 1 340 05:39 29.01.2020
3527 Haze 22 1018 56 3000 1 340 05:21 29.01.2020
3528 Haze 20 1017 64 3000 1.5 320 04:37 29.01.2020
3529 Haze 17 1016 77 4000 1.5 300 02:43 29.01.2020
3530 Haze 17 1015 77 4000 2.21 7 01:49 29.01.2020
3531 Haze 17 1014 77 4000 2.31 359 00:41 29.01.2020
3532 Haze 17 1014 77 4000 2.31 359 00:23 29.01.2020
3533 Haze 17 1014 72 4000 2.31 359 23:44 28.01.2020
3534 Haze 18 1013 68 4000 1.9 31 23:21 28.01.2020
3535 Haze 17 1014 72 4000 1.9 31 22:57 28.01.2020
3536 Haze 18 1014 68 4000 1.9 31 22:39 28.01.2020
3537 Haze 18 1014 68 4000 1.9 31 22:20 28.01.2020
3538 Haze 18 1014 63 4000 1.9 31 21:42 28.01.2020
3539 Haze 18 1014 68 4000 1.9 31 21:20 28.01.2020
3540 Haze 18 1014 63 4000 1.9 31 20:57 28.01.2020
3541 Haze 19 1014 59 4000 1.5 330 20:39 28.01.2020
3542 Haze 19 1014 59 4000 1.5 330 20:21 28.01.2020
3543 Haze 21 1014 52 4000 2.6 330 19:39 28.01.2020
3544 Haze 21 1014 52 4000 2.6 330 19:20 28.01.2020
3545 Haze 21 1015 49 4000 1.5 330 18:58 28.01.2020
3546 Haze 21 1014 49 4000 2.1 310 18:39 28.01.2020
3547 Haze 21 1014 49 4000 2.1 310 18:21 28.01.2020
3548 Haze 21 1014 49 4000 2.6 310 17:56 28.01.2020
3549 Haze 22 1014 46 4000 1 290 17:37 28.01.2020
3550 Haze 22 1014 46 4000 1 290 17:19 28.01.2020
3551 Haze 22 1014 46 4000 2.6 280 16:46 28.01.2020
3552 Haze 23 1013 40 4000 2.6 270 16:27 28.01.2020
3553 Haze 24 1013 38 4000 3.1 270 15:59 28.01.2020
3554 Haze 22 1013 43 4000 1 230 15:40 28.01.2020
3555 Haze 22 1013 43 4000 1 230 15:18 28.01.2020
3556 Haze 24 1012 41 4000 1 250 14:45 28.01.2020
3557 Haze 25 1012 36 4000 2.6 250 14:20 28.01.2020
3558 Haze 27 1011 36 4000 4.1 240 13:45 28.01.2020
3559 Haze 27 1011 36 4000 4.1 240 13:25 28.01.2020
3560 Haze 27 1010 34 4000 5.7 220 12:58 28.01.2020
3561 Haze 28 1010 34 4000 5.7 230 12:40 28.01.2020
3562 Haze 28 1010 34 4000 5.7 230 12:22 28.01.2020
3563 Haze 28 1010 37 4000 6.2 240 11:42 28.01.2020
3564 Haze 29 1010 39 4000 6.2 210 11:22 28.01.2020
3565 Haze 29 1010 39 3500 5.1 210 10:55 28.01.2020
3566 Haze 28 1010 45 3500 2.6 220 10:37 28.01.2020
3567 Haze 28 1010 45 3500 2.6 220 10:18 28.01.2020
3568 Haze 28 1011 51 3500 3.6 220 09:42 28.01.2020
3569 Haze 28 1011 51 3500 3.6 220 09:20 28.01.2020
3570 Haze 27 1012 54 3500 1 270 08:46 28.01.2020
3571 Haze 27 1012 54 3500 5.56 244 08:26 28.01.2020
3572 Haze 26 1012 54 3500 1.5 230 07:57 28.01.2020
3573 Haze 25 1013 61 3500 1.5 230 07:35 28.01.2020
3574 Haze 25 1013 61 3500 2.1 290 06:48 28.01.2020
3575 Haze 25 1013 61 3500 2.1 290 06:48 28.01.2020
3576 Haze 23 1013 69 3500 2.6 210 06:25 28.01.2020
3577 Haze 22 1013 73 3000 1 240 05:40 28.01.2020
3578 Haze 22 1013 73 3000 1 240 05:40 28.01.2020
3579 Haze 22 1013 73 3000 1 240 05:22 28.01.2020
3580 Haze 19 1012 88 3000 1 80 03:50 28.01.2020
3581 Haze 18 1011 88 3000 1 90 02:49 28.01.2020
3582 Haze 18 1011 93 3000 2.35 108 02:25 28.01.2020
3583 Haze 18 1011 93 3000 2.35 108 01:56 28.01.2020
3584 Haze 18 1010 93 3500 2.35 108 01:22 28.01.2020
3585 Haze 18 1010 93 3500 2.3 92 00:45 28.01.2020
3586 Haze 19 1010 88 3500 2.3 92 00:22 28.01.2020
3587 Haze 20 1010 82 3500 2.3 92 23:44 27.01.2020
3588 Haze 20 1010 82 3500 1 20 23:20 27.01.2020
3589 Haze 19 1010 88 3500 1 140 22:45 27.01.2020
3590 Haze 19 1011 88 3500 2.1 170 22:20 27.01.2020
3591 Haze 19 1011 88 3500 2.1 170 22:20 27.01.2020
3592 Haze 19 1011 88 3500 2.1 170 22:20 27.01.2020
3593 Haze 19 1011 88 3500 2.1 170 22:20 27.01.2020
3594 Haze 20 1011 82 3500 1 210 21:58 27.01.2020
3595 Haze 19 1011 82 3500 2.36 103 21:39 27.01.2020
3596 Haze 19 1011 82 3500 2.36 103 21:19 27.01.2020
3597 Rain 19 1012 82 4000 3.1 220 20:57 27.01.2020
3598 Haze 21 1011 68 4000 2.36 103 20:38 27.01.2020
3599 Haze 21 1011 68 4000 2.3 126 20:19 27.01.2020
3600 Haze 21 1011 64 4000 2.3 126 19:56 27.01.2020
3601 Haze 21 1012 64 4000 1.5 100 19:38 27.01.2020
3602 Haze 21 1012 64 4000 1.5 100 19:19 27.01.2020
3603 Haze 20 1012 68 4000 1.5 90 18:39 27.01.2020
3604 Haze 20 1012 68 4000 1.5 90 18:21 27.01.2020
3605 Haze 21 1012 64 4000 2.3 126 17:57 27.01.2020
3606 Haze 21 1012 64 4000 2.3 126 17:57 27.01.2020
3607 Haze 21 1012 68 4000 1 100 17:38 27.01.2020
3608 Haze 21 1012 68 4000 1 100 17:18 27.01.2020
3609 Haze 21 1012 68 4000 1 100 16:55 27.01.2020
3610 Haze 22 1012 64 4000 1 90 16:36 27.01.2020
3611 Haze 22 1012 64 4000 1 90 16:36 27.01.2020
3612 Haze 22 1012 64 4000 1 90 16:18 27.01.2020
3613 Haze 23 1011 56 4000 1.5 80 15:41 27.01.2020
3614 Haze 23 1011 56 4000 1.5 80 15:19 27.01.2020
3615 Haze 23 1011 56 4000 1 80 14:56 27.01.2020
3616 Haze 24 1011 57 4000 1.5 90 14:37 27.01.2020
3617 Haze 24 1011 57 4000 1.5 90 14:37 27.01.2020
3618 Haze 25 1011 53 4500 1 110 14:19 27.01.2020
3619 Haze 25 1011 53 4500 1 110 13:42 27.01.2020
3620 Haze 27 1010 42 5000 1 130 13:22 27.01.2020
3621 Haze 29 1010 35 5000 1 170 12:56 27.01.2020
3622 Clouds 29 1010 35 6000 1 140 12:38 27.01.2020
3623 Clouds 29 1010 35 6000 1 140 12:20 27.01.2020
3624 Clear 30 1011 28 6000 2.1 200 11:42 27.01.2020
3625 Clear 30 1011 28 6000 2.1 200 11:42 27.01.2020
3626 Clear 30 1011 28 6000 2.1 200 11:21 27.01.2020
3627 Clear 30 1011 28 6000 2.1 200 11:21 27.01.2020
3628 Haze 29 1011 32 5000 1.5 170 10:55 27.01.2020
3629 Haze 29 1011 30 4000 1 140 10:36 27.01.2020
3630 Haze 29 1011 30 4000 1 140 10:18 27.01.2020
3631 Haze 28 1012 32 4000 2.1 160 09:39 27.01.2020
3632 Haze 28 1012 32 4000 2.1 160 09:18 27.01.2020
3633 Haze 27 1013 36 4000 1 90 08:46 27.01.2020
3634 Haze 26 1014 39 4000 1.5 100 08:22 27.01.2020
3635 Haze 26 1015 39 4000 1 110 07:55 27.01.2020
3636 Haze 25 1015 38 4000 1.5 90 07:35 27.01.2020
3637 Haze 24 1015 41 4000 1.5 120 06:55 27.01.2020
3638 Haze 23 1016 40 4000 1.5 70 06:27 27.01.2020
3639 Haze 21 1016 52 4000 1 100 05:37 27.01.2020
3640 Haze 18 1015 68 4000 1.98 62 04:20 27.01.2020
3641 Mist 15 1014 77 3000 1.5 10 03:23 27.01.2020
3642 Mist 14 1013 82 3000 2.65 56 01:31 27.01.2020
3643 Mist 14 1013 82 3000 2.75 57 00:58 27.01.2020
3644 Mist 14 1013 82 3000 2.75 57 00:37 27.01.2020
3645 Mist 14 1013 82 3000 2.75 57 00:18 27.01.2020
3646 Mist 17 1013 67 3000 2.75 57 23:41 26.01.2020
3647 Mist 17 1013 67 3000 2.41 46 23:19 26.01.2020
3648 Mist 16 1013 72 4000 2.41 46 22:55 26.01.2020
3649 Mist 17 1013 67 4000 2.41 46 22:36 26.01.2020
3650 Mist 17 1013 67 4000 2.41 46 22:18 26.01.2020
3651 Mist 17 1014 72 4000 1 30 21:55 26.01.2020
3652 Mist 16 1014 77 4000 2.41 46 21:37 26.01.2020
3653 Mist 16 1014 77 4000 2.41 46 21:18 26.01.2020
3654 Mist 16 1014 77 4000 2.41 46 21:18 26.01.2020
3655 Mist 15 1014 82 4000 1 40 20:55 26.01.2020
3656 Haze 17 1014 77 4000 1 30 20:36 26.01.2020
3657 Haze 17 1014 77 4000 1 30 20:18 26.01.2020
3658 Haze 18 1015 68 4000 2.75 56 19:41 26.01.2020
3659 Haze 18 1015 68 4000 2.75 56 19:21 26.01.2020
3660 Haze 18 1015 68 4000 2.75 56 18:59 26.01.2020
3661 Haze 19 1015 63 4000 2.75 56 18:40 26.01.2020
3662 Haze 19 1015 63 4000 2.75 56 18:21 26.01.2020
3663 Haze 19 1015 59 4000 2.75 56 17:57 26.01.2020
3664 Haze 20 1015 56 4000 2.75 56 17:38 26.01.2020
3665 Haze 20 1015 56 4000 0.36 2 17:18 26.01.2020
3666 Haze 20 1015 56 4000 0.36 2 17:18 26.01.2020
3667 Haze 21 1015 52 4000 1 80 16:57 26.01.2020
3668 Haze 21 1015 52 4000 1 80 16:39 26.01.2020
3669 Haze 21 1015 52 4000 1 80 16:20 26.01.2020
3670 Clear 22 1014 32 0 0.36 2 15:46 26.01.2020
3671 Clear 22 1014 32 0 0.36 2 15:22 26.01.2020
3672 Clear 22 1014 32 0 0.36 2 14:58 26.01.2020
3673 Clear 22 1014 32 0 0.36 2 14:39 26.01.2020
3674 Clear 27 1012 27 0 2.14 106 14:19 26.01.2020
3675 Clear 27 1012 27 0 2.14 106 13:42 26.01.2020
3676 Clear 27 1011 27 0 2.23 103 13:20 26.01.2020
3677 Clear 27 1011 27 0 2.23 103 12:57 26.01.2020
3678 Clear 27 1011 27 0 2.23 103 12:38 26.01.2020
3679 Clear 27 1011 27 0 2.23 103 12:19 26.01.2020
3680 Clear 27 1011 27 0 2.23 103 11:57 26.01.2020
3681 Clear 27 1011 27 0 2.23 103 11:37 26.01.2020
3682 Clear 28 1014 30 6000 2.1 30 11:18 26.01.2020
3683 Clear 28 1014 30 6000 2.1 30 10:56 26.01.2020
3684 Clear 28 1014 30 6000 2.1 30 10:38 26.01.2020
3685 Clear 28 1014 30 6000 2.1 30 10:19 26.01.2020
3686 Clear 28 1014 30 6000 2.1 30 10:19 26.01.2020
3687 Clear 27 1014 32 6000 1 10 09:56 26.01.2020
3688 Clear 27 1015 32 6000 1.5 50 09:37 26.01.2020
3689 Clear 27 1015 32 6000 1.5 50 09:19 26.01.2020
3690 Clear 25 1016 41 6000 1 340 08:41 26.01.2020
3691 Clear 25 1016 41 6000 1 340 08:22 26.01.2020
3692 Clear 25 1017 41 6000 1.5 20 07:50 26.01.2020
3693 Haze 24 1017 41 5000 2.1 80 07:27 26.01.2020
3694 Haze 24 1018 41 5000 1.5 50 06:51 26.01.2020
3695 Haze 23 1018 40 5000 2.1 70 06:23 26.01.2020
3696 Clear 26 1016 29 0 2.51 55 05:28 26.01.2020
3697 Haze 15 1016 77 3000 1.88 34 03:31 26.01.2020
3698 Haze 14 1015 82 3000 1.88 34 02:38 26.01.2020
3699 Haze 16 1015 72 3000 1 350 01:43 26.01.2020
3700 Haze 17 1014 67 3000 2.6 350 01:22 26.01.2020
3701 Haze 17 1014 67 3000 1.5 340 00:42 26.01.2020
3702 Haze 17 1014 67 3000 1.5 340 00:23 26.01.2020
3703 Clear 17 1014 54 0 1.3 21 23:39 25.01.2020
3704 Clear 18 1013 50 0 2.58 20 23:20 25.01.2020
3705 Clear 18 1013 50 0 2.58 20 22:45 25.01.2020
3706 Clear 18 1013 50 0 2.58 20 22:21 25.01.2020
3707 Clear 18 1013 50 0 2.58 20 21:59 25.01.2020
3708 Clear 18 1013 50 0 2.58 20 21:41 25.01.2020
3709 Clear 18 1013 50 0 2.58 20 21:22 25.01.2020
3710 Clear 18 1013 50 0 2.58 20 20:55 25.01.2020
3711 Clear 18 1013 50 0 2.58 20 20:36 25.01.2020
3712 Clear 20 1014 43 0 3.11 26 20:18 25.01.2020
3713 Clear 20 1014 43 0 3.11 26 19:42 25.01.2020
3714 Clear 20 1014 43 0 3.11 26 19:20 25.01.2020
3715 Clear 20 1014 43 0 3.11 26 18:56 25.01.2020
3716 Clear 20 1014 43 0 3.11 26 18:38 25.01.2020
3717 Clear 20 1014 43 0 3.11 26 18:20 25.01.2020
3718 Clear 20 1014 43 0 3.11 26 17:40 25.01.2020
3719 Clear 23 1015 39 0 3.67 356 17:19 25.01.2020
3720 Clear 23 1015 39 0 3.67 356 16:57 25.01.2020
3721 Clear 23 1015 39 0 3.67 356 16:38 25.01.2020
3722 Clear 23 1015 39 0 3.67 356 16:19 25.01.2020
3723 Clear 23 1015 39 0 3.67 356 15:46 25.01.2020
3724 Clear 23 1015 39 0 3.67 356 15:25 25.01.2020
3725 Clear 23 1015 39 0 3.67 356 14:57 25.01.2020
3726 Clear 23 1015 39 0 3.67 356 14:39 25.01.2020
3727 Clear 28 1012 34 0 2.83 294 14:18 25.01.2020
3728 Clear 28 1012 34 0 2.83 294 13:41 25.01.2020
3729 Clear 28 1012 34 0 2.83 294 13:22 25.01.2020
3730 Haze 27 1013 47 4000 2.1 130 12:43 25.01.2020
3731 Haze 27 1013 47 4000 2.1 130 12:23 25.01.2020
3732 Haze 27 1013 47 4000 2.1 130 11:45 25.01.2020
3733 Haze 28 1013 42 4000 2.1 120 11:22 25.01.2020
3734 Haze 28 1013 42 5000 1 30 10:58 25.01.2020
3735 Haze 29 1014 37 5000 1 200 10:40 25.01.2020
3736 Haze 29 1014 37 5000 1 200 10:20 25.01.2020
3737 Haze 27 1015 42 5000 1.5 20 09:41 25.01.2020
3738 Haze 27 1015 42 5000 1.5 20 09:22 25.01.2020
3739 Haze 27 1015 42 5000 1.5 60 08:44 25.01.2020
3740 Haze 26 1016 44 5000 1.5 170 08:22 25.01.2020
3741 Haze 26 1017 44 5000 1.5 100 07:49 25.01.2020
3742 Haze 25 1018 44 4000 1.84 52 06:51 25.01.2020
3743 Haze 24 1019 47 4000 1 90 06:27 25.01.2020
3744 Haze 23 1019 46 3000 1 140 05:46 25.01.2020
3745 Mist 18 1018 77 2500 2.95 44 04:43 25.01.2020
3746 Mist 17 1018 82 2500 1 20 03:51 25.01.2020
3747 Mist 17 1018 82 2500 1 20 03:51 25.01.2020
3748 Haze 15 1017 87 3000 2.95 44 02:54 25.01.2020
3749 Haze 14 1016 93 3000 2.52 37 01:59 25.01.2020
3750 Haze 14 1016 93 3000 2.52 37 01:59 25.01.2020
3751 Haze 16 1016 87 3000 2.52 37 01:37 25.01.2020
3752 Haze 15 1016 87 3000 2.23 39 00:43 25.01.2020
3753 Haze 16 1016 87 3000 1 330 00:24 25.01.2020
3754 Haze 16 1016 82 3000 2.23 39 23:57 24.01.2020
3755 Haze 17 1016 82 3000 1 20 23:38 24.01.2020
3756 Haze 17 1016 82 3000 1 20 23:38 24.01.2020
3757 Haze 17 1016 82 3000 1 20 23:20 24.01.2020
3758 Haze 18 1016 77 3000 1 20 22:42 24.01.2020
3759 Haze 17 1017 82 3000 2.93 44 22:24 24.01.2020
3760 Haze 17 1015 82 3000 2.93 44 21:42 24.01.2020
3761 Haze 17 1017 82 3000 2.93 44 21:20 24.01.2020
3762 Haze 17 1017 82 3000 2.93 44 20:56 24.01.2020
3763 Haze 17 1017 82 3000 2.93 44 20:37 24.01.2020
3764 Haze 17 1017 82 3000 3.01 16 20:18 24.01.2020
3765 Haze 19 1017 77 3000 3.01 16 19:55 24.01.2020
3766 Haze 19 1017 72 3000 1 20 19:37 24.01.2020
3767 Haze 19 1017 72 3000 1 20 19:19 24.01.2020
3768 Haze 18 1017 82 3000 3.01 16 18:42 24.01.2020
3769 Haze 19 1018 77 3000 3.01 16 18:22 24.01.2020
3770 Haze 19 1018 77 3000 3.01 16 18:22 24.01.2020
3771 Haze 19 1018 72 3000 3.01 16 17:45 24.01.2020
3772 Haze 19 1017 77 3000 3.01 16 17:22 24.01.2020
3773 Haze 19 1017 72 3000 1.44 157 16:58 24.01.2020
3774 Haze 21 1017 60 3000 1.44 157 16:38 24.01.2020
3775 Haze 21 1017 60 3000 1.44 157 16:19 24.01.2020
3776 Haze 21 1016 60 3000 1 110 15:42 24.01.2020
3777 Haze 21 1016 60 3000 1.44 157 15:21 24.01.2020
3778 Haze 21 1016 64 3000 1.5 130 14:55 24.01.2020
3779 Haze 21 1016 64 3000 1.5 130 14:55 24.01.2020
3780 Haze 22 1015 56 3000 1.5 110 14:36 24.01.2020
3781 Haze 22 1015 56 3000 1.5 110 14:18 24.01.2020
3782 Haze 24 1014 53 4000 2.1 100 13:41 24.01.2020
3783 Haze 24 1014 53 4000 2.1 100 13:21 24.01.2020
3784 Haze 26 1014 44 4000 1 110 12:43 24.01.2020
3785 Haze 26 1014 44 4000 1 110 12:20 24.01.2020
3786 Haze 26 1015 44 5000 1.5 140 11:45 24.01.2020
3787 Haze 26 1015 44 5000 1 130 11:19 24.01.2020
3788 Haze 26 1015 41 5000 1.5 90 10:56 24.01.2020
3789 Haze 25 1015 44 5000 1.61 322 10:38 24.01.2020
3790 Haze 25 1015 44 5000 1.61 322 10:18 24.01.2020
3791 Haze 25 1017 41 5000 1 40 09:41 24.01.2020
3792 Haze 25 1017 41 5000 1 40 09:23 24.01.2020
3793 Haze 24 1018 38 4500 1 140 08:41 24.01.2020
3794 Haze 24 1018 38 4500 1 140 08:21 24.01.2020
3795 Haze 23 1019 43 4500 2.1 80 07:58 24.01.2020
3796 Haze 22 1019 43 4500 1 60 07:37 24.01.2020
3797 Haze 21 1020 43 4500 1.5 60 06:53 24.01.2020
3798 Haze 21 1020 43 4500 1.5 60 06:33 24.01.2020
3799 Haze 20 1020 45 4000 1 100 05:59 24.01.2020
3800 Haze 19 1020 48 4000 2.1 60 05:18 24.01.2020
3801 Haze 16 1018 59 2500 1.5 60 02:54 24.01.2020
3802 Haze 16 1018 59 2500 1 50 02:27 24.01.2020
3803 Haze 16 1018 59 2500 1.5 40 01:49 24.01.2020
3804 Haze 16 1017 59 2500 1 30 01:31 24.01.2020
3805 Haze 17 1017 59 2500 1 20 00:26 24.01.2020
3806 Haze 17 1017 55 2500 1.5 30 23:51 23.01.2020
3807 Haze 17 1017 55 2500 1.5 40 23:31 23.01.2020
3808 Haze 18 1017 52 2500 2.1 30 22:59 23.01.2020
3809 Haze 18 1018 55 2500 2.6 30 22:38 23.01.2020
3810 Haze 18 1018 55 2500 2.6 30 22:19 23.01.2020
3811 Haze 18 1018 59 2500 1 30 21:58 23.01.2020
3812 Haze 18 1018 59 2500 1 30 21:58 23.01.2020
3813 Haze 18 1018 63 2500 4.67 22 21:39 23.01.2020
3814 Haze 18 1018 63 2500 4.67 22 21:20 23.01.2020
3815 Haze 19 1018 59 2500 1.5 20 20:59 23.01.2020
3816 Haze 19 1018 55 2500 1 20 20:39 23.01.2020
3817 Haze 19 1018 55 2500 1 20 20:20 23.01.2020
3818 Haze 19 1018 55 2500 1.5 30 19:56 23.01.2020
3819 Haze 20 1019 56 2500 2.6 20 19:38 23.01.2020
3820 Haze 20 1019 56 2500 2.6 20 19:19 23.01.2020
3821 Haze 21 1019 56 2500 2.6 40 18:43 23.01.2020
3822 Haze 21 1019 56 2500 2.6 40 18:21 23.01.2020
3823 Haze 21 1019 56 2000 2.6 30 17:59 23.01.2020
3824 Haze 22 1019 53 2000 2.6 40 17:40 23.01.2020
3825 Haze 22 1019 53 2000 2.6 40 17:20 23.01.2020
3826 Haze 22 1018 56 2000 3.6 50 16:56 23.01.2020
3827 Haze 23 1018 60 2000 3.1 50 16:37 23.01.2020
3828 Haze 23 1018 60 2000 3.1 50 16:18 23.01.2020
3829 Haze 23 1018 69 2000 2.1 60 15:55 23.01.2020
3830 Haze 23 1017 69 2000 2.1 60 15:36 23.01.2020
3831 Haze 23 1017 69 2000 2.1 60 15:18 23.01.2020
3832 Haze 23 1017 69 2000 2.1 60 15:18 23.01.2020
3833 Haze 23 1017 73 2000 2.1 80 14:54 23.01.2020
3834 Haze 23 1016 73 2000 1.5 80 14:36 23.01.2020
3835 Haze 23 1016 73 2000 1.5 80 14:18 23.01.2020
3836 Haze 24 1015 69 2000 2.1 80 13:39 23.01.2020
3837 Haze 24 1015 69 2000 2.1 80 13:39 23.01.2020
3838 Haze 24 1015 69 2000 2.1 80 13:20 23.01.2020
3839 Haze 25 1015 65 2000 1 70 12:47 23.01.2020
3840 Haze 25 1015 65 2000 1.5 60 12:25 23.01.2020
3841 Haze 26 1015 61 2000 2.1 50 11:59 23.01.2020
3842 Haze 26 1015 61 2000 1.5 80 11:39 23.01.2020
3843 Haze 26 1015 61 2000 1.5 80 11:19 23.01.2020
3844 Haze 26 1015 61 2000 1.5 80 11:19 23.01.2020
3845 Haze 26 1016 61 2000 1.5 110 10:45 23.01.2020
3846 Haze 25 1016 65 2000 2.1 60 10:23 23.01.2020
3847 Haze 26 1017 65 2000 2.6 60 09:59 23.01.2020
3848 Haze 25 1017 65 2000 2.1 100 09:38 23.01.2020
3849 Haze 25 1017 65 2000 2.1 100 09:20 23.01.2020
3850 Haze 25 1018 65 2000 2.6 90 08:41 23.01.2020
3851 Haze 25 1018 65 2000 2.6 90 08:22 23.01.2020
3852 Haze 24 1019 69 2000 2.6 60 07:45 23.01.2020
3853 Mist 24 1019 64 1500 1.5 70 07:26 23.01.2020
3854 Mist 23 1020 69 1500 1.5 90 06:54 23.01.2020
3855 Mist 22 1021 73 1500 2.6 50 06:23 23.01.2020
3856 Fog 22 1021 73 1200 2.6 70 05:58 23.01.2020
3857 Fog 22 1021 73 1200 2.6 70 05:58 23.01.2020
3858 Fog 20 1019 88 1200 2.1 50 04:24 23.01.2020
3859 Mist 19 1018 93 2000 3.32 47 02:35 23.01.2020
3860 Mist 19 1016 93 2000 1.5 30 01:41 23.01.2020
3861 Mist 20 1016 94 2000 2.38 27 00:28 23.01.2020
3862 Mist 20 1016 94 2000 2.38 27 23:48 22.01.2020
3863 Mist 20 1016 94 2000 2.38 27 23:30 22.01.2020
3864 Mist 20 1016 94 2000 1.09 218 22:59 22.01.2020
3865 Mist 20 1017 94 2000 1.09 218 22:41 22.01.2020
3866 Mist 20 1017 94 2000 1.09 218 22:23 22.01.2020
3867 Mist 20 1017 94 2500 1.09 218 21:41 22.01.2020
3868 Mist 20 1017 94 2500 1.09 218 21:22 22.01.2020
3869 Mist 20 1017 94 3000 2.6 20 20:58 22.01.2020
3870 Mist 20 1018 88 3000 0.63 184 20:39 22.01.2020
3871 Mist 20 1018 88 3000 1.01 201 20:21 22.01.2020
3872 Mist 20 1018 88 3000 1 360 19:57 22.01.2020
3873 Mist 21 1018 83 3000 1.01 201 19:39 22.01.2020
3874 Mist 21 1018 83 3000 1.01 201 19:19 22.01.2020
3875 Mist 21 1018 83 4000 1 330 18:57 22.01.2020
3876 Haze 21 1018 83 4000 1.01 201 18:38 22.01.2020
3877 Haze 21 1018 83 4000 1.01 201 18:19 22.01.2020
3878 Haze 22 1018 78 4000 1.01 201 17:54 22.01.2020
3879 Haze 22 1018 78 4000 1 200 17:36 22.01.2020
3880 Haze 22 1018 78 4000 1 200 17:18 22.01.2020
3881 Haze 22 1018 78 4000 1 200 17:18 22.01.2020
3882 Haze 23 1017 73 4000 1.5 170 16:43 22.01.2020
3883 Haze 23 1017 73 4000 1.5 160 16:22 22.01.2020
3884 Haze 23 1017 73 4000 1.5 170 15:58 22.01.2020
3885 Haze 23 1017 73 4000 1.5 160 15:39 22.01.2020
3886 Haze 23 1017 73 4000 1.5 160 15:21 22.01.2020
3887 Haze 23 1017 73 4000 1.5 160 15:21 22.01.2020
3888 Haze 24 1017 69 3000 1.5 160 14:54 22.01.2020
3889 Haze 25 1016 65 3000 1 170 14:36 22.01.2020
3890 Haze 25 1016 65 3000 1 170 14:36 22.01.2020
3891 Haze 25 1016 65 3000 1 170 14:18 22.01.2020
3892 Haze 27 1016 57 3000 1 180 13:38 22.01.2020
3893 Haze 27 1016 57 3000 1 180 13:20 22.01.2020
3894 Haze 27 1016 57 3000 1.5 180 12:58 22.01.2020
3895 Haze 28 1016 54 3000 2.1 170 12:40 22.01.2020
3896 Haze 28 1016 54 3000 2.1 170 12:40 22.01.2020
3897 Haze 28 1016 54 3000 2.1 170 12:20 22.01.2020
3898 Haze 28 1016 54 3000 3.1 200 11:58 22.01.2020
3899 Haze 28 1016 54 3000 2.6 180 11:40 22.01.2020
3900 Haze 28 1016 54 3000 2.6 180 11:19 22.01.2020
3901 Haze 28 1016 54 3000 2.6 180 11:19 22.01.2020
3902 Haze 28 1016 54 3000 3.1 170 10:59 22.01.2020
3903 Haze 28 1017 54 3000 1.5 240 10:41 22.01.2020
3904 Haze 28 1017 54 3000 1.5 240 10:18 22.01.2020
3905 Haze 28 1017 54 3000 3.1 160 09:42 22.01.2020
3906 Haze 28 1018 54 3000 2.6 180 09:24 22.01.2020
3907 Haze 27 1019 57 3000 3.6 180 08:57 22.01.2020
3908 Haze 27 1019 57 3000 1.5 160 08:38 22.01.2020
3909 Haze 27 1019 57 3000 1.5 160 08:20 22.01.2020
3910 Mist 25 1021 69 2000 3.97 174 07:46 22.01.2020
3911 Mist 25 1021 69 2000 3.97 174 07:27 22.01.2020
3912 Mist 23 1021 78 1000 3.97 174 06:38 22.01.2020
3913 Mist 23 1021 78 1000 3.97 174 06:20 22.01.2020
3914 Mist 23 1021 78 1000 3.97 174 06:20 22.01.2020
3915 Fog 21 1021 88 1000 2.65 149 05:19 22.01.2020
3916 Fog 17 1019 100 1000 2.65 149 03:29 22.01.2020
3917 Mist 17 1018 100 1500 2.65 149 02:49 22.01.2020
3918 Mist 17 1017 100 1500 1.5 80 01:35 22.01.2020
3919 Mist 18 1017 93 1500 1.37 137 00:42 22.01.2020
3920 Mist 18 1017 93 1500 1.37 137 00:23 22.01.2020
3921 Mist 18 1017 93 1500 1.37 137 23:38 21.01.2020
3922 Mist 18 1017 93 1500 1.37 137 23:38 21.01.2020
3923 Mist 18 1017 93 1500 1.78 128 23:20 21.01.2020
3924 Mist 18 1017 93 1500 1.78 128 22:42 21.01.2020
3925 Mist 19 1017 93 2000 1 10 22:24 21.01.2020
3926 Mist 19 1018 93 2000 1.78 128 21:59 21.01.2020
3927 Mist 19 1018 93 2000 1.78 128 21:59 21.01.2020
3928 Haze 19 1018 93 2500 1.78 128 21:40 21.01.2020
3929 Haze 19 1018 93 2500 1.78 128 21:21 21.01.2020
3930 Haze 19 1018 93 2500 1.78 128 20:59 21.01.2020
3931 Haze 19 1018 93 2500 1.78 128 20:39 21.01.2020
3932 Haze 19 1018 93 2500 1.94 81 20:20 21.01.2020
3933 Haze 19 1018 93 2500 1.94 81 19:58 21.01.2020
3934 Haze 19 1018 93 2500 1.94 81 19:58 21.01.2020
3935 Haze 20 1018 88 2500 1.94 81 19:40 21.01.2020
3936 Haze 20 1018 88 2500 1.94 81 19:21 21.01.2020
3937 Haze 21 1018 88 2500 1.94 81 18:57 21.01.2020
3938 Haze 21 1019 88 2500 1.94 81 18:39 21.01.2020
3939 Haze 21 1019 88 2500 1.94 81 18:21 21.01.2020
3940 Haze 21 1019 88 2500 1.94 81 17:57 21.01.2020
3941 Haze 21 1019 88 2500 1.5 100 17:38 21.01.2020
3942 Haze 21 1019 88 2500 1.5 100 17:18 21.01.2020
3943 Haze 22 1018 83 2500 1.5 100 16:38 21.01.2020
3944 Haze 22 1018 83 2500 1.5 100 16:19 21.01.2020
3945 Haze 22 1018 83 2500 1.5 100 16:19 21.01.2020
3946 Haze 22 1018 83 2500 1.5 90 15:59 21.01.2020
3947 Haze 23 1018 78 2500 1.5 100 15:38 21.01.2020
3948 Haze 23 1018 78 2500 1.5 100 15:19 21.01.2020
3949 Haze 23 1017 78 2500 1.06 100 14:39 21.01.2020
3950 Haze 23 1017 78 2500 1.49 241 14:21 21.01.2020
3951 Haze 24 1016 73 2500 1.49 241 13:43 21.01.2020
3952 Haze 25 1016 65 2500 1 80 13:20 21.01.2020
3953 Haze 27 1016 57 2500 1 150 12:58 21.01.2020
3954 Haze 27 1016 54 2500 1.5 100 12:39 21.01.2020
3955 Haze 27 1016 54 2500 1.5 100 12:21 21.01.2020
3956 Haze 27 1015 57 2500 1.5 120 11:55 21.01.2020
3957 Haze 27 1016 57 2500 1.5 130 11:36 21.01.2020
3958 Haze 27 1016 57 2500 1.5 130 11:18 21.01.2020
3959 Haze 27 1016 57 2500 1.5 150 10:42 21.01.2020
3960 Haze 27 1016 57 2500 1.5 150 10:22 21.01.2020
3961 Haze 26 1017 61 2500 3.1 150 09:43 21.01.2020
3962 Haze 26 1017 61 2500 1 180 09:24 21.01.2020
3963 Haze 25 1018 65 2500 2.1 140 08:58 21.01.2020
3964 Haze 24 1019 64 2500 2.1 60 08:40 21.01.2020
3965 Haze 24 1019 64 2500 2.1 60 08:19 21.01.2020
3966 Haze 23 1019 64 2500 1 100 07:42 21.01.2020
3967 Haze 24 1019 64 2500 1.5 100 07:42 21.01.2020
3968 Haze 23 1019 64 2500 1 100 07:23 21.01.2020
3969 Haze 23 1019 64 2500 1 100 07:23 21.01.2020
3970 Haze 22 1020 68 2000 2.1 100 06:56 21.01.2020
3971 Haze 21 1021 68 2000 1 90 06:37 21.01.2020
3972 Haze 21 1021 64 2000 2.1 50 05:50 21.01.2020
3973 Mist 17 1020 82 1500 2.71 70 04:41 21.01.2020
3974 Mist 17 1020 82 1500 2.71 70 04:19 21.01.2020
3975 Mist 14 1017 93 2000 2.71 70 02:26 21.01.2020
3976 Mist 14 1017 87 2000 1.77 43 01:31 21.01.2020
3977 Mist 15 1016 87 2000 1.72 64 00:41 21.01.2020
3978 Mist 15 1016 87 2000 1.72 64 00:21 21.01.2020
3979 Mist 14 1016 93 2000 1.72 64 23:41 20.01.2020
3980 Mist 14 1016 93 2000 2.73 51 23:19 20.01.2020
3981 Mist 14 1017 93 2000 2.73 51 22:59 20.01.2020
3982 Mist 16 1017 87 2000 2.73 51 22:39 20.01.2020
3983 Mist 16 1017 87 2000 2.73 51 22:21 20.01.2020
3984 Mist 16 1017 87 2000 2.73 51 21:58 20.01.2020
3985 Mist 16 1017 87 2000 1 10 21:38 20.01.2020
3986 Mist 16 1017 87 2000 1 10 21:19 20.01.2020
3987 Mist 16 1018 87 2000 2.1 10 20:57 20.01.2020
3988 Mist 17 1018 82 2000 1.5 20 20:38 20.01.2020
3989 Mist 17 1018 82 2000 1.5 20 20:19 20.01.2020
3990 Mist 16 1018 87 2000 1 30 19:56 20.01.2020
3991 Mist 16 1018 87 2000 2.29 89 19:38 20.01.2020
3992 Mist 16 1018 87 2000 2.29 89 19:18 20.01.2020
3993 Mist 17 1018 82 2000 2.29 89 18:44 20.01.2020
3994 Mist 16 1018 82 2000 2.29 89 18:23 20.01.2020
3995 Haze 16 1018 82 2000 2.29 89 17:58 20.01.2020
3996 Haze 17 1018 82 2000 2.29 89 17:36 20.01.2020
3997 Haze 17 1018 82 2000 2.29 89 17:36 20.01.2020
3998 Haze 17 1018 82 2000 1.69 62 17:18 20.01.2020
3999 Haze 17 1018 77 2000 1.69 62 16:43 20.01.2020
4000 Haze 18 1018 72 2000 1.69 62 16:25 20.01.2020
4001 Haze 17 1017 77 2000 1.69 62 15:57 20.01.2020
4002 Haze 18 1017 77 2000 1 100 15:39 20.01.2020
4003 Haze 18 1017 77 2000 1 100 15:20 20.01.2020
4004 Haze 19 1017 68 2000 1 140 14:41 20.01.2020
4005 Haze 19 1017 68 2000 1 140 14:23 20.01.2020
4006 Haze 20 1016 72 2000 1.5 80 13:59 20.01.2020
4007 Haze 21 1016 60 2000 1.23 26 13:40 20.01.2020
4008 Haze 21 1016 60 2000 0.64 43 13:22 20.01.2020
4009 Haze 21 1016 60 2000 0.64 43 12:47 20.01.2020
4010 Haze 21 1016 56 2500 0.64 43 12:28 20.01.2020
4011 Haze 21 1016 56 2500 0.64 43 12:28 20.01.2020
4012 Haze 21 1016 56 2500 0.64 43 11:59 20.01.2020
4013 Haze 21 1016 60 2500 1 80 11:39 20.01.2020
4014 Haze 21 1016 60 2500 1 80 11:21 20.01.2020
4015 Haze 21 1016 60 2500 1 80 10:48 20.01.2020
4016 Haze 21 1016 60 2500 1 80 10:48 20.01.2020
4017 Haze 21 1017 56 2500 1 80 10:22 20.01.2020
4018 Haze 21 1017 56 2500 1 40 09:57 20.01.2020
4019 Haze 20 1017 52 3000 2.6 100 09:39 20.01.2020
4020 Haze 20 1017 52 3000 2.6 100 09:20 20.01.2020
4021 Haze 20 1018 56 3000 0.88 98 08:44 20.01.2020
4022 Haze 20 1019 52 3000 1 80 08:26 20.01.2020
4023 Haze 19 1019 55 3000 1 70 07:45 20.01.2020
4024 Haze 19 1020 55 3500 1.5 40 07:25 20.01.2020
4025 Haze 19 1020 55 4000 2.1 40 06:48 20.01.2020
4026 Haze 18 1021 55 3500 1.5 30 06:27 20.01.2020
4027 Haze 17 1020 59 3000 1.5 30 05:42 20.01.2020
4028 Haze 17 1020 59 3000 1.5 30 05:22 20.01.2020
4029 Haze 15 1020 67 2500 2.6 40 04:42 20.01.2020
4030 Haze 14 1018 71 2000 1.5 20 02:57 20.01.2020
4031 Haze 14 1017 71 3000 2.1 20 01:54 20.01.2020
4032 Haze 15 1016 67 3000 2.6 10 01:35 20.01.2020
4033 Haze 15 1016 62 3000 3.1 10 00:44 20.01.2020
4034 Haze 15 1016 67 3000 1.5 10 00:23 20.01.2020
4035 Haze 15 1016 77 2500 2.1 20 23:39 19.01.2020
4036 Haze 15 1016 77 2500 2.1 20 23:20 19.01.2020
4037 Haze 15 1017 77 2500 2.1 20 22:57 19.01.2020
4038 Haze 15 1017 77 2500 1.5 30 22:38 19.01.2020
4039 Haze 15 1017 77 2500 1.5 30 22:20 19.01.2020
4040 Haze 15 1017 77 2500 1 30 21:56 19.01.2020
4041 Haze 15 1017 77 2500 1 30 21:38 19.01.2020
4042 Haze 15 1017 77 2500 1 30 21:20 19.01.2020
4043 Haze 16 1017 72 2500 1.5 30 20:57 19.01.2020
4044 Haze 16 1018 77 2500 1.5 30 20:39 19.01.2020
4045 Haze 16 1018 77 2500 1.5 30 20:20 19.01.2020
4046 Haze 16 1018 77 2500 1.5 30 19:57 19.01.2020
4047 Haze 16 1018 77 2500 2.6 30 19:38 19.01.2020
4048 Haze 16 1018 77 2500 2.6 30 19:20 19.01.2020
4049 Haze 17 1018 77 2500 2.6 30 18:56 19.01.2020
4050 Haze 17 1018 77 2500 2.1 30 18:37 19.01.2020
4051 Haze 17 1018 77 2500 2.1 30 18:19 19.01.2020
4052 Haze 17 1018 77 2500 2.1 30 17:58 19.01.2020
4053 Haze 18 1018 72 2500 3.1 50 17:39 19.01.2020
4054 Haze 18 1018 72 2500 3.1 50 17:20 19.01.2020
4055 Haze 18 1018 77 2500 3.1 50 16:57 19.01.2020
4056 Haze 18 1018 82 2500 2.1 50 16:38 19.01.2020
4057 Haze 18 1018 82 2500 2.1 50 16:19 19.01.2020
4058 Haze 19 1017 77 2500 3.6 60 15:57 19.01.2020
4059 Haze 19 1017 77 2500 4.1 60 15:37 19.01.2020
4060 Haze 19 1017 77 2500 4.1 60 15:19 19.01.2020
4061 Haze 19 1016 82 2500 3.1 70 14:57 19.01.2020
4062 Haze 20 1016 77 2000 2.1 60 14:38 19.01.2020
4063 Haze 20 1016 77 2000 2.1 60 14:18 19.01.2020
4064 Haze 20 1016 77 2000 1 60 13:55 19.01.2020
4065 Haze 21 1016 77 2000 1.5 50 13:37 19.01.2020
4066 Haze 21 1016 77 2000 1.5 50 13:18 19.01.2020
4067 Haze 22 1015 73 2000 2.1 80 12:42 19.01.2020
4068 Haze 22 1015 73 2000 2.1 80 12:23 19.01.2020
4069 Haze 23 1015 69 2000 1.5 60 11:58 19.01.2020
4070 Haze 23 1016 69 2000 1 50 11:39 19.01.2020
4071 Haze 23 1016 69 2000 1 50 11:20 19.01.2020
4072 Haze 23 1016 69 2000 1 60 10:55 19.01.2020
4073 Haze 23 1016 64 1800 2.1 60 10:37 19.01.2020
4074 Haze 22 1016 68 1800 2.6 50 10:18 19.01.2020
4075 Mist 22 1017 73 1500 3.6 70 09:41 19.01.2020
4076 Mist 22 1017 73 1500 3.6 70 09:23 19.01.2020
4077 Mist 22 1017 68 1500 2.1 50 08:57 19.01.2020
4078 Mist 21 1018 73 1500 1.5 90 08:38 19.01.2020
4079 Mist 21 1018 73 1500 1.5 90 08:20 19.01.2020
4080 Mist 21 1019 68 1500 1.5 50 07:40 19.01.2020
4081 Mist 21 1019 68 1500 1.5 50 07:21 19.01.2020
4082 Mist 20 1019 72 1500 2.1 60 06:44 19.01.2020
4083 Mist 18 1018 82 1500 1.5 10 04:41 19.01.2020
4084 Mist 17 1016 88 2000 1.5 10 02:37 19.01.2020
4085 Mist 17 1016 88 2000 1.5 10 02:19 19.01.2020
4086 Mist 16 1015 93 2000 2.1 320 01:24 19.01.2020
4087 Mist 16 1015 93 2000 3.31 20 00:45 19.01.2020
4088 Mist 17 1014 93 2000 1 30 00:26 19.01.2020
4089 Mist 17 1014 93 2000 1 30 23:55 18.01.2020
4090 Mist 18 1015 88 2000 2.1 30 23:36 18.01.2020
4091 Mist 18 1015 88 2000 2.1 30 23:18 18.01.2020
4092 Mist 18 1015 88 2000 2.1 30 22:54 18.01.2020
4093 Mist 18 1015 88 2000 2.1 30 22:54 18.01.2020
4094 Mist 18 1015 88 2000 2.1 30 22:54 18.01.2020
4095 Mist 18 1015 93 2000 2.1 10 22:36 18.01.2020
4096 Mist 18 1015 93 2000 2.1 10 22:36 18.01.2020
4097 Mist 18 1015 93 2000 2.1 10 22:18 18.01.2020
4098 Mist 19 1015 88 2000 3.1 360 21:55 18.01.2020
4099 Mist 19 1015 88 2000 2.1 20 21:36 18.01.2020
4100 Mist 19 1015 88 2000 2.1 20 21:18 18.01.2020
4101 Mist 19 1015 93 2000 1 20 20:41 18.01.2020
4102 Mist 19 1015 93 2000 1 20 20:19 18.01.2020
4103 Mist 19 1015 93 2000 1.5 10 19:44 18.01.2020
4104 Mist 19 1015 93 2000 1.5 10 19:44 18.01.2020
4105 Mist 19 1016 93 2000 2.1 10 19:25 18.01.2020
4106 Mist 19 1016 93 2000 2.1 10 19:25 18.01.2020
4107 Mist 19 1016 88 2000 0.86 84 18:56 18.01.2020
4108 Mist 19 1016 93 2000 0.86 84 18:37 18.01.2020
4109 Mist 19 1016 88 2000 0.86 84 18:19 18.01.2020
4110 Mist 20 1016 82 2500 0.86 84 17:41 18.01.2020
4111 Mist 20 1016 82 2500 0.96 89 17:21 18.01.2020
4112 Mist 19 1016 93 2500 0.96 89 16:57 18.01.2020
4113 Mist 20 1016 88 2500 1 100 16:38 18.01.2020
4114 Mist 20 1016 88 2500 1 100 16:20 18.01.2020
4115 Haze 21 1015 83 2500 0.96 89 15:47 18.01.2020
4116 Haze 21 1015 83 2500 0.96 89 15:26 18.01.2020
4117 Haze 21 1015 83 2500 0.96 89 15:26 18.01.2020
4118 Haze 21 1015 77 2500 0.96 89 15:00 18.01.2020
4119 Haze 22 1014 78 2500 1 100 14:41 18.01.2020
4120 Haze 22 1014 78 2500 1 100 14:19 18.01.2020
4121 Haze 23 1014 73 2500 1 100 13:57 18.01.2020
4122 Haze 24 1014 69 2500 0.95 157 13:36 18.01.2020
4123 Haze 24 1014 69 2500 0.95 157 13:36 18.01.2020
4124 Haze 24 1014 69 2500 0.55 185 13:18 18.01.2020
4125 Haze 24 1014 69 2500 0.55 185 13:18 18.01.2020
4126 Haze 25 1014 61 2500 0.55 185 12:41 18.01.2020
4127 Haze 25 1014 61 2500 0.55 185 12:21 18.01.2020
4128 Haze 25 1014 61 2500 1 120 11:56 18.01.2020
4129 Haze 25 1014 61 2500 1 140 11:38 18.01.2020
4130 Haze 25 1014 61 2500 1 140 11:19 18.01.2020
4131 Haze 24 1015 64 2500 1 140 10:42 18.01.2020
4132 Haze 24 1015 64 2500 1 140 10:20 18.01.2020
4133 Haze 25 1015 61 2500 2.52 214 09:54 18.01.2020
4134 Haze 24 1016 64 2500 1.5 110 09:36 18.01.2020
4135 Haze 24 1016 60 2500 2.1 110 08:59 18.01.2020
4136 Haze 24 1016 60 2500 3.1 70 08:41 18.01.2020
4137 Haze 24 1016 60 2500 3.1 70 08:20 18.01.2020
4138 Haze 23 1017 60 2000 1 130 07:52 18.01.2020
4139 Haze 22 1018 60 2000 1.5 60 07:32 18.01.2020
4140 Haze 22 1018 60 2000 1.5 50 06:48 18.01.2020
4141 Haze 20 1018 64 2000 1 20 06:19 18.01.2020
4142 Haze 20 1018 64 2000 1 20 06:19 18.01.2020
4143 Mist 19 1018 72 1800 1 50 05:30 18.01.2020
4144 Mist 17 1016 88 1800 3.76 44 03:39 18.01.2020
4145 Mist 17 1015 88 2500 2.35 31 02:20 18.01.2020
4146 Mist 18 1015 82 2500 2.6 350 01:36 18.01.2020
4147 Mist 18 1014 88 2500 1 360 00:38 18.01.2020
4148 Mist 18 1014 88 2500 1 360 00:19 18.01.2020
4149 Mist 18 1014 88 2500 1.5 10 23:44 17.01.2020
4150 Haze 18 1014 93 3000 1.5 340 23:20 17.01.2020
4151 Haze 18 1014 93 3000 2.1 20 22:59 17.01.2020
4152 Haze 19 1015 88 3000 1 320 22:40 17.01.2020
4153 Haze 19 1015 88 3000 1 320 22:19 17.01.2020
4154 Haze 19 1015 88 3000 1.5 20 21:42 17.01.2020
4155 Haze 19 1015 88 3000 1.5 20 21:24 17.01.2020
4156 Haze 20 1015 82 3000 2.1 20 20:59 17.01.2020
4157 Haze 20 1015 82 3000 1 40 20:40 17.01.2020
4158 Haze 20 1015 82 3000 1 40 20:20 17.01.2020
4159 Haze 20 1016 82 3000 2.1 60 19:57 17.01.2020
4160 Haze 20 1016 88 3000 1 50 19:38 17.01.2020
4161 Haze 20 1016 88 3000 1 50 19:19 17.01.2020
4162 Haze 20 1016 88 3000 1.5 50 18:57 17.01.2020
4163 Haze 21 1016 83 3000 1.5 50 18:36 17.01.2020
4164 Haze 21 1016 83 3000 1.5 50 18:18 17.01.2020
4165 Haze 21 1016 83 3000 2.1 90 17:39 17.01.2020
4166 Haze 21 1016 83 3000 2.1 90 17:21 17.01.2020
4167 Haze 21 1016 83 3000 1.5 90 16:44 17.01.2020
4168 Haze 22 1016 78 3000 1.34 273 16:21 17.01.2020
4169 Haze 22 1016 73 3000 1.34 273 15:58 17.01.2020
4170 Haze 22 1015 73 3000 1.34 273 15:40 17.01.2020
4171 Haze 22 1015 73 3000 1.34 273 15:40 17.01.2020
4172 Haze 22 1015 73 3000 1.34 273 15:21 17.01.2020
4173 Haze 22 1014 73 2500 1.34 273 14:43 17.01.2020
4174 Haze 22 1014 73 2500 1.85 213 14:24 17.01.2020
4175 Haze 23 1014 69 2500 1 140 13:45 17.01.2020
4176 Haze 24 1014 64 2500 1.85 213 13:23 17.01.2020
4177 Haze 25 1014 57 2500 1 140 12:47 17.01.2020
4178 Haze 25 1014 57 2500 1 210 12:23 17.01.2020
4179 Haze 25 1014 57 2500 2.18 232 11:43 17.01.2020
4180 Haze 25 1014 57 2500 3.72 222 11:20 17.01.2020
4181 Haze 25 1014 57 2500 3.72 222 11:20 17.01.2020
4182 Haze 25 1014 57 2500 3.72 222 10:58 17.01.2020
4183 Haze 25 1014 57 2500 3.1 220 10:40 17.01.2020
4184 Haze 25 1014 57 2500 3.1 220 10:21 17.01.2020
4185 Haze 25 1014 57 2000 2.6 180 09:56 17.01.2020
4186 Haze 25 1015 57 2000 1.5 170 09:37 17.01.2020
4187 Haze 25 1015 57 2000 1.5 170 09:18 17.01.2020
4188 Haze 24 1016 57 2000 3.72 222 08:42 17.01.2020
4189 Haze 24 1016 57 2000 4.68 215 08:23 17.01.2020
4190 Haze 23 1016 64 2000 1.5 50 07:49 17.01.2020
4191 Haze 23 1017 60 2500 1.5 90 07:30 17.01.2020
4192 Haze 22 1017 60 2500 1 30 06:56 17.01.2020
4193 Haze 22 1017 64 2500 1.5 30 06:37 17.01.2020
4194 Haze 20 1017 64 2500 2.1 350 05:22 17.01.2020
4195 Clouds 20 1015 66 0 2.65 137 03:38 17.01.2020
4196 Clouds 20 1015 66 0 2.65 137 02:43 17.01.2020
4197 Clouds 20 1013 58 0 2.09 110 01:45 17.01.2020
4198 Clouds 19 1013 62 0 2.6 128 01:27 17.01.2020
4199 Clouds 19 1013 62 0 2.6 128 00:43 17.01.2020
4200 Haze 19 1013 72 3000 2.1 320 00:19 17.01.2020
4201 Haze 19 1013 72 3000 2.1 320 23:41 16.01.2020
4202 Haze 19 1013 72 3000 2.1 320 23:23 16.01.2020
4203 Haze 19 1014 77 3000 2.1 320 22:43 16.01.2020
4204 Haze 19 1014 77 3000 1.81 220 22:22 16.01.2020
4205 Haze 18 1014 82 3000 1.81 220 21:57 16.01.2020
4206 Haze 18 1014 77 3000 1.81 220 21:38 16.01.2020
4207 Haze 18 1014 77 3000 1.81 220 21:38 16.01.2020
4208 Haze 18 1014 77 3000 1.81 220 21:19 16.01.2020
4209 Haze 18 1014 77 3000 1.81 220 20:58 16.01.2020
4210 Haze 19 1014 72 3000 1.81 220 20:39 16.01.2020
4211 Haze 19 1014 72 3000 3.92 173 20:19 16.01.2020
4212 Haze 19 1014 72 3000 1 150 19:56 16.01.2020
4213 Haze 20 1014 68 3000 3.92 173 19:38 16.01.2020
4214 Haze 20 1014 68 3000 3.92 173 19:19 16.01.2020
4215 Haze 19 1014 72 3000 1 130 18:55 16.01.2020
4216 Haze 19 1014 72 3000 1 130 18:37 16.01.2020
4217 Haze 19 1014 72 3000 1 130 18:18 16.01.2020
4218 Haze 20 1014 68 3000 2.1 130 17:42 16.01.2020
4219 Haze 20 1014 68 3000 2.1 130 17:23 16.01.2020
4220 Haze 19 1014 72 3000 1.5 130 16:57 16.01.2020
4221 Haze 20 1014 68 3000 1.5 140 16:39 16.01.2020
4222 Haze 20 1014 68 3000 1.5 140 16:19 16.01.2020
4223 Haze 21 1013 64 3000 1.5 130 15:44 16.01.2020
4224 Haze 21 1013 64 3000 1.5 150 15:23 16.01.2020
4225 Haze 22 1013 60 3000 1.5 140 14:57 16.01.2020
4226 Haze 22 1013 60 3000 1.5 140 14:57 16.01.2020
4227 Haze 22 1013 64 3000 1.5 120 14:39 16.01.2020
4228 Haze 22 1013 64 3000 1.5 120 14:20 16.01.2020
4229 Haze 23 1013 60 3000 2.1 160 13:45 16.01.2020
4230 Haze 24 1012 57 3000 2.1 140 13:26 16.01.2020
4231 Haze 25 1012 53 4000 1.5 200 12:47 16.01.2020
4232 Haze 26 1012 50 4000 1.5 210 12:29 16.01.2020
4233 Haze 26 1012 50 4000 1.5 210 12:29 16.01.2020
4234 Haze 26 1012 50 4000 3.1 210 11:59 16.01.2020
4235 Haze 26 1012 47 4000 4.1 220 11:41 16.01.2020
4236 Haze 26 1012 47 4000 4.1 220 11:23 16.01.2020
4237 Haze 26 1012 44 4000 5.1 220 10:55 16.01.2020
4238 Haze 26 1013 47 4000 3.1 180 10:36 16.01.2020
4239 Haze 26 1013 47 4000 3.1 180 10:18 16.01.2020
4240 Haze 26 1013 47 4000 4.1 200 09:42 16.01.2020
4241 Haze 26 1013 47 3500 4.6 190 09:24 16.01.2020
4242 Haze 26 1014 47 3500 4.1 250 08:56 16.01.2020
4243 Haze 25 1014 50 3500 3.6 200 08:36 16.01.2020
4244 Haze 25 1014 50 3500 3.6 200 08:18 16.01.2020
4245 Haze 25 1016 53 2500 2.6 190 07:42 16.01.2020
4246 Haze 25 1016 53 2500 2.6 190 07:23 16.01.2020
4247 Haze 24 1016 60 2500 3.1 200 06:48 16.01.2020
4248 Haze 22 1017 68 2000 4.1 200 06:28 16.01.2020
4249 Haze 21 1017 73 2000 2.1 180 05:46 16.01.2020
4250 Mist 19 1016 88 1200 3.27 174 04:46 16.01.2020
4251 Mist 16 1015 93 1500 1 320 03:29 16.01.2020
4252 Mist 16 1014 87 2000 3.27 174 02:44 16.01.2020
4253 Haze 17 1013 88 3000 1.5 130 01:28 16.01.2020
4254 Haze 16 1013 93 3000 1.5 100 00:41 16.01.2020
4255 Haze 16 1013 93 3000 1.5 100 00:19 16.01.2020
4256 Haze 15 1013 87 3000 2.6 140 23:40 15.01.2020
4257 Haze 15 1013 87 3000 2.6 140 23:20 15.01.2020
4258 Haze 15 1013 87 3000 2.6 140 23:19 15.01.2020
4259 Haze 16 1013 93 3000 2.68 119 22:56 15.01.2020
4260 Haze 16 1013 93 3000 2.68 119 22:36 15.01.2020
4261 Haze 16 1013 93 3000 2.68 119 22:18 15.01.2020
4262 Haze 17 1013 88 3000 2.68 119 21:55 15.01.2020
4263 Haze 17 1014 88 3000 2.68 119 21:36 15.01.2020
4264 Haze 17 1014 88 3000 2.68 119 21:18 15.01.2020
4265 Haze 17 1014 88 3000 2.68 119 20:54 15.01.2020
4266 Haze 19 1014 82 3000 1 110 20:36 15.01.2020
4267 Haze 19 1014 82 3000 1 110 20:18 15.01.2020
4268 Haze 18 1014 88 3000 1 100 19:54 15.01.2020
4269 Haze 19 1015 82 3000 2.2 112 19:36 15.01.2020
4270 Haze 19 1015 82 3000 2.2 112 19:18 15.01.2020
4271 Haze 19 1015 82 3000 2.2 112 18:54 15.01.2020
4272 Haze 19 1015 82 3000 2.2 112 18:36 15.01.2020
4273 Haze 19 1015 82 3000 2.2 112 18:18 15.01.2020
4274 Haze 20 1015 72 3000 2.2 112 17:40 15.01.2020
4275 Haze 20 1015 72 3000 1.77 113 17:21 15.01.2020
4276 Haze 21 1015 73 3000 1 80 16:56 15.01.2020
4277 Haze 21 1014 73 3000 1.5 90 16:38 15.01.2020
4278 Haze 21 1014 73 3000 1.5 90 16:20 15.01.2020
4279 Haze 22 1014 68 3000 2.1 90 15:43 15.01.2020
4280 Haze 22 1014 73 3000 1.5 90 15:21 15.01.2020
4281 Haze 22 1013 73 3000 1.5 90 14:55 15.01.2020
4282 Haze 23 1013 69 3000 1.5 90 14:37 15.01.2020
4283 Haze 23 1013 69 3000 1.5 90 14:37 15.01.2020
4284 Haze 23 1013 69 3000 1.5 90 14:18 15.01.2020
4285 Haze 25 1013 61 3000 1 100 13:41 15.01.2020
4286 Haze 25 1013 61 3000 1 100 13:23 15.01.2020
4287 Haze 25 1013 61 3000 1.5 100 12:55 15.01.2020
4288 Haze 25 1013 61 3000 1.5 100 12:55 15.01.2020
4289 Haze 26 1013 57 3500 1.5 100 12:37 15.01.2020
4290 Haze 26 1013 57 3500 1.5 100 12:18 15.01.2020
4291 Haze 26 1013 57 3500 2.1 120 11:38 15.01.2020
4292 Haze 26 1013 57 3500 2.1 120 11:20 15.01.2020
4293 Haze 27 1013 54 3500 2.6 130 10:48 15.01.2020
4294 Haze 27 1013 51 3500 2.1 120 10:29 15.01.2020
4295 Haze 27 1013 51 3500 3.1 100 09:59 15.01.2020
4296 Haze 27 1014 51 3500 1.5 120 09:41 15.01.2020
4297 Haze 27 1014 51 3500 1.5 120 09:21 15.01.2020
4298 Haze 26 1014 54 3500 3.1 120 08:44 15.01.2020
4299 Haze 26 1014 54 3500 3.1 120 08:44 15.01.2020
4300 Haze 26 1015 54 3500 1.5 110 08:26 15.01.2020
4301 Haze 25 1016 57 3500 1 90 07:54 15.01.2020
4302 Haze 24 1016 57 3000 1 100 07:33 15.01.2020
4303 Haze 23 1017 60 2500 2.6 100 06:54 15.01.2020
4304 Mist 22 1017 60 2000 2.6 80 06:28 15.01.2020
4305 Mist 18 1017 77 1500 1.85 99 04:57 15.01.2020
4306 Mist 15 1016 87 1500 1.85 99 03:20 15.01.2020
4307 Mist 13 1014 93 2000 2.53 64 01:48 15.01.2020
4308 Mist 12 1014 93 2500 2.33 75 01:21 15.01.2020
4309 Mist 14 1013 93 3000 2.33 75 00:37 15.01.2020
4310 Mist 14 1013 93 3000 2.33 75 00:19 15.01.2020
4311 Haze 15 1013 87 3000 1 50 23:46 14.01.2020
4312 Haze 15 1013 87 3000 1 10 23:24 14.01.2020
4313 Haze 16 1013 82 3000 2.82 39 22:56 14.01.2020
4314 Haze 15 1014 87 3000 2.82 39 22:38 14.01.2020
4315 Haze 15 1014 87 3000 2.82 39 22:18 14.01.2020
4316 Haze 16 1014 77 3000 1 340 21:55 14.01.2020
4317 Haze 15 1014 82 3000 2.82 39 21:37 14.01.2020
4318 Haze 15 1014 82 3000 2.82 39 21:19 14.01.2020
4319 Haze 17 1014 72 3000 2.82 39 20:42 14.01.2020
4320 Haze 17 1014 72 3000 2.82 39 20:42 14.01.2020
4321 Haze 17 1014 72 3000 3.26 41 20:22 14.01.2020
4322 Haze 17 1014 72 3000 1.03 105 19:57 14.01.2020
4323 Haze 17 1014 77 3000 1.03 105 19:38 14.01.2020
4324 Haze 17 1014 77 3000 1.03 105 19:20 14.01.2020
4325 Haze 17 1014 77 3000 1.03 105 19:20 14.01.2020
4326 Haze 18 1015 72 3000 1.03 105 18:58 14.01.2020
4327 Haze 18 1015 68 3000 1.03 105 18:39 14.01.2020
4328 Haze 18 1015 68 3000 1.03 105 18:19 14.01.2020
4329 Haze 18 1015 68 3500 1.03 105 17:39 14.01.2020
4330 Haze 18 1015 68 3500 0.78 32 17:19 14.01.2020
4331 Haze 19 1015 59 3500 1 100 16:57 14.01.2020
4332 Haze 20 1014 56 3500 1.5 100 16:38 14.01.2020
4333 Haze 20 1014 56 3500 1.5 100 16:20 14.01.2020
4334 Haze 21 1014 52 3500 1.5 90 15:54 14.01.2020
4335 Clear 21 1014 36 0 0.78 32 15:36 14.01.2020
4336 Clear 21 1014 36 0 0.78 32 15:18 14.01.2020
4337 Haze 22 1013 53 3500 1.5 130 14:41 14.01.2020
4338 Haze 22 1013 53 3500 1.5 130 14:20 14.01.2020
4339 Haze 23 1013 49 4000 1 100 13:42 14.01.2020
4340 Haze 24 1013 47 4000 1 100 13:20 14.01.2020
4341 Haze 26 1012 41 4000 1 90 12:57 14.01.2020
4342 Haze 27 1012 36 4000 1 70 12:39 14.01.2020
4343 Haze 27 1012 36 4000 1 70 12:20 14.01.2020
4344 Haze 27 1012 36 4000 1 70 12:20 14.01.2020
4345 Haze 27 1012 36 4000 1 40 11:42 14.01.2020
4346 Haze 27 1012 36 4000 1 40 11:22 14.01.2020
4347 Haze 27 1012 34 4000 2.1 70 10:57 14.01.2020
4348 Haze 27 1013 32 4000 1.5 60 10:38 14.01.2020
4349 Haze 27 1013 32 4000 1.5 60 10:19 14.01.2020
4350 Haze 27 1013 36 4000 1 120 09:56 14.01.2020
4351 Haze 27 1013 34 4000 1.5 100 09:37 14.01.2020
4352 Haze 27 1013 34 4000 1.5 100 09:19 14.01.2020
4353 Haze 26 1014 36 3000 1.5 120 08:41 14.01.2020
4354 Haze 26 1014 36 3000 1.5 120 08:41 14.01.2020
4355 Haze 26 1014 36 3000 1.5 120 08:22 14.01.2020
4356 Haze 25 1015 36 2500 1 110 07:53 14.01.2020
4357 Haze 24 1016 41 2000 2.1 110 07:25 14.01.2020
4358 Haze 23 1016 43 2000 1 90 06:44 14.01.2020
4359 Haze 21 1016 49 2500 2.1 90 05:59 14.01.2020
4360 Mist 19 1016 59 2500 1.43 59 04:51 14.01.2020
4361 Mist 15 1015 77 2000 1.43 59 03:47 14.01.2020
4362 Mist 11 1014 93 2500 1.43 59 02:39 14.01.2020
4363 Haze 13 1013 82 3000 1.56 46 01:21 14.01.2020
4364 Haze 13 1013 76 3000 1.56 46 00:48 14.01.2020
4365 Haze 11 1013 87 3000 1.56 46 00:22 14.01.2020
4366 Haze 11 1013 87 3000 1.56 46 23:44 13.01.2020
4367 Haze 12 1013 81 3000 1.8 30 23:19 13.01.2020
4368 Haze 13 1013 76 3000 1.8 30 22:57 13.01.2020
4369 Haze 12 1013 81 3000 1.8 30 22:39 13.01.2020
4370 Haze 12 1013 81 3000 1.8 30 22:20 13.01.2020
4371 Haze 13 1013 82 3000 1.8 30 21:55 13.01.2020
4372 Haze 14 1014 76 3000 1.8 30 21:37 13.01.2020
4373 Haze 14 1014 76 3000 1.8 30 21:18 13.01.2020
4374 Haze 14 1014 76 3000 1.8 30 20:56 13.01.2020
4375 Haze 15 1014 77 3000 1.8 30 20:37 13.01.2020
4376 Haze 15 1014 77 3000 1.59 145 20:19 13.01.2020
4377 Haze 15 1014 72 3000 1.59 145 19:41 13.01.2020
4378 Haze 15 1014 72 3000 1.59 145 19:21 13.01.2020
4379 Haze 17 1014 63 4000 1.59 145 18:58 13.01.2020
4380 Haze 17 1014 63 4000 1.59 145 18:38 13.01.2020
4381 Haze 17 1014 63 4000 1.59 145 18:19 13.01.2020
4382 Haze 17 1014 59 4000 1.59 145 17:58 13.01.2020
4383 Haze 17 1014 59 4000 1.59 145 17:39 13.01.2020
4384 Haze 17 1014 59 4000 0.99 194 17:20 13.01.2020
4385 Clear 20 1013 30 0 0.99 194 16:43 13.01.2020
4386 Clear 20 1013 30 0 0.99 194 16:24 13.01.2020
4387 Clear 20 1013 30 0 0.99 194 15:59 13.01.2020
4388 Clear 20 1013 30 0 0.99 194 15:41 13.01.2020
4389 Clear 20 1013 30 0 0.99 194 15:21 13.01.2020
4390 Clear 20 1013 30 0 0.99 194 14:43 13.01.2020
4391 Clear 20 1013 30 0 0.99 194 14:24 13.01.2020
4392 Clear 23 1010 26 0 1.74 182 13:59 13.01.2020
4393 Clear 23 1010 26 0 1.74 182 13:40 13.01.2020
4394 Clear 23 1010 26 0 1.74 182 13:40 13.01.2020
4395 Clear 23 1010 26 0 1.74 182 13:22 13.01.2020
4396 Clear 28 1011 27 6000 1 140 12:57 13.01.2020
4397 Clear 28 1011 27 6000 1 140 12:39 13.01.2020
4398 Clear 28 1011 27 6000 1 140 12:21 13.01.2020
4399 Clear 28 1011 27 6000 1 90 11:39 13.01.2020
4400 Clear 28 1011 18 6000 1 90 11:20 13.01.2020
4401 Clear 28 1011 18 6000 2.1 140 10:57 13.01.2020
4402 Clear 27 1012 18 6000 1 180 10:39 13.01.2020
4403 Clear 27 1012 18 6000 1 180 10:20 13.01.2020
4404 Clear 27 1012 18 6000 1 180 09:56 13.01.2020
4405 Clear 27 1013 18 6000 2.1 120 09:38 13.01.2020
4406 Clear 27 1013 18 6000 2.1 120 09:19 13.01.2020
4407 Clear 26 1014 24 6000 1 180 08:39 13.01.2020
4408 Clear 26 1014 24 6000 1 180 08:20 13.01.2020
4409 Haze 25 1015 22 5000 2.1 170 07:46 13.01.2020
4410 Haze 24 1016 29 4000 1.5 240 07:27 13.01.2020
4411 Haze 22 1017 40 4000 2.1 150 06:42 13.01.2020
4412 Haze 22 1017 40 4000 2.1 150 06:19 13.01.2020
4413 Haze 18 1017 59 4000 0.27 70 05:22 13.01.2020
4414 Haze 13 1016 76 3000 0.27 70 03:52 13.01.2020
4415 Haze 10 1015 87 3000 0.27 70 03:22 13.01.2020
4416 Haze 11 1014 81 3500 1 360 02:39 13.01.2020
4417 Haze 11 1014 81 3500 1 360 02:18 13.01.2020
4418 Haze 11 1013 76 3500 1 320 00:59 13.01.2020
4419 Haze 11 1013 81 3500 1.5 10 00:40 13.01.2020
4420 Haze 11 1013 81 3500 1.5 10 00:21 13.01.2020
4421 Haze 10 1013 81 3500 1 360 23:41 12.01.2020
4422 Haze 10 1013 81 3500 1 360 23:23 12.01.2020
4423 Haze 10 1014 81 3500 1.5 320 22:57 12.01.2020
4424 Haze 10 1014 81 3500 1.1 347 22:39 12.01.2020
4425 Haze 10 1014 81 3500 1.1 347 22:20 12.01.2020
4426 Haze 10 1014 81 3500 1.1 347 21:55 12.01.2020
4427 Haze 12 1014 76 3500 1 350 21:37 12.01.2020
4428 Haze 12 1014 76 3500 1 350 21:19 12.01.2020
4429 Haze 12 1014 76 3500 1.1 347 20:55 12.01.2020
4430 Haze 13 1015 71 3500 1.1 347 20:37 12.01.2020
4431 Haze 13 1015 71 3500 0.64 279 20:19 12.01.2020
4432 Haze 13 1015 71 3500 0.39 317 19:55 12.01.2020
4433 Haze 13 1016 71 3500 1 320 19:36 12.01.2020
4434 Haze 13 1016 71 3500 1 320 19:18 12.01.2020
4435 Haze 14 1016 67 3500 1 320 18:56 12.01.2020
4436 Haze 15 1016 58 3500 0.39 317 18:38 12.01.2020
4437 Haze 15 1016 58 3500 0.39 317 18:19 12.01.2020
4438 Haze 15 1016 58 3500 0.39 317 17:42 12.01.2020
4439 Haze 15 1016 58 3500 1.15 133 17:21 12.01.2020
4440 Haze 15 1016 54 3500 1.15 133 16:58 12.01.2020
4441 Haze 15 1016 51 3500 1.15 133 16:38 12.01.2020
4442 Haze 15 1016 51 3500 1.15 133 16:20 12.01.2020
4443 Haze 18 1016 42 3500 1.15 133 15:55 12.01.2020
4444 Haze 18 1016 42 3500 1.15 133 15:55 12.01.2020
4445 Haze 16 1015 55 3500 1.15 133 15:36 12.01.2020
4446 Haze 16 1015 55 3500 1.15 133 15:18 12.01.2020
4447 Haze 19 1015 34 4000 1.15 133 14:42 12.01.2020
4448 Haze 19 1015 34 4000 1.36 71 14:22 12.01.2020
4449 Haze 20 1015 32 4000 1.36 71 13:56 12.01.2020
4450 Haze 23 1015 27 5000 1.36 71 13:38 12.01.2020
4451 Haze 24 1015 29 5000 1.5 70 13:20 12.01.2020
4452 Haze 24 1015 29 5000 1.5 70 13:20 12.01.2020
4453 Haze 24 1015 29 5000 1.5 70 12:44 12.01.2020
4454 Haze 25 1014 23 5000 1.48 73 12:21 12.01.2020
4455 Haze 25 1014 23 5000 1.48 73 11:59 12.01.2020
4456 Haze 25 1014 23 5000 1.48 73 11:59 12.01.2020
4457 Haze 25 1014 22 5000 1 60 11:40 12.01.2020
4458 Haze 25 1014 22 5000 1 60 11:21 12.01.2020
4459 Haze 25 1015 22 4000 1 70 10:43 12.01.2020
4460 Haze 25 1015 22 4000 1 70 10:23 12.01.2020
4461 Haze 25 1015 20 4000 1 30 09:59 12.01.2020
4462 Haze 24 1016 31 4000 1 90 09:41 12.01.2020
4463 Haze 24 1016 31 4000 1 90 09:21 12.01.2020
4464 Haze 23 1017 35 4000 1.84 23 08:47 12.01.2020
4465 Haze 23 1017 33 4000 2.5 47 08:21 12.01.2020
4466 Haze 23 1017 33 4000 2.5 47 08:21 12.01.2020
4467 Haze 21 1019 40 4000 1.5 50 07:45 12.01.2020
4468 Haze 21 1019 40 4000 1.5 50 07:25 12.01.2020
4469 Haze 20 1019 42 3500 2.1 70 06:50 12.01.2020
4470 Haze 19 1019 45 3500 1.5 70 06:32 12.01.2020
4471 Haze 18 1019 48 3500 1 50 05:47 12.01.2020
4472 Haze 16 1020 59 3000 1.5 40 04:52 12.01.2020
4473 Mist 11 1019 81 2500 2.1 10 03:29 12.01.2020
4474 Mist 9 1018 87 3000 1 10 02:34 12.01.2020
4475 Mist 9 1018 87 3000 1 10 02:34 12.01.2020
4476 Mist 11 1018 81 3000 1 10 01:58 12.01.2020
4477 Mist 11 1017 81 3000 1.5 10 01:30 12.01.2020
4478 Mist 11 1017 87 2500 1.5 10 00:44 12.01.2020
4479 Mist 11 1017 81 2500 1.5 10 00:21 12.01.2020
4480 Haze 12 1017 81 2500 1 10 23:55 11.01.2020
4481 Haze 11 1017 87 2500 2.37 31 23:37 11.01.2020
4482 Haze 11 1017 87 2500 2.56 27 23:18 11.01.2020
4483 Haze 11 1018 87 2500 2.56 27 22:42 11.01.2020
4484 Haze 11 1018 87 2500 2.56 27 22:21 11.01.2020
4485 Haze 11 1018 87 2500 2.56 27 21:59 11.01.2020
4486 Haze 11 1018 87 2500 2.56 27 21:41 11.01.2020
4487 Haze 11 1018 87 2500 2.56 27 21:18 11.01.2020
4488 Haze 12 1019 81 2500 2.56 27 20:55 11.01.2020
4489 Haze 12 1019 81 2500 2.56 27 20:36 11.01.2020
4490 Haze 12 1019 81 2500 1.72 25 20:18 11.01.2020
4491 Haze 13 1019 76 2500 1.87 31 19:54 11.01.2020
4492 Haze 11 1019 81 2500 1.87 31 19:36 11.01.2020
4493 Haze 11 1019 81 2500 1.87 31 19:18 11.01.2020
4494 Haze 13 1019 76 3500 1.87 31 18:39 11.01.2020
4495 Haze 13 1019 76 3500 1.87 31 18:20 11.01.2020
4496 Haze 13 1019 76 3500 1.87 31 18:20 11.01.2020
4497 Haze 14 1019 71 3500 1.87 31 17:58 11.01.2020
4498 Haze 14 1019 71 3500 1.87 31 17:58 11.01.2020
4499 Haze 14 1019 67 3500 1.87 31 17:40 11.01.2020
4500 Haze 14 1019 67 3500 1.44 77 17:20 11.01.2020
4501 Haze 14 1019 71 3500 1.44 77 16:46 11.01.2020
4502 Haze 16 1018 59 3500 2.1 90 16:28 11.01.2020
4503 Haze 17 1018 55 3500 2.1 90 15:59 11.01.2020
4504 Haze 17 1018 55 3500 2.1 70 15:41 11.01.2020
4505 Haze 17 1018 55 3500 2.1 70 15:22 11.01.2020
4506 Haze 17 1018 55 3500 2.1 70 15:22 11.01.2020
4507 Haze 17 1017 55 3500 1.5 70 14:58 11.01.2020
4508 Haze 17 1017 55 3500 2.1 80 14:39 11.01.2020
4509 Haze 17 1017 55 3500 2.1 80 14:21 11.01.2020
4510 Haze 20 1017 49 3500 1.5 80 13:41 11.01.2020
4511 Haze 20 1017 49 3500 1.5 80 13:21 11.01.2020
4512 Haze 22 1017 37 3500 1 80 12:59 11.01.2020
4513 Haze 23 1017 35 3500 1.21 45 12:41 11.01.2020
4514 Haze 23 1017 35 3500 1.21 45 12:41 11.01.2020
4515 Haze 23 1017 35 3500 1.21 45 12:23 11.01.2020
4516 Haze 23 1017 33 3500 1 100 11:48 11.01.2020
4517 Haze 23 1017 31 3500 1.21 45 11:26 11.01.2020
4518 Haze 23 1017 33 3500 1.5 70 10:51 11.01.2020
4519 Haze 22 1017 37 3500 2.1 110 10:30 11.01.2020
4520 Haze 22 1018 35 3500 1.74 49 09:58 11.01.2020
4521 Haze 21 1019 43 3500 1.5 80 09:38 11.01.2020
4522 Haze 21 1019 43 3500 1.5 80 09:20 11.01.2020
4523 Haze 20 1020 42 3500 2.6 60 08:42 11.01.2020
4524 Haze 20 1020 42 3500 2.6 60 08:21 11.01.2020
4525 Haze 19 1021 45 3500 1 100 07:44 11.01.2020
4526 Haze 19 1021 45 3500 1 90 07:25 11.01.2020
4527 Haze 18 1022 45 3500 2.1 80 06:50 11.01.2020
4528 Haze 15 1022 54 3500 1.5 50 05:40 11.01.2020
4529 Mist 12 1021 66 3000 1.5 20 04:46 11.01.2020
4530 Mist 12 1021 66 3000 1.5 20 04:27 11.01.2020
4531 Mist 9 1020 81 2500 1.5 20 02:49 11.01.2020
4532 Mist 9 1020 81 2500 1.5 20 02:49 11.01.2020
4533 Mist 9 1019 81 2500 1.5 20 02:20 11.01.2020
4534 Mist 8 1019 81 2500 3.25 3 01:42 11.01.2020
4535 Mist 8 1019 81 2500 2.92 9 01:18 11.01.2020
4536 Mist 7 1019 87 2500 1 30 00:38 11.01.2020
4537 Haze 9 1019 76 3000 1.5 10 23:59 10.01.2020
4538 Haze 11 1019 66 3000 2.1 10 23:40 10.01.2020
4539 Haze 11 1019 66 3000 2.1 10 23:40 10.01.2020
4540 Haze 11 1019 66 3000 2.1 10 23:21 10.01.2020
4541 Haze 11 1019 66 3000 1.5 20 22:56 10.01.2020
4542 Haze 11 1019 66 3000 1.5 20 22:38 10.01.2020
4543 Haze 11 1019 66 3000 1.5 20 22:19 10.01.2020
4544 Haze 12 1019 62 3000 2.6 20 21:55 10.01.2020
4545 Haze 13 1019 58 3000 3.1 20 21:36 10.01.2020
4546 Haze 13 1019 58 3000 3.1 20 21:18 10.01.2020
4547 Haze 13 1019 58 3000 2.1 20 20:42 10.01.2020
4548 Haze 13 1019 58 3000 2.1 20 20:24 10.01.2020
4549 Haze 13 1019 58 3000 2.1 20 20:24 10.01.2020
4550 Haze 13 1019 58 3000 1.5 30 19:55 10.01.2020
4551 Haze 13 1020 62 3000 1.5 30 19:37 10.01.2020
4552 Haze 13 1020 62 3000 1.5 30 19:19 10.01.2020
4553 Haze 13 1020 66 3000 1 60 18:41 10.01.2020
4554 Haze 13 1020 66 3000 1 60 18:19 10.01.2020
4555 Mist 14 1019 62 3000 2.1 30 17:57 10.01.2020
4556 Mist 15 1019 62 3000 1.5 80 17:38 10.01.2020
4557 Mist 15 1019 62 3000 1.5 80 17:20 10.01.2020
4558 Haze 16 1019 59 3500 1.5 80 17:20 10.01.2020
4559 Haze 16 1019 59 3500 1.5 80 16:55 10.01.2020
4560 Haze 16 1019 59 3500 1.5 80 16:37 10.01.2020
4561 Haze 16 1019 59 3500 1.5 80 16:19 10.01.2020
4562 Haze 16 1018 67 3500 1.5 80 15:55 10.01.2020
4563 Haze 17 1018 63 3500 2.1 90 15:36 10.01.2020
4564 Haze 17 1018 63 3500 2.1 90 15:18 10.01.2020
4565 Haze 18 1017 59 3500 1 90 14:42 10.01.2020
4566 Haze 18 1017 59 3500 1 90 14:20 10.01.2020
4567 Haze 18 1017 59 3500 2.23 18 13:59 10.01.2020
4568 Haze 20 1017 52 3500 1.5 120 13:41 10.01.2020
4569 Haze 20 1017 52 3500 1.5 120 13:23 10.01.2020
4570 Haze 22 1017 40 3500 1 60 12:58 10.01.2020
4571 Haze 22 1016 40 3500 1.5 50 12:38 10.01.2020
4572 Haze 22 1016 40 3500 1.5 50 12:19 10.01.2020
4573 Haze 23 1016 35 3500 1.5 60 11:54 10.01.2020
4574 Haze 23 1016 38 3500 2.1 40 11:36 10.01.2020
4575 Haze 22 1017 37 3500 1.5 50 11:18 10.01.2020
4576 Haze 22 1017 40 3500 1 60 10:42 10.01.2020
4577 Haze 22 1017 40 3500 1 60 10:24 10.01.2020
4578 Haze 22 1017 40 3500 1 80 09:56 10.01.2020
4579 Haze 21 1018 43 3500 1.5 60 09:37 10.01.2020
4580 Haze 21 1018 43 3500 1.5 60 09:19 10.01.2020
4581 Haze 19 1019 42 3500 2.1 60 08:41 10.01.2020
4582 Haze 19 1019 42 3500 2.1 60 08:22 10.01.2020
4583 Haze 18 1020 48 3500 1.5 50 07:44 10.01.2020
4584 Haze 18 1020 45 3500 1.5 60 07:24 10.01.2020
4585 Haze 17 1021 48 3500 2.1 30 06:45 10.01.2020
4586 Haze 16 1021 51 3500 2.6 60 06:25 10.01.2020
4587 Haze 14 1021 54 3500 2.6 50 05:46 10.01.2020
4588 Haze 11 1019 66 3000 3.1 20 03:37 10.01.2020
4589 Haze 11 1019 66 3000 3.1 20 03:18 10.01.2020
4590 Haze 11 1018 71 3000 2.6 20 02:39 10.01.2020
4591 Haze 12 1018 66 3000 2.6 20 01:38 10.01.2020
4592 Haze 12 1018 66 3000 2.6 20 01:19 10.01.2020
4593 Haze 13 1017 62 3000 3.1 30 00:39 10.01.2020
4594 Haze 13 1018 62 3000 2.1 30 23:58 09.01.2020
4595 Haze 13 1018 66 3000 2.1 30 23:38 09.01.2020
4596 Haze 13 1018 66 3000 2.1 30 23:20 09.01.2020
4597 Haze 13 1018 66 3000 2.6 20 22:57 09.01.2020
4598 Haze 14 1018 62 3000 1.5 30 22:37 09.01.2020
4599 Haze 14 1018 62 3000 1.5 30 22:19 09.01.2020
4600 Haze 14 1018 62 3000 2.1 20 21:57 09.01.2020
4601 Haze 15 1018 58 3000 3.1 20 21:37 09.01.2020
4602 Haze 15 1018 58 3000 3.1 20 21:37 09.01.2020
4603 Haze 15 1018 58 3000 3.1 20 21:37 09.01.2020
4604 Haze 15 1018 58 3000 3.1 20 21:37 09.01.2020
4605 Haze 15 1018 58 3000 3.1 20 21:37 09.01.2020
4606 Haze 15 1018 58 3000 3.1 20 21:19 09.01.2020
4607 Haze 15 1018 62 3000 2.6 20 20:56 09.01.2020
4608 Haze 15 1018 62 3000 2.6 20 20:38 09.01.2020
4609 Haze 15 1018 67 3000 3.1 20 20:19 09.01.2020
4610 Haze 16 1018 63 3000 3.6 20 19:56 09.01.2020
4611 Haze 16 1019 63 3000 2.6 30 19:37 09.01.2020
4612 Haze 16 1019 63 3000 2.6 30 19:18 09.01.2020
4613 Haze 16 1019 63 3000 3.1 20 18:54 09.01.2020
4614 Haze 17 1019 63 3000 2.1 20 18:36 09.01.2020
4615 Haze 17 1019 63 3000 2.1 20 18:18 09.01.2020
4616 Haze 17 1019 63 3000 2.1 20 17:41 09.01.2020
4617 Haze 18 1019 59 3000 3.1 30 17:18 09.01.2020
4618 Haze 18 1019 59 3000 3.1 30 17:18 09.01.2020
4619 Haze 18 1018 63 3000 2.6 30 16:47 09.01.2020
4620 Haze 19 1018 68 3000 2.1 40 16:23 09.01.2020
4621 Haze 19 1018 68 3000 2.1 40 16:23 09.01.2020
4622 Haze 19 1018 68 3000 2.1 40 16:23 09.01.2020
4623 Haze 19 1018 72 3000 3.1 60 15:56 09.01.2020
4624 Haze 19 1018 72 3000 3.1 60 15:56 09.01.2020
4625 Haze 19 1018 72 3000 3.1 60 15:56 09.01.2020
4626 Haze 20 1017 68 3000 1.5 50 15:38 09.01.2020
4627 Haze 20 1017 68 3000 1.5 50 15:18 09.01.2020
4628 Haze 20 1016 64 2500 2.1 60 14:41 09.01.2020
4629 Haze 20 1016 64 2500 2.1 60 14:21 09.01.2020
4630 Haze 21 1016 60 2500 1 20 13:57 09.01.2020
4631 Haze 21 1016 60 2500 1 20 13:39 09.01.2020
4632 Haze 22 1016 60 2500 1 20 13:20 09.01.2020
4633 Haze 22 1016 60 2500 2.1 20 12:58 09.01.2020
4634 Haze 22 1016 60 2500 2.1 20 12:58 09.01.2020
4635 Haze 23 1015 56 2500 1.5 30 12:38 09.01.2020
4636 Haze 23 1015 56 2500 1.5 30 12:19 09.01.2020
4637 Haze 23 1015 53 2500 1.5 30 11:55 09.01.2020
4638 Haze 24 1015 50 2500 1.5 50 11:37 09.01.2020
4639 Haze 24 1015 50 2500 1.5 50 11:19 09.01.2020
4640 Haze 24 1015 50 2500 2.1 50 10:42 09.01.2020
4641 Haze 24 1015 50 2500 2.1 50 10:22 09.01.2020
4642 Haze 23 1016 53 2500 3.1 40 09:49 09.01.2020
4643 Haze 23 1016 53 2500 3.1 20 09:26 09.01.2020
4644 Haze 23 1016 56 2000 3.1 40 09:00 09.01.2020
4645 Haze 23 1016 56 2000 3.1 40 08:40 09.01.2020
4646 Haze 22 1017 60 2000 3.1 60 08:22 09.01.2020
4647 Haze 22 1018 64 2000 2.6 50 07:57 09.01.2020
4648 Haze 21 1018 68 2000 3.6 360 07:38 09.01.2020
4649 Haze 21 1018 68 2000 3.6 360 07:19 09.01.2020
4650 Haze 20 1018 72 2000 2.1 10 06:38 09.01.2020
4651 Haze 20 1018 72 2000 2.1 10 06:18 09.01.2020
4652 Mist 19 1018 77 1500 4.1 10 05:40 09.01.2020
4653 Mist 19 1018 82 1000 2.1 10 04:42 09.01.2020
4654 Fog 17 1016 100 1000 1 10 03:28 09.01.2020
4655 Fog 18 1016 93 1000 2.1 10 02:47 09.01.2020
4656 Fog 18 1015 100 1000 2.1 360 01:56 09.01.2020
4657 Fog 18 1014 100 1000 2.6 340 01:34 09.01.2020
4658 Fog 18 1014 100 1000 3.1 340 00:40 09.01.2020
4659 Fog 18 1014 100 1000 2.6 340 00:19 09.01.2020
4660 Fog 18 1013 100 1000 1 330 23:41 08.01.2020
4661 Fog 18 1013 100 1000 2.1 340 23:23 08.01.2020
4662 Fog 17 1013 100 1000 1 320 22:56 08.01.2020
4663 Fog 18 1013 100 1000 1 330 22:38 08.01.2020
4664 Fog 18 1013 100 1000 1 330 22:19 08.01.2020
4665 Fog 18 1014 100 1000 3.04 39 21:55 08.01.2020
4666 Fog 18 1014 100 1000 3.04 39 21:37 08.01.2020
4667 Fog 18 1014 100 1000 3.04 39 21:18 08.01.2020
4668 Fog 18 1014 100 1000 3.04 39 20:55 08.01.2020
4669 Rain 18 1014 100 1000 3.04 39 20:37 08.01.2020
4670 Rain 18 1014 100 1000 1.88 24 20:18 08.01.2020
4671 Rain 18 1015 100 1000 1.5 280 19:39 08.01.2020
4672 Rain 18 1015 93 1000 1.5 360 19:20 08.01.2020
4673 Fog 18 1015 93 1000 2.1 340 18:58 08.01.2020
4674 Fog 18 1015 93 1000 2.1 340 18:39 08.01.2020
4675 Fog 18 1015 93 1000 1 20 18:19 08.01.2020
4676 Fog 18 1015 93 1000 1 20 18:19 08.01.2020
4677 Fog 18 1015 93 1000 1 60 17:58 08.01.2020
4678 Fog 18 1015 93 1000 1 10 17:39 08.01.2020
4679 Fog 18 1015 93 1000 1 10 17:20 08.01.2020
4680 Fog 18 1015 93 1000 1 60 16:57 08.01.2020
4681 Fog 18 1015 93 1000 1 60 16:57 08.01.2020
4682 Fog 18 1015 100 1000 1.5 50 16:38 08.01.2020
4683 Fog 18 1015 100 1000 1.5 50 16:19 08.01.2020
4684 Fog 18 1014 100 1000 1 40 15:45 08.01.2020
4685 Fog 18 1014 100 1000 1 30 15:22 08.01.2020
4686 Fog 18 1014 100 1000 1.5 30 14:59 08.01.2020
4687 Fog 18 1014 100 1000 1.5 30 14:40 08.01.2020
4688 Mist 18 1013 100 1200 1 60 14:21 08.01.2020
4689 Mist 19 1013 88 1200 1 70 13:42 08.01.2020
4690 Mist 19 1013 88 1200 1 70 13:22 08.01.2020
4691 Mist 19 1013 88 1200 2.63 41 12:55 08.01.2020
4692 Mist 20 1012 82 1200 1.5 80 12:37 08.01.2020
4693 Mist 20 1012 82 1200 1.5 80 12:18 08.01.2020
4694 Mist 20 1012 82 1200 1.5 80 12:18 08.01.2020
4695 Mist 19 1012 88 1200 1.5 90 11:48 08.01.2020
4696 Mist 20 1012 82 1200 2.1 40 11:19 08.01.2020
4697 Mist 19 1013 88 1200 2.1 70 10:59 08.01.2020
4698 Mist 19 1013 88 1200 2.1 70 10:40 08.01.2020
4699 Mist 19 1013 88 1200 1.5 60 10:21 08.01.2020
4700 Mist 19 1013 88 1200 1.5 30 09:43 08.01.2020
4701 Mist 19 1014 88 1200 1 40 09:20 08.01.2020
4702 Mist 19 1014 88 1200 1 40 08:59 08.01.2020
4703 Mist 19 1014 88 1200 1 40 08:41 08.01.2020
4704 Rain 18 1015 93 1000 2.09 87 08:22 08.01.2020
4705 Rain 18 1015 93 1000 2.25 94 07:58 08.01.2020
4706 Rain 18 1015 93 1000 2.25 94 07:39 08.01.2020
4707 Rain 18 1016 93 0 2.25 94 07:18 08.01.2020
4708 Mist 18 1016 88 1500 2.25 94 06:41 08.01.2020
4709 Mist 18 1017 88 1500 1 10 05:56 08.01.2020
4710 Mist 17 1017 93 1500 1 20 05:26 08.01.2020
4711 Rain 18 1016 82 1500 1.5 40 04:36 08.01.2020
4712 Haze 17 1014 88 2500 2.09 45 02:46 08.01.2020
4713 Haze 17 1013 88 2500 2.09 45 02:28 08.01.2020
4714 Haze 18 1014 77 2500 1.5 360 01:56 08.01.2020
4715 Haze 17 1013 88 2500 1.41 110 01:30 08.01.2020
4716 Haze 17 1013 88 2500 1.5 30 00:51 08.01.2020
4717 Haze 18 1013 82 2500 2.57 22 00:22 08.01.2020
4718 Haze 18 1013 82 2500 2.57 22 23:46 07.01.2020
4719 Haze 19 1013 72 2500 3.49 114 23:21 07.01.2020
4720 Haze 19 1013 72 2500 3.49 114 23:21 07.01.2020
4721 Haze 18 1013 77 2500 1.5 80 22:41 07.01.2020
4722 Haze 19 1014 72 2500 3.49 114 22:21 07.01.2020
4723 Haze 19 1014 72 2500 3.49 114 21:59 07.01.2020
4724 Haze 19 1014 72 2500 3.49 114 21:59 07.01.2020
4725 Haze 19 1014 72 2500 3.49 114 21:41 07.01.2020
4726 Haze 19 1015 72 2500 3.49 114 21:21 07.01.2020
4727 Haze 18 1015 82 2500 3.49 114 20:57 07.01.2020
4728 Haze 18 1015 82 2500 3.49 114 20:39 07.01.2020
4729 Haze 18 1015 82 2500 3.49 114 20:39 07.01.2020
4730 Haze 19 1015 77 2500 2.44 114 20:21 07.01.2020
4731 Haze 18 1015 82 2500 2.44 114 19:56 07.01.2020
4732 Haze 18 1015 77 3000 2.44 114 19:37 07.01.2020
4733 Haze 18 1015 77 3000 2.44 114 19:18 07.01.2020
4734 Haze 19 1016 72 3000 2.44 114 18:55 07.01.2020
4735 Haze 20 1016 68 3000 2.44 114 18:37 07.01.2020
4736 Haze 20 1016 68 3000 2.44 114 18:18 07.01.2020
4737 Haze 20 1016 68 3000 2.44 114 17:41 07.01.2020
4738 Haze 20 1016 68 3000 2.44 114 17:23 07.01.2020
4739 Haze 20 1016 68 3000 1.58 126 16:58 07.01.2020
4740 Haze 20 1016 72 3000 1.58 126 16:38 07.01.2020
4741 Haze 20 1016 72 3000 1.58 126 16:19 07.01.2020
4742 Haze 21 1016 68 3000 1.58 126 15:59 07.01.2020
4743 Haze 21 1016 68 3000 1.58 126 15:41 07.01.2020
4744 Haze 21 1016 68 3000 1 50 15:23 07.01.2020
4745 Haze 21 1016 68 3000 1.5 50 14:56 07.01.2020
4746 Haze 21 1015 64 3000 1.58 126 14:37 07.01.2020
4747 Haze 21 1015 64 3000 0.95 246 14:19 07.01.2020
4748 Haze 22 1015 60 3000 0.95 246 13:40 07.01.2020
4749 Haze 23 1014 64 3000 1.28 266 13:19 07.01.2020
4750 Haze 23 1014 56 3000 1.28 266 12:42 07.01.2020
4751 Haze 23 1014 56 3000 1.28 266 12:42 07.01.2020
4752 Haze 24 1014 57 3000 1.28 266 12:21 07.01.2020
4753 Haze 24 1014 53 3000 1.28 266 11:58 07.01.2020
4754 Haze 24 1014 50 3000 1.28 266 11:38 07.01.2020
4755 Haze 24 1014 50 3000 2.6 221 11:20 07.01.2020
4756 Haze 25 1014 47 3000 1 50 10:42 07.01.2020
4757 Haze 25 1014 47 3000 1 50 10:42 07.01.2020
4758 Haze 24 1015 47 3000 1 50 10:24 07.01.2020
4759 Haze 24 1015 47 3000 1 60 09:59 07.01.2020
4760 Haze 24 1016 47 3000 1 120 09:38 07.01.2020
4761 Haze 24 1016 47 3000 1 120 09:20 07.01.2020
4762 Mist 24 1016 44 3000 1.5 90 08:46 07.01.2020
4763 Mist 23 1017 46 3000 1.5 70 08:26 07.01.2020
4764 Mist 22 1018 49 3000 2.1 70 07:54 07.01.2020
4765 Mist 22 1018 46 3000 1.5 100 07:28 07.01.2020
4766 Mist 21 1019 49 3000 1.5 70 06:54 07.01.2020
4767 Mist 20 1019 52 3000 1 50 06:34 07.01.2020
4768 Mist 19 1019 59 3000 1 40 05:55 07.01.2020
4769 Mist 17 1019 67 2500 1 20 04:41 07.01.2020
4770 Mist 17 1019 67 2500 1 20 04:41 07.01.2020
4771 Mist 13 1018 87 3000 1 10 03:29 07.01.2020
4772 Mist 14 1018 82 3000 2.82 49 02:22 07.01.2020
4773 Mist 14 1017 82 3000 1.5 20 01:54 07.01.2020
4774 Mist 13 1017 87 3000 2.75 36 01:30 07.01.2020
4775 Mist 13 1017 87 3000 2.81 33 00:37 07.01.2020
4776 Mist 13 1017 87 3000 2.81 33 00:18 07.01.2020
4777 Mist 14 1017 82 3000 2.81 33 23:55 06.01.2020
4778 Mist 15 1017 77 3000 1 20 23:36 06.01.2020
4779 Mist 15 1017 77 3000 1 20 23:18 06.01.2020
4780 Mist 15 1017 77 3000 1 20 22:42 06.01.2020
4781 Mist 15 1017 77 3000 1 60 22:22 06.01.2020
4782 Mist 15 1018 77 3000 2.02 62 21:56 06.01.2020
4783 Mist 15 1018 77 3000 1.5 50 21:38 06.01.2020
4784 Mist 15 1018 77 3000 1.5 50 21:20 06.01.2020
4785 Mist 15 1018 77 3000 2.02 62 20:56 06.01.2020
4786 Mist 15 1019 77 3000 1 60 20:37 06.01.2020
4787 Mist 15 1019 77 3000 1 60 20:19 06.01.2020
4788 Mist 15 1019 77 3000 2.23 54 19:55 06.01.2020
4789 Mist 16 1019 72 3000 2.23 54 19:37 06.01.2020
4790 Mist 16 1019 72 3000 2.23 54 19:18 06.01.2020
4791 Mist 17 1019 67 3000 2.23 54 18:45 06.01.2020
4792 Mist 17 1020 67 3000 2.23 54 18:21 06.01.2020
4793 Mist 17 1020 67 3000 2.23 54 17:40 06.01.2020
4794 Mist 17 1020 67 3000 1.47 12 17:20 06.01.2020
4795 Mist 17 1020 67 3000 1.47 12 17:20 06.01.2020
4796 Mist 17 1020 67 3000 1.47 12 16:59 06.01.2020
4797 Mist 17 1020 67 3000 1.47 12 16:41 06.01.2020
4798 Mist 17 1019 72 3000 1.47 12 16:23 06.01.2020
4799 Haze 17 1019 72 3000 1.47 12 15:59 06.01.2020
4800 Haze 19 1019 59 3000 1.47 12 15:37 06.01.2020
4801 Haze 19 1019 59 3000 1.47 12 15:18 06.01.2020
4802 Haze 19 1019 59 3000 1.47 12 15:18 06.01.2020
4803 Haze 19 1018 59 4000 1.5 60 14:42 06.01.2020
4804 Haze 20 1018 56 4000 1 60 14:22 06.01.2020
4805 Haze 21 1018 52 4000 1 40 13:59 06.01.2020
4806 Haze 21 1018 52 4000 1 40 13:39 06.01.2020
4807 Haze 22 1017 49 5000 1 50 13:21 06.01.2020
4808 Haze 23 1017 46 5000 1 90 12:56 06.01.2020
4809 Haze 23 1017 43 5000 1 100 12:37 06.01.2020
4810 Haze 23 1017 43 5000 1 100 12:19 06.01.2020
4811 Haze 23 1017 43 5000 1 100 12:19 06.01.2020
4812 Haze 23 1017 40 5000 1.5 120 11:43 06.01.2020
4813 Haze 23 1017 40 5000 1.5 120 11:43 06.01.2020
4814 Haze 23 1017 40 5000 1.5 90 11:24 06.01.2020
4815 Haze 23 1017 40 5000 1.5 90 11:24 06.01.2020
4816 Haze 23 1017 40 5000 1.5 110 10:59 06.01.2020
4817 Haze 23 1017 40 5000 1.5 110 10:59 06.01.2020
4818 Haze 23 1017 40 5000 1.5 110 10:40 06.01.2020
4819 Haze 23 1017 40 5000 1.5 100 10:20 06.01.2020
4820 Haze 23 1017 40 5000 2.6 100 09:39 06.01.2020
4821 Haze 23 1018 43 5000 2.1 60 09:20 06.01.2020
4822 Haze 22 1018 46 5000 3.1 100 08:52 06.01.2020
4823 Haze 22 1019 49 5000 2.6 90 08:34 06.01.2020
4824 Haze 21 1020 52 4000 2.1 60 07:57 06.01.2020
4825 Haze 20 1021 52 4000 2.6 110 07:37 06.01.2020
4826 Haze 20 1021 52 4000 2.6 110 06:47 06.01.2020
4827 Haze 19 1021 55 4000 3.6 90 06:27 06.01.2020
4828 Haze 18 1021 63 3500 2.6 90 05:48 06.01.2020
4829 Haze 16 1022 72 3000 1 40 04:53 06.01.2020
4830 Haze 15 1021 72 3000 1.5 50 04:20 06.01.2020
4831 Haze 10 1020 93 3000 3.43 55 02:58 06.01.2020
4832 Haze 9 1019 93 3500 2.82 23 02:24 06.01.2020
4833 Haze 10 1019 87 4000 2.82 23 01:45 06.01.2020
4834 Haze 11 1019 87 4000 1 10 01:27 06.01.2020
4835 Haze 11 1018 87 4000 2.71 27 00:44 06.01.2020
4836 Haze 11 1018 87 4000 2.71 27 00:24 06.01.2020
4837 Haze 11 1018 87 4000 2.71 27 23:43 05.01.2020
4838 Haze 11 1018 87 4000 2.71 27 23:43 05.01.2020
4839 Haze 11 1018 87 4000 1 320 23:23 05.01.2020
4840 Haze 12 1019 81 4000 3.48 19 22:58 05.01.2020
4841 Haze 12 1019 81 4000 3.48 19 22:39 05.01.2020
4842 Haze 12 1019 87 3500 3.48 19 22:20 05.01.2020
4843 Haze 13 1019 76 3500 1.5 20 21:55 05.01.2020
4844 Haze 10 1019 87 3500 1 30 21:37 05.01.2020
4845 Haze 10 1019 87 3500 1 30 21:19 05.01.2020
4846 Haze 14 1018 76 3500 1.5 20 20:55 05.01.2020
4847 Haze 15 1019 72 3500 1 20 20:37 05.01.2020
4848 Haze 15 1019 72 3500 1 20 20:19 05.01.2020
4849 Haze 15 1019 72 4000 1.5 10 19:56 05.01.2020
4850 Haze 15 1019 72 4000 1.5 10 19:37 05.01.2020
4851 Haze 15 1019 72 4000 1.5 10 19:18 05.01.2020
4852 Haze 16 1019 67 4000 1.5 10 18:54 05.01.2020
4853 Haze 16 1019 67 4000 1.5 10 18:36 05.01.2020
4854 Haze 16 1019 67 4000 1.5 10 18:18 05.01.2020
4855 Haze 16 1019 67 4000 1 20 17:55 05.01.2020
4856 Haze 16 1019 67 4000 1 20 17:55 05.01.2020
4857 Haze 16 1019 67 4000 1 20 17:55 05.01.2020
4858 Haze 17 1019 63 4000 1 30 17:37 05.01.2020
4859 Haze 17 1019 63 4000 1 30 17:18 05.01.2020
4860 Haze 17 1019 63 4000 1 40 16:54 05.01.2020
4861 Haze 16 1019 67 4000 2.01 21 16:36 05.01.2020
4862 Haze 16 1019 67 4000 2.01 21 16:18 05.01.2020
4863 Haze 17 1018 59 4000 2.01 21 15:36 05.01.2020
4864 Haze 17 1018 59 4000 2.01 21 15:18 05.01.2020
4865 Haze 18 1018 55 4000 2.01 21 14:54 05.01.2020
4866 Haze 18 1017 55 4000 2.01 21 14:36 05.01.2020
4867 Haze 18 1017 55 4000 2.44 73 14:18 05.01.2020
4868 Haze 19 1017 52 4000 2.44 73 13:39 05.01.2020
4869 Haze 21 1017 43 4000 2.33 63 13:21 05.01.2020
4870 Haze 22 1016 43 4000 1 60 12:57 05.01.2020
4871 Haze 22 1016 43 4000 1 60 12:57 05.01.2020
4872 Haze 23 1016 38 4000 1 60 12:38 05.01.2020
4873 Haze 23 1016 38 4000 1 60 12:20 05.01.2020
4874 Haze 23 1016 38 4000 2.1 60 11:55 05.01.2020
4875 Haze 23 1016 38 4000 3.1 40 11:37 05.01.2020
4876 Haze 23 1016 38 4000 3.1 40 11:19 05.01.2020
4877 Haze 23 1016 38 4000 3.1 40 11:19 05.01.2020
4878 Haze 23 1016 38 4000 3.1 40 11:19 05.01.2020
4879 Haze 23 1016 40 4000 2.1 80 10:42 05.01.2020
4880 Haze 23 1016 40 4000 2.1 10 10:20 05.01.2020
4881 Haze 22 1016 46 4000 2.1 40 09:59 05.01.2020
4882 Haze 22 1016 46 4000 2.1 40 09:41 05.01.2020
4883 Haze 22 1016 46 4000 2.1 40 09:41 05.01.2020
4884 Haze 22 1017 49 4000 2.1 40 09:21 05.01.2020
4885 Haze 21 1018 52 4000 1 40 08:45 05.01.2020
4886 Haze 21 1018 52 4000 1 40 08:25 05.01.2020
4887 Haze 21 1018 49 4000 2.6 60 07:50 05.01.2020
4888 Haze 20 1019 56 4000 1.5 70 07:29 05.01.2020
4889 Haze 19 1020 59 3000 3.1 10 06:56 05.01.2020
4890 Haze 18 1020 63 3000 3.1 60 05:53 05.01.2020
4891 Haze 16 1020 72 3000 2.1 50 04:57 05.01.2020
4892 Mist 15 1020 77 2000 2.1 40 04:19 05.01.2020
4893 Mist 15 1019 77 2000 3.1 30 03:45 05.01.2020
4894 Mist 14 1018 82 2000 1 30 02:41 05.01.2020
4895 Mist 14 1017 82 2000 1 60 02:19 05.01.2020
4896 Mist 14 1017 82 2000 3.6 30 01:39 05.01.2020
4897 Mist 15 1016 77 2000 4.1 20 01:18 05.01.2020
4898 Mist 15 1016 82 2000 3.6 20 00:40 05.01.2020
4899 Mist 14 1016 87 2000 2.1 20 00:21 05.01.2020
4900 Mist 14 1016 87 2000 2.1 20 00:21 05.01.2020
4901 Mist 15 1016 82 2000 3.1 20 23:59 04.01.2020
4902 Mist 15 1016 87 2000 1.5 20 23:39 04.01.2020
4903 Mist 15 1016 87 2000 1.5 20 23:18 04.01.2020
4904 Mist 15 1016 87 2000 2.6 360 22:39 04.01.2020
4905 Mist 15 1016 87 2000 2.6 360 22:39 04.01.2020
4906 Mist 16 1016 82 2000 2.6 360 22:21 04.01.2020
4907 Mist 16 1016 82 2000 2.6 360 21:56 04.01.2020
4908 Mist 16 1016 82 2000 3.8 12 21:37 04.01.2020
4909 Mist 16 1016 82 2000 3.8 12 21:19 04.01.2020
4910 Mist 16 1016 82 2000 3.8 12 21:19 04.01.2020
4911 Mist 16 1016 87 2000 3.1 360 20:56 04.01.2020
4912 Mist 17 1016 82 2000 1.5 10 20:37 04.01.2020
4913 Mist 17 1016 82 2000 1.5 10 20:18 04.01.2020
4914 Mist 17 1017 88 1500 2.6 10 19:41 04.01.2020
4915 Mist 17 1017 88 1500 2.6 10 19:41 04.01.2020
4916 Mist 17 1017 93 1500 1.5 10 19:23 04.01.2020
4917 Mist 17 1017 93 1500 1 20 18:58 04.01.2020
4918 Mist 17 1017 93 1500 1.5 40 18:39 04.01.2020
4919 Mist 17 1017 93 1500 1.5 40 18:20 04.01.2020
4920 Mist 17 1017 93 2000 1 20 17:57 04.01.2020
4921 Mist 16 1016 93 2000 4.03 28 17:39 04.01.2020
4922 Mist 16 1016 93 2000 1.09 139 17:21 04.01.2020
4923 Mist 17 1016 93 2000 1.09 139 16:42 04.01.2020
4924 Mist 17 1016 93 2000 1.09 139 16:24 04.01.2020
4925 Mist 17 1016 88 2000 1.09 139 15:57 04.01.2020
4926 Mist 17 1015 93 2000 1.09 139 15:39 04.01.2020
4927 Mist 17 1015 93 2000 1.09 139 15:19 04.01.2020
4928 Mist 19 1015 82 2000 1.09 139 14:56 04.01.2020
4929 Mist 19 1015 82 2000 1.09 139 14:38 04.01.2020
4930 Mist 19 1015 82 2000 2.1 329 14:19 04.01.2020
4931 Mist 19 1015 82 2000 2.1 329 14:19 04.01.2020
4932 Mist 20 1015 77 2000 1 100 13:55 04.01.2020
4933 Mist 20 1015 77 2000 1 100 13:55 04.01.2020
4934 Haze 20 1014 77 2000 1 120 13:36 04.01.2020
4935 Haze 20 1014 77 2000 1 120 13:18 04.01.2020
4936 Haze 21 1014 73 2000 1 90 12:41 04.01.2020
4937 Haze 22 1014 68 2000 2.6 100 12:19 04.01.2020
4938 Haze 22 1014 68 2000 2.1 90 11:58 04.01.2020
4939 Haze 22 1014 64 2000 1.5 80 11:38 04.01.2020
4940 Haze 22 1014 64 2000 1.5 80 11:19 04.01.2020
4941 Haze 22 1014 64 2000 2.1 360 10:42 04.01.2020
4942 Haze 22 1014 64 2000 2.1 360 10:42 04.01.2020
4943 Haze 22 1014 64 2000 2.1 100 10:23 04.01.2020
4944 Haze 22 1014 68 2000 2.1 30 09:58 04.01.2020
4945 Haze 22 1014 68 2000 2.1 30 09:39 04.01.2020
4946 Mist 21 1015 73 2500 1.76 13 09:21 04.01.2020
4947 Mist 22 1015 68 2500 1 360 08:41 04.01.2020
4948 Mist 21 1016 73 2500 2.6 60 08:21 04.01.2020
4949 Mist 21 1016 73 2500 3.1 100 07:42 04.01.2020
4950 Mist 20 1017 77 2500 1.5 50 07:20 04.01.2020
4951 Mist 19 1018 82 2500 1.5 50 06:33 04.01.2020
4952 Mist 18 1018 88 2000 3.1 40 05:22 04.01.2020
4953 Mist 18 1018 88 2000 1.5 50 04:42 04.01.2020
4954 Mist 17 1018 93 1500 1.5 50 04:24 04.01.2020
4955 Mist 17 1017 93 1500 2.6 60 03:18 04.01.2020
4956 Mist 17 1016 93 2000 2.1 60 02:21 04.01.2020
4957 Mist 17 1015 93 2000 1 60 01:55 04.01.2020
4958 Mist 17 1015 100 2000 1 50 01:32 04.01.2020
4959 Mist 17 1015 100 1500 2.1 30 00:46 04.01.2020
4960 Fog 16 1015 100 500 2.78 44 00:26 04.01.2020
4961 Fog 17 1015 100 500 2.78 44 23:48 03.01.2020
4962 Fog 15 1015 100 500 2.78 44 23:25 03.01.2020
4963 Fog 15 1015 93 800 3.31 38 22:54 03.01.2020
4964 Mist 15 1015 100 1000 3.31 38 22:36 03.01.2020
4965 Mist 15 1015 100 1000 3.31 38 22:18 03.01.2020
4966 Mist 17 1015 93 1000 1 10 21:54 03.01.2020
4967 Mist 16 1016 100 1000 3.31 38 21:36 03.01.2020
4968 Mist 16 1016 100 1000 3.31 38 21:18 03.01.2020
4969 Mist 17 1016 100 1000 1 360 20:41 03.01.2020
4970 Mist 17 1016 100 1200 1 20 20:19 03.01.2020
4971 Mist 17 1016 100 1500 0.84 23 19:57 03.01.2020
4972 Mist 17 1016 100 1500 0.84 23 19:39 03.01.2020
4973 Mist 17 1016 100 1500 0.84 23 19:21 03.01.2020
4974 Mist 17 1016 93 1500 0.84 23 18:44 03.01.2020
4975 Mist 17 1016 93 1500 0.84 23 18:44 03.01.2020
4976 Mist 17 1017 93 1500 0.84 23 18:26 03.01.2020
4977 Mist 18 1017 93 1500 0.84 23 17:56 03.01.2020
4978 Mist 18 1017 93 1500 1 240 17:38 03.01.2020
4979 Mist 18 1017 93 1500 1 240 17:19 03.01.2020
4980 Mist 18 1017 93 1500 1 240 17:19 03.01.2020
4981 Mist 17 1017 100 2000 2.6 240 16:42 03.01.2020
4982 Mist 18 1017 88 2000 1.25 201 16:24 03.01.2020
4983 Mist 19 1016 88 2000 1.25 201 15:57 03.01.2020
4984 Mist 19 1016 88 2000 1.25 201 15:39 03.01.2020
4985 Mist 19 1016 88 2000 1.25 201 15:18 03.01.2020
4986 Mist 20 1015 82 2000 1.25 201 14:38 03.01.2020
4987 Mist 20 1015 82 2000 0.28 279 14:19 03.01.2020
4988 Mist 20 1015 82 2000 0.28 279 13:44 03.01.2020
4989 Mist 20 1015 82 2000 0.28 279 13:44 03.01.2020
4990 Mist 20 1015 82 2000 0.28 279 13:44 03.01.2020
4991 Mist 20 1015 82 2000 0.28 279 13:44 03.01.2020
4992 Haze 21 1015 77 2000 0.28 279 13:24 03.01.2020
4993 Haze 22 1015 73 2000 0.31 123 12:59 03.01.2020
4994 Haze 22 1015 73 2000 0.31 123 12:39 03.01.2020
4995 Haze 23 1015 69 2000 0.31 123 12:21 03.01.2020
4996 Haze 23 1015 69 2000 0.31 123 11:45 03.01.2020
4997 Haze 23 1015 69 2000 1 80 11:21 03.01.2020
4998 Haze 23 1014 69 2000 1 90 10:46 03.01.2020
4999 Haze 23 1015 69 2000 1 80 10:27 03.01.2020
5000 Mist 22 1015 68 1700 1 80 09:58 03.01.2020
5001 Mist 22 1016 73 1700 1 100 09:39 03.01.2020
5002 Mist 22 1016 73 1700 1 100 09:21 03.01.2020
5003 Mist 21 1016 73 1700 1.5 70 08:56 03.01.2020
5004 Mist 21 1017 73 1700 1.5 50 08:38 03.01.2020
5005 Mist 21 1017 73 1700 1.5 50 08:19 03.01.2020
5006 Mist 20 1018 72 1700 1.5 70 07:40 03.01.2020
5007 Mist 20 1019 72 1700 2.6 90 07:18 03.01.2020
5008 Mist 19 1019 77 1500 2.1 70 06:47 03.01.2020
5009 Mist 19 1020 77 1500 2.6 80 06:29 03.01.2020
5010 Mist 18 1020 82 1500 2.6 60 05:39 03.01.2020
5011 Mist 17 1019 88 1500 1.5 20 04:21 03.01.2020
5012 Mist 16 1018 93 1500 1 50 02:56 03.01.2020
5013 Mist 16 1017 93 1500 1 20 02:28 03.01.2020
5014 Mist 16 1017 93 1500 1 70 01:39 03.01.2020
5015 Mist 16 1017 93 1500 1 30 00:49 03.01.2020
5016 Mist 16 1016 93 1500 1 60 00:29 03.01.2020
5017 Mist 16 1016 93 1500 1 20 23:55 02.01.2020
5018 Mist 16 1017 93 1500 1 20 23:37 02.01.2020
5019 Mist 16 1017 93 1500 1 20 23:18 02.01.2020
5020 Mist 16 1016 93 1500 1.5 50 22:44 02.01.2020
5021 Mist 16 1017 93 1500 2.1 50 22:21 02.01.2020
5022 Mist 16 1017 93 1500 2.1 50 22:21 02.01.2020
5023 Mist 16 1018 93 1500 1 80 21:57 02.01.2020
5024 Mist 16 1018 93 1500 1 80 21:39 02.01.2020
5025 Mist 16 1018 93 1500 1.5 50 21:21 02.01.2020
5026 Mist 16 1018 93 1500 1.5 90 20:57 02.01.2020
5027 Mist 16 1018 93 1500 1.5 90 20:39 02.01.2020
5028 Mist 17 1018 93 1500 1 90 20:20 02.01.2020
5029 Mist 17 1018 93 1500 1.5 90 19:55 02.01.2020
5030 Mist 17 1019 93 1500 3.58 70 19:36 02.01.2020
5031 Mist 17 1019 93 1500 3.58 70 19:18 02.01.2020
5032 Mist 17 1019 93 1500 1.5 80 18:54 02.01.2020
5033 Mist 17 1019 93 1500 3.58 70 18:36 02.01.2020
5034 Mist 17 1019 93 1500 3.58 70 18:18 02.01.2020
5035 Mist 17 1019 93 1500 1 30 17:55 02.01.2020
5036 Mist 17 1019 93 1500 1 40 17:36 02.01.2020
5037 Mist 17 1019 93 1500 1 40 17:18 02.01.2020
5038 Mist 17 1019 93 1500 2.96 53 16:42 02.01.2020
5039 Mist 17 1019 93 1500 2.96 53 16:42 02.01.2020
5040 Mist 17 1019 93 1500 2.96 53 16:42 02.01.2020
5041 Mist 17 1019 93 1500 2.1 60 16:22 02.01.2020
5042 Mist 17 1019 93 1500 2.1 60 15:59 02.01.2020
5043 Mist 17 1018 93 1500 2.1 90 15:41 02.01.2020
5044 Mist 17 1018 93 1500 2.1 90 15:23 02.01.2020
5045 Mist 17 1018 93 1500 2.1 90 14:57 02.01.2020
5046 Mist 17 1018 93 1500 1.5 80 14:37 02.01.2020
5047 Mist 17 1018 93 1500 1 60 14:18 02.01.2020
5048 Mist 17 1018 93 1500 1 60 13:51 02.01.2020
5049 Mist 17 1018 93 1500 2.6 60 13:32 02.01.2020
5050 Mist 17 1017 93 1500 2.1 60 12:47 02.01.2020
5051 Mist 18 1017 88 1200 1.5 60 12:28 02.01.2020
5052 Mist 18 1017 88 1200 1.5 60 11:59 02.01.2020
5053 Mist 17 1017 93 1200 2.1 70 11:41 02.01.2020
5054 Mist 17 1017 93 1200 2.1 70 11:20 02.01.2020
5055 Mist 17 1018 93 1200 1 50 10:45 02.01.2020
5056 Mist 18 1018 88 1200 2.1 70 10:26 02.01.2020
5057 Mist 17 1018 93 1200 2.1 70 09:52 02.01.2020
5058 Mist 16 1018 93 1200 2.6 70 09:33 02.01.2020
5059 Mist 16 1019 93 1200 1.5 70 08:48 02.01.2020
5060 Rain 16 1020 100 1200 1.5 60 08:27 02.01.2020
5061 Rain 15 1020 100 1200 1 50 07:54 02.01.2020
5062 Rain 15 1021 100 1200 2.6 50 07:31 02.01.2020
5063 Thunderstorm 15 1021 100 1200 2.6 50 06:55 02.01.2020
5064 Thunderstorm 15 1021 100 1200 2.6 50 06:55 02.01.2020
5065 Thunderstorm 15 1021 93 600 1 100 06:36 02.01.2020
5066 Thunderstorm 15 1021 93 600 1 100 06:36 02.01.2020
5067 Thunderstorm 15 1021 93 1000 4.1 20 05:36 02.01.2020
5068 Thunderstorm 14 1021 93 500 4.1 30 04:33 02.01.2020
5069 Mist 16 1019 82 2500 3.1 60 02:55 02.01.2020
5070 Mist 16 1018 87 3000 2.1 40 02:20 02.01.2020
5071 Clouds 16 1018 87 3000 2.6 30 01:46 02.01.2020
5072 Mist 16 1017 87 3000 2.6 60 00:59 02.01.2020
5073 Mist 16 1017 87 3000 1.5 50 00:34 02.01.2020
5074 Mist 16 1017 93 3000 2.1 30 23:56 01.01.2020
5075 Clouds 16 1017 87 3000 1.5 330 23:37 01.01.2020
5076 Clouds 16 1017 87 3000 1.5 330 23:18 01.01.2020
5077 Mist 16 1018 93 2500 1 50 22:38 01.01.2020
5078 Mist 16 1018 93 2500 1 50 22:19 01.01.2020
5079 Mist 16 1017 93 2500 2.1 70 21:56 01.01.2020
5080 Rain 16 1018 93 2000 1.5 80 21:37 01.01.2020
5081 Rain 16 1018 93 2000 1.5 80 21:19 01.01.2020
5082 Mist 17 1017 88 2000 2.6 70 20:55 01.01.2020
5083 Mist 17 1018 88 2000 2.1 60 20:37 01.01.2020
5084 Mist 17 1018 88 2000 2.1 60 20:18 01.01.2020
5085 Mist 17 1018 88 2000 2.1 60 19:55 01.01.2020
5086 Mist 17 1018 88 2000 2.6 50 19:36 01.01.2020
5087 Mist 17 1018 88 2000 2.6 50 19:18 01.01.2020
5088 Mist 17 1019 88 2000 2.1 60 18:55 01.01.2020
5089 Mist 17 1019 88 2000 3.1 60 18:36 01.01.2020
5090 Mist 17 1019 88 2000 3.1 60 18:18 01.01.2020
5091 Mist 17 1019 88 2000 3.1 60 17:55 01.01.2020
5092 Mist 17 1019 88 2000 3.1 60 17:37 01.01.2020
5093 Mist 17 1019 88 2000 3.1 60 17:18 01.01.2020
5094 Mist 17 1019 88 2000 2.6 60 16:39 01.01.2020
5095 Mist 17 1019 88 2000 2.6 60 16:39 01.01.2020
5096 Mist 17 1019 88 2000 2.6 60 16:20 01.01.2020
5097 Mist 17 1018 88 2000 2.1 60 15:57 01.01.2020
5098 Mist 17 1018 93 1500 2.1 40 15:39 01.01.2020
5099 Mist 17 1018 93 1500 2.1 40 15:20 01.01.2020
5100 Mist 17 1018 93 1500 1.5 40 14:57 01.01.2020
5101 Mist 17 1018 93 1500 1.5 40 14:39 01.01.2020
5102 Mist 18 1017 88 1500 2.1 30 14:21 01.01.2020
5103 Mist 18 1017 88 1500 1 30 13:56 01.01.2020
5104 Mist 19 1017 77 1500 1.5 50 13:37 01.01.2020
5105 Mist 19 1017 77 1500 1.5 50 13:18 01.01.2020
5106 Mist 19 1017 82 1500 1.5 40 12:55 01.01.2020
5107 Mist 19 1017 82 1500 1.5 60 12:37 01.01.2020
5108 Mist 19 1017 82 1500 1.5 60 12:18 01.01.2020
5109 Rain 19 1017 82 1500 1.5 80 11:43 01.01.2020
5110 Rain 19 1017 82 1500 1.5 80 11:22 01.01.2020
5111 Mist 20 1017 72 1500 2.1 60 10:58 01.01.2020
5112 Mist 20 1017 72 1500 2.1 60 10:39 01.01.2020
5113 Mist 20 1017 72 1500 2.1 60 10:20 01.01.2020
5114 Mist 20 1017 72 1500 1.5 60 09:55 01.01.2020
5115 Mist 20 1017 72 1500 2.1 60 09:36 01.01.2020
5116 Mist 20 1017 72 1500 2.1 60 09:36 01.01.2020
5117 Mist 20 1017 72 1500 2.1 60 09:18 01.01.2020
5118 Mist 20 1018 72 1500 2.6 70 08:54 01.01.2020
5119 Mist 19 1018 77 1500 3.1 70 08:36 01.01.2020
5120 Mist 19 1018 77 1500 3.1 70 08:18 01.01.2020
5121 Mist 19 1019 72 1500 2.1 60 07:43 01.01.2020
5122 Mist 18 1020 77 1500 2.1 90 07:24 01.01.2020
5123 Mist 18 1020 77 1500 4.1 60 06:44 01.01.2020
5124 Mist 17 1020 82 1500 3.6 80 06:19 01.01.2020
5125 Mist 15 1019 87 1500 2.6 70 04:36 01.01.2020
5126 Mist 15 1019 87 1500 1.5 60 03:41 01.01.2020
5127 Mist 15 1018 87 1500 2.6 60 03:22 01.01.2020
5128 Mist 15 1018 87 1500 2.6 60 02:54 01.01.2020
5129 Rain 14 1017 93 1500 1.5 40 02:30 01.01.2020
5130 Rain 14 1017 93 1500 3.1 60 01:45 01.01.2020
5131 Rain 14 1017 93 1500 3.1 60 01:45 01.01.2020
5132 Rain 14 1016 93 1500 2.1 70 01:23 01.01.2020
5133 Rain 15 1016 93 1500 2.1 60 00:45 01.01.2020
5134 Rain 15 1016 93 1500 2.1 50 00:26 01.01.2020
5135 Mist 15 1016 93 1500 1 40 23:58 31.12.2019
5136 Mist 15 1016 93 1500 1.5 50 23:38 31.12.2019
5137 Mist 15 1016 93 1500 1.5 50 23:18 31.12.2019
5138 Mist 14 1016 100 1500 2.6 50 22:56 31.12.2019
5139 Rain 15 1016 93 1500 1.5 30 22:37 31.12.2019
5140 Rain 15 1016 93 1500 1.5 30 22:18 31.12.2019
5141 Rain 14 1016 100 1300 1.5 70 21:43 31.12.2019
5142 Thunderstorm 14 1016 100 1200 2.6 50 21:25 31.12.2019
5143 Thunderstorm 14 1016 93 1500 3.1 40 20:57 31.12.2019
5144 Thunderstorm 14 1016 93 1500 3.1 40 20:39 31.12.2019
5145 Rain 17 1016 71 0 4.18 77 20:21 31.12.2019
5146 Mist 16 1017 82 2000 2.6 30 19:58 31.12.2019
5147 Mist 16 1017 82 2000 2.6 30 19:40 31.12.2019
5148 Mist 16 1017 77 2000 3.6 70 19:21 31.12.2019
5149 Mist 16 1017 77 2000 3.6 60 18:57 31.12.2019
5150 Mist 16 1018 77 2000 3.1 70 18:38 31.12.2019
5151 Mist 16 1018 77 2000 3.1 70 18:38 31.12.2019
5152 Mist 16 1018 77 2000 3.1 70 18:19 31.12.2019
5153 Mist 16 1018 82 2000 3.6 60 17:56 31.12.2019
5154 Mist 16 1018 82 2000 3.6 60 17:56 31.12.2019
5155 Mist 17 1017 77 2000 3.6 60 17:36 31.12.2019
5156 Mist 17 1017 77 2000 3.6 60 17:18 31.12.2019
5157 Mist 17 1017 77 2000 3.6 60 17:18 31.12.2019
5158 Mist 16 1017 82 1500 3.6 60 16:56 31.12.2019
5159 Mist 17 1017 77 1500 4.1 60 16:37 31.12.2019
5160 Mist 17 1017 77 1500 4.1 60 16:37 31.12.2019
5161 Mist 17 1017 77 1500 4.1 60 16:18 31.12.2019
5162 Mist 17 1017 82 1500 3.6 70 15:56 31.12.2019
5163 Mist 16 1017 87 1500 3.1 60 15:38 31.12.2019
5164 Mist 16 1017 87 1500 3.1 60 15:19 31.12.2019
5165 Mist 17 1016 82 1500 3.1 50 14:55 31.12.2019
5166 Rain 16 1016 87 1500 2.1 40 14:37 31.12.2019
5167 Rain 16 1016 87 1500 2.1 40 14:18 31.12.2019
5168 Mist 16 1016 87 1500 4.1 60 13:56 31.12.2019
5169 Mist 17 1015 82 1500 2.6 40 13:37 31.12.2019
5170 Mist 17 1015 82 1500 2.6 40 13:19 31.12.2019
5171 Mist 17 1015 82 1500 2.6 10 12:55 31.12.2019
5172 Mist 17 1015 82 1500 4.1 360 12:37 31.12.2019
5173 Mist 17 1015 82 1500 4.1 360 12:18 31.12.2019
5174 Rain 18 1014 77 1500 3.1 360 11:55 31.12.2019
5175 Rain 18 1015 82 1500 4.1 360 11:36 31.12.2019
5176 Rain 18 1015 82 1500 4.1 360 11:18 31.12.2019
5177 Rain 19 1015 82 1500 2.1 40 10:55 31.12.2019
5178 Rain 20 1015 72 2000 2.1 360 10:37 31.12.2019
5179 Rain 20 1015 72 2000 2.1 360 10:19 31.12.2019
5180 Haze 21 1015 60 2500 1.5 60 09:56 31.12.2019
5181 Haze 21 1015 60 2500 2.1 120 09:38 31.12.2019
5182 Haze 21 1015 60 2500 2.1 120 09:18 31.12.2019
5183 Haze 21 1016 56 2500 2.6 70 08:42 31.12.2019
5184 Haze 20 1017 60 2500 1.5 80 08:22 31.12.2019
5185 Haze 19 1018 59 2500 2.1 100 07:56 31.12.2019
5186 Haze 19 1018 55 2500 3.1 100 07:37 31.12.2019
5187 Haze 19 1018 55 2500 3.1 100 07:18 31.12.2019
5188 Mist 18 1019 59 2500 1.5 110 06:29 31.12.2019
5189 Mist 16 1019 72 2000 2.1 50 04:55 31.12.2019
5190 Mist 15 1018 77 1800 2.1 60 04:25 31.12.2019
5191 Rain 15 1017 77 2000 3.1 60 02:58 31.12.2019
5192 Haze 17 1017 51 3000 1 90 02:21 31.12.2019
5193 Haze 17 1017 51 3000 1 90 02:21 31.12.2019
5194 Haze 17 1016 51 3000 2.6 80 01:50 31.12.2019
5195 Haze 17 1016 51 3000 1 80 01:31 31.12.2019
5196 Haze 17 1016 51 3000 1 40 00:49 31.12.2019
5197 Haze 17 1016 51 3000 1 40 00:25 31.12.2019
5198 Haze 17 1016 51 3000 1 100 23:58 30.12.2019
5199 Haze 17 1016 51 3000 1 100 23:40 30.12.2019
5200 Haze 17 1015 55 3000 2.6 60 23:22 30.12.2019
5201 Haze 17 1015 55 3000 1.5 60 22:59 30.12.2019
5202 Haze 17 1015 55 3000 1.5 60 22:41 30.12.2019
5203 Haze 17 1015 55 3000 1 70 22:21 30.12.2019
5204 Haze 17 1015 55 3000 2.1 70 21:57 30.12.2019
5205 Haze 17 1015 55 3000 2.1 70 21:39 30.12.2019
5206 Haze 17 1016 55 3000 1.5 60 21:20 30.12.2019
5207 Haze 18 1016 48 3000 1.5 70 20:58 30.12.2019
5208 Haze 18 1016 48 3000 1.5 70 20:40 30.12.2019
5209 Haze 18 1016 48 3000 1.5 70 20:40 30.12.2019
5210 Haze 18 1016 48 3000 1.5 70 20:20 30.12.2019
5211 Haze 18 1016 48 3000 1.5 60 19:58 30.12.2019
5212 Haze 18 1016 48 3000 1.5 60 19:39 30.12.2019
5213 Haze 18 1016 52 3000 1 90 19:19 30.12.2019
5214 Haze 18 1016 52 3000 1.5 80 18:59 30.12.2019
5215 Haze 18 1016 52 3000 1.5 80 18:40 30.12.2019
5216 Haze 19 1016 48 3500 2.67 57 18:20 30.12.2019
5217 Haze 19 1016 48 3500 2.67 57 18:20 30.12.2019
5218 Haze 19 1017 52 4000 2.67 57 17:57 30.12.2019
5219 Haze 19 1017 52 4000 1 60 17:39 30.12.2019
5220 Haze 19 1017 52 4000 1 60 17:19 30.12.2019
5221 Haze 19 1017 52 4000 1 40 16:58 30.12.2019
5222 Haze 19 1017 48 4000 1 60 16:37 30.12.2019
5223 Haze 19 1017 48 4000 1 60 16:19 30.12.2019
5224 Haze 19 1016 55 4000 1.68 43 15:56 30.12.2019
5225 Haze 20 1016 42 4000 1 40 15:37 30.12.2019
5226 Haze 20 1016 42 4000 1 40 15:18 30.12.2019
5227 Haze 20 1016 42 4000 2.1 60 14:43 30.12.2019
5228 Haze 20 1015 42 4000 1.47 82 14:20 30.12.2019
5229 Haze 21 1015 35 4000 1.47 82 13:58 30.12.2019
5230 Haze 21 1015 35 4000 1.47 82 13:40 30.12.2019
5231 Haze 21 1014 35 4000 1.54 53 13:21 30.12.2019
5232 Haze 21 1014 46 4000 1.54 53 12:56 30.12.2019
5233 Haze 22 1014 37 5000 1 80 12:37 30.12.2019
5234 Haze 22 1014 37 5000 1 80 12:18 30.12.2019
5235 Haze 23 1014 33 5000 1.54 53 11:42 30.12.2019
5236 Haze 23 1014 31 5000 2.27 84 11:20 30.12.2019
5237 Haze 23 1015 31 5000 1.5 70 10:58 30.12.2019
5238 Haze 23 1015 31 5000 1.5 70 10:40 30.12.2019
5239 Haze 23 1015 31 5000 1.5 70 10:40 30.12.2019
5240 Haze 23 1015 31 5000 1 110 10:18 30.12.2019
5241 Haze 23 1015 31 5000 1 110 09:42 30.12.2019
5242 Haze 23 1016 31 5000 2.6 70 09:20 30.12.2019
5243 Haze 22 1016 33 5000 1.5 100 08:56 30.12.2019
5244 Haze 22 1017 35 5000 2.1 80 08:37 30.12.2019
5245 Haze 22 1017 35 5000 2.1 80 08:18 30.12.2019
5246 Haze 20 1019 40 4000 1.5 100 07:41 30.12.2019
5247 Haze 20 1019 42 3500 1.5 80 06:58 30.12.2019
5248 Haze 19 1019 42 3500 3.1 60 06:23 30.12.2019
5249 Haze 13 1018 76 3000 1.5 60 04:23 30.12.2019
5250 Mist 11 1018 81 2500 3.67 54 03:39 30.12.2019
5251 Mist 8 1018 81 2500 3.67 54 02:41 30.12.2019
5252 Mist 8 1017 81 3000 3.23 51 02:20 30.12.2019
5253 Mist 10 1016 76 3000 1.5 50 01:25 30.12.2019
5254 Mist 11 1016 71 3000 2.92 51 00:46 30.12.2019
5255 Mist 11 1016 71 3000 1 50 00:23 30.12.2019
5256 Mist 11 1016 71 3000 1 20 23:40 29.12.2019
5257 Mist 11 1016 71 3000 1 20 23:22 29.12.2019
5258 Mist 11 1016 71 3000 1.77 53 22:56 29.12.2019
5259 Mist 10 1016 81 3000 1.5 20 22:38 29.12.2019
5260 Mist 10 1016 81 3000 1.5 20 22:19 29.12.2019
5261 Haze 11 1016 71 3000 1 10 21:45 29.12.2019
5262 Haze 11 1016 76 3000 1.77 53 21:21 29.12.2019
5263 Haze 11 1016 76 3000 1.77 53 21:21 29.12.2019
5264 Haze 11 1016 76 3000 1 20 20:59 29.12.2019
5265 Haze 11 1016 76 3000 1 20 20:39 29.12.2019
5266 Haze 13 1016 66 3000 2.41 41 20:21 29.12.2019
5267 Haze 13 1017 66 3000 2.41 41 19:59 29.12.2019
5268 Haze 13 1017 66 3000 2.41 41 19:40 29.12.2019
5269 Haze 13 1017 66 3000 2.41 41 19:21 29.12.2019
5270 Haze 13 1017 66 3000 1 310 18:58 29.12.2019
5271 Haze 13 1017 66 3000 1 310 18:39 29.12.2019
5272 Haze 13 1017 66 3000 2.41 41 18:20 29.12.2019
5273 Haze 12 1017 71 3000 2.41 41 17:58 29.12.2019
5274 Haze 14 1017 62 3000 2.41 41 17:39 29.12.2019
5275 Haze 14 1017 62 3000 2.01 53 17:20 29.12.2019
5276 Haze 13 1017 62 3000 2.01 53 16:57 29.12.2019
5277 Haze 14 1017 62 3000 1 40 16:38 29.12.2019
5278 Haze 14 1017 62 3000 1 40 16:38 29.12.2019
5279 Haze 14 1017 62 3000 1 40 16:20 29.12.2019
5280 Haze 14 1017 62 3000 2.01 53 15:58 29.12.2019
5281 Haze 14 1017 62 3000 2.01 53 15:58 29.12.2019
5282 Haze 14 1017 62 3000 2.01 53 15:39 29.12.2019
5283 Haze 15 1017 54 3000 2.01 53 15:20 29.12.2019
5284 Haze 15 1017 54 3500 2.01 53 14:58 29.12.2019
5285 Haze 15 1017 54 3500 2.01 53 14:39 29.12.2019
5286 Haze 16 1017 41 3500 1 90 14:18 29.12.2019
5287 Haze 16 1017 41 3500 1 90 14:18 29.12.2019
5288 Haze 17 1016 42 4000 1 80 13:58 29.12.2019
5289 Haze 19 1016 34 4000 1.5 50 13:39 29.12.2019
5290 Haze 19 1016 34 4000 1.5 50 13:20 29.12.2019
5291 Haze 19 1016 34 4000 2.1 50 12:46 29.12.2019
5292 Haze 22 1016 28 4000 1.5 50 12:27 29.12.2019
5293 Haze 21 1016 32 5000 2.1 60 11:59 29.12.2019
5294 Haze 21 1016 28 5000 1.5 60 11:40 29.12.2019
5295 Haze 21 1016 28 5000 1.5 60 11:20 29.12.2019
5296 Haze 21 1016 28 5000 1.5 60 11:20 29.12.2019
5297 Haze 22 1015 26 5000 3.1 60 10:55 29.12.2019
5298 Haze 22 1016 26 5000 3.1 60 10:37 29.12.2019
5299 Haze 22 1016 26 5000 3.1 60 10:18 29.12.2019
5300 Haze 22 1016 26 5000 3.1 60 10:18 29.12.2019
5301 Haze 22 1017 28 5000 3.1 90 09:41 29.12.2019
5302 Haze 22 1017 28 5000 3.1 90 09:22 29.12.2019
5303 Haze 21 1017 30 5000 2.6 70 08:48 29.12.2019
5304 Haze 20 1018 32 5000 1.5 70 08:28 29.12.2019
5305 Haze 20 1019 32 5000 2.1 40 07:58 29.12.2019
5306 Haze 19 1020 37 5000 2.1 90 07:31 29.12.2019
5307 Haze 19 1020 32 5000 3.1 60 06:57 29.12.2019
5308 Haze 18 1021 34 5000 2.1 60 06:26 29.12.2019
5309 Haze 17 1021 39 5000 3.1 60 05:54 29.12.2019
5310 Haze 13 1020 54 5000 1 10 04:37 29.12.2019
5311 Haze 11 1020 66 4000 1.5 10 03:59 29.12.2019
5312 Haze 9 1019 70 3500 2.1 20 03:21 29.12.2019
5313 Haze 8 1018 75 3500 2.1 320 02:21 29.12.2019
5314 Haze 8 1018 75 3500 1.5 320 01:40 29.12.2019
5315 Haze 8 1018 75 3500 1 10 01:21 29.12.2019
5316 Haze 8 1017 81 3500 2.3 36 00:42 29.12.2019
5317 Haze 9 1017 76 3500 1 340 00:23 29.12.2019
5318 Haze 9 1017 76 3500 2.3 36 23:44 28.12.2019
5319 Haze 9 1017 76 3500 1 10 23:18 28.12.2019
5320 Haze 9 1017 76 3500 1 10 23:18 28.12.2019
5321 Haze 8 1017 81 3500 1 330 22:39 28.12.2019
5322 Haze 10 1017 71 3500 1.5 10 22:21 28.12.2019
5323 Haze 11 1017 71 3500 1 20 21:58 28.12.2019
5324 Haze 11 1017 71 3500 1 20 21:39 28.12.2019
5325 Haze 12 1018 66 3500 1 20 21:21 28.12.2019
5326 Haze 11 1018 71 3500 1.5 20 20:57 28.12.2019
5327 Haze 10 1018 76 3500 3.44 35 20:38 28.12.2019
5328 Haze 10 1018 76 3500 2.22 38 20:20 28.12.2019
5329 Haze 12 1018 62 3500 1 40 19:58 28.12.2019
5330 Haze 12 1018 58 3500 1 40 19:39 28.12.2019
5331 Haze 12 1018 58 3500 1 40 19:20 28.12.2019
5332 Haze 11 1018 62 3500 2.22 38 18:57 28.12.2019
5333 Haze 11 1018 62 3500 2.22 38 18:39 28.12.2019
5334 Haze 12 1018 62 3500 2.22 38 18:18 28.12.2019
5335 Haze 12 1018 62 4000 2.22 38 17:54 28.12.2019
5336 Haze 13 1018 54 4000 1 90 17:36 28.12.2019
5337 Haze 13 1018 54 4000 1 90 17:18 28.12.2019
5338 Haze 13 1018 58 4000 2.63 52 16:46 28.12.2019
5339 Haze 15 1018 44 4000 1 40 16:25 28.12.2019
5340 Haze 16 1017 41 4000 1 70 15:44 28.12.2019
5341 Haze 16 1017 38 4000 1.5 60 15:24 28.12.2019
5342 Haze 16 1017 38 4000 1.5 60 14:58 28.12.2019
5343 Haze 16 1016 36 4000 2.63 52 14:38 28.12.2019
5344 Haze 16 1016 36 4000 2.75 43 14:20 28.12.2019
5345 Haze 18 1016 34 4000 2.75 43 13:43 28.12.2019
5346 Haze 19 1016 29 4000 1.5 80 13:23 28.12.2019
5347 Clear 21 1016 26 6000 1 80 12:59 28.12.2019
5348 Clear 21 1016 26 6000 1 80 12:41 28.12.2019
5349 Clear 22 1016 26 6000 2.6 60 12:22 28.12.2019
5350 Clear 22 1016 24 6000 2.6 60 11:55 28.12.2019
5351 Clear 22 1016 26 6000 2.6 70 11:37 28.12.2019
5352 Clear 22 1016 18 6000 2.6 70 11:18 28.12.2019
5353 Clear 22 1016 18 6000 2.6 60 10:43 28.12.2019
5354 Clear 22 1016 18 10000 1 60 10:20 28.12.2019
5355 Clear 21 1017 26 10000 2.6 90 09:56 28.12.2019
5356 Clear 21 1017 28 10000 3.1 60 09:38 28.12.2019
5357 Clear 21 1018 28 10000 2.6 40 09:19 28.12.2019
5358 Clear 21 1018 28 10000 2.6 40 08:43 28.12.2019
5359 Clear 22 1017 26 10000 2.1 60 08:25 28.12.2019
5360 Clear 22 1018 28 8000 2.1 60 07:49 28.12.2019
5361 Clear 21 1020 30 6000 2.1 60 07:27 28.12.2019
5362 Clear 16 1021 38 6000 2.1 30 05:53 28.12.2019
5363 Haze 12 1019 54 3500 1.5 10 03:52 28.12.2019
5364 Haze 10 1019 61 3500 1.5 10 03:33 28.12.2019
5365 Haze 10 1018 61 3500 4.29 42 02:43 28.12.2019
5366 Haze 10 1017 61 3500 1.5 20 01:59 28.12.2019
5367 Haze 10 1017 61 3500 1.5 20 01:25 28.12.2019
5368 Haze 11 1017 57 3500 1.5 20 00:54 28.12.2019
5369 Haze 11 1016 57 3500 1.5 20 00:36 28.12.2019
5370 Haze 11 1016 57 3500 1.5 20 00:18 28.12.2019
5371 Haze 11 1016 57 3500 2.1 20 23:42 27.12.2019
5372 Haze 10 1016 61 3500 1 20 23:19 27.12.2019
5373 Haze 10 1017 61 3500 2.1 20 22:57 27.12.2019
5374 Haze 11 1017 57 3500 2.1 20 22:38 27.12.2019
5375 Haze 11 1017 57 3500 2.1 20 22:38 27.12.2019
5376 Haze 11 1017 57 3500 2.1 20 22:20 27.12.2019
5377 Haze 11 1017 57 3500 4 20 21:54 27.12.2019
5378 Haze 12 1017 54 3500 2.6 10 21:36 27.12.2019
5379 Haze 12 1017 54 3500 2.6 10 21:18 27.12.2019
5380 Haze 13 1017 50 3500 2.1 10 20:40 27.12.2019
5381 Haze 13 1017 47 3500 1.5 360 20:21 27.12.2019
5382 Haze 13 1017 47 3500 2.6 10 19:42 27.12.2019
5383 Haze 13 1017 47 3500 2.1 20 19:20 27.12.2019
5384 Haze 14 1017 41 3500 2.1 10 18:59 27.12.2019
5385 Haze 14 1018 41 3500 1.5 20 18:38 27.12.2019
5386 Haze 14 1018 41 3500 1.5 20 18:20 27.12.2019
5387 Haze 15 1017 31 3500 2.1 30 17:57 27.12.2019
5388 Haze 15 1017 31 3500 2.1 40 17:38 27.12.2019
5389 Haze 15 1017 27 3500 2.1 40 17:19 27.12.2019
5390 Haze 16 1017 27 3500 2.1 30 16:56 27.12.2019
5391 -273 0 0 0 0 0 16:37 27.12.2019
5392 Haze 16 1017 27 4000 2.1 30 16:19 27.12.2019
5393 Haze 16 1017 36 4000 2.1 20 15:43 27.12.2019
5394 Haze 17 1016 36 4000 1.5 30 15:20 27.12.2019
5395 Haze 18 1016 31 4000 1 30 14:57 27.12.2019
5396 Haze 18 1016 27 4000 1.5 30 14:38 27.12.2019
5397 Haze 18 1016 29 4000 1.5 30 14:20 27.12.2019
5398 Haze 19 1015 29 5000 1.5 40 13:48 27.12.2019
5399 Haze 21 1015 21 5000 2.1 10 13:25 27.12.2019
5400 Clear 22 1015 28 6000 2.1 20 12:58 27.12.2019
5401 Clear 23 1015 27 6000 1.5 30 12:39 27.12.2019
5402 Clear 23 1015 27 6000 1.5 30 12:21 27.12.2019
5403 Clouds 23 1015 25 6000 2.1 10 11:43 27.12.2019
5404 Clouds 23 1015 27 6000 1.5 30 11:43 27.12.2019
5405 Clouds 23 1015 27 6000 1.5 30 11:23 27.12.2019
5406 Clouds 22 1015 26 6000 1.5 20 10:55 27.12.2019
5407 Clouds 23 1015 27 6000 2.1 50 10:36 27.12.2019
5408 Clouds 23 1015 27 6000 2.1 50 10:18 27.12.2019
5409 Clouds 22 1016 26 6000 2.6 50 09:42 27.12.2019
5410 Haze 22 1016 26 5000 2.1 40 09:21 27.12.2019
5411 Haze 22 1017 26 5000 2.1 30 08:55 27.12.2019
5412 Haze 21 1017 30 5000 1.5 50 08:35 27.12.2019
5413 Haze 20 1018 30 5000 2.6 30 07:50 27.12.2019
5414 Haze 19 1018 32 5000 2.1 40 07:31 27.12.2019
5415 Haze 18 1019 34 4000 3.6 20 06:36 27.12.2019
5416 Haze 16 1019 36 3500 1.5 20 04:59 27.12.2019
5417 Haze 14 1018 50 3000 2.6 30 02:53 27.12.2019
5418 Haze 14 1017 50 3000 2.1 20 01:59 27.12.2019
5419 Haze 15 1016 47 4000 3.1 20 01:24 27.12.2019
5420 Haze 15 1016 51 4000 4.1 30 00:54 27.12.2019
5421 Mist 15 1016 51 3000 3.1 30 00:35 27.12.2019
5422 Mist 16 1016 48 2000 3.1 20 23:59 26.12.2019
5423 Mist 16 1016 48 2000 3.1 20 23:41 26.12.2019
5424 Mist 16 1016 48 2000 3.1 30 23:21 26.12.2019
5425 Mist 16 1016 51 2000 4.1 20 22:45 26.12.2019
5426 Mist 16 1016 55 2000 4.1 20 22:22 26.12.2019
5427 Mist 17 1016 51 2000 4.1 30 21:58 26.12.2019
5428 Mist 17 1016 55 2000 3.6 20 21:38 26.12.2019
5429 Mist 17 1016 55 2000 3.6 20 21:38 26.12.2019
5430 Mist 17 1016 55 2000 3.6 20 21:20 26.12.2019
5431 Mist 17 1016 55 2000 3.6 20 20:45 26.12.2019
5432 Mist 18 1016 59 2000 3.1 20 20:23 26.12.2019
5433 Mist 18 1016 63 2000 2.6 20 19:59 26.12.2019
5434 Mist 18 1016 63 2000 2.6 20 19:39 26.12.2019
5435 Mist 18 1016 63 2000 2.6 20 19:39 26.12.2019
5436 Mist 19 1016 68 2000 3.6 20 19:20 26.12.2019
5437 Mist 19 1016 88 1200 2.1 20 18:57 26.12.2019
5438 Mist 19 1016 93 1200 3.35 17 18:38 26.12.2019
5439 Mist 19 1016 93 1200 3.35 17 18:19 26.12.2019
5440 Mist 19 1016 93 1200 3.35 17 17:43 26.12.2019
5441 Mist 19 1016 93 1200 3.35 17 17:43 26.12.2019
5442 Mist 19 1016 93 1200 0.86 127 17:22 26.12.2019
5443 Mist 19 1016 93 1200 0.86 127 16:58 26.12.2019
5444 Mist 19 1016 93 1200 0.86 127 16:40 26.12.2019
5445 Mist 19 1016 93 1200 0.86 127 16:21 26.12.2019
5446 Mist 19 1016 93 1200 0.86 127 15:41 26.12.2019
5447 Mist 20 1015 88 1200 0.86 127 15:21 26.12.2019
5448 Mist 19 1015 93 1200 0.86 127 14:58 26.12.2019
5449 Mist 19 1015 93 1200 0.86 127 14:38 26.12.2019
5450 Mist 20 1014 88 1200 1 60 14:20 26.12.2019
5451 Mist 20 1014 88 1200 2.52 116 13:43 26.12.2019
5452 Mist 21 1014 83 1200 1 60 13:21 26.12.2019
5453 Mist 21 1014 83 1000 1 40 12:56 26.12.2019
5454 Mist 21 1014 83 1000 1 40 12:56 26.12.2019
5455 Mist 21 1014 83 1000 1 30 12:37 26.12.2019
5456 Mist 21 1014 83 1000 1 30 12:19 26.12.2019
5457 Mist 21 1014 83 1000 1 70 11:56 26.12.2019
5458 Fog 21 1014 83 1000 1 60 11:37 26.12.2019
5459 Fog 21 1014 83 1000 1 60 11:37 26.12.2019
5460 Fog 21 1014 83 1000 1 60 11:19 26.12.2019
5461 Fog 21 1014 88 800 1 60 10:41 26.12.2019
5462 Fog 21 1014 88 800 1 60 10:41 26.12.2019
5463 Fog 21 1014 88 800 1 60 10:18 26.12.2019
5464 Fog 20 1014 88 800 1.5 60 09:43 26.12.2019
5465 Fog 20 1014 88 0 1 20 09:25 26.12.2019
5466 Fog 20 1015 88 0 1 70 08:42 26.12.2019
5467 Fog 20 1016 88 1000 1.5 80 08:23 26.12.2019
5468 Fog 19 1016 93 1000 1.5 80 07:52 26.12.2019
5469 Clouds 19 1017 93 0 2.1 50 07:26 26.12.2019
5470 Clouds 19 1017 100 0 1.5 60 06:48 26.12.2019
5471 Clouds 19 1017 100 0 2.6 60 06:30 26.12.2019
5472 Clouds 19 1017 100 0 2.1 50 05:45 26.12.2019
5473 Rain 20 1016 100 1000 2.48 52 04:38 26.12.2019
5474 Rain 20 1016 100 1300 2.48 52 03:47 26.12.2019
5475 Rain 20 1015 100 1500 2.48 52 02:50 26.12.2019
5476 Rain 20 1015 100 2000 2.48 52 02:31 26.12.2019
5477 Rain 20 1015 100 2000 2.48 52 02:31 26.12.2019
5478 Rain 20 1014 100 2000 1.14 45 01:45 26.12.2019
5479 Rain 20 1014 100 2000 1.5 60 01:26 26.12.2019
5480 Rain 20 1013 94 2000 1.12 46 00:47 26.12.2019
5481 Rain 20 1014 94 2000 1.12 46 00:24 26.12.2019
5482 Rain 21 1014 88 2000 1.5 330 23:58 25.12.2019
5483 Haze 21 1014 83 2500 1.5 310 23:38 25.12.2019
5484 Haze 21 1014 83 2500 1.5 310 23:19 25.12.2019
5485 Haze 22 1014 78 2500 1 320 22:57 25.12.2019
5486 Haze 22 1014 78 2500 2.6 340 22:37 25.12.2019
5487 Haze 22 1014 78 2500 2.6 340 22:19 25.12.2019
5488 Haze 22 1014 83 2500 1.5 320 21:57 25.12.2019
5489 Haze 22 1014 83 2500 1.5 320 21:39 25.12.2019
5490 Haze 23 1014 78 2500 1 350 21:19 25.12.2019
5491 Haze 23 1015 78 2500 1 330 20:41 25.12.2019
5492 Haze 23 1015 73 2500 2.6 340 20:21 25.12.2019
5493 Haze 23 1015 73 2500 1.5 300 19:59 25.12.2019
5494 Haze 23 1015 73 2500 1.5 300 19:41 25.12.2019
5495 Haze 23 1015 73 2500 4.03 310 19:21 25.12.2019
5496 Haze 22 1015 78 2500 4.03 310 18:40 25.12.2019
5497 Haze 23 1015 73 2500 4.03 310 18:21 25.12.2019
5498 Haze 23 1016 69 2500 4.03 310 17:58 25.12.2019
5499 Haze 22 1016 78 2500 17.5 170 17:39 25.12.2019
5500 Haze 22 1016 78 2500 17.5 170 17:18 25.12.2019
5501 Haze 23 1016 64 2500 2.1 210 16:54 25.12.2019
5502 Haze 23 1015 64 2500 2.75 325 16:36 25.12.2019
5503 Haze 23 1015 64 2500 2.75 325 16:18 25.12.2019
5504 Haze 23 1015 64 2500 2.75 325 15:41 25.12.2019
5505 Haze 23 1015 64 2500 2.75 325 15:23 25.12.2019
5506 Haze 24 1014 64 2500 2.75 325 14:59 25.12.2019
5507 Haze 24 1014 64 2500 2.75 325 14:41 25.12.2019
5508 Haze 24 1014 64 2500 2.75 325 14:23 25.12.2019
5509 Haze 25 1014 57 2500 2.77 219 13:58 25.12.2019
5510 Haze 25 1014 57 2500 2.77 219 13:39 25.12.2019
5511 Haze 25 1014 53 2500 1.5 180 13:19 25.12.2019
5512 Haze 26 1014 50 2500 1.5 210 12:43 25.12.2019
5513 Haze 26 1013 50 2500 2.1 200 12:21 25.12.2019
5514 Haze 26 1013 50 2500 2.1 200 12:21 25.12.2019
5515 Haze 27 1013 51 2500 1.5 210 11:57 25.12.2019
5516 Haze 27 1013 47 2500 2.1 200 11:39 25.12.2019
5517 Haze 27 1013 47 2500 2.1 200 11:20 25.12.2019
5518 Haze 28 1014 48 2500 3.1 240 10:39 25.12.2019
5519 Haze 28 1014 48 2500 3.1 240 10:21 25.12.2019
5520 Haze 28 1014 45 2500 3.1 220 09:51 25.12.2019
5521 Haze 28 1014 45 2500 4.1 250 09:33 25.12.2019
5522 Haze 28 1015 48 2500 3.6 210 08:51 25.12.2019
5523 Haze 27 1015 51 2500 3.1 210 08:32 25.12.2019
5524 Haze 27 1016 51 2500 3.6 180 07:59 25.12.2019
5525 Haze 27 1016 51 2500 3.6 180 07:59 25.12.2019
5526 Haze 26 1017 57 2000 3.6 210 07:37 25.12.2019
5527 Haze 26 1017 57 2000 3.6 210 07:19 25.12.2019
5528 Mist 25 1018 61 1500 1.5 130 06:23 25.12.2019
5529 Mist 23 1018 69 1500 1 120 05:44 25.12.2019
5530 Mist 21 1018 83 1000 2.47 120 04:40 25.12.2019
5531 Fog 19 1017 88 0 2.47 120 04:20 25.12.2019
5532 Fog 18 1017 93 0 2.47 120 03:43 25.12.2019
5533 Mist 17 1016 93 1200 2.47 120 02:57 25.12.2019
5534 Mist 18 1016 88 1500 2.47 120 02:28 25.12.2019
5535 Mist 17 1015 93 2000 1.26 101 01:36 25.12.2019
5536 Mist 17 1015 93 2000 1.16 93 01:18 25.12.2019
5537 Mist 18 1015 93 2000 1.16 93 00:40 25.12.2019
5538 Mist 18 1014 93 2000 1.16 93 00:22 25.12.2019
5539 Mist 19 1015 88 2500 1 300 23:39 24.12.2019
5540 Mist 19 1015 88 2500 1 300 23:20 24.12.2019
5541 Haze 19 1015 88 3000 1 290 22:42 24.12.2019
5542 Haze 19 1015 82 3000 1.27 98 22:23 24.12.2019
5543 Haze 19 1015 82 3000 1.27 98 21:57 24.12.2019
5544 Haze 19 1016 88 3000 1 150 21:37 24.12.2019
5545 Haze 19 1016 88 3000 1 150 21:19 24.12.2019
5546 Haze 19 1016 88 3000 1.5 150 20:41 24.12.2019
5547 Haze 18 1016 93 3000 1 150 20:20 24.12.2019
5548 Haze 19 1016 82 3000 1.82 133 19:47 24.12.2019
5549 Haze 20 1017 77 3000 1.82 133 19:22 24.12.2019
5550 Haze 20 1017 77 3000 1.82 133 19:22 24.12.2019
5551 Haze 20 1017 82 3000 1.82 133 18:59 24.12.2019
5552 Haze 20 1017 82 3000 1.82 133 18:40 24.12.2019
5553 Haze 21 1017 77 3000 1.82 133 18:18 24.12.2019
5554 Haze 21 1017 77 3000 1.82 133 17:43 24.12.2019
5555 Haze 21 1017 77 3000 2.48 109 17:22 24.12.2019
5556 Haze 21 1017 73 3000 2.48 109 16:58 24.12.2019
5557 Haze 21 1017 73 3000 2.48 109 16:39 24.12.2019
5558 Haze 22 1017 68 3000 2.48 109 16:20 24.12.2019
5559 Haze 22 1017 68 3000 1 200 15:57 24.12.2019
5560 Haze 23 1016 69 2500 1 190 15:37 24.12.2019
5561 Haze 23 1016 69 2500 1 190 15:19 24.12.2019
5562 Haze 23 1016 69 2500 1 210 14:57 24.12.2019
5563 Haze 23 1016 69 2500 1 210 14:39 24.12.2019
5564 Haze 23 1015 69 2500 1 180 14:21 24.12.2019
5565 Haze 24 1015 64 2500 1 180 13:55 24.12.2019
5566 Haze 25 1015 61 2000 1 180 13:37 24.12.2019
5567 Haze 25 1015 61 2000 1 180 13:19 24.12.2019
5568 Haze 26 1015 54 2000 1.5 180 12:55 24.12.2019
5569 Haze 26 1015 54 2000 1 200 12:36 24.12.2019
5570 Haze 26 1015 54 2000 1 200 12:18 24.12.2019
5571 Haze 27 1015 51 2000 2.1 180 11:55 24.12.2019
5572 Haze 27 1015 51 2000 2.1 180 11:55 24.12.2019
5573 Haze 27 1015 51 2000 2.6 180 11:37 24.12.2019
5574 Haze 27 1015 51 2000 2.6 180 11:37 24.12.2019
5575 Haze 27 1015 51 2000 2.6 180 11:37 24.12.2019
5576 Haze 27 1015 51 2000 2.6 180 11:18 24.12.2019
5577 Haze 27 1015 54 2000 3.1 180 10:56 24.12.2019
5578 Haze 27 1015 51 2000 3.1 180 10:37 24.12.2019
5579 Haze 27 1015 51 2000 3.1 180 10:19 24.12.2019
5580 Haze 27 1016 54 2000 3.1 200 09:55 24.12.2019
5581 Haze 26 1016 57 2500 3.1 200 09:36 24.12.2019
5582 Haze 26 1016 57 2500 3.1 200 09:18 24.12.2019
5583 Haze 26 1017 57 3000 3.6 160 08:44 24.12.2019
5584 Haze 26 1017 54 3000 3.6 170 08:20 24.12.2019
5585 Haze 26 1018 54 2500 2.6 180 07:45 24.12.2019
5586 Haze 26 1018 54 2500 2.6 180 07:25 24.12.2019
5587 Haze 26 1018 54 2500 2.6 180 07:25 24.12.2019
5588 Mist 24 1019 60 2500 1 60 06:58 24.12.2019
5589 Mist 23 1019 60 2500 1 100 06:38 24.12.2019
5590 Mist 23 1019 60 2500 1 100 06:18 24.12.2019
5591 Mist 22 1019 60 2000 3.1 140 05:20 24.12.2019
5592 Mist 21 1019 68 1500 2.42 109 04:44 24.12.2019
5593 Mist 19 1018 77 1500 2.42 109 03:50 24.12.2019
5594 Mist 17 1018 88 1500 2.42 109 03:18 24.12.2019
5595 Mist 16 1016 93 2000 1.88 86 02:21 24.12.2019
5596 Mist 16 1016 87 2000 1.88 86 01:50 24.12.2019
5597 Mist 17 1016 88 2000 1.82 78 01:20 24.12.2019
5598 Mist 17 1016 88 2500 1 60 00:43 24.12.2019
5599 Mist 18 1016 88 2500 1.82 78 00:23 24.12.2019
5600 Mist 18 1016 88 2500 1.82 78 23:56 23.12.2019
5601 Haze 18 1015 88 2500 1 70 23:37 23.12.2019
5602 Haze 18 1015 88 2500 1 70 23:19 23.12.2019
5603 Haze 18 1015 82 2500 1.5 90 22:55 23.12.2019
5604 Haze 18 1015 82 2500 1.5 90 22:55 23.12.2019
5605 Haze 17 1015 88 2500 1.5 90 22:36 23.12.2019
5606 Haze 17 1015 88 2500 1.5 90 22:36 23.12.2019
5607 Haze 17 1015 88 2500 1.5 90 22:36 23.12.2019
5608 Haze 17 1015 88 2500 1.5 90 22:18 23.12.2019
5609 Haze 17 1015 93 2500 1.33 68 21:55 23.12.2019
5610 Haze 18 1016 88 2500 1.33 68 21:36 23.12.2019
5611 Haze 18 1016 88 2500 1.33 68 21:36 23.12.2019
5612 Haze 18 1016 88 2500 1.33 68 21:18 23.12.2019
5613 Haze 18 1016 88 2500 1.33 68 20:56 23.12.2019
5614 Haze 18 1016 88 2500 1.33 68 20:56 23.12.2019
5615 Haze 18 1016 88 3000 1.33 68 20:38 23.12.2019
5616 Haze 18 1016 88 3000 1.53 150 20:18 23.12.2019
5617 Haze 19 1016 77 3000 1.53 150 19:55 23.12.2019
5618 Haze 19 1016 77 3000 1.53 150 19:55 23.12.2019
5619 Haze 19 1016 77 3000 1.53 150 19:37 23.12.2019
5620 Haze 19 1016 77 3000 1.53 150 19:18 23.12.2019
5621 Haze 19 1016 77 3000 1.53 150 18:55 23.12.2019
5622 Haze 18 1017 82 3000 1.53 150 18:36 23.12.2019
5623 Haze 18 1017 82 3000 1.53 150 18:18 23.12.2019
5624 Haze 19 1017 82 3000 1 100 17:55 23.12.2019
5625 Haze 21 1017 73 3000 1 80 17:37 23.12.2019
5626 Haze 21 1017 73 3000 1 80 17:18 23.12.2019
5627 Haze 21 1016 73 3000 1 100 16:42 23.12.2019
5628 Haze 21 1016 73 3000 1.5 90 16:19 23.12.2019
5629 Haze 21 1016 73 3000 1 100 15:58 23.12.2019
5630 Haze 22 1015 68 3000 1 90 15:38 23.12.2019
5631 Haze 22 1015 68 3000 1 90 15:19 23.12.2019
5632 Haze 22 1015 68 3000 1 90 14:58 23.12.2019
5633 Haze 23 1014 64 3000 1 110 14:39 23.12.2019
5634 Haze 23 1014 64 3000 1 110 14:21 23.12.2019
5635 Haze 24 1014 60 3000 1 130 13:58 23.12.2019
5636 Haze 24 1014 60 3000 1 130 13:40 23.12.2019
5637 Haze 24 1014 57 3000 1.5 100 13:21 23.12.2019
5638 Haze 25 1014 53 3000 1.5 100 12:55 23.12.2019
5639 Haze 26 1014 50 3000 1.5 110 12:37 23.12.2019
5640 Haze 26 1014 50 3000 1.5 110 12:19 23.12.2019
5641 Haze 26 1014 44 3500 1.5 160 11:44 23.12.2019
5642 Haze 26 1014 44 3500 1.5 160 11:25 23.12.2019
5643 Haze 27 1014 42 3500 2.58 118 10:56 23.12.2019
5644 Haze 27 1014 42 3500 2.1 80 10:38 23.12.2019
5645 Haze 27 1014 42 3500 2.1 80 10:20 23.12.2019
5646 Haze 27 1015 39 3500 1.5 130 09:59 23.12.2019
5647 Haze 27 1015 42 3500 1 90 09:39 23.12.2019
5648 Haze 27 1015 42 3500 1 90 09:20 23.12.2019
5649 Haze 26 1016 44 3500 2.1 90 08:55 23.12.2019
5650 Haze 26 1016 41 3500 2.1 110 08:37 23.12.2019
5651 Haze 26 1016 41 3500 2.1 110 08:18 23.12.2019
5652 Haze 26 1017 41 3500 2.1 120 07:43 23.12.2019
5653 Haze 25 1018 44 3000 1.5 90 07:20 23.12.2019
5654 Haze 24 1018 47 3000 2.1 80 06:50 23.12.2019
5655 Haze 24 1018 47 3000 1.5 80 06:23 23.12.2019
5656 Haze 23 1019 46 3000 2.1 70 05:49 23.12.2019
5657 Mist 21 1018 56 2500 3.09 40 05:19 23.12.2019
5658 Mist 19 1018 68 2000 3.09 40 04:19 23.12.2019
5659 Mist 19 1016 63 2000 3.09 40 02:49 23.12.2019
5660 Haze 19 1016 63 2000 1.5 20 02:25 23.12.2019
5661 Haze 19 1016 63 2000 1.5 20 01:53 23.12.2019
5662 Haze 19 1015 68 3000 1 20 01:32 23.12.2019
5663 Haze 19 1015 68 3000 1 20 00:55 23.12.2019
5664 Haze 19 1015 68 3000 1 20 00:35 23.12.2019
5665 Haze 19 1015 68 3000 1 10 23:57 22.12.2019
5666 Haze 19 1015 72 3000 2.41 41 23:39 22.12.2019
5667 Haze 19 1015 72 3000 2.56 35 23:20 22.12.2019
5668 Haze 19 1015 77 3000 2.56 35 22:57 22.12.2019
5669 Haze 20 1015 68 3000 2.56 35 22:38 22.12.2019
5670 Haze 20 1015 68 3000 2.56 35 22:38 22.12.2019
5671 Haze 20 1015 68 3000 2.56 35 22:19 22.12.2019
5672 Haze 20 1015 68 3000 1 10 21:56 22.12.2019
5673 Haze 21 1016 68 3000 1 360 21:38 22.12.2019
5674 Haze 21 1016 68 3000 1 360 21:38 22.12.2019
5675 Haze 21 1016 68 3000 1 360 21:20 22.12.2019
5676 Haze 21 1016 64 3000 2.56 35 20:43 22.12.2019
5677 Haze 21 1016 64 3000 1.8 60 20:20 22.12.2019
5678 Haze 21 1016 64 3000 1.8 60 20:20 22.12.2019
5679 Haze 21 1016 64 3000 1.8 60 19:58 22.12.2019
5680 Haze 21 1016 64 3000 1.8 60 19:40 22.12.2019
5681 Haze 21 1016 68 3000 1.8 60 19:20 22.12.2019
5682 Haze 21 1016 64 3000 1.8 60 18:58 22.12.2019
5683 Haze 22 1016 60 3000 1.8 60 18:38 22.12.2019
5684 Haze 22 1016 60 3000 1.8 60 18:19 22.12.2019
5685 Haze 22 1016 60 3000 1.5 60 17:55 22.12.2019
5686 Haze 22 1016 60 3000 1.5 60 17:36 22.12.2019
5687 Haze 22 1016 60 3000 1.5 60 17:18 22.12.2019
5688 Haze 23 1016 53 3000 1 70 16:42 22.12.2019
5689 Haze 23 1016 53 3000 1 70 16:23 22.12.2019
5690 Haze 23 1016 53 3000 1 70 16:23 22.12.2019
5691 Haze 23 1016 53 3000 1.5 50 15:57 22.12.2019
5692 Haze 23 1016 53 3000 1.5 50 15:39 22.12.2019
5693 Haze 23 1015 56 3000 2.1 60 15:21 22.12.2019
5694 Haze 23 1015 56 3000 1.5 70 14:57 22.12.2019
5695 Haze 23 1015 53 3000 1 70 14:38 22.12.2019
5696 Haze 23 1015 53 3000 1 70 14:19 22.12.2019
5697 Haze 24 1014 53 3000 1 80 13:56 22.12.2019
5698 Haze 24 1014 50 3000 1 80 13:38 22.12.2019
5699 Haze 24 1014 50 3000 1 80 13:19 22.12.2019
5700 Haze 25 1014 50 3000 1 80 12:57 22.12.2019
5701 Haze 25 1014 47 3000 1 70 12:38 22.12.2019
5702 Haze 25 1014 47 3000 1 70 12:19 22.12.2019
5703 Haze 26 1014 44 3000 1.5 100 11:56 22.12.2019
5704 Haze 26 1014 44 3000 1 100 11:38 22.12.2019
5705 Haze 26 1014 44 3000 1 100 11:19 22.12.2019
5706 Haze 27 1014 39 3000 1 110 10:56 22.12.2019
5707 Haze 27 1015 42 3000 1 110 10:38 22.12.2019
5708 Haze 27 1015 42 3000 1 110 10:19 22.12.2019
5709 Haze 27 1015 42 3000 1 110 10:19 22.12.2019
5710 Haze 27 1015 39 3000 1 120 09:57 22.12.2019
5711 Haze 27 1016 42 3000 1 90 09:39 22.12.2019
5712 Haze 27 1016 42 3000 1 90 09:20 22.12.2019
5713 Haze 27 1016 42 2500 1.5 100 08:42 22.12.2019
5714 Haze 26 1017 44 2500 1.5 90 08:22 22.12.2019
5715 Haze 26 1018 47 2500 1.5 50 07:43 22.12.2019
5716 Mist 25 1018 47 2500 1 40 07:21 22.12.2019
5717 Mist 24 1019 53 2500 1 60 06:52 22.12.2019
5718 Mist 24 1019 50 2500 1 70 06:25 22.12.2019
5719 Haze 22 1019 56 2500 1 360 05:32 22.12.2019
5720 Haze 21 1018 64 2500 1 30 04:46 22.12.2019
5721 Mist 20 1018 64 2000 1 10 04:25 22.12.2019
5722 Mist 17 1017 82 2500 2.98 43 02:45 22.12.2019
5723 Mist 17 1017 88 2500 2.73 36 02:20 22.12.2019
5724 Mist 18 1016 82 2500 2.73 36 01:31 22.12.2019
5725 Mist 18 1016 88 2500 2.66 40 00:54 22.12.2019
5726 Mist 19 1015 77 2500 2.66 40 00:36 22.12.2019
5727 Mist 19 1015 77 2500 2.66 40 00:18 22.12.2019
5728 Mist 19 1015 72 2500 2.66 40 23:40 21.12.2019
5729 Mist 20 1015 72 2500 1.5 30 23:21 21.12.2019
5730 Mist 20 1015 77 2500 2.5 42 22:47 21.12.2019
5731 Mist 20 1015 77 2500 2.5 42 22:20 21.12.2019
5732 Mist 20 1015 77 2500 2.5 42 21:58 21.12.2019
5733 Mist 20 1015 77 2500 2.5 42 21:40 21.12.2019
5734 Mist 20 1015 77 2500 1.5 30 21:21 21.12.2019
5735 Mist 20 1016 77 2500 1.5 10 20:59 21.12.2019
5736 Mist 20 1016 77 2500 1.5 10 20:41 21.12.2019
5737 Mist 21 1016 73 2500 1.5 10 20:22 21.12.2019
5738 Mist 20 1016 77 2500 0.72 107 19:59 21.12.2019
5739 Mist 20 1016 77 2500 0.72 107 19:41 21.12.2019
5740 Mist 20 1016 77 2500 0.72 107 19:20 21.12.2019
5741 Mist 20 1016 72 2500 0.72 107 18:56 21.12.2019
5742 Mist 20 1016 77 2500 0.72 107 18:38 21.12.2019
5743 Mist 20 1016 77 2500 0.72 107 18:20 21.12.2019
5744 Mist 20 1016 72 2500 0.72 107 17:55 21.12.2019
5745 Mist 21 1016 73 2500 0.72 107 17:37 21.12.2019
5746 Mist 21 1016 73 2500 1.28 111 17:18 21.12.2019
5747 Mist 21 1016 68 2500 1.28 111 16:41 21.12.2019
5748 Mist 21 1016 73 2500 1.5 90 16:19 21.12.2019
5749 Mist 21 1016 73 2500 1.5 90 16:19 21.12.2019
5750 Haze 22 1015 68 2500 1.5 90 15:58 21.12.2019
5751 Haze 22 1015 68 2500 1.5 90 15:39 21.12.2019
5752 Haze 23 1015 60 2500 1 80 15:20 21.12.2019
5753 Haze 23 1015 60 2500 1 50 14:57 21.12.2019
5754 Haze 23 1014 60 2500 1 60 14:39 21.12.2019
5755 Haze 23 1014 60 2500 1 60 14:39 21.12.2019
5756 Haze 23 1014 60 2500 1 60 14:20 21.12.2019
5757 Haze 23 1014 60 2500 1 80 13:56 21.12.2019
5758 Haze 24 1014 60 2500 1 80 13:38 21.12.2019
5759 Haze 24 1014 60 2500 1 80 13:18 21.12.2019
5760 Haze 25 1014 57 3000 1 50 12:55 21.12.2019
5761 Haze 26 1013 50 3000 1 60 12:37 21.12.2019
5762 Haze 26 1013 50 3000 1 60 12:18 21.12.2019
5763 Haze 27 1013 47 3000 1 70 11:44 21.12.2019
5764 Haze 27 1013 47 3000 1 50 11:26 21.12.2019
5765 Haze 27 1014 47 3000 1 90 10:57 21.12.2019
5766 Haze 27 1014 47 3000 1 90 10:57 21.12.2019
5767 Haze 27 1014 51 3000 1.5 100 10:38 21.12.2019
5768 Haze 27 1014 51 3000 1.5 100 10:20 21.12.2019
5769 Haze 27 1014 51 3000 1 100 09:44 21.12.2019
5770 Haze 26 1015 50 3000 2.6 110 09:22 21.12.2019
5771 Haze 26 1015 50 3000 1 110 08:59 21.12.2019
5772 Haze 26 1015 50 3000 1 110 08:39 21.12.2019
5773 Haze 26 1016 50 3000 1 110 08:21 21.12.2019
5774 Haze 25 1017 50 3000 1 100 07:44 21.12.2019
5775 Haze 25 1018 47 3000 1.5 90 07:22 21.12.2019
5776 Haze 24 1018 50 2500 2.1 90 06:45 21.12.2019
5777 Haze 23 1018 46 2500 2.1 60 06:26 21.12.2019
5778 Haze 22 1018 49 2500 1.5 50 05:51 21.12.2019
5779 Mist 20 1018 64 2000 1.96 68 04:58 21.12.2019
5780 Mist 17 1017 82 1500 1.96 68 03:59 21.12.2019
5781 Mist 16 1017 82 1500 1.96 68 03:18 21.12.2019
5782 Mist 15 1016 93 2500 1 10 01:59 21.12.2019
5783 Haze 16 1016 87 3000 1 10 01:28 21.12.2019
5784 Haze 16 1015 87 3000 1.82 52 00:55 21.12.2019
5785 Haze 16 1015 82 3000 1.82 52 00:37 21.12.2019
5786 Haze 16 1015 82 3000 1.82 52 00:18 21.12.2019
5787 Haze 17 1015 82 3000 1.5 20 23:38 20.12.2019
5788 Haze 17 1015 82 3000 1.5 20 23:19 20.12.2019
5789 Haze 16 1015 87 3000 2.32 39 22:41 20.12.2019
5790 Haze 17 1015 82 3000 2.32 39 22:21 20.12.2019
5791 Haze 17 1015 88 3000 2.32 39 21:59 20.12.2019
5792 Haze 17 1015 88 3000 2.32 39 21:40 20.12.2019
5793 Haze 16 1015 87 3000 2.32 39 21:20 20.12.2019
5794 Haze 16 1015 87 3000 2.32 39 21:20 20.12.2019
5795 Haze 18 1015 77 3000 1 50 20:41 20.12.2019
5796 Haze 19 1015 77 3000 1 40 20:21 20.12.2019
5797 Haze 19 1016 77 3000 1 40 19:59 20.12.2019
5798 Haze 19 1016 77 3000 1 40 19:59 20.12.2019
5799 Haze 19 1016 77 3000 1 40 19:40 20.12.2019
5800 Haze 20 1016 72 3000 1 40 19:20 20.12.2019
5801 Haze 20 1016 77 3000 1 50 18:55 20.12.2019
5802 Haze 20 1016 77 3000 1 50 18:55 20.12.2019
5803 Haze 20 1016 77 3000 1 50 18:55 20.12.2019
5804 Haze 19 1016 77 3000 1 40 18:36 20.12.2019
5805 Haze 19 1016 77 3000 1 40 18:36 20.12.2019
5806 Haze 19 1016 77 3000 1 40 18:18 20.12.2019
5807 Haze 20 1016 72 3000 2.41 49 17:42 20.12.2019
5808 Haze 20 1016 72 3000 2.41 49 17:42 20.12.2019
5809 Haze 20 1016 72 3000 1.08 139 17:21 20.12.2019
5810 Haze 20 1016 72 3000 1 150 16:59 20.12.2019
5811 Haze 20 1016 72 3000 1.08 139 16:40 20.12.2019
5812 Haze 20 1016 72 3000 1.08 139 16:20 20.12.2019
5813 Haze 20 1016 72 3000 1.08 139 16:20 20.12.2019
5814 Haze 21 1016 68 3000 1.08 139 15:57 20.12.2019
5815 Haze 21 1016 68 3000 1.08 139 15:39 20.12.2019
5816 Haze 21 1016 68 3000 1.08 139 15:19 20.12.2019
5817 Haze 21 1015 68 3000 1 140 14:57 20.12.2019
5818 Haze 21 1015 68 3000 1 140 14:57 20.12.2019
5819 Haze 22 1015 68 2500 1 120 14:39 20.12.2019
5820 Haze 22 1015 68 2500 1 120 14:20 20.12.2019
5821 Haze 24 1014 60 2000 1 120 13:42 20.12.2019
5822 Haze 24 1014 60 2000 1 120 13:21 20.12.2019
5823 Haze 26 1013 50 2000 1 30 12:59 20.12.2019
5824 Haze 26 1013 50 2000 1 30 12:40 20.12.2019
5825 Haze 26 1013 50 2000 1 30 12:19 20.12.2019
5826 Haze 26 1013 50 2000 1 30 11:59 20.12.2019
5827 Haze 27 1013 47 2500 1 30 11:39 20.12.2019
5828 Haze 27 1013 47 2500 1 30 11:20 20.12.2019
5829 Haze 27 1013 47 2500 1 30 10:59 20.12.2019
5830 Haze 27 1013 47 2500 1.5 30 10:41 20.12.2019
5831 Haze 27 1013 47 2500 1.5 30 10:20 20.12.2019
5832 Haze 26 1014 50 2500 1 320 09:55 20.12.2019
5833 Haze 26 1014 50 2500 1 30 09:37 20.12.2019
5834 Haze 26 1014 50 2500 1 30 09:19 20.12.2019
5835 Haze 25 1015 53 2500 1 90 08:42 20.12.2019
5836 Haze 25 1015 53 2500 1 90 08:22 20.12.2019
5837 Haze 25 1016 53 2500 1.5 60 07:58 20.12.2019
5838 Haze 24 1017 53 2500 1 60 07:40 20.12.2019
5839 Haze 24 1017 53 2500 1 60 07:19 20.12.2019
5840 Haze 24 1017 53 2500 1 60 07:19 20.12.2019
5841 Mist 23 1017 56 2500 1.5 90 06:50 20.12.2019
5842 Mist 22 1018 56 2500 2.1 110 06:31 20.12.2019
5843 Mist 22 1018 60 2000 1 90 05:52 20.12.2019
5844 Mist 21 1018 60 2000 1.5 70 05:34 20.12.2019
5845 Mist 19 1017 77 1500 1.5 30 04:30 20.12.2019
5846 Mist 16 1016 87 1500 1 30 03:29 20.12.2019
5847 Mist 15 1016 87 2000 2.11 59 02:41 20.12.2019
5848 Haze 16 1016 82 2500 1.77 39 01:44 20.12.2019
5849 Haze 17 1015 82 2500 1 20 01:18 20.12.2019
5850 Haze 17 1015 77 2500 1.58 40 00:41 20.12.2019
5851 Haze 17 1015 77 2500 1.58 40 00:20 20.12.2019
5852 Haze 17 1015 77 2500 1 30 23:43 19.12.2019
5853 Haze 17 1015 77 2500 1 30 23:24 19.12.2019
5854 Haze 18 1015 77 2500 1 10 22:56 19.12.2019
5855 Haze 18 1015 77 2500 2.7 44 22:36 19.12.2019
5856 Haze 18 1015 77 2500 2.7 44 22:36 19.12.2019
5857 Haze 18 1015 77 2500 2.7 44 22:18 19.12.2019
5858 Haze 18 1015 77 2500 2.7 44 22:18 19.12.2019
5859 Haze 18 1015 77 2500 1.5 50 21:42 19.12.2019
5860 Haze 18 1015 77 2500 1.5 50 21:42 19.12.2019
5861 Haze 18 1015 77 2500 1.5 50 21:42 19.12.2019
5862 Haze 18 1015 77 2500 1.5 50 21:20 19.12.2019
5863 Haze 19 1016 72 2500 1 50 20:59 19.12.2019
5864 Haze 19 1016 72 2500 1 30 20:39 19.12.2019
5865 Haze 19 1016 72 2500 1 30 20:21 19.12.2019
5866 Haze 19 1016 77 2500 1 40 19:59 19.12.2019
5867 Haze 19 1016 77 2500 1 40 19:59 19.12.2019
5868 Haze 20 1016 72 2500 1 40 19:40 19.12.2019
5869 Haze 20 1016 72 2500 1 40 19:20 19.12.2019
5870 Haze 20 1016 77 2500 1 30 19:00 19.12.2019
5871 Haze 19 1016 77 2500 3.11 32 18:41 19.12.2019
5872 Haze 19 1016 77 2500 3.11 32 18:20 19.12.2019
5873 Haze 19 1016 77 2500 3.11 32 17:57 19.12.2019
5874 Haze 20 1016 72 2500 1 170 17:38 19.12.2019
5875 Haze 20 1016 72 2500 1 170 17:38 19.12.2019
5876 Haze 20 1016 72 2500 1 170 17:19 19.12.2019
5877 Haze 20 1016 72 2500 0.82 111 16:57 19.12.2019
5878 Haze 20 1016 72 2500 1 190 16:38 19.12.2019
5879 Haze 20 1016 72 2500 1 190 16:20 19.12.2019
5880 Haze 20 1016 72 2500 1 190 16:20 19.12.2019
5881 Haze 20 1016 72 2500 0.82 111 15:58 19.12.2019
5882 Haze 20 1015 77 2500 1.5 150 15:39 19.12.2019
5883 Haze 20 1015 77 2500 1.5 150 15:19 19.12.2019
5884 Haze 21 1015 68 2500 1.5 130 14:57 19.12.2019
5885 Haze 21 1015 68 2500 1.5 150 14:39 19.12.2019
5886 Haze 21 1015 68 2500 1.5 150 14:18 19.12.2019
5887 Haze 23 1014 64 3000 2.21 141 13:39 19.12.2019
5888 Haze 23 1014 64 3000 1.98 162 13:20 19.12.2019
5889 Haze 25 1014 53 3000 1 20 12:59 19.12.2019
5890 Haze 26 1014 50 3000 1 20 12:40 19.12.2019
5891 Haze 26 1014 50 3000 1 20 12:19 19.12.2019
5892 Haze 26 1014 50 3000 1 20 12:19 19.12.2019
5893 Haze 26 1014 50 3000 1 20 12:19 19.12.2019
5894 Haze 26 1014 47 3000 1 360 11:59 19.12.2019
5895 Haze 26 1014 47 3000 1 10 11:41 19.12.2019
5896 Haze 26 1014 47 3000 1 10 11:20 19.12.2019
5897 Haze 26 1014 47 3000 1 10 11:20 19.12.2019
5898 Haze 26 1014 47 3000 1 10 11:20 19.12.2019
5899 Haze 27 1014 47 3000 4.1 20 10:59 19.12.2019
5900 Haze 27 1015 44 3000 1.5 60 10:38 19.12.2019
5901 Haze 27 1015 44 3000 1.5 60 10:38 19.12.2019
5902 Haze 27 1015 44 3000 1.5 60 10:20 19.12.2019
5903 Haze 26 1015 44 3000 1.28 311 09:57 19.12.2019
5904 Haze 26 1016 47 3000 1 60 09:37 19.12.2019
5905 Haze 26 1016 50 3000 1 60 09:19 19.12.2019
5906 Haze 26 1016 50 3000 1 60 08:55 19.12.2019
5907 Haze 25 1017 50 3000 1 60 08:37 19.12.2019
5908 Haze 25 1017 50 3000 1 60 08:18 19.12.2019
5909 Haze 24 1019 47 3000 1 50 07:43 19.12.2019
5910 Haze 24 1019 47 3000 1 50 07:24 19.12.2019
5911 Haze 23 1019 46 3000 1 50 06:59 19.12.2019
5912 Haze 23 1020 43 3000 1 70 06:41 19.12.2019
5913 Haze 23 1020 43 3000 1 70 06:21 19.12.2019
5914 Haze 21 1020 52 2500 1 60 05:42 19.12.2019
5915 Haze 21 1020 52 2500 1 60 05:19 19.12.2019
5916 Mist 17 1019 67 2000 1 20 03:53 19.12.2019
5917 Mist 16 1018 72 2500 2.83 50 02:29 19.12.2019
5918 Mist 16 1017 72 2500 1 20 01:26 19.12.2019
5919 Haze 17 1017 72 2500 2.64 44 00:59 19.12.2019
5920 Haze 17 1017 72 2500 1 40 00:39 19.12.2019
5921 Haze 17 1017 72 2500 1 40 00:19 19.12.2019
5922 Haze 17 1017 72 2500 2.64 44 23:45 18.12.2019
5923 Haze 17 1017 77 2500 1 30 23:19 18.12.2019
5924 Haze 17 1017 82 2500 1.5 40 22:58 18.12.2019
5925 Haze 17 1017 88 2500 1 20 22:39 18.12.2019
5926 Haze 17 1017 88 2500 1 20 22:21 18.12.2019
5927 Haze 17 1017 82 2500 3.22 40 21:58 18.12.2019
5928 Haze 18 1017 77 2500 3.22 40 21:40 18.12.2019
5929 Haze 18 1017 77 2500 3.22 40 21:20 18.12.2019
5930 Haze 18 1017 77 2500 3.22 40 21:20 18.12.2019
5931 Haze 17 1018 82 2500 3.22 40 20:57 18.12.2019
5932 Haze 18 1018 77 2500 1 50 20:38 18.12.2019
5933 Haze 18 1018 77 2500 1 50 20:20 18.12.2019
5934 Haze 19 1018 72 2500 1 50 19:56 18.12.2019
5935 Haze 19 1018 77 2500 1 60 19:38 18.12.2019
5936 Haze 19 1018 77 2500 1 60 19:38 18.12.2019
5937 Haze 19 1018 77 2500 1 60 19:18 18.12.2019
5938 Haze 19 1018 82 2500 1 60 18:54 18.12.2019
5939 Haze 20 1019 77 2500 1 90 18:36 18.12.2019
5940 Haze 20 1019 77 2500 1 90 18:18 18.12.2019
5941 Haze 20 1019 77 2500 1 90 17:55 18.12.2019
5942 Haze 20 1019 77 2500 1 80 17:37 18.12.2019
5943 Haze 20 1019 77 2500 1 90 17:18 18.12.2019
5944 Haze 20 1019 77 2500 1 90 16:42 18.12.2019
5945 Haze 20 1019 77 2500 1 90 16:42 18.12.2019
5946 Haze 20 1019 77 2500 1.5 90 16:23 18.12.2019
5947 Haze 20 1019 82 2500 1 90 15:57 18.12.2019
5948 Haze 21 1018 77 2500 1 80 15:39 18.12.2019
5949 Haze 21 1018 77 2500 1 80 15:21 18.12.2019
5950 Haze 21 1018 77 2500 1 90 14:56 18.12.2019
5951 Haze 21 1018 77 2500 1 90 14:36 18.12.2019
5952 Haze 21 1018 77 2500 1 90 14:18 18.12.2019
5953 Haze 22 1017 73 2500 1 100 13:54 18.12.2019
5954 Haze 22 1017 73 2500 1 100 13:36 18.12.2019
5955 Haze 22 1017 73 2500 1 100 13:18 18.12.2019
5956 Haze 22 1017 73 2500 1 100 13:18 18.12.2019
5957 Haze 25 1017 61 2500 1 100 12:40 18.12.2019
5958 Haze 25 1017 61 2500 1 100 12:40 18.12.2019
5959 Haze 25 1017 61 2500 1 100 12:21 18.12.2019
5960 Haze 25 1017 57 2500 1 90 11:57 18.12.2019
5961 Haze 25 1017 53 2500 1 120 11:39 18.12.2019
5962 Haze 25 1017 53 2500 1 120 11:20 18.12.2019
5963 Haze 25 1017 57 2500 1 60 10:57 18.12.2019
5964 Haze 25 1017 53 2500 1 80 10:39 18.12.2019
5965 Haze 25 1017 53 2500 1 80 10:20 18.12.2019
5966 Haze 25 1017 53 2500 1 80 10:20 18.12.2019
5967 Haze 25 1018 57 2500 1 80 09:57 18.12.2019
5968 Haze 24 1018 57 2500 1 60 09:19 18.12.2019
5969 Haze 24 1019 60 2500 1 60 08:42 18.12.2019
5970 Haze 23 1019 60 2500 1.5 70 08:24 18.12.2019
5971 Haze 23 1020 60 2500 1 60 07:57 18.12.2019
5972 Haze 22 1021 60 2500 1.5 50 07:39 18.12.2019
5973 Haze 22 1021 60 2500 1.5 50 07:19 18.12.2019
5974 Haze 21 1021 60 2500 1.5 70 06:51 18.12.2019
5975 Haze 20 1021 64 2500 1.5 40 06:23 18.12.2019
5976 Haze 18 1022 68 2500 1.5 40 05:34 18.12.2019
5977 Mist 16 1021 72 2000 1 60 03:46 18.12.2019
5978 Mist 15 1020 82 2000 1 360 02:44 18.12.2019
5979 Mist 15 1019 82 2000 1.5 60 02:26 18.12.2019
5980 Clouds 16 1017 63 0 3.14 18 01:43 18.12.2019
5981 Mist 16 1018 82 2500 3.14 18 01:25 18.12.2019
5982 Mist 16 1018 82 2500 3.08 24 00:42 18.12.2019
5983 Mist 16 1018 82 2500 3.08 24 00:24 18.12.2019
5984 Mist 16 1018 82 2500 3.08 24 23:58 17.12.2019
5985 Mist 16 1018 82 2500 3.08 24 23:39 17.12.2019
5986 Mist 16 1018 82 2500 3.31 32 23:20 17.12.2019
5987 Mist 16 1018 82 2500 1 20 22:57 17.12.2019
5988 Mist 16 1018 82 2500 2.1 20 22:38 17.12.2019
5989 Mist 16 1018 82 2500 2.1 20 22:19 17.12.2019
5990 Mist 16 1018 82 2500 1.5 20 21:57 17.12.2019
5991 Mist 17 1018 82 2500 2.1 20 21:38 17.12.2019
5992 Mist 17 1018 82 2500 2.1 20 21:20 17.12.2019
5993 Mist 17 1018 82 2500 1.5 20 20:58 17.12.2019
5994 Mist 17 1018 82 2500 2.1 20 20:39 17.12.2019
5995 Mist 17 1018 82 2500 2.1 20 20:18 17.12.2019
5996 Mist 17 1018 82 2500 1.5 20 19:56 17.12.2019
5997 Mist 18 1019 77 2500 3.1 20 19:38 17.12.2019
5998 Mist 18 1019 77 2500 3.1 20 19:19 17.12.2019
5999 Mist 18 1019 77 2500 2.1 20 18:55 17.12.2019
6000 Mist 18 1019 77 2500 3.6 30 18:37 17.12.2019
6001 Mist 18 1019 77 2500 3.6 30 18:19 17.12.2019
6002 Mist 19 1019 77 2500 2.1 50 17:42 17.12.2019
6003 Mist 19 1019 77 2500 2.1 50 17:42 17.12.2019
6004 Mist 19 1019 77 2500 2.1 50 17:21 17.12.2019
6005 Haze 20 1019 77 2500 2.1 50 16:57 17.12.2019
6006 Haze 20 1019 77 2500 2.1 50 16:38 17.12.2019
6007 Haze 20 1019 77 2500 2.1 50 16:19 17.12.2019
6008 Haze 21 1018 73 2500 3.1 40 15:58 17.12.2019
6009 Haze 21 1018 73 2500 2.6 40 15:37 17.12.2019
6010 Haze 21 1018 73 2500 2.6 40 15:19 17.12.2019
6011 Haze 21 1017 73 2500 1.5 80 14:56 17.12.2019
6012 Haze 22 1017 73 2500 1 80 14:37 17.12.2019
6013 Haze 22 1017 73 2500 1 80 14:18 17.12.2019
6014 Haze 22 1017 73 2500 1 80 14:18 17.12.2019
6015 Haze 22 1017 73 2500 1 80 14:18 17.12.2019
6016 Haze 22 1017 68 2500 1 90 13:56 17.12.2019
6017 Haze 23 1017 69 2500 1 60 13:37 17.12.2019
6018 Haze 23 1017 69 2500 1 60 13:18 17.12.2019
6019 Haze 24 1016 64 2500 1.5 60 12:55 17.12.2019
6020 Haze 25 1016 61 2500 1.5 50 12:37 17.12.2019
6021 Haze 25 1016 61 2500 1.5 50 12:18 17.12.2019
6022 Haze 25 1016 57 2500 1.5 50 11:54 17.12.2019
6023 Haze 25 1016 57 2500 1 60 11:36 17.12.2019
6024 Haze 25 1016 57 2500 1 360 11:18 17.12.2019
6025 Haze 25 1016 57 2500 1 360 10:54 17.12.2019
6026 Haze 25 1017 57 2500 1 40 10:36 17.12.2019
6027 Haze 25 1017 57 2500 1 40 10:18 17.12.2019
6028 Haze 25 1018 61 2500 1.5 80 09:42 17.12.2019
6029 Haze 25 1018 61 2500 1.5 80 09:21 17.12.2019
6030 Haze 25 1018 61 2500 1.5 80 09:21 17.12.2019
6031 Haze 24 1018 64 2000 1.5 60 08:56 17.12.2019
6032 Haze 24 1019 60 2000 1.5 60 08:38 17.12.2019
6033 Haze 24 1019 60 2000 1.5 60 08:38 17.12.2019
6034 Haze 24 1019 60 2000 1.5 60 08:38 17.12.2019
6035 Haze 24 1019 60 2000 1.5 60 08:38 17.12.2019
6036 Haze 24 1019 60 2000 1.5 60 08:20 17.12.2019
6037 Haze 23 1019 64 2000 1.5 70 07:55 17.12.2019
6038 Haze 22 1020 68 2000 1 50 07:36 17.12.2019
6039 Haze 22 1020 68 2000 1 50 07:18 17.12.2019
6040 Haze 21 1021 68 2000 2.1 50 06:35 17.12.2019
6041 Haze 21 1021 68 2000 2.1 50 05:56 17.12.2019
6042 Haze 19 1021 72 2000 1.5 30 05:36 17.12.2019
6043 Mist 18 1021 77 1500 1 30 04:33 17.12.2019
6044 Mist 16 1019 87 1500 3.64 44 02:45 17.12.2019
6045 Mist 16 1018 87 2000 3.2 32 01:56 17.12.2019
6046 Mist 17 1018 82 2000 1 20 01:18 17.12.2019
6047 Mist 17 1018 82 2000 1.5 10 00:38 17.12.2019
6048 Mist 17 1018 82 2000 1.5 10 00:38 17.12.2019
6049 Mist 17 1018 82 2000 1.5 10 00:38 17.12.2019
6050 Mist 17 1018 82 2000 1.5 10 00:38 17.12.2019
6051 Mist 17 1018 82 2000 1.5 10 00:38 17.12.2019
6052 Mist 17 1018 82 2000 1.5 10 00:20 17.12.2019
6053 Mist 17 1017 82 2000 1 20 23:42 16.12.2019
6054 Mist 17 1017 82 2000 1 20 23:19 16.12.2019
6055 Mist 17 1018 82 2000 1 40 22:58 16.12.2019
6056 Mist 17 1018 82 2000 1 30 22:37 16.12.2019
6057 Mist 17 1018 82 2000 1 30 22:19 16.12.2019
6058 Mist 17 1018 82 2000 1 30 22:19 16.12.2019
6059 Mist 18 1018 77 2000 1 30 21:56 16.12.2019
6060 Mist 18 1018 77 2000 1.5 40 21:37 16.12.2019
6061 Mist 18 1018 77 2000 1.5 40 21:19 16.12.2019
6062 Mist 18 1018 82 2000 1.5 30 20:57 16.12.2019
6063 Mist 18 1018 82 2000 1.5 20 20:38 16.12.2019
6064 Mist 18 1018 82 2000 1.5 20 20:19 16.12.2019
6065 Mist 18 1018 82 2000 2.1 20 19:56 16.12.2019
6066 Mist 19 1018 77 2000 2.1 30 19:37 16.12.2019
6067 Mist 19 1018 77 2000 2.1 30 19:19 16.12.2019
6068 Mist 19 1018 77 2000 2.1 20 18:56 16.12.2019
6069 Mist 19 1019 82 2000 2.1 20 18:38 16.12.2019
6070 Mist 19 1019 82 2000 2.1 20 18:38 16.12.2019
6071 Mist 19 1019 82 2000 2.1 20 18:19 16.12.2019
6072 Mist 19 1019 82 2000 2.1 40 17:57 16.12.2019
6073 Mist 20 1019 77 2000 3.1 30 17:38 16.12.2019
6074 Mist 20 1019 77 2000 3.1 30 17:20 16.12.2019
6075 Mist 20 1019 82 2000 2.1 20 16:56 16.12.2019
6076 Mist 20 1018 82 2000 1 30 16:38 16.12.2019
6077 Mist 20 1018 82 2000 1 30 16:19 16.12.2019
6078 Mist 21 1018 77 2000 1.5 30 15:57 16.12.2019
6079 Mist 21 1018 83 2000 1.5 40 15:38 16.12.2019
6080 Mist 21 1018 83 2000 1.5 40 15:20 16.12.2019
6081 Mist 21 1017 83 2000 1 30 14:55 16.12.2019
6082 Mist 21 1017 83 2000 1 30 14:37 16.12.2019
6083 Mist 21 1017 83 2000 1 30 14:18 16.12.2019
6084 Haze 22 1016 78 1500 1 30 13:56 16.12.2019
6085 Haze 22 1016 78 1500 1 30 13:37 16.12.2019
6086 Haze 22 1016 78 1500 1 30 13:19 16.12.2019
6087 Haze 23 1016 73 1500 1 30 12:56 16.12.2019
6088 Haze 23 1016 73 1500 1 30 12:38 16.12.2019
6089 Haze 23 1016 73 1500 1 30 12:18 16.12.2019
6090 Haze 23 1016 73 1500 1 30 12:18 16.12.2019
6091 Haze 23 1015 73 1800 1 40 11:55 16.12.2019
6092 Haze 23 1015 73 1800 1 60 11:37 16.12.2019
6093 Haze 23 1015 73 1800 1.5 60 11:19 16.12.2019
6094 Haze 23 1016 73 1800 1.5 60 10:40 16.12.2019
6095 Haze 23 1016 73 1800 1.5 60 10:40 16.12.2019
6096 Haze 23 1016 73 1800 1.5 60 10:40 16.12.2019
6097 Haze 23 1016 73 1800 1.5 60 10:22 16.12.2019
6098 Haze 23 1016 73 2000 2.6 90 09:59 16.12.2019
6099 Haze 23 1016 69 2000 2.1 50 09:41 16.12.2019
6100 Haze 23 1016 69 2000 2.1 50 09:23 16.12.2019
6101 Haze 22 1017 73 2000 2.1 50 08:40 16.12.2019
6102 Haze 22 1017 73 2000 2.1 50 08:19 16.12.2019
6103 Haze 22 1017 73 2000 2.1 50 08:19 16.12.2019
6104 Haze 22 1018 73 2000 2.1 50 07:52 16.12.2019
6105 Haze 22 1018 73 2000 1.5 50 07:31 16.12.2019
6106 Mist 22 1019 73 2000 1.5 50 06:52 16.12.2019
6107 Mist 21 1018 73 2000 3.1 80 06:27 16.12.2019
6108 Mist 20 1019 77 1500 2.1 30 05:59 16.12.2019
6109 Mist 20 1019 77 1500 1.5 360 05:40 16.12.2019
6110 Mist 20 1019 77 1500 1.5 360 05:22 16.12.2019
6111 Mist 18 1018 88 2000 1.5 30 03:28 16.12.2019
6112 Mist 18 1016 88 2000 2.6 360 01:46 16.12.2019
6113 Haze 18 1016 88 2500 1.5 30 00:57 16.12.2019
6114 Haze 18 1016 88 2500 1 40 00:38 16.12.2019
6115 Haze 18 1016 88 2500 1 40 00:19 16.12.2019
6116 Haze 18 1016 88 2500 1.5 30 23:43 15.12.2019
6117 Haze 18 1016 88 2500 1.5 30 23:25 15.12.2019
6118 Haze 18 1016 93 2500 1 30 22:57 15.12.2019
6119 Haze 18 1016 93 2500 1 50 22:38 15.12.2019
6120 Haze 18 1016 93 2500 1 50 22:19 15.12.2019
6121 Rain 18 1016 93 2000 1.5 20 21:58 15.12.2019
6122 Rain 18 1016 93 2000 2.6 20 21:38 15.12.2019
6123 Rain 18 1016 93 2000 2.6 20 21:20 15.12.2019
6124 Haze 19 1017 82 2500 1 20 20:58 15.12.2019
6125 Haze 19 1017 82 2500 1 360 20:39 15.12.2019
6126 Haze 19 1017 82 2500 1 360 20:39 15.12.2019
6127 Haze 19 1017 82 2500 1 360 20:21 15.12.2019
6128 Haze 19 1017 82 2500 1 20 19:58 15.12.2019
6129 Haze 20 1017 77 2500 2.1 10 19:40 15.12.2019
6130 Haze 20 1017 77 2500 2.1 10 19:19 15.12.2019
6131 Haze 20 1017 82 2000 3.1 30 18:57 15.12.2019
6132 Rain 20 1017 82 2000 2.6 30 18:39 15.12.2019
6133 Rain 20 1017 82 2000 2.6 30 18:18 15.12.2019
6134 Haze 20 1017 82 2500 3.1 30 17:56 15.12.2019
6135 Haze 20 1017 82 2500 3.1 30 17:56 15.12.2019
6136 Haze 20 1017 82 2500 3.1 40 17:37 15.12.2019
6137 Haze 20 1017 82 2500 3.1 40 17:19 15.12.2019
6138 Haze 20 1017 82 2500 2.6 40 16:57 15.12.2019
6139 Haze 20 1017 82 2500 2.6 40 16:57 15.12.2019
6140 Haze 20 1017 82 2500 3.1 40 16:39 15.12.2019
6141 Haze 20 1017 82 2500 3.1 40 16:20 15.12.2019
6142 Haze 21 1017 77 2500 3.6 30 15:55 15.12.2019
6143 Haze 21 1016 77 2500 3.1 40 15:37 15.12.2019
6144 Haze 21 1016 77 2500 3.1 40 15:37 15.12.2019
6145 Haze 21 1016 77 2500 3.1 40 15:18 15.12.2019
6146 Rain 21 1016 83 2000 3.6 30 14:55 15.12.2019
6147 Rain 21 1016 83 2000 3.6 30 14:55 15.12.2019
6148 Rain 21 1016 83 2000 3.6 40 14:36 15.12.2019
6149 Rain 21 1016 83 2000 3.6 40 14:18 15.12.2019
6150 Haze 21 1015 88 2000 3.6 20 13:55 15.12.2019
6151 Rain 21 1015 88 2000 2.6 20 13:37 15.12.2019
6152 Rain 21 1015 88 2000 2.6 20 13:18 15.12.2019
6153 Rain 21 1015 88 2000 2.6 20 13:18 15.12.2019
6154 Rain 22 1015 83 2000 2.6 20 12:56 15.12.2019
6155 Haze 23 1014 78 2000 4.6 10 12:38 15.12.2019
6156 Haze 23 1014 78 2000 4.6 10 12:19 15.12.2019
6157 Rain 28 1014 51 3500 3.03 287 11:38 15.12.2019
6158 Rain 28 1014 51 3500 2.14 245 11:20 15.12.2019
6159 Haze 28 1014 51 3500 1.5 190 10:58 15.12.2019
6160 Haze 28 1014 45 3500 1.5 210 10:40 15.12.2019
6161 Haze 28 1014 45 3500 1.5 210 10:20 15.12.2019
6162 Haze 28 1014 45 3500 3.1 230 09:59 15.12.2019
6163 Haze 28 1015 54 3500 2.14 245 09:38 15.12.2019
6164 Haze 28 1015 54 3500 2.14 245 09:20 15.12.2019
6165 Haze 27 1016 57 3500 1 290 08:55 15.12.2019
6166 Haze 27 1016 61 3500 1.5 270 08:37 15.12.2019
6167 Haze 27 1016 61 3500 1.5 270 08:19 15.12.2019
6168 Haze 27 1017 61 3500 1.5 290 07:53 15.12.2019
6169 Haze 26 1018 65 3000 1.5 240 07:31 15.12.2019
6170 Haze 24 1018 73 3000 1 250 06:30 15.12.2019
6171 Mist 24 1018 73 2000 2.72 163 05:49 15.12.2019
6172 Mist 23 1018 78 2000 1.43 74 05:22 15.12.2019
6173 Mist 21 1018 88 1500 1.43 74 04:22 15.12.2019
6174 Mist 19 1017 93 2000 1.43 74 02:55 15.12.2019
6175 Haze 19 1016 93 2500 1 50 02:32 15.12.2019
6176 Haze 19 1016 93 2500 1 100 01:41 15.12.2019
6177 Haze 20 1016 88 3000 1.81 47 01:19 15.12.2019
6178 Haze 21 1016 83 3000 2.28 51 00:51 15.12.2019
6179 Haze 21 1015 83 3000 2.28 51 00:32 15.12.2019
6180 Haze 20 1015 88 3000 2.28 51 23:54 14.12.2019
6181 Haze 20 1015 88 3000 2.28 51 23:36 14.12.2019
6182 Haze 20 1016 88 3000 2 46 23:18 14.12.2019
6183 Haze 21 1016 83 3000 2 46 22:42 14.12.2019
6184 Haze 21 1016 83 3000 2 46 22:42 14.12.2019
6185 Haze 21 1016 83 3000 2 46 22:22 14.12.2019
6186 Haze 21 1016 83 3000 2 46 21:58 14.12.2019
6187 Haze 20 1016 88 3000 2 46 21:40 14.12.2019
6188 Haze 20 1016 88 3000 2 46 21:20 14.12.2019
6189 Haze 20 1016 88 3000 1 100 20:59 14.12.2019
6190 Haze 20 1016 88 3000 1 100 20:41 14.12.2019
6191 Haze 20 1016 88 3000 1 130 20:20 14.12.2019
6192 Haze 20 1016 88 3000 1 160 19:57 14.12.2019
6193 Haze 21 1016 83 3000 1 140 19:39 14.12.2019
6194 Haze 21 1016 83 3000 1 140 19:20 14.12.2019
6195 Haze 21 1017 83 3000 1 140 18:56 14.12.2019
6196 Haze 21 1017 83 3000 1 120 18:38 14.12.2019
6197 Haze 21 1017 83 3000 1 120 18:38 14.12.2019
6198 Haze 21 1017 83 3000 1 120 18:19 14.12.2019
6199 Haze 22 1017 78 3000 1 90 17:44 14.12.2019
6200 Haze 22 1017 78 3000 1 90 17:24 14.12.2019
6201 Haze 22 1017 83 3000 1 90 16:59 14.12.2019
6202 Haze 22 1017 83 3000 1 90 16:40 14.12.2019
6203 Haze 22 1017 83 3000 1 90 16:19 14.12.2019
6204 Haze 22 1017 83 3000 1 90 16:19 14.12.2019
6205 Haze 23 1016 78 3000 1 100 15:43 14.12.2019
6206 Haze 23 1016 78 3000 1 90 15:24 14.12.2019
6207 Haze 23 1016 78 3000 1.5 90 14:59 14.12.2019
6208 Haze 24 1016 73 3000 1 110 14:39 14.12.2019
6209 Haze 24 1016 73 3000 1 110 14:20 14.12.2019
6210 Haze 25 1015 65 3500 1 110 13:57 14.12.2019
6211 Haze 25 1015 65 3500 1 110 13:39 14.12.2019
6212 Haze 25 1015 65 3500 1 110 13:19 14.12.2019
6213 Haze 26 1015 61 4000 1.5 100 12:55 14.12.2019
6214 Haze 26 1015 61 4000 1.5 100 12:55 14.12.2019
6215 Haze 26 1015 65 4000 1.5 90 12:37 14.12.2019
6216 Haze 26 1015 61 4000 1.5 110 12:18 14.12.2019
6217 Haze 26 1015 61 4000 1.5 110 11:55 14.12.2019
6218 Haze 27 1015 57 4000 2.14 189 11:36 14.12.2019
6219 Haze 27 1015 57 4000 2.14 189 11:36 14.12.2019
6220 Haze 27 1015 57 4000 3.24 180 11:18 14.12.2019
6221 Haze 28 1015 51 4000 2.96 197 10:55 14.12.2019
6222 Haze 28 1016 51 4000 1 200 10:37 14.12.2019
6223 Haze 28 1016 51 4000 1 200 10:18 14.12.2019
6224 Haze 27 1016 54 4000 1 160 09:40 14.12.2019
6225 Haze 27 1016 54 3500 1.5 170 09:20 14.12.2019
6226 Haze 27 1016 54 3500 1.5 170 09:20 14.12.2019
6227 Haze 28 1017 54 3500 1.5 190 08:44 14.12.2019
6228 Haze 28 1017 54 3500 1.5 190 08:44 14.12.2019
6229 Haze 27 1018 57 3500 1.5 140 08:20 14.12.2019
6230 Haze 27 1018 57 3500 1.5 140 08:20 14.12.2019
6231 Haze 27 1019 57 3500 2.6 240 07:57 14.12.2019
6232 Haze 26 1019 61 3500 1.5 180 07:38 14.12.2019
6233 Haze 26 1019 61 3500 1.5 180 07:19 14.12.2019
6234 Haze 25 1020 65 3000 1.5 100 06:39 14.12.2019
6235 Haze 25 1020 65 3000 1.5 100 06:20 14.12.2019
6236 Haze 23 1020 73 3000 1.5 90 05:20 14.12.2019
6237 Haze 20 1018 88 3000 3.12 107 02:44 14.12.2019
6238 Haze 20 1018 88 3000 1.92 82 02:22 14.12.2019
6239 Haze 20 1017 88 3000 1.92 82 01:37 14.12.2019
6240 Haze 20 1016 88 3000 2.77 106 00:50 14.12.2019
6241 Haze 20 1016 88 3000 2.77 106 00:29 14.12.2019
6242 Haze 20 1016 88 3000 2.77 106 00:29 14.12.2019
6243 Haze 20 1016 88 3000 2.77 106 23:57 13.12.2019
6244 Haze 21 1016 83 3000 2.77 106 23:38 13.12.2019
6245 Haze 21 1016 83 3000 1.1 105 23:19 13.12.2019
6246 Haze 21 1016 83 3000 1.1 105 22:42 13.12.2019
6247 Haze 21 1016 83 3000 1.1 105 22:19 13.12.2019
6248 Haze 21 1016 83 3000 1.1 105 21:56 13.12.2019
6249 Haze 21 1016 83 3000 1.1 105 21:38 13.12.2019
6250 Haze 21 1016 83 3000 1.1 105 21:20 13.12.2019
6251 Haze 20 1016 88 3000 1.1 105 20:43 13.12.2019
6252 Haze 20 1016 88 3000 1.55 111 20:24 13.12.2019
6253 Haze 20 1016 88 3000 1.44 115 19:59 13.12.2019
6254 Haze 21 1016 83 3000 1.44 115 19:41 13.12.2019
6255 Haze 21 1016 83 3000 1.44 115 19:41 13.12.2019
6256 Haze 21 1016 83 3000 1.44 115 19:23 13.12.2019
6257 Haze 21 1017 83 3000 1.44 115 18:59 13.12.2019
6258 Haze 21 1017 83 3000 1.5 140 18:41 13.12.2019
6259 Haze 22 1017 78 3000 2.1 150 18:19 13.12.2019
6260 Haze 22 1017 78 3000 2.1 150 17:55 13.12.2019
6261 Haze 22 1016 78 3000 2.1 150 17:37 13.12.2019
6262 Haze 22 1016 78 3000 2.1 150 17:18 13.12.2019
6263 Haze 22 1016 78 3000 2.1 150 17:18 13.12.2019
6264 Haze 22 1016 78 3000 1 120 16:54 13.12.2019
6265 Haze 23 1016 73 3000 1.5 130 16:36 13.12.2019
6266 Haze 23 1016 73 3000 1.5 130 16:18 13.12.2019
6267 Haze 23 1015 69 3500 1 120 15:38 13.12.2019
6268 Haze 23 1015 69 3500 1 120 15:20 13.12.2019
6269 Haze 23 1014 73 4000 1.5 150 14:41 13.12.2019
6270 Haze 23 1014 73 4000 1.5 150 14:21 13.12.2019
6271 Haze 24 1014 64 4000 1.5 150 13:58 13.12.2019
6272 Haze 24 1014 64 4000 1.5 150 13:58 13.12.2019
6273 Haze 25 1014 65 4000 1.5 150 13:39 13.12.2019
6274 Haze 25 1014 65 4000 1.5 150 13:21 13.12.2019
6275 Haze 25 1014 65 4000 1.5 150 13:21 13.12.2019
6276 Clouds 26 1013 61 5000 2.6 170 12:42 13.12.2019
6277 Clouds 26 1013 61 5000 2.6 170 12:20 13.12.2019
6278 Clouds 27 1013 54 5000 3.1 200 11:57 13.12.2019
6279 Clouds 27 1013 54 5000 3.1 200 11:57 13.12.2019
6280 Clouds 27 1013 54 5000 3.1 220 11:39 13.12.2019
6281 Clouds 27 1013 54 5000 3.1 220 11:21 13.12.2019
6282 Clouds 27 1013 54 5000 4.1 200 10:43 13.12.2019
6283 Haze 27 1014 54 4000 3.6 190 10:23 13.12.2019
6284 Haze 27 1014 54 4000 3.6 190 09:59 13.12.2019
6285 Haze 26 1014 57 4000 3.6 200 09:39 13.12.2019
6286 Haze 26 1014 57 3500 3.6 200 09:18 13.12.2019
6287 Haze 26 1014 57 3500 3.6 200 09:18 13.12.2019
6288 Haze 25 1015 61 3500 3.6 150 08:41 13.12.2019
6289 Haze 25 1015 61 3500 3.6 150 08:23 13.12.2019
6290 Haze 25 1016 61 3500 4.6 180 07:46 13.12.2019
6291 Haze 25 1016 61 3000 3.6 180 07:21 13.12.2019
6292 Haze 24 1017 60 3000 3.6 180 06:54 13.12.2019
6293 Haze 24 1017 60 3000 3.6 180 06:28 13.12.2019
6294 Haze 24 1017 64 3000 3.6 180 05:46 13.12.2019
6295 Haze 23 1017 69 3000 1.5 120 05:26 13.12.2019
6296 Mist 20 1016 82 2000 1.5 110 04:35 13.12.2019
6297 Mist 19 1015 88 2000 1.5 90 03:39 13.12.2019
6298 Mist 19 1014 88 2500 1.52 130 02:33 13.12.2019
6299 Haze 19 1014 88 3000 0.86 343 01:43 13.12.2019
6300 Rain 19 1013 88 3000 0.55 38 00:55 13.12.2019
6301 Rain 20 1013 82 3000 1 270 00:36 13.12.2019
6302 Haze 19 1013 88 3000 1 300 23:57 12.12.2019
6303 Rain 19 1013 88 3000 1.5 320 23:37 12.12.2019
6304 Rain 19 1013 88 3000 1.5 320 23:19 12.12.2019
6305 Haze 20 1012 77 3000 2.59 221 22:54 12.12.2019
6306 Haze 19 1012 82 3000 2.59 221 22:36 12.12.2019
6307 Haze 19 1012 82 3000 2.59 221 22:18 12.12.2019
6308 Haze 19 1012 82 3000 2.59 221 22:18 12.12.2019
6309 Haze 19 1012 82 3000 1 100 21:54 12.12.2019
6310 Haze 19 1012 82 3000 1 90 21:36 12.12.2019
6311 Haze 19 1012 82 3000 1 90 21:18 12.12.2019
6312 Haze 20 1013 77 3000 1 130 20:55 12.12.2019
6313 Haze 20 1013 77 3000 1.5 140 20:37 12.12.2019
6314 Haze 20 1013 77 3000 1.5 140 20:19 12.12.2019
6315 Haze 20 1013 77 3000 2.1 140 19:42 12.12.2019
6316 Haze 20 1013 77 3000 2.1 140 19:22 12.12.2019
6317 Haze 20 1013 77 3000 2.1 140 18:58 12.12.2019
6318 Haze 20 1013 77 3000 2.1 140 18:39 12.12.2019
6319 Haze 20 1013 77 3000 2.1 140 18:20 12.12.2019
6320 Haze 21 1014 73 3000 2.1 140 17:57 12.12.2019
6321 Haze 21 1014 73 3000 2.1 140 17:39 12.12.2019
6322 Haze 21 1014 73 3000 2.1 140 17:20 12.12.2019
6323 Haze 21 1014 73 3000 2.1 140 17:20 12.12.2019
6324 Haze 21 1013 73 3000 2.1 150 16:57 12.12.2019
6325 Haze 21 1013 73 3000 2.1 150 16:38 12.12.2019
6326 Haze 21 1013 73 3000 2.1 150 16:20 12.12.2019
6327 Haze 22 1013 64 3000 2.1 140 15:54 12.12.2019
6328 Haze 23 1013 60 2500 2.1 140 15:36 12.12.2019
6329 Haze 23 1013 60 2500 2.1 140 15:18 12.12.2019
6330 Haze 23 1012 64 2000 1 100 14:38 12.12.2019
6331 Haze 23 1012 64 2000 1 100 14:38 12.12.2019
6332 Haze 23 1012 64 2000 1 100 14:20 12.12.2019
6333 Haze 24 1012 60 2000 1.5 140 13:57 12.12.2019
6334 Haze 25 1011 57 2000 1.5 140 13:39 12.12.2019
6335 Haze 25 1011 57 2000 1.5 140 13:21 12.12.2019
6336 Haze 26 1011 50 2500 1.5 160 12:57 12.12.2019
6337 Haze 27 1012 47 2500 2.6 180 12:39 12.12.2019
6338 Haze 27 1012 47 2500 2.6 180 12:20 12.12.2019
6339 Haze 27 1011 47 2500 2.6 160 11:56 12.12.2019
6340 Haze 27 1011 47 2500 2.6 180 11:37 12.12.2019
6341 Haze 27 1011 47 2500 2.6 180 11:19 12.12.2019
6342 Haze 28 1012 45 2500 3.1 180 10:55 12.12.2019
6343 Haze 27 1012 47 2500 3.1 180 10:37 12.12.2019
6344 Haze 27 1012 47 2500 3.1 180 10:18 12.12.2019
6345 Haze 27 1012 47 2500 3.1 180 10:18 12.12.2019
6346 Haze 27 1013 47 2500 3.6 140 09:41 12.12.2019
6347 Haze 27 1013 47 2500 3.6 140 09:23 12.12.2019
6348 Haze 27 1013 47 2500 3.6 200 08:56 12.12.2019
6349 Haze 26 1014 54 2500 4.6 200 08:38 12.12.2019
6350 Haze 26 1014 54 2500 4.6 200 08:20 12.12.2019
6351 Haze 26 1014 54 2500 3.1 170 07:43 12.12.2019
6352 Haze 26 1015 54 2500 3.6 190 07:24 12.12.2019
6353 Haze 25 1016 57 2500 2.6 180 06:50 12.12.2019
6354 Mist 24 1016 60 2000 3.6 200 06:32 12.12.2019
6355 Mist 22 1016 68 2000 1.5 140 05:39 12.12.2019
6356 Mist 21 1016 73 1500 2.11 130 04:51 12.12.2019
6357 Mist 21 1016 73 1500 2.11 130 04:51 12.12.2019
6358 Mist 16 1015 93 1500 2.11 130 03:24 12.12.2019
6359 Mist 15 1014 93 1500 1 100 02:38 12.12.2019
6360 Mist 15 1014 93 1500 1 100 02:19 12.12.2019
6361 Mist 15 1013 93 2000 1.61 121 01:37 12.12.2019
6362 Mist 15 1013 93 2000 2.15 117 01:18 12.12.2019
6363 Mist 17 1013 88 2000 2.15 117 00:40 12.12.2019
6364 Mist 17 1013 88 2000 2.15 117 00:19 12.12.2019
6365 Mist 17 1013 88 2000 2.15 117 23:44 11.12.2019
6366 Mist 17 1013 88 2000 1.04 95 23:20 11.12.2019
6367 Mist 18 1013 82 2000 1.04 95 22:57 11.12.2019
6368 Mist 18 1013 82 2000 1.04 95 22:38 11.12.2019
6369 Mist 18 1013 82 2000 1.04 95 22:19 11.12.2019
6370 Mist 18 1013 82 2000 1 300 21:57 11.12.2019
6371 Mist 18 1013 82 2000 1.04 95 21:37 11.12.2019
6372 Mist 18 1013 82 2000 1.04 95 21:37 11.12.2019
6373 Mist 18 1013 82 2000 1.04 95 21:19 11.12.2019
6374 Haze 18 1013 82 2500 1.04 95 20:56 11.12.2019
6375 Haze 18 1013 82 2500 1.04 95 20:37 11.12.2019
6376 Haze 18 1013 82 2500 1.69 201 20:19 11.12.2019
6377 Haze 18 1014 82 2500 1.69 201 19:57 11.12.2019
6378 Haze 19 1014 77 2500 1.69 201 19:38 11.12.2019
6379 Haze 19 1014 77 2500 1.69 201 19:18 11.12.2019
6380 Haze 20 1014 72 2500 1.69 201 18:40 11.12.2019
6381 Haze 20 1014 72 2500 1.69 201 18:21 11.12.2019
6382 Haze 21 1014 68 2500 1 150 17:57 11.12.2019
6383 Haze 21 1014 73 2500 1.5 140 17:38 11.12.2019
6384 Haze 21 1014 73 2500 1.5 140 17:18 11.12.2019
6385 Haze 21 1014 68 2500 1.5 120 16:56 11.12.2019
6386 Haze 22 1014 64 2500 1.5 130 16:38 11.12.2019
6387 Haze 22 1014 64 2500 1.5 130 16:19 11.12.2019
6388 Haze 22 1013 64 2500 1.5 110 15:57 11.12.2019
6389 Haze 22 1013 64 2500 1.5 100 15:38 11.12.2019
6390 Haze 22 1013 64 2500 1.5 100 15:20 11.12.2019
6391 Haze 22 1013 64 2500 1.5 110 14:55 11.12.2019
6392 Haze 23 1013 64 2000 2.4 147 14:37 11.12.2019
6393 Haze 23 1013 64 2000 0.92 197 14:19 11.12.2019
6394 Haze 25 1012 53 2000 1.5 160 13:44 11.12.2019
6395 Haze 25 1012 53 2000 1.5 160 13:24 11.12.2019
6396 Haze 26 1012 50 2000 1.5 160 12:59 11.12.2019
6397 Haze 26 1012 50 2000 1.5 160 12:59 11.12.2019
6398 Haze 27 1011 47 2500 1.5 160 12:40 11.12.2019
6399 Haze 27 1011 47 2500 1.5 160 12:22 11.12.2019
6400 Haze 27 1011 47 2500 1.5 160 11:58 11.12.2019
6401 Haze 27 1011 44 2500 2.1 190 11:39 11.12.2019
6402 Haze 27 1011 44 2500 2.1 190 11:39 11.12.2019
6403 Haze 27 1011 44 2500 2.1 190 11:19 11.12.2019
6404 Haze 28 1011 45 2500 2.6 210 10:59 11.12.2019
6405 Haze 28 1012 45 2500 1 140 10:40 11.12.2019
6406 Haze 28 1012 45 2500 1 140 10:21 11.12.2019
6407 Haze 27 1012 44 2500 3.1 210 09:57 11.12.2019
6408 Haze 27 1013 44 2500 2.1 200 09:38 11.12.2019
6409 Haze 27 1013 44 2500 2.1 200 09:19 11.12.2019
6410 Haze 27 1013 44 2500 1.72 221 08:55 11.12.2019
6411 Haze 26 1014 50 2500 1.5 180 08:36 11.12.2019
6412 Haze 26 1014 50 2500 1.5 180 08:18 11.12.2019
6413 Haze 25 1016 53 2000 1.5 140 07:43 11.12.2019
6414 Haze 25 1016 53 2000 1.5 140 07:24 11.12.2019
6415 Haze 25 1016 53 2000 1.5 140 07:24 11.12.2019
6416 Mist 24 1016 57 2000 2.1 175 06:46 11.12.2019
6417 Mist 23 1017 60 2000 2.1 175 06:25 11.12.2019
6418 Mist 23 1017 60 1500 2.1 175 05:55 11.12.2019
6419 Mist 21 1017 68 1500 2.1 175 05:35 11.12.2019
6420 Mist 20 1017 72 1500 1 70 04:51 11.12.2019
6421 Mist 15 1016 87 1200 1.57 105 03:26 11.12.2019
6422 Mist 16 1015 87 1200 1 360 02:35 11.12.2019
6423 Mist 15 1014 93 1500 1.34 54 01:22 11.12.2019
6424 Mist 15 1013 87 1800 1.24 51 00:38 11.12.2019
6425 Mist 15 1013 87 1800 1.24 51 00:19 11.12.2019
6426 Mist 15 1013 87 1800 1.24 51 23:44 10.12.2019
6427 Mist 15 1013 87 1800 1.24 51 23:23 10.12.2019
6428 Mist 15 1014 87 1800 1.71 356 22:56 10.12.2019
6429 Mist 17 1014 82 2000 1.71 356 22:38 10.12.2019
6430 Mist 17 1014 82 2000 1.71 356 22:20 10.12.2019
6431 Mist 17 1014 82 2000 1.71 356 21:54 10.12.2019
6432 Mist 17 1014 88 2000 1.71 356 21:36 10.12.2019
6433 Mist 17 1014 88 2000 1.71 356 21:18 10.12.2019
6434 Mist 17 1014 88 2000 1.5 20 20:55 10.12.2019
6435 Mist 17 1014 88 2000 1.5 20 20:55 10.12.2019
6436 Haze 17 1014 82 2500 1.71 356 20:36 10.12.2019
6437 Haze 17 1014 82 2500 1.08 236 20:18 10.12.2019
6438 Haze 17 1014 82 2500 0.71 236 20:18 10.12.2019
6439 Haze 17 1014 82 2500 1.08 236 20:18 10.12.2019
6440 Haze 19 1014 72 2500 1 290 19:42 10.12.2019
6441 Haze 19 1014 72 2500 1 290 19:24 10.12.2019
6442 Haze 18 1014 77 2500 1 240 18:57 10.12.2019
6443 Haze 19 1014 72 2500 1 240 18:38 10.12.2019
6444 Haze 19 1014 72 2500 1 240 18:19 10.12.2019
6445 Haze 19 1014 72 2500 0.71 236 17:54 10.12.2019
6446 Haze 19 1014 72 2500 1 210 17:36 10.12.2019
6447 Haze 19 1014 72 2500 1 210 17:18 10.12.2019
6448 Haze 20 1014 68 2500 1.5 110 16:41 10.12.2019
6449 Haze 20 1014 68 2500 1.5 110 16:20 10.12.2019
6450 Haze 21 1014 64 2500 1 120 15:40 10.12.2019
6451 Haze 21 1014 64 2500 1 120 15:19 10.12.2019
6452 Haze 21 1014 60 2500 1.5 140 14:59 10.12.2019
6453 Haze 22 1014 56 2000 1 110 14:41 10.12.2019
6454 Haze 22 1014 56 2000 1 110 14:23 10.12.2019
6455 Haze 22 1013 60 2000 1 130 13:59 10.12.2019
6456 Haze 23 1013 60 2000 1 130 13:40 10.12.2019
6457 Haze 23 1013 60 2000 1 130 13:20 10.12.2019
6458 Haze 25 1013 50 2000 0.76 138 12:55 10.12.2019
6459 Haze 26 1012 54 2000 0.76 138 12:36 10.12.2019
6460 Haze 26 1012 54 2000 0.76 138 12:18 10.12.2019
6461 Haze 27 1013 42 2500 0.76 138 11:40 10.12.2019
6462 Haze 27 1013 42 2500 0.2 167 11:22 10.12.2019
6463 Haze 27 1013 39 2500 0.2 167 10:44 10.12.2019
6464 Haze 27 1014 42 2500 1 100 10:25 10.12.2019
6465 Haze 27 1014 39 2500 1 140 09:58 10.12.2019
6466 Haze 26 1014 44 2500 1.5 100 09:40 10.12.2019
6467 Haze 26 1014 44 2500 1.5 100 09:22 10.12.2019
6468 Haze 26 1014 44 2500 1.5 100 09:22 10.12.2019
6469 Haze 26 1015 44 2500 1 90 08:59 10.12.2019
6470 Haze 26 1016 44 2500 1 70 08:40 10.12.2019
6471 Haze 26 1016 44 2500 1 70 08:22 10.12.2019
6472 Haze 25 1017 50 2500 1 140 07:54 10.12.2019
6473 Haze 25 1017 50 2500 1 90 07:36 10.12.2019
6474 Haze 25 1017 50 2500 1 90 07:18 10.12.2019
6475 Mist 23 1018 56 2000 1.5 70 06:42 10.12.2019
6476 Mist 23 1018 56 2000 1.5 70 06:19 10.12.2019
6477 Mist 22 1018 60 2000 1 40 05:51 10.12.2019
6478 Mist 19 1018 72 2000 2.11 49 04:35 10.12.2019
6479 Mist 15 1017 87 2000 2.11 49 03:27 10.12.2019
6480 Mist 14 1016 93 2000 1 20 02:36 10.12.2019
6481 Mist 15 1016 87 2000 2.07 32 01:40 10.12.2019
6482 Mist 15 1016 87 2000 1.82 29 01:19 10.12.2019
6483 Mist 16 1015 82 2000 1 10 00:31 10.12.2019
6484 Mist 16 1015 82 2000 1.82 29 23:59 09.12.2019
6485 Mist 16 1015 82 2000 1.82 29 23:59 09.12.2019
6486 Mist 16 1015 82 2000 1.5 340 23:39 09.12.2019
6487 Mist 16 1015 82 2000 1.5 340 23:21 09.12.2019
6488 Mist 17 1015 77 2000 1.5 10 22:57 09.12.2019
6489 Mist 17 1015 77 2000 1.5 10 22:38 09.12.2019
6490 Mist 17 1015 77 2000 1.5 10 22:18 09.12.2019
6491 Mist 17 1015 77 2000 1.5 10 22:18 09.12.2019
6492 Mist 17 1016 77 2000 1.5 10 21:55 09.12.2019
6493 Mist 16 1016 82 2000 2.69 3 21:37 09.12.2019
6494 Mist 16 1016 82 2000 2.69 3 21:18 09.12.2019
6495 Mist 16 1016 82 2000 2.69 3 20:55 09.12.2019
6496 Mist 17 1016 77 2000 2.69 3 20:37 09.12.2019
6497 Mist 17 1016 77 2000 0.4 244 20:18 09.12.2019
6498 Mist 17 1016 77 2000 0.4 244 19:55 09.12.2019
6499 Mist 18 1017 72 2000 0.4 244 19:37 09.12.2019
6500 Mist 18 1017 72 2000 0.4 244 19:18 09.12.2019
6501 Haze 18 1017 72 2500 0.4 244 18:54 09.12.2019
6502 Haze 18 1017 72 2500 0.4 244 18:54 09.12.2019
6503 Haze 18 1017 72 2500 0.4 244 18:36 09.12.2019
6504 Haze 18 1017 72 2500 0.4 244 18:18 09.12.2019
6505 Haze 19 1018 68 2500 1 310 17:54 09.12.2019
6506 Haze 19 1018 68 2500 1 270 17:36 09.12.2019
6507 Haze 19 1018 68 2500 1 270 17:18 09.12.2019
6508 Haze 18 1017 72 2500 0.99 148 16:54 09.12.2019
6509 Haze 20 1017 64 2500 1 110 16:36 09.12.2019
6510 Haze 20 1017 64 2500 1 110 16:18 09.12.2019
6511 Haze 21 1017 60 2500 1 80 15:54 09.12.2019
6512 Haze 21 1017 60 2500 1 90 15:36 09.12.2019
6513 Haze 21 1017 60 2500 1 90 15:18 09.12.2019
6514 Haze 22 1016 53 2500 1 100 14:41 09.12.2019
6515 Haze 22 1016 53 2500 1 100 14:18 09.12.2019
6516 Haze 23 1016 49 2500 1.32 78 13:56 09.12.2019
6517 Haze 23 1015 53 2500 1 100 13:37 09.12.2019
6518 Haze 23 1015 53 2500 1 100 13:19 09.12.2019
6519 Haze 25 1015 47 3000 1 100 12:55 09.12.2019
6520 Haze 26 1015 39 3000 1 110 12:37 09.12.2019
6521 Haze 26 1015 39 3000 1 110 12:18 09.12.2019
6522 Haze 27 1015 36 3000 1 90 11:41 09.12.2019
6523 Haze 27 1015 36 3000 1 90 11:22 09.12.2019
6524 Haze 27 1015 36 3000 1 90 11:22 09.12.2019
6525 Haze 27 1015 36 3000 1 100 10:59 09.12.2019
6526 Haze 27 1015 42 3000 1 150 10:39 09.12.2019
6527 Haze 27 1015 42 3000 1 150 10:20 09.12.2019
6528 Haze 27 1016 39 3000 1 100 09:55 09.12.2019
6529 Haze 27 1016 39 3000 2.1 100 09:36 09.12.2019
6530 Haze 27 1016 39 3000 2.1 100 09:18 09.12.2019
6531 Haze 26 1017 47 2500 2.6 70 08:40 09.12.2019
6532 Haze 26 1017 47 2500 2.6 70 08:22 09.12.2019
6533 Haze 25 1018 47 2500 2.1 50 07:52 09.12.2019
6534 Haze 25 1019 50 2500 2.1 70 07:34 09.12.2019
6535 Haze 24 1019 53 2000 2.1 70 06:59 09.12.2019
6536 Haze 23 1019 53 2000 2.1 70 06:32 09.12.2019
6537 Haze 23 1019 53 2000 1.5 40 05:48 09.12.2019
6538 Haze 21 1020 64 2000 1 40 05:24 09.12.2019
6539 Mist 18 1019 77 1500 1.5 360 04:28 09.12.2019
6540 Mist 15 1018 82 2000 1 360 02:35 09.12.2019
6541 Mist 13 1018 87 2000 1 20 01:47 09.12.2019
6542 Mist 14 1017 87 2000 2.3 31 00:59 09.12.2019
6543 Mist 14 1017 87 2000 1 10 00:33 09.12.2019
6544 Mist 15 1017 82 2000 1.5 360 23:57 08.12.2019
6545 Mist 17 1017 77 2000 1.5 360 23:37 08.12.2019
6546 Mist 17 1017 77 2000 1.5 360 23:19 08.12.2019
6547 Mist 15 1017 87 2000 1 10 22:56 08.12.2019
6548 Mist 15 1017 82 2000 2.11 30 22:38 08.12.2019
6549 Mist 15 1017 82 2000 2.11 30 22:18 08.12.2019
6550 Mist 16 1017 82 2000 2.11 30 21:56 08.12.2019
6551 Mist 16 1017 82 2000 2.11 30 21:37 08.12.2019
6552 Mist 16 1017 82 2000 2.11 30 21:19 08.12.2019
6553 Mist 16 1017 82 2000 2.11 30 21:19 08.12.2019
6554 Mist 16 1017 77 2000 2.11 30 20:55 08.12.2019
6555 Mist 16 1017 82 2000 2.11 30 20:37 08.12.2019
6556 Mist 16 1017 82 2000 1.84 55 20:19 08.12.2019
6557 Mist 17 1017 77 2000 1.84 55 19:55 08.12.2019
6558 Mist 17 1018 77 2500 1.84 55 19:36 08.12.2019
6559 Mist 17 1018 77 2500 1.84 55 19:18 08.12.2019
6560 Mist 17 1018 77 2500 1.84 55 19:18 08.12.2019
6561 Mist 17 1018 77 2500 1.84 55 18:54 08.12.2019
6562 Mist 17 1018 72 2500 1.84 55 18:36 08.12.2019
6563 Mist 17 1018 72 2500 1.84 55 18:18 08.12.2019
6564 Mist 18 1018 72 2500 1.84 55 17:54 08.12.2019
6565 Mist 19 1018 68 2500 1.84 55 17:36 08.12.2019
6566 Mist 19 1018 68 2500 0.66 70 17:18 08.12.2019
6567 Mist 19 1018 63 2500 0.66 70 16:55 08.12.2019
6568 Haze 18 1018 68 2500 0.66 70 16:37 08.12.2019
6569 Haze 18 1018 68 2500 0.66 70 16:18 08.12.2019
6570 Haze 19 1017 68 2500 0.66 70 15:37 08.12.2019
6571 Haze 19 1017 68 2500 0.66 70 15:18 08.12.2019
6572 Haze 20 1017 64 2500 0.66 70 14:57 08.12.2019
6573 Haze 21 1017 56 2500 0.66 70 14:37 08.12.2019
6574 Haze 21 1017 56 2500 1.35 53 14:19 08.12.2019
6575 Haze 24 1016 47 2500 1 60 13:41 08.12.2019
6576 Haze 24 1016 47 2500 1 60 13:41 08.12.2019
6577 Haze 24 1016 47 2500 1 60 13:22 08.12.2019
6578 Haze 25 1016 44 2500 1.42 44 12:59 08.12.2019
6579 Haze 26 1015 44 2500 1 90 12:40 08.12.2019
6580 Haze 26 1015 44 2500 1 90 12:19 08.12.2019
6581 Haze 26 1015 39 2500 1 70 11:58 08.12.2019
6582 Haze 26 1015 41 2500 1.42 44 11:37 08.12.2019
6583 Haze 26 1015 41 2500 2.02 53 11:19 08.12.2019
6584 Haze 26 1015 39 2500 1 90 10:55 08.12.2019
6585 Haze 26 1015 41 2500 1.5 70 10:37 08.12.2019
6586 Haze 26 1015 41 2500 1.5 70 10:19 08.12.2019
6587 Haze 26 1016 41 2500 1.5 70 09:55 08.12.2019
6588 Haze 26 1016 41 2500 1.5 70 09:36 08.12.2019
6589 Haze 26 1016 41 2500 1.5 70 09:18 08.12.2019
6590 Haze 26 1017 41 2500 1 70 08:41 08.12.2019
6591 Haze 26 1017 41 2500 1 70 08:23 08.12.2019
6592 Haze 25 1018 44 2500 2.1 50 07:49 08.12.2019
6593 Haze 25 1019 44 2500 3.1 70 07:21 08.12.2019
6594 Haze 24 1019 47 2500 1 340 06:59 08.12.2019
6595 Haze 23 1020 49 2500 1.5 60 06:39 08.12.2019
6596 Haze 23 1020 49 2500 1.5 60 06:19 08.12.2019
6597 Haze 21 1020 56 2500 1.5 45 05:23 08.12.2019
6598 Mist 18 1020 68 2000 2.52 49 04:23 08.12.2019
6599 Mist 15 1019 82 2000 2.1 30 03:38 08.12.2019
6600 Mist 14 1018 82 2500 2.52 49 02:41 08.12.2019
6601 Mist 14 1018 82 2500 2.36 28 02:19 08.12.2019
6602 Mist 15 1017 77 2500 2.43 27 01:35 08.12.2019
6603 Mist 14 1017 82 2500 2.43 27 00:52 08.12.2019
6604 Mist 14 1017 82 2500 2.43 27 00:23 08.12.2019
6605 Mist 15 1017 77 2500 2.43 27 23:57 07.12.2019
6606 Mist 15 1016 82 2500 2.43 27 23:36 07.12.2019
6607 Mist 15 1016 82 2500 2.28 12 23:18 07.12.2019
6608 Mist 15 1016 82 2500 2.28 12 22:54 07.12.2019
6609 Mist 15 1017 82 2500 2.28 12 22:36 07.12.2019
6610 Mist 15 1017 82 2500 2.28 12 22:18 07.12.2019
6611 Mist 16 1017 72 2500 2.28 12 21:55 07.12.2019
6612 Mist 16 1017 77 2500 1 360 21:36 07.12.2019
6613 Mist 16 1017 77 2500 1 360 21:18 07.12.2019
6614 Mist 17 1017 72 2500 1 310 20:38 07.12.2019
6615 Mist 17 1017 72 2500 1 310 20:20 07.12.2019
6616 Mist 17 1017 67 2500 1 320 19:57 07.12.2019
6617 Haze 16 1018 72 3000 1.34 54 19:39 07.12.2019
6618 Haze 16 1018 72 3000 1.34 54 19:21 07.12.2019
6619 Haze 16 1018 72 3000 1.34 54 18:58 07.12.2019
6620 Haze 16 1018 72 3000 1.34 54 18:39 07.12.2019
6621 Haze 16 1018 72 3000 1.34 54 18:18 07.12.2019
6622 Haze 17 1018 72 3000 1.34 54 17:55 07.12.2019
6623 Haze 18 1018 63 3000 1.34 54 17:37 07.12.2019
6624 Haze 18 1018 63 3000 1.08 140 17:18 07.12.2019
6625 Haze 18 1018 59 3000 1.08 140 16:55 07.12.2019
6626 Haze 18 1018 59 3000 1.08 140 16:36 07.12.2019
6627 Haze 18 1018 59 3000 1.08 140 16:18 07.12.2019
6628 Haze 18 1017 59 3000 1 90 15:40 07.12.2019
6629 Haze 18 1017 59 3000 1 90 15:40 07.12.2019
6630 Haze 18 1017 59 3000 1 90 15:22 07.12.2019
6631 Haze 20 1017 52 3000 1.08 140 14:43 07.12.2019
6632 Haze 20 1017 52 3000 1.55 72 14:20 07.12.2019
6633 Haze 21 1016 49 3000 1 90 13:59 07.12.2019
6634 Haze 22 1016 46 3000 1 90 13:39 07.12.2019
6635 Haze 22 1016 46 3000 1 90 13:19 07.12.2019
6636 Haze 24 1016 41 3000 1.5 80 12:55 07.12.2019
6637 Haze 25 1016 36 3000 1 60 12:36 07.12.2019
6638 Haze 25 1016 36 3000 1 60 12:18 07.12.2019
6639 Haze 26 1015 34 3000 2.1 90 11:41 07.12.2019
6640 Haze 26 1015 34 3000 2.1 90 11:41 07.12.2019
6641 Haze 26 1015 34 3000 2.1 90 11:23 07.12.2019
6642 Haze 26 1015 34 3000 2.1 70 10:55 07.12.2019
6643 Haze 26 1015 36 3000 2.1 20 10:36 07.12.2019
6644 Haze 26 1015 36 3000 2.1 20 10:18 07.12.2019
6645 Haze 25 1016 38 3000 3.1 80 09:39 07.12.2019
6646 Haze 25 1016 38 3000 3.1 80 09:21 07.12.2019
6647 Haze 25 1017 38 3000 2.6 60 08:45 07.12.2019
6648 Haze 24 1017 44 3000 2.1 70 08:24 07.12.2019
6649 Haze 24 1018 41 3000 2.1 100 07:52 07.12.2019
6650 Haze 24 1019 44 3000 2.1 70 07:29 07.12.2019
6651 Haze 23 1019 43 3000 1.5 100 06:53 07.12.2019
6652 Haze 22 1020 49 3000 1.5 70 06:26 07.12.2019
6653 Haze 21 1020 52 3000 1.5 40 05:47 07.12.2019
6654 Mist 19 1020 59 2500 1.5 20 04:44 07.12.2019
6655 Mist 17 1019 72 2000 1 20 03:50 07.12.2019
6656 Mist 12 1018 87 2000 1 30 02:23 07.12.2019
6657 Haze 16 1017 72 2500 1 360 01:42 07.12.2019
6658 Haze 16 1017 72 2500 1 360 01:24 07.12.2019
6659 Haze 15 1017 77 2500 1 360 00:22 07.12.2019
6660 Haze 15 1017 77 2500 1 360 23:59 06.12.2019
6661 Haze 16 1017 72 2500 1 360 23:40 06.12.2019
6662 Haze 16 1017 72 2500 1 360 23:20 06.12.2019
6663 Haze 15 1017 77 2500 1 360 22:39 06.12.2019
6664 Haze 15 1017 77 2500 1 360 22:21 06.12.2019
6665 Haze 15 1017 77 2500 2.25 30 21:59 06.12.2019
6666 Haze 15 1017 82 2500 2.25 30 21:41 06.12.2019
6667 Haze 15 1017 82 2500 2.25 30 21:20 06.12.2019
6668 Haze 15 1018 77 2500 1 360 20:56 06.12.2019
6669 Haze 16 1018 72 2500 2.25 30 20:38 06.12.2019
6670 Haze 16 1018 72 2500 1.97 45 20:19 06.12.2019
6671 Haze 16 1018 77 3000 1.97 45 19:41 06.12.2019
6672 Haze 16 1018 77 3000 1.97 45 19:22 06.12.2019
6673 Haze 17 1018 67 3000 1.97 45 18:59 06.12.2019
6674 Haze 16 1018 72 3000 1.97 45 18:40 06.12.2019
6675 Haze 16 1018 72 3000 1.97 45 18:21 06.12.2019
6676 Haze 17 1018 67 3000 1 70 17:58 06.12.2019
6677 Haze 17 1019 67 3000 1 90 17:40 06.12.2019
6678 Haze 17 1019 67 3000 1 90 17:21 06.12.2019
6679 Haze 17 1019 67 3000 1.24 71 16:56 06.12.2019
6680 Haze 18 1018 63 3000 1.24 71 16:37 06.12.2019
6681 Haze 18 1018 63 3000 1.24 71 16:18 06.12.2019
6682 Haze 20 1018 52 3000 1 90 15:41 06.12.2019
6683 Haze 20 1018 52 3000 1 90 15:41 06.12.2019
6684 Haze 20 1018 52 3000 1 90 15:22 06.12.2019
6685 Haze 19 1018 59 3000 1.24 71 14:57 06.12.2019
6686 Haze 21 1017 49 3000 1 50 14:39 06.12.2019
6687 Haze 21 1017 49 3000 1 50 14:19 06.12.2019
6688 Haze 22 1017 46 3000 1 60 13:45 06.12.2019
6689 Haze 22 1017 46 3000 1 60 13:45 06.12.2019
6690 Haze 23 1017 43 3000 1.5 60 13:26 06.12.2019
6691 Haze 24 1017 41 3500 1.5 70 12:56 06.12.2019
6692 Haze 25 1016 38 3500 1.5 60 12:38 06.12.2019
6693 Haze 25 1016 38 3500 1.5 60 12:20 06.12.2019
6694 Haze 26 1016 36 3500 2.1 80 11:42 06.12.2019
6695 Haze 26 1016 36 3500 2.1 80 11:23 06.12.2019
6696 Haze 26 1017 34 3500 1 10 10:55 06.12.2019
6697 Haze 26 1017 34 3500 1 10 10:37 06.12.2019
6698 Haze 26 1017 34 3500 1 10 10:18 06.12.2019
6699 Haze 26 1017 34 3500 1 80 09:55 06.12.2019
6700 Haze 26 1018 39 3500 1 50 09:36 06.12.2019
6701 Haze 26 1018 39 3500 1 50 09:18 06.12.2019
6702 Haze 24 1019 44 3500 2.6 90 08:40 06.12.2019
6703 Haze 24 1019 44 3500 2.6 90 08:21 06.12.2019
6704 Haze 24 1020 41 3500 1.5 80 07:38 06.12.2019
6705 Haze 24 1020 41 3500 1.5 80 07:20 06.12.2019
6706 Haze 23 1020 43 3500 2.6 90 06:48 06.12.2019
6707 Haze 22 1021 46 3500 2.6 80 06:24 06.12.2019
6708 Haze 21 1021 46 3500 2.1 80 05:46 06.12.2019
6709 Haze 14 1020 67 3000 1.5 10 02:20 06.12.2019
6710 Haze 13 1019 71 3000 1 340 01:43 06.12.2019
6711 Haze 13 1018 71 3000 1 20 00:49 06.12.2019
6712 Haze 13 1018 76 3000 3.26 13 00:22 06.12.2019
6713 Haze 14 1018 67 3000 1 30 23:51 05.12.2019
6714 Haze 14 1018 67 3000 1 30 23:51 05.12.2019
6715 Haze 12 1018 76 3000 1 10 23:20 05.12.2019
6716 Haze 14 1018 67 3000 1 10 22:58 05.12.2019
6717 Haze 15 1018 58 3000 2.96 24 22:38 05.12.2019
6718 Haze 15 1018 58 3000 2.96 24 22:19 05.12.2019
6719 Haze 15 1018 58 3000 1 330 21:55 05.12.2019
6720 Haze 15 1019 58 3000 1 330 21:37 05.12.2019
6721 Haze 15 1019 58 3000 1 330 21:19 05.12.2019
6722 Haze 15 1019 62 3000 2.96 24 20:55 05.12.2019
6723 Haze 15 1019 62 3000 2.96 24 20:36 05.12.2019
6724 Haze 15 1019 67 3000 3.4 15 20:18 05.12.2019
6725 Haze 15 1019 67 3000 3.4 15 20:18 05.12.2019
6726 Haze 15 1019 67 3000 3.4 15 19:40 05.12.2019
6727 Haze 17 1019 55 3000 1.5 10 19:21 05.12.2019
6728 Haze 18 1019 52 3000 1.5 20 18:58 05.12.2019
6729 Haze 19 1019 48 3000 2.6 30 18:38 05.12.2019
6730 Haze 19 1019 48 3000 2.6 30 18:38 05.12.2019
6731 Haze 19 1019 48 3000 2.6 30 18:38 05.12.2019
6732 Haze 19 1019 48 3000 2.6 30 18:20 05.12.2019
6733 Haze 20 1019 45 3000 2.6 20 17:40 05.12.2019
6734 Haze 19 1019 45 3000 1 40 17:20 05.12.2019
6735 Haze 20 1019 42 3000 1 60 16:58 05.12.2019
6736 Haze 21 1019 40 3000 1 30 16:40 05.12.2019
6737 Haze 21 1019 40 3000 1 30 16:21 05.12.2019
6738 Haze 21 1019 40 3000 1.5 50 15:58 05.12.2019
6739 Haze 21 1019 40 3000 1.5 50 15:58 05.12.2019
6740 Haze 21 1018 40 3000 1.5 70 15:39 05.12.2019
6741 Haze 21 1018 40 3000 1.5 70 15:20 05.12.2019
6742 Haze 21 1018 40 3000 1 60 14:56 05.12.2019
6743 Haze 21 1018 40 3000 1 60 14:56 05.12.2019
6744 Haze 21 1018 37 3000 1 60 14:38 05.12.2019
6745 Haze 21 1018 37 3000 1 60 14:19 05.12.2019
6746 Haze 22 1017 33 3500 1 80 13:57 05.12.2019
6747 Haze 24 1017 29 3500 1.5 60 13:39 05.12.2019
6748 Haze 24 1017 29 3500 1.5 60 13:20 05.12.2019
6749 Haze 25 1017 27 3500 1 20 12:57 05.12.2019
6750 Haze 26 1017 27 3500 1 40 12:38 05.12.2019
6751 Haze 26 1017 27 3500 1 40 12:20 05.12.2019
6752 Haze 26 1017 29 3500 1.5 30 11:40 05.12.2019
6753 Haze 26 1017 29 3500 1.5 30 11:22 05.12.2019
6754 Haze 26 1017 26 3500 1.5 10 10:58 05.12.2019
6755 Haze 26 1017 26 3500 1.5 10 10:40 05.12.2019
6756 Haze 26 1016 31 3500 2.6 10 10:19 05.12.2019
6757 Haze 26 1016 31 3500 2.6 350 09:55 05.12.2019
6758 Haze 26 1017 29 3500 2.6 60 09:37 05.12.2019
6759 Haze 26 1017 29 3500 2.6 60 09:18 05.12.2019
6760 Haze 26 1017 29 3500 1.5 30 08:39 05.12.2019
6761 Haze 25 1018 31 3500 2.1 60 08:20 05.12.2019
6762 Haze 25 1019 31 3500 1 30 07:59 05.12.2019
6763 Haze 25 1019 31 3500 1 30 07:39 05.12.2019
6764 Haze 24 1020 36 3500 1.5 60 07:20 05.12.2019
6765 Haze 24 1021 36 3000 2.6 50 06:46 05.12.2019
6766 Haze 24 1021 38 3000 2.1 100 06:23 05.12.2019
6767 Haze 23 1022 38 3000 1.5 50 05:49 05.12.2019
6768 Haze 22 1022 43 3000 2.1 50 05:24 05.12.2019
6769 Haze 19 1021 59 3000 1 60 04:27 05.12.2019
6770 Haze 17 1021 63 3000 1 30 03:31 05.12.2019
6771 Haze 17 1021 63 3000 1 30 03:31 05.12.2019
6772 Haze 17 1020 63 3000 1 30 02:40 05.12.2019
6773 Haze 17 1020 63 3000 2.1 10 02:21 05.12.2019
6774 Haze 17 1019 63 3000 1.5 10 01:49 05.12.2019
6775 Haze 17 1019 67 3000 1.5 360 01:21 05.12.2019
6776 Haze 18 1019 59 3000 1.5 360 00:38 05.12.2019
6777 Haze 18 1019 59 3000 1.5 360 00:19 05.12.2019
6778 Haze 17 1019 63 3000 1.5 20 23:45 04.12.2019
6779 Haze 18 1019 63 3000 1 10 23:22 04.12.2019
6780 Haze 18 1019 63 3000 1 10 23:22 04.12.2019
6781 Haze 18 1019 59 3000 1.5 10 22:57 04.12.2019
6782 Haze 18 1019 63 3000 2.84 18 22:37 04.12.2019
6783 Haze 18 1019 63 3000 2.84 18 22:19 04.12.2019
6784 Haze 19 1019 52 3000 1 40 21:55 04.12.2019
6785 Haze 19 1019 52 3000 1 50 21:37 04.12.2019
6786 Haze 19 1019 52 3000 1 50 21:18 04.12.2019
6787 Haze 19 1019 52 3000 1 50 21:18 04.12.2019
6788 Haze 19 1019 52 3000 1.5 50 20:56 04.12.2019
6789 Haze 20 1019 52 3000 1.5 40 20:38 04.12.2019
6790 Haze 20 1019 52 3000 1.5 40 20:19 04.12.2019
6791 Haze 20 1019 52 3000 1.5 30 19:40 04.12.2019
6792 Haze 20 1020 56 3000 1.5 20 19:22 04.12.2019
6793 Mist 21 1020 56 2500 1.5 20 18:59 04.12.2019
6794 Mist 21